<?xml version='1.0' encoding='UTF-8'?><gpx version="1.1" creator="JPX - https://github.com/jenetics/jpx" xmlns="http://www.topografix.com/GPX/1/1"><trk><trkseg><trkpt lat="43.4222452" lon="11.1826443"><ele>173.0</ele><time>2026-04-11T13:17:17.485Z</time></trkpt><trkpt lat="43.4223276" lon="11.1826422"><ele>173.0</ele><time>2026-04-11T13:17:21.477Z</time></trkpt><trkpt lat="43.4224047" lon="11.1825748"><ele>173.0</ele><time>2026-04-11T13:17:24.465Z</time></trkpt><trkpt lat="43.4224676" lon="11.1825252"><ele>173.0</ele><time>2026-04-11T13:17:26.488Z</time></trkpt><trkpt lat="43.4225297" lon="11.1824661"><ele>173.0</ele><time>2026-04-11T13:17:28.47Z</time></trkpt><trkpt lat="43.4226102" lon="11.182417"><ele>173.0</ele><time>2026-04-11T13:17:30.451Z</time></trkpt><trkpt lat="43.4226781" lon="11.1823784"><ele>173.0</ele><time>2026-04-11T13:17:32.46Z</time></trkpt><trkpt lat="43.4227598" lon="11.182336"><ele>173.0</ele><time>2026-04-11T13:17:35.477Z</time></trkpt><trkpt lat="43.4228553" lon="11.1823608"><ele>173.0</ele><time>2026-04-11T13:17:38.452Z</time></trkpt><trkpt lat="43.4229462" lon="11.1823894"><ele>173.0</ele><time>2026-04-11T13:17:40.46Z</time></trkpt><trkpt lat="43.4230389" lon="11.1823956"><ele>173.0</ele><time>2026-04-11T13:17:42.451Z</time></trkpt><trkpt lat="43.4231371" lon="11.18237"><ele>172.2</ele><time>2026-04-11T13:17:44.462Z</time></trkpt><trkpt lat="43.4232341" lon="11.182338"><ele>171.4</ele><time>2026-04-11T13:17:46.461Z</time></trkpt><trkpt lat="43.4233176" lon="11.182307"><ele>170.6</ele><time>2026-04-11T13:17:48.459Z</time></trkpt><trkpt lat="43.4234012" lon="11.1822709"><ele>169.79999999999998</ele><time>2026-04-11T13:17:50.455Z</time></trkpt><trkpt lat="43.4234898" lon="11.1822475"><ele>169.0</ele><time>2026-04-11T13:17:52.458Z</time></trkpt><trkpt lat="43.4235795" lon="11.1822332"><ele>169.0</ele><time>2026-04-11T13:17:54.471Z</time></trkpt><trkpt lat="43.423677" lon="11.1822241"><ele>169.0</ele><time>2026-04-11T13:17:56.467Z</time></trkpt><trkpt lat="43.423781" lon="11.1822267"><ele>169.0</ele><time>2026-04-11T13:17:58.454Z</time></trkpt><trkpt lat="43.4238913" lon="11.1822395"><ele>169.0</ele><time>2026-04-11T13:18:00.452Z</time></trkpt><trkpt lat="43.4240064" lon="11.1822591"><ele>169.0</ele><time>2026-04-11T13:18:02.449Z</time></trkpt><trkpt lat="43.4241006" lon="11.1822882"><ele>168.2</ele><time>2026-04-11T13:18:04.49Z</time></trkpt><trkpt lat="43.4241975" lon="11.1823231"><ele>167.39999999999998</ele><time>2026-04-11T13:18:06.475Z</time></trkpt><trkpt lat="43.4242935" lon="11.1823637"><ele>166.6</ele><time>2026-04-11T13:18:08.466Z</time></trkpt><trkpt lat="43.4243931" lon="11.1823996"><ele>165.8</ele><time>2026-04-11T13:18:10.468Z</time></trkpt><trkpt lat="43.4244928" lon="11.1824485"><ele>165.0</ele><time>2026-04-11T13:18:12.465Z</time></trkpt><trkpt lat="43.4245832" lon="11.1825118"><ele>164.0</ele><time>2026-04-11T13:18:14.459Z</time></trkpt><trkpt lat="43.4246605" lon="11.1826399"><ele>163.0</ele><time>2026-04-11T13:18:16.465Z</time></trkpt><trkpt lat="43.4246931" lon="11.182723"><ele>162.0</ele><time>2026-04-11T13:18:17.477Z</time></trkpt><trkpt lat="43.4247581" lon="11.1828649"><ele>161.0</ele><time>2026-04-11T13:18:19.493Z</time></trkpt><trkpt lat="43.424836" lon="11.1829739"><ele>160.0</ele><time>2026-04-11T13:18:21.451Z</time></trkpt><trkpt lat="43.4248859" lon="11.183039"><ele>160.0</ele><time>2026-04-11T13:18:22.46Z</time></trkpt><trkpt lat="43.4249358" lon="11.1831167"><ele>160.0</ele><time>2026-04-11T13:18:23.455Z</time></trkpt><trkpt lat="43.4249911" lon="11.1831925"><ele>160.0</ele><time>2026-04-11T13:18:24.472Z</time></trkpt><trkpt lat="43.4250455" lon="11.1832653"><ele>160.0</ele><time>2026-04-11T13:18:25.455Z</time></trkpt><trkpt lat="43.4251061" lon="11.1833247"><ele>160.0</ele><time>2026-04-11T13:18:26.462Z</time></trkpt><trkpt lat="43.4251735" lon="11.1833568"><ele>160.0</ele><time>2026-04-11T13:18:27.462Z</time></trkpt><trkpt lat="43.4252409" lon="11.1833497"><ele>160.0</ele><time>2026-04-11T13:18:28.457Z</time></trkpt><trkpt lat="43.4253004" lon="11.1832994"><ele>160.0</ele><time>2026-04-11T13:18:29.46Z</time></trkpt><trkpt lat="43.4253554" lon="11.1832219"><ele>160.0</ele><time>2026-04-11T13:18:30.459Z</time></trkpt><trkpt lat="43.4254001" lon="11.1831245"><ele>160.0</ele><time>2026-04-11T13:18:31.444Z</time></trkpt><trkpt lat="43.4254471" lon="11.1830202"><ele>160.0</ele><time>2026-04-11T13:18:32.468Z</time></trkpt><trkpt lat="43.4254946" lon="11.18291"><ele>160.0</ele><time>2026-04-11T13:18:33.455Z</time></trkpt><trkpt lat="43.4255446" lon="11.1827982"><ele>160.0</ele><time>2026-04-11T13:18:34.461Z</time></trkpt><trkpt lat="43.4255965" lon="11.1826838"><ele>157.0</ele><time>2026-04-11T13:18:35.459Z</time></trkpt><trkpt lat="43.4256495" lon="11.1825728"><ele>154.0</ele><time>2026-04-11T13:18:36.45Z</time></trkpt><trkpt lat="43.4256964" lon="11.1824585"><ele>151.0</ele><time>2026-04-11T13:18:37.446Z</time></trkpt><trkpt lat="43.4257437" lon="11.1823406"><ele>148.0</ele><time>2026-04-11T13:18:38.457Z</time></trkpt><trkpt lat="43.425798" lon="11.1822327"><ele>145.0</ele><time>2026-04-11T13:18:39.463Z</time></trkpt><trkpt lat="43.4258629" lon="11.1821464"><ele>145.0</ele><time>2026-04-11T13:18:40.454Z</time></trkpt><trkpt lat="43.4259421" lon="11.1821025"><ele>145.0</ele><time>2026-04-11T13:18:41.468Z</time></trkpt><trkpt lat="43.4260219" lon="11.1821013"><ele>145.0</ele><time>2026-04-11T13:18:42.455Z</time></trkpt><trkpt lat="43.426099" lon="11.1821069"><ele>145.0</ele><time>2026-04-11T13:18:43.462Z</time></trkpt><trkpt lat="43.4261719" lon="11.1821169"><ele>145.0</ele><time>2026-04-11T13:18:44.462Z</time></trkpt><trkpt lat="43.4262449" lon="11.1821222"><ele>145.0</ele><time>2026-04-11T13:18:45.48Z</time></trkpt><trkpt lat="43.4263143" lon="11.1821252"><ele>144.6</ele><time>2026-04-11T13:18:46.45Z</time></trkpt><trkpt lat="43.4263803" lon="11.1821271"><ele>144.2</ele><time>2026-04-11T13:18:47.469Z</time></trkpt><trkpt lat="43.4264983" lon="11.1821153"><ele>143.8</ele><time>2026-04-11T13:18:49.452Z</time></trkpt><trkpt lat="43.4265992" lon="11.1820841"><ele>143.4</ele><time>2026-04-11T13:18:51.465Z</time></trkpt><trkpt lat="43.4266837" lon="11.182059"><ele>143.0</ele><time>2026-04-11T13:18:53.46Z</time></trkpt><trkpt lat="43.4267607" lon="11.1820359"><ele>143.0</ele><time>2026-04-11T13:18:55.459Z</time></trkpt><trkpt lat="43.4268248" lon="11.1820047"><ele>143.0</ele><time>2026-04-11T13:18:57.449Z</time></trkpt><trkpt lat="43.4269051" lon="11.1819638"><ele>143.0</ele><time>2026-04-11T13:19:00.477Z</time></trkpt><trkpt lat="43.4269844" lon="11.1819471"><ele>143.0</ele><time>2026-04-11T13:19:03.468Z</time></trkpt><trkpt lat="43.427061" lon="11.1819351"><ele>143.0</ele><time>2026-04-11T13:19:06.458Z</time></trkpt><trkpt lat="43.4271381" lon="11.1819016"><ele>143.0</ele><time>2026-04-11T13:19:09.453Z</time></trkpt><trkpt lat="43.4272174" lon="11.181862"><ele>143.83333333333331</ele><time>2026-04-11T13:19:12.451Z</time></trkpt><trkpt lat="43.4272989" lon="11.1818142"><ele>144.66666666666666</ele><time>2026-04-11T13:19:15.458Z</time></trkpt><trkpt lat="43.4273597" lon="11.1817623"><ele>145.5</ele><time>2026-04-11T13:19:17.46Z</time></trkpt><trkpt lat="43.4274306" lon="11.1817062"><ele>146.33333333333334</ele><time>2026-04-11T13:19:19.457Z</time></trkpt><trkpt lat="43.4275113" lon="11.1816689"><ele>147.16666666666669</ele><time>2026-04-11T13:19:21.484Z</time></trkpt><trkpt lat="43.4276035" lon="11.1816665"><ele>148.0</ele><time>2026-04-11T13:19:23.473Z</time></trkpt><trkpt lat="43.4276915" lon="11.1816839"><ele>148.0</ele><time>2026-04-11T13:19:25.471Z</time></trkpt><trkpt lat="43.4277702" lon="11.1817283"><ele>148.0</ele><time>2026-04-11T13:19:27.462Z</time></trkpt><trkpt lat="43.4278452" lon="11.1817595"><ele>148.0</ele><time>2026-04-11T13:19:30.46Z</time></trkpt><trkpt lat="43.427919" lon="11.1817703"><ele>148.0</ele><time>2026-04-11T13:19:34.459Z</time></trkpt><trkpt lat="43.4279934" lon="11.1817654"><ele>148.0</ele><time>2026-04-11T13:19:38.45Z</time></trkpt><trkpt lat="43.4280608" lon="11.1817415"><ele>148.0</ele><time>2026-04-11T13:19:42.467Z</time></trkpt><trkpt lat="43.4281108" lon="11.181658"><ele>148.57142857142858</ele><time>2026-04-11T13:19:46.446Z</time></trkpt><trkpt lat="43.4281504" lon="11.1815866"><ele>149.14285714285714</ele><time>2026-04-11T13:19:49.473Z</time></trkpt><trkpt lat="43.4281953" lon="11.1814892"><ele>149.71428571428572</ele><time>2026-04-11T13:19:53.468Z</time></trkpt><trkpt lat="43.4282297" lon="11.181409"><ele>150.28571428571428</ele><time>2026-04-11T13:19:56.474Z</time></trkpt><trkpt lat="43.4282729" lon="11.1813104"><ele>150.85714285714286</ele><time>2026-04-11T13:20:00.455Z</time></trkpt><trkpt lat="43.4283098" lon="11.1812291"><ele>151.42857142857142</ele><time>2026-04-11T13:20:03.538Z</time></trkpt><trkpt lat="43.428358" lon="11.1811419"><ele>152.0</ele><time>2026-04-11T13:20:07.449Z</time></trkpt><trkpt lat="43.4284029" lon="11.1810501"><ele>152.0</ele><time>2026-04-11T13:20:11.478Z</time></trkpt><trkpt lat="43.4284449" lon="11.1809806"><ele>152.0</ele><time>2026-04-11T13:20:14.473Z</time></trkpt><trkpt lat="43.4284838" lon="11.1809109"><ele>152.0</ele><time>2026-04-11T13:20:17.541Z</time></trkpt><trkpt lat="43.42849" lon="11.1808071"><ele>152.0</ele><time>2026-04-11T13:20:22.466Z</time></trkpt><trkpt lat="43.4285738" lon="11.1807116"><ele>152.0</ele><time>2026-04-11T13:20:25.459Z</time></trkpt><trkpt lat="43.4286345" lon="11.1806523"><ele>152.0</ele><time>2026-04-11T13:20:28.461Z</time></trkpt><trkpt lat="43.4287042" lon="11.1806054"><ele>151.57142857142856</ele><time>2026-04-11T13:20:33.455Z</time></trkpt><trkpt lat="43.428768" lon="11.180606"><ele>151.14285714285717</ele><time>2026-04-11T13:20:38.506Z</time></trkpt><trkpt lat="43.4288389" lon="11.1806129"><ele>150.71428571428572</ele><time>2026-04-11T13:20:42.467Z</time></trkpt><trkpt lat="43.428898" lon="11.180644"><ele>150.28571428571428</ele><time>2026-04-11T13:20:45.465Z</time></trkpt><trkpt lat="43.4289474" lon="11.1807061"><ele>149.85714285714283</ele><time>2026-04-11T13:20:48.478Z</time></trkpt><trkpt lat="43.4289849" lon="11.1807834"><ele>149.42857142857142</ele><time>2026-04-11T13:20:51.482Z</time></trkpt><trkpt lat="43.4290295" lon="11.1808607"><ele>149.0</ele><time>2026-04-11T13:20:54.464Z</time></trkpt><trkpt lat="43.4290816" lon="11.1809412"><ele>150.42857142857142</ele><time>2026-04-11T13:20:57.467Z</time></trkpt><trkpt lat="43.4291356" lon="11.1810292"><ele>151.85714285714283</ele><time>2026-04-11T13:21:00.464Z</time></trkpt><trkpt lat="43.4292033" lon="11.1810862"><ele>153.28571428571428</ele><time>2026-04-11T13:21:03.532Z</time></trkpt><trkpt lat="43.4292754" lon="11.1811306"><ele>154.71428571428572</ele><time>2026-04-11T13:21:06.47Z</time></trkpt><trkpt lat="43.4293434" lon="11.1811508"><ele>156.14285714285717</ele><time>2026-04-11T13:21:09.535Z</time></trkpt><trkpt lat="43.4294127" lon="11.181132"><ele>157.57142857142856</ele><time>2026-04-11T13:21:12.467Z</time></trkpt><trkpt lat="43.4294729" lon="11.1810937"><ele>159.0</ele><time>2026-04-11T13:21:17.466Z</time></trkpt><trkpt lat="43.429558" lon="11.1810848"><ele>159.0</ele><time>2026-04-11T13:21:20.463Z</time></trkpt><trkpt lat="43.4296397" lon="11.1810628"><ele>159.0</ele><time>2026-04-11T13:21:23.475Z</time></trkpt><trkpt lat="43.4297223" lon="11.181038"><ele>159.0</ele><time>2026-04-11T13:21:26.472Z</time></trkpt><trkpt lat="43.4298001" lon="11.1810015"><ele>159.0</ele><time>2026-04-11T13:21:29.472Z</time></trkpt><trkpt lat="43.4298746" lon="11.180966"><ele>159.0</ele><time>2026-04-11T13:21:32.481Z</time></trkpt><trkpt lat="43.4299394" lon="11.1809233"><ele>159.0</ele><time>2026-04-11T13:21:35.468Z</time></trkpt><trkpt lat="43.4300127" lon="11.180892"><ele>159.57142857142856</ele><time>2026-04-11T13:21:38.475Z</time></trkpt><trkpt lat="43.4300869" lon="11.180874"><ele>160.14285714285717</ele><time>2026-04-11T13:21:41.467Z</time></trkpt><trkpt lat="43.4301634" lon="11.1808701"><ele>160.71428571428572</ele><time>2026-04-11T13:21:44.464Z</time></trkpt><trkpt lat="43.4302317" lon="11.1808983"><ele>161.28571428571428</ele><time>2026-04-11T13:21:47.54Z</time></trkpt><trkpt lat="43.4302863" lon="11.1809716"><ele>161.85714285714283</ele><time>2026-04-11T13:21:50.468Z</time></trkpt><trkpt lat="43.4303405" lon="11.1810374"><ele>162.42857142857144</ele><time>2026-04-11T13:21:53.538Z</time></trkpt><trkpt lat="43.4304094" lon="11.1810455"><ele>163.0</ele><time>2026-04-11T13:21:55.465Z</time></trkpt><trkpt lat="43.4304592" lon="11.181111"><ele>163.0</ele><time>2026-04-11T13:21:57.527Z</time></trkpt><trkpt lat="43.4305223" lon="11.1811757"><ele>163.0</ele><time>2026-04-11T13:22:00.471Z</time></trkpt><trkpt lat="43.4305732" lon="11.1812607"><ele>163.0</ele><time>2026-04-11T13:22:03.445Z</time></trkpt><trkpt lat="43.4306278" lon="11.1813221"><ele>163.0</ele><time>2026-04-11T13:22:05.468Z</time></trkpt><trkpt lat="43.4306825" lon="11.1813857"><ele>163.0</ele><time>2026-04-11T13:22:07.484Z</time></trkpt><trkpt lat="43.4307479" lon="11.1814633"><ele>163.0</ele><time>2026-04-11T13:22:09.476Z</time></trkpt><trkpt lat="43.430819" lon="11.181529"><ele>163.83333333333334</ele><time>2026-04-11T13:22:11.479Z</time></trkpt><trkpt lat="43.4308829" lon="11.1816289"><ele>164.66666666666669</ele><time>2026-04-11T13:22:13.467Z</time></trkpt><trkpt lat="43.4309358" lon="11.1817793"><ele>165.5</ele><time>2026-04-11T13:22:15.476Z</time></trkpt><trkpt lat="43.4309587" lon="11.1818604"><ele>166.33333333333334</ele><time>2026-04-11T13:22:16.477Z</time></trkpt><trkpt lat="43.4309781" lon="11.1819485"><ele>167.16666666666666</ele><time>2026-04-11T13:22:17.471Z</time></trkpt><trkpt lat="43.4309955" lon="11.1820451"><ele>168.0</ele><time>2026-04-11T13:22:18.456Z</time></trkpt><trkpt lat="43.4310091" lon="11.1821561"><ele>168.0</ele><time>2026-04-11T13:22:19.464Z</time></trkpt><trkpt lat="43.4310124" lon="11.1822821"><ele>168.0</ele><time>2026-04-11T13:22:20.479Z</time></trkpt><trkpt lat="43.4310152" lon="11.1824171"><ele>168.0</ele><time>2026-04-11T13:22:21.476Z</time></trkpt><trkpt lat="43.4310314" lon="11.1825607"><ele>168.0</ele><time>2026-04-11T13:22:22.466Z</time></trkpt><trkpt lat="43.4310474" lon="11.1826988"><ele>168.0</ele><time>2026-04-11T13:22:23.474Z</time></trkpt><trkpt lat="43.4310691" lon="11.1828331"><ele>168.16666666666666</ele><time>2026-04-11T13:22:24.48Z</time></trkpt><trkpt lat="43.4310883" lon="11.1829638"><ele>168.33333333333334</ele><time>2026-04-11T13:22:25.484Z</time></trkpt><trkpt lat="43.4311087" lon="11.1830843"><ele>168.5</ele><time>2026-04-11T13:22:26.468Z</time></trkpt><trkpt lat="43.4311301" lon="11.1831992"><ele>168.66666666666669</ele><time>2026-04-11T13:22:27.471Z</time></trkpt><trkpt lat="43.4311517" lon="11.1833093"><ele>168.83333333333334</ele><time>2026-04-11T13:22:28.486Z</time></trkpt><trkpt lat="43.4311829" lon="11.1834127"><ele>169.0</ele><time>2026-04-11T13:22:29.476Z</time></trkpt><trkpt lat="43.431228" lon="11.1835088"><ele>168.0</ele><time>2026-04-11T13:22:30.467Z</time></trkpt><trkpt lat="43.4312802" lon="11.183594"><ele>167.0</ele><time>2026-04-11T13:22:31.465Z</time></trkpt><trkpt lat="43.4313413" lon="11.1836593"><ele>166.0</ele><time>2026-04-11T13:22:32.466Z</time></trkpt><trkpt lat="43.431411" lon="11.1837027"><ele>165.0</ele><time>2026-04-11T13:22:33.481Z</time></trkpt><trkpt lat="43.431481" lon="11.1837267"><ele>164.0</ele><time>2026-04-11T13:22:34.472Z</time></trkpt><trkpt lat="43.4315506" lon="11.183743"><ele>163.0</ele><time>2026-04-11T13:22:35.461Z</time></trkpt><trkpt lat="43.4316141" lon="11.1837559"><ele>162.0</ele><time>2026-04-11T13:22:36.477Z</time></trkpt><trkpt lat="43.4317127" lon="11.1837762"><ele>161.57142857142858</ele><time>2026-04-11T13:22:38.543Z</time></trkpt><trkpt lat="43.431782" lon="11.1837885"><ele>161.14285714285714</ele><time>2026-04-11T13:22:40.471Z</time></trkpt><trkpt lat="43.431861" lon="11.1838042"><ele>160.71428571428572</ele><time>2026-04-11T13:22:43.475Z</time></trkpt><trkpt lat="43.4319348" lon="11.1838131"><ele>160.28571428571428</ele><time>2026-04-11T13:22:46.474Z</time></trkpt><trkpt lat="43.4320091" lon="11.1838302"><ele>159.85714285714286</ele><time>2026-04-11T13:22:49.465Z</time></trkpt><trkpt lat="43.4320811" lon="11.1838547"><ele>159.42857142857142</ele><time>2026-04-11T13:22:52.476Z</time></trkpt><trkpt lat="43.432155" lon="11.1838649"><ele>159.0</ele><time>2026-04-11T13:22:55.475Z</time></trkpt><trkpt lat="43.4322288" lon="11.1838833"><ele>159.0</ele><time>2026-04-11T13:22:58.481Z</time></trkpt><trkpt lat="43.4323063" lon="11.1839133"><ele>159.0</ele><time>2026-04-11T13:23:01.473Z</time></trkpt><trkpt lat="43.4323782" lon="11.1839379"><ele>159.0</ele><time>2026-04-11T13:23:04.519Z</time></trkpt><trkpt lat="43.4324546" lon="11.1839648"><ele>159.0</ele><time>2026-04-11T13:23:07.474Z</time></trkpt><trkpt lat="43.4325286" lon="11.18401"><ele>159.0</ele><time>2026-04-11T13:23:10.481Z</time></trkpt><trkpt lat="43.4326026" lon="11.1840505"><ele>159.0</ele><time>2026-04-11T13:23:13.468Z</time></trkpt><trkpt lat="43.4326836" lon="11.1840926"><ele>160.14285714285714</ele><time>2026-04-11T13:23:16.468Z</time></trkpt><trkpt lat="43.4327627" lon="11.1841278"><ele>161.2857142857143</ele><time>2026-04-11T13:23:19.471Z</time></trkpt><trkpt lat="43.4328433" lon="11.1841612"><ele>162.42857142857144</ele><time>2026-04-11T13:23:22.47Z</time></trkpt><trkpt lat="43.4329305" lon="11.1841938"><ele>163.57142857142856</ele><time>2026-04-11T13:23:25.473Z</time></trkpt><trkpt lat="43.4329917" lon="11.1842192"><ele>164.71428571428572</ele><time>2026-04-11T13:23:27.474Z</time></trkpt><trkpt lat="43.4330535" lon="11.1842406"><ele>165.85714285714286</ele><time>2026-04-11T13:23:29.485Z</time></trkpt><trkpt lat="43.4331146" lon="11.1842627"><ele>167.0</ele><time>2026-04-11T13:23:31.468Z</time></trkpt><trkpt lat="43.4332058" lon="11.1842871"><ele>167.0</ele><time>2026-04-11T13:23:34.466Z</time></trkpt><trkpt lat="43.4332878" lon="11.1843295"><ele>167.0</ele><time>2026-04-11T13:23:37.476Z</time></trkpt><trkpt lat="43.4333498" lon="11.1843553"><ele>167.0</ele><time>2026-04-11T13:23:39.469Z</time></trkpt><trkpt lat="43.4334101" lon="11.1843837"><ele>167.0</ele><time>2026-04-11T13:23:41.48Z</time></trkpt><trkpt lat="43.4334741" lon="11.1844078"><ele>167.0</ele><time>2026-04-11T13:23:43.463Z</time></trkpt><trkpt lat="43.4335367" lon="11.1844379"><ele>167.0</ele><time>2026-04-11T13:23:45.47Z</time></trkpt><trkpt lat="43.4336246" lon="11.1844757"><ele>167.0</ele><time>2026-04-11T13:23:48.473Z</time></trkpt><trkpt lat="43.4336841" lon="11.1845083"><ele>167.0</ele><time>2026-04-11T13:23:50.475Z</time></trkpt><trkpt lat="43.4337716" lon="11.1845435"><ele>167.0</ele><time>2026-04-11T13:23:53.463Z</time></trkpt><trkpt lat="43.4338543" lon="11.184567"><ele>167.0</ele><time>2026-04-11T13:23:56.455Z</time></trkpt><trkpt lat="43.4339322" lon="11.1846022"><ele>167.0</ele><time>2026-04-11T13:23:59.473Z</time></trkpt><trkpt lat="43.4340041" lon="11.184634"><ele>167.0</ele><time>2026-04-11T13:24:02.48Z</time></trkpt><trkpt lat="43.4340755" lon="11.1846602"><ele>167.0</ele><time>2026-04-11T13:24:05.464Z</time></trkpt><trkpt lat="43.4341474" lon="11.1846816"><ele>167.28571428571428</ele><time>2026-04-11T13:24:08.461Z</time></trkpt><trkpt lat="43.4342095" lon="11.184705"><ele>167.57142857142858</ele><time>2026-04-11T13:24:11.465Z</time></trkpt><trkpt lat="43.434283" lon="11.1847472"><ele>167.85714285714286</ele><time>2026-04-11T13:24:15.475Z</time></trkpt><trkpt lat="43.434358" lon="11.1847715"><ele>168.14285714285714</ele><time>2026-04-11T13:24:19.473Z</time></trkpt><trkpt lat="43.4344202" lon="11.1847946"><ele>168.42857142857142</ele><time>2026-04-11T13:24:22.453Z</time></trkpt><trkpt lat="43.4344759" lon="11.1848351"><ele>168.71428571428572</ele><time>2026-04-11T13:24:25.468Z</time></trkpt><trkpt lat="43.4345382" lon="11.1848518"><ele>169.0</ele><time>2026-04-11T13:24:28.468Z</time></trkpt><trkpt lat="43.4346178" lon="11.1848786"><ele>171.16666666666669</ele><time>2026-04-11T13:24:32.465Z</time></trkpt><trkpt lat="43.4346851" lon="11.1848984"><ele>173.33333333333334</ele><time>2026-04-11T13:24:35.471Z</time></trkpt><trkpt lat="43.4347631" lon="11.184927"><ele>175.5</ele><time>2026-04-11T13:24:39.466Z</time></trkpt><trkpt lat="43.4348446" lon="11.1849407"><ele>177.66666666666666</ele><time>2026-04-11T13:24:43.475Z</time></trkpt><trkpt lat="43.4349253" lon="11.184958"><ele>179.83333333333331</ele><time>2026-04-11T13:24:47.484Z</time></trkpt><trkpt lat="43.4350001" lon="11.184964"><ele>182.0</ele><time>2026-04-11T13:24:52.473Z</time></trkpt><trkpt lat="43.4350704" lon="11.1849895"><ele>182.0</ele><time>2026-04-11T13:24:57.48Z</time></trkpt><trkpt lat="43.4351422" lon="11.1850043"><ele>182.0</ele><time>2026-04-11T13:25:01.471Z</time></trkpt><trkpt lat="43.4352215" lon="11.1850216"><ele>182.0</ele><time>2026-04-11T13:25:06.48Z</time></trkpt><trkpt lat="43.4352852" lon="11.1850263"><ele>182.0</ele><time>2026-04-11T13:25:09.46Z</time></trkpt><trkpt lat="43.4353513" lon="11.185035"><ele>182.0</ele><time>2026-04-11T13:25:12.487Z</time></trkpt><trkpt lat="43.4354219" lon="11.1850599"><ele>182.0</ele><time>2026-04-11T13:25:15.467Z</time></trkpt><trkpt lat="43.435498" lon="11.1850511"><ele>182.0</ele><time>2026-04-11T13:25:18.471Z</time></trkpt><trkpt lat="43.4355809" lon="11.185062"><ele>182.14285714285714</ele><time>2026-04-11T13:25:21.481Z</time></trkpt><trkpt lat="43.4356574" lon="11.1850894"><ele>182.28571428571428</ele><time>2026-04-11T13:25:24.481Z</time></trkpt><trkpt lat="43.4357304" lon="11.1851048"><ele>182.42857142857144</ele><time>2026-04-11T13:25:27.478Z</time></trkpt><trkpt lat="43.4357984" lon="11.1851209"><ele>182.57142857142856</ele><time>2026-04-11T13:25:30.476Z</time></trkpt><trkpt lat="43.4358714" lon="11.1851253"><ele>182.71428571428572</ele><time>2026-04-11T13:25:33.473Z</time></trkpt><trkpt lat="43.4359396" lon="11.1851438"><ele>182.85714285714286</ele><time>2026-04-11T13:25:36.466Z</time></trkpt><trkpt lat="43.4360055" lon="11.1851563"><ele>183.0</ele><time>2026-04-11T13:25:39.465Z</time></trkpt><trkpt lat="43.4360745" lon="11.185172"><ele>183.0</ele><time>2026-04-11T13:25:42.466Z</time></trkpt><trkpt lat="43.4361513" lon="11.1851934"><ele>183.0</ele><time>2026-04-11T13:25:46.484Z</time></trkpt><trkpt lat="43.4362175" lon="11.1852061"><ele>183.0</ele><time>2026-04-11T13:25:49.47Z</time></trkpt><trkpt lat="43.436286" lon="11.1852096"><ele>183.0</ele><time>2026-04-11T13:25:52.47Z</time></trkpt><trkpt lat="43.4363588" lon="11.1852295"><ele>183.0</ele><time>2026-04-11T13:25:55.473Z</time></trkpt><trkpt lat="43.4364315" lon="11.1852567"><ele>183.0</ele><time>2026-04-11T13:25:58.481Z</time></trkpt><trkpt lat="43.4365085" lon="11.1852808"><ele>183.0</ele><time>2026-04-11T13:26:01.482Z</time></trkpt><trkpt lat="43.4365825" lon="11.1853172"><ele>183.33333333333334</ele><time>2026-04-11T13:26:04.466Z</time></trkpt><trkpt lat="43.4366589" lon="11.1853555"><ele>183.66666666666666</ele><time>2026-04-11T13:26:07.46Z</time></trkpt><trkpt lat="43.4367359" lon="11.1853917"><ele>184.0</ele><time>2026-04-11T13:26:10.479Z</time></trkpt><trkpt lat="43.4368122" lon="11.1854153"><ele>184.33333333333331</ele><time>2026-04-11T13:26:13.464Z</time></trkpt><trkpt lat="43.4368907" lon="11.1854531"><ele>184.66666666666666</ele><time>2026-04-11T13:26:16.472Z</time></trkpt><trkpt lat="43.436956" lon="11.1854868"><ele>185.0</ele><time>2026-04-11T13:26:19.467Z</time></trkpt><trkpt lat="43.4370234" lon="11.1855194"><ele>184.99999999999997</ele><time>2026-04-11T13:26:22.469Z</time></trkpt><trkpt lat="43.4371043" lon="11.1855546"><ele>185.0</ele><time>2026-04-11T13:26:25.472Z</time></trkpt><trkpt lat="43.4371763" lon="11.1855905"><ele>185.0</ele><time>2026-04-11T13:26:28.47Z</time></trkpt><trkpt lat="43.4372499" lon="11.1856313"><ele>185.0</ele><time>2026-04-11T13:26:32.469Z</time></trkpt><trkpt lat="43.4373116" lon="11.1856603"><ele>185.0</ele><time>2026-04-11T13:26:35.469Z</time></trkpt><trkpt lat="43.4373781" lon="11.185681"><ele>184.99999999999997</ele><time>2026-04-11T13:26:38.477Z</time></trkpt><trkpt lat="43.4374403" lon="11.1857037"><ele>185.0</ele><time>2026-04-11T13:26:41.468Z</time></trkpt><trkpt lat="43.4375068" lon="11.1857165"><ele>188.16666666666666</ele><time>2026-04-11T13:26:44.473Z</time></trkpt><trkpt lat="43.4375848" lon="11.1857237"><ele>191.33333333333331</ele><time>2026-04-11T13:26:47.477Z</time></trkpt><trkpt lat="43.4376675" lon="11.1857204"><ele>194.5</ele><time>2026-04-11T13:26:50.472Z</time></trkpt><trkpt lat="43.4377571" lon="11.1857198"><ele>197.66666666666666</ele><time>2026-04-11T13:26:53.474Z</time></trkpt><trkpt lat="43.4378473" lon="11.1857176"><ele>200.83333333333334</ele><time>2026-04-11T13:26:56.47Z</time></trkpt><trkpt lat="43.437934" lon="11.185725"><ele>204.0</ele><time>2026-04-11T13:26:59.475Z</time></trkpt><trkpt lat="43.4380269" lon="11.1857097"><ele>204.0</ele><time>2026-04-11T13:27:02.449Z</time></trkpt><trkpt lat="43.4381174" lon="11.1856877"><ele>204.0</ele><time>2026-04-11T13:27:05.472Z</time></trkpt><trkpt lat="43.4382081" lon="11.1856743"><ele>204.0</ele><time>2026-04-11T13:27:08.464Z</time></trkpt><trkpt lat="43.4382908" lon="11.1856522"><ele>204.0</ele><time>2026-04-11T13:27:11.468Z</time></trkpt><trkpt lat="43.4383778" lon="11.1856564"><ele>204.0</ele><time>2026-04-11T13:27:14.467Z</time></trkpt><trkpt lat="43.4384453" lon="11.1856526"><ele>204.0</ele><time>2026-04-11T13:27:16.468Z</time></trkpt><trkpt lat="43.4385101" lon="11.1856375"><ele>202.16666666666666</ele><time>2026-04-11T13:27:18.544Z</time></trkpt><trkpt lat="43.4385806" lon="11.1856411"><ele>200.33333333333331</ele><time>2026-04-11T13:27:20.453Z</time></trkpt><trkpt lat="43.4386706" lon="11.1856344"><ele>198.5</ele><time>2026-04-11T13:27:23.469Z</time></trkpt><trkpt lat="43.4387567" lon="11.1855751"><ele>196.66666666666666</ele><time>2026-04-11T13:27:26.462Z</time></trkpt><trkpt lat="43.4388166" lon="11.1855084"><ele>194.83333333333331</ele><time>2026-04-11T13:27:28.479Z</time></trkpt><trkpt lat="43.4389034" lon="11.1854344"><ele>193.0</ele><time>2026-04-11T13:27:30.463Z</time></trkpt><trkpt lat="43.4389868" lon="11.1853612"><ele>193.0</ele><time>2026-04-11T13:27:32.469Z</time></trkpt><trkpt lat="43.4390734" lon="11.1852874"><ele>193.0</ele><time>2026-04-11T13:27:34.478Z</time></trkpt><trkpt lat="43.4391592" lon="11.1851673"><ele>193.0</ele><time>2026-04-11T13:27:36.47Z</time></trkpt><trkpt lat="43.4392072" lon="11.1850953"><ele>193.0</ele><time>2026-04-11T13:27:37.474Z</time></trkpt><trkpt lat="43.4392644" lon="11.1850187"><ele>193.0</ele><time>2026-04-11T13:27:38.468Z</time></trkpt><trkpt lat="43.4393272" lon="11.184943"><ele>193.0</ele><time>2026-04-11T13:27:39.469Z</time></trkpt><trkpt lat="43.4393858" lon="11.1848625"><ele>193.0</ele><time>2026-04-11T13:27:40.466Z</time></trkpt><trkpt lat="43.4394445" lon="11.1847724"><ele>193.0</ele><time>2026-04-11T13:27:41.477Z</time></trkpt><trkpt lat="43.4395058" lon="11.1846692"><ele>193.0</ele><time>2026-04-11T13:27:42.471Z</time></trkpt><trkpt lat="43.4395666" lon="11.1845503"><ele>193.0</ele><time>2026-04-11T13:27:43.568Z</time></trkpt><trkpt lat="43.4396072" lon="11.1844512"><ele>191.2</ele><time>2026-04-11T13:27:44.533Z</time></trkpt><trkpt lat="43.4396319" lon="11.1843471"><ele>189.4</ele><time>2026-04-11T13:27:45.477Z</time></trkpt><trkpt lat="43.439712" lon="11.1842272"><ele>187.6</ele><time>2026-04-11T13:27:46.471Z</time></trkpt><trkpt lat="43.4397927" lon="11.1841106"><ele>185.79999999999998</ele><time>2026-04-11T13:27:47.469Z</time></trkpt><trkpt lat="43.439867" lon="11.1840021"><ele>184.0</ele><time>2026-04-11T13:27:48.553Z</time></trkpt><trkpt lat="43.4399323" lon="11.1838908"><ele>183.6</ele><time>2026-04-11T13:27:49.478Z</time></trkpt><trkpt lat="43.4399942" lon="11.1837792"><ele>183.2</ele><time>2026-04-11T13:27:50.47Z</time></trkpt><trkpt lat="43.4400523" lon="11.1836656"><ele>182.79999999999998</ele><time>2026-04-11T13:27:51.471Z</time></trkpt><trkpt lat="43.4401107" lon="11.1835552"><ele>182.39999999999998</ele><time>2026-04-11T13:27:52.488Z</time></trkpt><trkpt lat="43.4401688" lon="11.1834425"><ele>182.0</ele><time>2026-04-11T13:27:53.478Z</time></trkpt><trkpt lat="43.4402318" lon="11.1833393"><ele>182.0</ele><time>2026-04-11T13:27:54.491Z</time></trkpt><trkpt lat="43.4402901" lon="11.1832312"><ele>182.0</ele><time>2026-04-11T13:27:55.484Z</time></trkpt><trkpt lat="43.4403455" lon="11.1831249"><ele>182.0</ele><time>2026-04-11T13:27:56.482Z</time></trkpt><trkpt lat="43.4404007" lon="11.1830229"><ele>182.0</ele><time>2026-04-11T13:27:57.47Z</time></trkpt><trkpt lat="43.4404538" lon="11.182925"><ele>182.0</ele><time>2026-04-11T13:27:58.474Z</time></trkpt><trkpt lat="43.440507" lon="11.1828318"><ele>181.75</ele><time>2026-04-11T13:27:59.481Z</time></trkpt><trkpt lat="43.4405585" lon="11.1827398"><ele>181.5</ele><time>2026-04-11T13:28:00.45Z</time></trkpt><trkpt lat="43.4406079" lon="11.1826502"><ele>181.25</ele><time>2026-04-11T13:28:01.45Z</time></trkpt><trkpt lat="43.4406531" lon="11.1825641"><ele>181.0</ele><time>2026-04-11T13:28:02.47Z</time></trkpt><trkpt lat="43.4408469" lon="11.1822227"><ele>180.42857142857142</ele><time>2026-04-11T13:28:06.467Z</time></trkpt><trkpt lat="43.4408966" lon="11.1821542"><ele>179.85714285714283</ele><time>2026-04-11T13:28:07.469Z</time></trkpt><trkpt lat="43.4409367" lon="11.1820772"><ele>179.28571428571428</ele><time>2026-04-11T13:28:08.476Z</time></trkpt><trkpt lat="43.4409736" lon="11.1819983"><ele>178.71428571428572</ele><time>2026-04-11T13:28:09.474Z</time></trkpt><trkpt lat="43.4410127" lon="11.1819222"><ele>178.14285714285714</ele><time>2026-04-11T13:28:10.483Z</time></trkpt><trkpt lat="43.4410501" lon="11.1818475"><ele>177.57142857142858</ele><time>2026-04-11T13:28:11.474Z</time></trkpt><trkpt lat="43.4410925" lon="11.1817771"><ele>177.0</ele><time>2026-04-11T13:28:12.459Z</time></trkpt><trkpt lat="43.4411342" lon="11.1817043"><ele>177.0</ele><time>2026-04-11T13:28:13.468Z</time></trkpt><trkpt lat="43.4411779" lon="11.1816332"><ele>177.0</ele><time>2026-04-11T13:28:14.473Z</time></trkpt><trkpt lat="43.4412229" lon="11.1815591"><ele>177.0</ele><time>2026-04-11T13:28:15.47Z</time></trkpt><trkpt lat="43.4412642" lon="11.1814866"><ele>177.0</ele><time>2026-04-11T13:28:16.47Z</time></trkpt><trkpt lat="43.4413054" lon="11.1814175"><ele>177.0</ele><time>2026-04-11T13:28:17.479Z</time></trkpt><trkpt lat="43.4413535" lon="11.1813531"><ele>177.0</ele><time>2026-04-11T13:28:18.463Z</time></trkpt><trkpt lat="43.4414023" lon="11.1812913"><ele>177.0</ele><time>2026-04-11T13:28:19.472Z</time></trkpt><trkpt lat="43.4414536" lon="11.1812328"><ele>177.2857142857143</ele><time>2026-04-11T13:28:20.471Z</time></trkpt><trkpt lat="43.4415076" lon="11.1811758"><ele>177.57142857142856</ele><time>2026-04-11T13:28:21.488Z</time></trkpt><trkpt lat="43.4415617" lon="11.1811185"><ele>177.85714285714286</ele><time>2026-04-11T13:28:22.483Z</time></trkpt><trkpt lat="43.4416132" lon="11.1810545"><ele>178.14285714285717</ele><time>2026-04-11T13:28:23.478Z</time></trkpt><trkpt lat="43.4416614" lon="11.1809878"><ele>178.42857142857144</ele><time>2026-04-11T13:28:24.473Z</time></trkpt><trkpt lat="43.4417116" lon="11.1809234"><ele>178.71428571428572</ele><time>2026-04-11T13:28:25.47Z</time></trkpt><trkpt lat="43.4417639" lon="11.1808616"><ele>179.0</ele><time>2026-04-11T13:28:26.479Z</time></trkpt><trkpt lat="43.4418161" lon="11.1808016"><ele>179.00000000000003</ele><time>2026-04-11T13:28:27.477Z</time></trkpt><trkpt lat="43.4418701" lon="11.1807446"><ele>179.0</ele><time>2026-04-11T13:28:28.473Z</time></trkpt><trkpt lat="43.4419262" lon="11.1806871"><ele>179.0</ele><time>2026-04-11T13:28:29.48Z</time></trkpt><trkpt lat="43.4419793" lon="11.1806243"><ele>179.0</ele><time>2026-04-11T13:28:30.477Z</time></trkpt><trkpt lat="43.4420321" lon="11.1805596"><ele>179.0</ele><time>2026-04-11T13:28:31.469Z</time></trkpt><trkpt lat="43.4420846" lon="11.1804925"><ele>179.00000000000003</ele><time>2026-04-11T13:28:32.475Z</time></trkpt><trkpt lat="43.4421351" lon="11.1804247"><ele>179.0</ele><time>2026-04-11T13:28:33.478Z</time></trkpt><trkpt lat="43.4421918" lon="11.1803642"><ele>178.85714285714286</ele><time>2026-04-11T13:28:34.491Z</time></trkpt><trkpt lat="43.4422483" lon="11.1803022"><ele>178.71428571428572</ele><time>2026-04-11T13:28:35.487Z</time></trkpt><trkpt lat="43.4423051" lon="11.1802442"><ele>178.57142857142856</ele><time>2026-04-11T13:28:36.473Z</time></trkpt><trkpt lat="43.442362" lon="11.1801834"><ele>178.42857142857144</ele><time>2026-04-11T13:28:37.489Z</time></trkpt><trkpt lat="43.4424144" lon="11.1801199"><ele>178.28571428571428</ele><time>2026-04-11T13:28:38.481Z</time></trkpt><trkpt lat="43.4424657" lon="11.1800565"><ele>178.14285714285714</ele><time>2026-04-11T13:28:39.47Z</time></trkpt><trkpt lat="43.4425155" lon="11.1799953"><ele>178.0</ele><time>2026-04-11T13:28:40.472Z</time></trkpt><trkpt lat="43.4425637" lon="11.1799374"><ele>178.0</ele><time>2026-04-11T13:28:41.475Z</time></trkpt><trkpt lat="43.4426543" lon="11.1798416"><ele>178.0</ele><time>2026-04-11T13:28:43.481Z</time></trkpt><trkpt lat="43.442731" lon="11.1797569"><ele>178.0</ele><time>2026-04-11T13:28:45.465Z</time></trkpt><trkpt lat="43.4427985" lon="11.1796727"><ele>178.0</ele><time>2026-04-11T13:28:47.474Z</time></trkpt><trkpt lat="43.4428471" lon="11.1795826"><ele>178.0</ele><time>2026-04-11T13:28:49.48Z</time></trkpt><trkpt lat="43.4428893" lon="11.1794944"><ele>178.0</ele><time>2026-04-11T13:28:51.459Z</time></trkpt><trkpt lat="43.4429185" lon="11.1793936"><ele>178.0</ele><time>2026-04-11T13:28:53.486Z</time></trkpt><trkpt lat="43.4429416" lon="11.1792994"><ele>178.0</ele><time>2026-04-11T13:28:55.471Z</time></trkpt><trkpt lat="43.4429553" lon="11.1791879"><ele>178.0</ele><time>2026-04-11T13:28:57.471Z</time></trkpt><trkpt lat="43.4429574" lon="11.1790691"><ele>178.0</ele><time>2026-04-11T13:28:59.478Z</time></trkpt><trkpt lat="43.4429573" lon="11.1789432"><ele>178.0</ele><time>2026-04-11T13:29:01.464Z</time></trkpt><trkpt lat="43.4429619" lon="11.1788156"><ele>178.8</ele><time>2026-04-11T13:29:03.49Z</time></trkpt><trkpt lat="43.4429739" lon="11.1786897"><ele>179.60000000000002</ele><time>2026-04-11T13:29:05.488Z</time></trkpt><trkpt lat="43.4429936" lon="11.1785519"><ele>180.39999999999998</ele><time>2026-04-11T13:29:07.482Z</time></trkpt><trkpt lat="43.4430367" lon="11.178436"><ele>181.2</ele><time>2026-04-11T13:29:09.475Z</time></trkpt><trkpt lat="43.4430907" lon="11.1783377"><ele>182.0</ele><time>2026-04-11T13:29:11.487Z</time></trkpt><trkpt lat="43.4431408" lon="11.1782471"><ele>182.5</ele><time>2026-04-11T13:29:13.486Z</time></trkpt><trkpt lat="43.4431951" lon="11.178162"><ele>183.0</ele><time>2026-04-11T13:29:15.488Z</time></trkpt><trkpt lat="43.4432477" lon="11.1780779"><ele>183.5</ele><time>2026-04-11T13:29:17.482Z</time></trkpt><trkpt lat="43.4432948" lon="11.1779975"><ele>184.0</ele><time>2026-04-11T13:29:19.473Z</time></trkpt><trkpt lat="43.4433441" lon="11.1779227"><ele>184.5</ele><time>2026-04-11T13:29:21.453Z</time></trkpt><trkpt lat="43.4433923" lon="11.1778458"><ele>185.0</ele><time>2026-04-11T13:29:23.478Z</time></trkpt><trkpt lat="43.4434416" lon="11.1777685"><ele>185.0</ele><time>2026-04-11T13:29:25.487Z</time></trkpt><trkpt lat="43.4434915" lon="11.1776826"><ele>185.0</ele><time>2026-04-11T13:29:27.483Z</time></trkpt><trkpt lat="43.4435403" lon="11.1775957"><ele>185.0</ele><time>2026-04-11T13:29:29.488Z</time></trkpt><trkpt lat="43.4435894" lon="11.1775133"><ele>185.0</ele><time>2026-04-11T13:29:31.478Z</time></trkpt><trkpt lat="43.4436373" lon="11.1774249"><ele>185.0</ele><time>2026-04-11T13:29:33.486Z</time></trkpt><trkpt lat="43.443689" lon="11.1773345"><ele>185.0</ele><time>2026-04-11T13:29:35.453Z</time></trkpt><trkpt lat="43.4437404" lon="11.1772465"><ele>184.66666666666666</ele><time>2026-04-11T13:29:37.485Z</time></trkpt><trkpt lat="43.4437917" lon="11.1771598"><ele>184.33333333333331</ele><time>2026-04-11T13:29:39.484Z</time></trkpt><trkpt lat="43.4438345" lon="11.1770655"><ele>184.0</ele><time>2026-04-11T13:29:41.499Z</time></trkpt><trkpt lat="43.4438768" lon="11.176972"><ele>183.66666666666666</ele><time>2026-04-11T13:29:43.473Z</time></trkpt><trkpt lat="43.4439251" lon="11.1768814"><ele>183.33333333333334</ele><time>2026-04-11T13:29:45.478Z</time></trkpt><trkpt lat="43.4439642" lon="11.1767848"><ele>183.0</ele><time>2026-04-11T13:29:47.482Z</time></trkpt><trkpt lat="43.4440071" lon="11.1766929"><ele>183.0</ele><time>2026-04-11T13:29:49.483Z</time></trkpt><trkpt lat="43.4440583" lon="11.1765954"><ele>183.0</ele><time>2026-04-11T13:29:51.486Z</time></trkpt><trkpt lat="43.4441179" lon="11.176484"><ele>183.0</ele><time>2026-04-11T13:29:53.475Z</time></trkpt><trkpt lat="43.4441763" lon="11.1763673"><ele>183.0</ele><time>2026-04-11T13:29:55.483Z</time></trkpt><trkpt lat="43.4442409" lon="11.1762443"><ele>183.0</ele><time>2026-04-11T13:29:57.481Z</time></trkpt><trkpt lat="43.4443233" lon="11.1761324"><ele>181.83333333333334</ele><time>2026-04-11T13:29:59.472Z</time></trkpt><trkpt lat="43.4443882" lon="11.1760072"><ele>180.66666666666666</ele><time>2026-04-11T13:30:01.48Z</time></trkpt><trkpt lat="43.4444502" lon="11.1758657"><ele>179.5</ele><time>2026-04-11T13:30:03.462Z</time></trkpt><trkpt lat="43.4444883" lon="11.1757884"><ele>178.33333333333331</ele><time>2026-04-11T13:30:04.48Z</time></trkpt><trkpt lat="43.4445271" lon="11.1757055"><ele>177.16666666666666</ele><time>2026-04-11T13:30:05.472Z</time></trkpt><trkpt lat="43.4445716" lon="11.1756186"><ele>176.0</ele><time>2026-04-11T13:30:06.476Z</time></trkpt><trkpt lat="43.4446181" lon="11.1755283"><ele>176.33333333333331</ele><time>2026-04-11T13:30:07.481Z</time></trkpt><trkpt lat="43.444671" lon="11.175435"><ele>176.66666666666666</ele><time>2026-04-11T13:30:08.487Z</time></trkpt><trkpt lat="43.4447194" lon="11.1753384"><ele>177.0</ele><time>2026-04-11T13:30:09.486Z</time></trkpt><trkpt lat="43.4447655" lon="11.1752393"><ele>177.33333333333334</ele><time>2026-04-11T13:30:10.477Z</time></trkpt><trkpt lat="43.4448054" lon="11.1751356"><ele>177.66666666666669</ele><time>2026-04-11T13:30:11.47Z</time></trkpt><trkpt lat="43.4448416" lon="11.1750252"><ele>178.0</ele><time>2026-04-11T13:30:12.474Z</time></trkpt><trkpt lat="43.4448702" lon="11.1749102"><ele>177.83333333333334</ele><time>2026-04-11T13:30:13.481Z</time></trkpt><trkpt lat="43.4448914" lon="11.1747917"><ele>177.66666666666669</ele><time>2026-04-11T13:30:14.478Z</time></trkpt><trkpt lat="43.4449115" lon="11.1746696"><ele>177.5</ele><time>2026-04-11T13:30:15.476Z</time></trkpt><trkpt lat="43.4449345" lon="11.1745495"><ele>177.33333333333334</ele><time>2026-04-11T13:30:16.472Z</time></trkpt><trkpt lat="43.444966" lon="11.1744386"><ele>177.16666666666666</ele><time>2026-04-11T13:30:17.472Z</time></trkpt><trkpt lat="43.4450016" lon="11.1743333"><ele>177.0</ele><time>2026-04-11T13:30:18.479Z</time></trkpt><trkpt lat="43.4450337" lon="11.1742357"><ele>177.0</ele><time>2026-04-11T13:30:19.477Z</time></trkpt><trkpt lat="43.4450583" lon="11.174143"><ele>177.0</ele><time>2026-04-11T13:30:20.482Z</time></trkpt><trkpt lat="43.4450746" lon="11.1740526"><ele>177.0</ele><time>2026-04-11T13:30:21.472Z</time></trkpt><trkpt lat="43.4450862" lon="11.1739575"><ele>177.0</ele><time>2026-04-11T13:30:22.478Z</time></trkpt><trkpt lat="43.4450995" lon="11.1738592"><ele>177.0</ele><time>2026-04-11T13:30:23.48Z</time></trkpt><trkpt lat="43.4451146" lon="11.1737588"><ele>177.0</ele><time>2026-04-11T13:30:24.479Z</time></trkpt><trkpt lat="43.445134" lon="11.1736619"><ele>177.0</ele><time>2026-04-11T13:30:25.486Z</time></trkpt><trkpt lat="43.4451599" lon="11.1735692"><ele>176.57142857142858</ele><time>2026-04-11T13:30:26.478Z</time></trkpt><trkpt lat="43.4451909" lon="11.1734891"><ele>176.14285714285714</ele><time>2026-04-11T13:30:27.475Z</time></trkpt><trkpt lat="43.4452273" lon="11.1734133"><ele>175.71428571428572</ele><time>2026-04-11T13:30:28.475Z</time></trkpt><trkpt lat="43.4452661" lon="11.1733448"><ele>175.28571428571428</ele><time>2026-04-11T13:30:29.474Z</time></trkpt><trkpt lat="43.4453293" lon="11.1732314"><ele>174.85714285714286</ele><time>2026-04-11T13:30:31.474Z</time></trkpt><trkpt lat="43.4453736" lon="11.1731327"><ele>174.42857142857142</ele><time>2026-04-11T13:30:33.471Z</time></trkpt><trkpt lat="43.445412" lon="11.1730598"><ele>174.0</ele><time>2026-04-11T13:30:35.48Z</time></trkpt><trkpt lat="43.4454663" lon="11.1729546"><ele>175.57142857142856</ele><time>2026-04-11T13:30:38.472Z</time></trkpt><trkpt lat="43.4455071" lon="11.172884"><ele>177.14285714285714</ele><time>2026-04-11T13:30:40.462Z</time></trkpt><trkpt lat="43.4455509" lon="11.1728179"><ele>178.71428571428572</ele><time>2026-04-11T13:30:42.481Z</time></trkpt><trkpt lat="43.4456108" lon="11.1727731"><ele>180.28571428571428</ele><time>2026-04-11T13:30:44.483Z</time></trkpt><trkpt lat="43.4456763" lon="11.1727354"><ele>181.85714285714286</ele><time>2026-04-11T13:30:46.48Z</time></trkpt><trkpt lat="43.4457437" lon="11.1727283"><ele>183.42857142857142</ele><time>2026-04-11T13:30:48.479Z</time></trkpt><trkpt lat="43.4458078" lon="11.1727506"><ele>185.0</ele><time>2026-04-11T13:30:50.474Z</time></trkpt><trkpt lat="43.4458863" lon="11.1728143"><ele>185.0</ele><time>2026-04-11T13:30:53.472Z</time></trkpt><trkpt lat="43.4459393" lon="11.1728631"><ele>185.0</ele><time>2026-04-11T13:30:55.479Z</time></trkpt><trkpt lat="43.4460238" lon="11.1729161"><ele>185.0</ele><time>2026-04-11T13:30:58.478Z</time></trkpt><trkpt lat="43.4461056" lon="11.1729572"><ele>185.0</ele><time>2026-04-11T13:31:01.475Z</time></trkpt><trkpt lat="43.4461707" lon="11.1729641"><ele>185.0</ele><time>2026-04-11T13:31:03.48Z</time></trkpt><trkpt lat="43.4462622" lon="11.1729149"><ele>185.0</ele><time>2026-04-11T13:31:06.484Z</time></trkpt><trkpt lat="43.4463101" lon="11.1728424"><ele>185.16666666666666</ele><time>2026-04-11T13:31:08.477Z</time></trkpt><trkpt lat="43.4463585" lon="11.1727539"><ele>185.33333333333331</ele><time>2026-04-11T13:31:10.485Z</time></trkpt><trkpt lat="43.4464044" lon="11.1726735"><ele>185.5</ele><time>2026-04-11T13:31:12.476Z</time></trkpt><trkpt lat="43.44645" lon="11.1725997"><ele>185.66666666666666</ele><time>2026-04-11T13:31:14.49Z</time></trkpt><trkpt lat="43.446497" lon="11.1725344"><ele>185.83333333333334</ele><time>2026-04-11T13:31:16.482Z</time></trkpt><trkpt lat="43.4465732" lon="11.1724565"><ele>186.0</ele><time>2026-04-11T13:31:19.484Z</time></trkpt><trkpt lat="43.4466255" lon="11.1723999"><ele>187.42857142857144</ele><time>2026-04-11T13:31:21.476Z</time></trkpt><trkpt lat="43.4466854" lon="11.1723225"><ele>188.85714285714286</ele><time>2026-04-11T13:31:23.478Z</time></trkpt><trkpt lat="43.4467391" lon="11.1722406"><ele>190.28571428571428</ele><time>2026-04-11T13:31:25.474Z</time></trkpt><trkpt lat="43.446787" lon="11.1721522"><ele>191.71428571428572</ele><time>2026-04-11T13:31:27.474Z</time></trkpt><trkpt lat="43.4468274" lon="11.1720689"><ele>193.14285714285714</ele><time>2026-04-11T13:31:29.481Z</time></trkpt><trkpt lat="43.4468542" lon="11.1719862"><ele>194.57142857142858</ele><time>2026-04-11T13:31:31.46Z</time></trkpt><trkpt lat="43.4468781" lon="11.1719031"><ele>196.0</ele><time>2026-04-11T13:31:33.474Z</time></trkpt><trkpt lat="43.4468999" lon="11.1718156"><ele>195.99999999999997</ele><time>2026-04-11T13:31:35.484Z</time></trkpt><trkpt lat="43.4469206" lon="11.1717269"><ele>196.0</ele><time>2026-04-11T13:31:37.474Z</time></trkpt><trkpt lat="43.4469422" lon="11.1716052"><ele>196.0</ele><time>2026-04-11T13:31:40.488Z</time></trkpt><trkpt lat="43.4469736" lon="11.1714899"><ele>196.0</ele><time>2026-04-11T13:31:43.474Z</time></trkpt><trkpt lat="43.4469954" lon="11.1714053"><ele>195.99999999999997</ele><time>2026-04-11T13:31:45.476Z</time></trkpt><trkpt lat="43.4470362" lon="11.1712995"><ele>196.0</ele><time>2026-04-11T13:31:47.484Z</time></trkpt><trkpt lat="43.4470922" lon="11.1711969"><ele>196.71428571428572</ele><time>2026-04-11T13:31:49.475Z</time></trkpt><trkpt lat="43.4471373" lon="11.1711007"><ele>197.42857142857144</ele><time>2026-04-11T13:31:51.48Z</time></trkpt><trkpt lat="43.4471864" lon="11.1710185"><ele>198.14285714285714</ele><time>2026-04-11T13:31:53.481Z</time></trkpt><trkpt lat="43.4472299" lon="11.1709415"><ele>198.85714285714286</ele><time>2026-04-11T13:31:55.487Z</time></trkpt><trkpt lat="43.4472724" lon="11.1708654"><ele>199.57142857142858</ele><time>2026-04-11T13:31:57.476Z</time></trkpt><trkpt lat="43.4473135" lon="11.1707883"><ele>200.28571428571428</ele><time>2026-04-11T13:31:59.472Z</time></trkpt><trkpt lat="43.4473498" lon="11.1707137"><ele>201.0</ele><time>2026-04-11T13:32:01.484Z</time></trkpt><trkpt lat="43.4474018" lon="11.1706038"><ele>201.0</ele><time>2026-04-11T13:32:04.485Z</time></trkpt><trkpt lat="43.4474423" lon="11.1704871"><ele>201.0</ele><time>2026-04-11T13:32:07.486Z</time></trkpt><trkpt lat="43.4474679" lon="11.1703616"><ele>201.0</ele><time>2026-04-11T13:32:10.48Z</time></trkpt><trkpt lat="43.4474989" lon="11.1702586"><ele>201.0</ele><time>2026-04-11T13:32:13.474Z</time></trkpt><trkpt lat="43.4475288" lon="11.1701751"><ele>201.0</ele><time>2026-04-11T13:32:16.478Z</time></trkpt><trkpt lat="43.4475716" lon="11.1701056"><ele>201.0</ele><time>2026-04-11T13:32:19.484Z</time></trkpt><trkpt lat="43.4476122" lon="11.1700363"><ele>201.0</ele><time>2026-04-11T13:32:22.479Z</time></trkpt><trkpt lat="43.447659" lon="11.1699724"><ele>201.0</ele><time>2026-04-11T13:32:25.474Z</time></trkpt><trkpt lat="43.44771" lon="11.1699004"><ele>201.0</ele><time>2026-04-11T13:32:28.486Z</time></trkpt><trkpt lat="43.4477696" lon="11.1698278"><ele>201.0</ele><time>2026-04-11T13:32:31.479Z</time></trkpt><trkpt lat="43.4478245" lon="11.1697521"><ele>201.0</ele><time>2026-04-11T13:32:34.478Z</time></trkpt><trkpt lat="43.4478717" lon="11.1696895"><ele>201.0</ele><time>2026-04-11T13:32:37.475Z</time></trkpt><trkpt lat="43.4479261" lon="11.1696131"><ele>201.0</ele><time>2026-04-11T13:32:41.471Z</time></trkpt><trkpt lat="43.4479834" lon="11.1695539"><ele>201.42857142857142</ele><time>2026-04-11T13:32:45.476Z</time></trkpt><trkpt lat="43.4480359" lon="11.1694696"><ele>201.85714285714286</ele><time>2026-04-11T13:32:49.475Z</time></trkpt><trkpt lat="43.4480811" lon="11.1693917"><ele>202.28571428571428</ele><time>2026-04-11T13:32:53.487Z</time></trkpt><trkpt lat="43.4481177" lon="11.1693113"><ele>202.71428571428572</ele><time>2026-04-11T13:32:58.483Z</time></trkpt><trkpt lat="43.4481368" lon="11.1692121"><ele>203.14285714285717</ele><time>2026-04-11T13:33:03.477Z</time></trkpt><trkpt lat="43.4481622" lon="11.1691167"><ele>203.57142857142858</ele><time>2026-04-11T13:33:08.482Z</time></trkpt><trkpt lat="43.4481847" lon="11.1690278"><ele>204.0</ele><time>2026-04-11T13:33:11.491Z</time></trkpt><trkpt lat="43.4482087" lon="11.1689372"><ele>204.5</ele><time>2026-04-11T13:33:14.477Z</time></trkpt><trkpt lat="43.4482224" lon="11.1688393"><ele>205.0</ele><time>2026-04-11T13:33:17.471Z</time></trkpt><trkpt lat="43.4482259" lon="11.1687362"><ele>205.5</ele><time>2026-04-11T13:33:20.473Z</time></trkpt><trkpt lat="43.4482176" lon="11.168628"><ele>206.0</ele><time>2026-04-11T13:33:23.477Z</time></trkpt><trkpt lat="43.4482002" lon="11.1685218"><ele>206.5</ele><time>2026-04-11T13:33:26.47Z</time></trkpt><trkpt lat="43.4481708" lon="11.1684297"><ele>207.0</ele><time>2026-04-11T13:33:29.478Z</time></trkpt><trkpt lat="43.4481317" lon="11.1683433"><ele>207.00000000000003</ele><time>2026-04-11T13:33:32.478Z</time></trkpt><trkpt lat="43.4480833" lon="11.1682702"><ele>207.0</ele><time>2026-04-11T13:33:35.473Z</time></trkpt><trkpt lat="43.4480218" lon="11.1682093"><ele>207.0</ele><time>2026-04-11T13:33:38.49Z</time></trkpt><trkpt lat="43.4479549" lon="11.1681516"><ele>207.0</ele><time>2026-04-11T13:33:41.476Z</time></trkpt><trkpt lat="43.4478932" lon="11.1680904"><ele>207.0</ele><time>2026-04-11T13:33:44.476Z</time></trkpt><trkpt lat="43.4478293" lon="11.1680472"><ele>207.00000000000003</ele><time>2026-04-11T13:33:47.485Z</time></trkpt><trkpt lat="43.4477912" lon="11.1679717"><ele>207.0</ele><time>2026-04-11T13:33:50.487Z</time></trkpt><trkpt lat="43.447809" lon="11.1678797"><ele>207.5</ele><time>2026-04-11T13:33:53.472Z</time></trkpt><trkpt lat="43.4478606" lon="11.167802"><ele>208.0</ele><time>2026-04-11T13:33:56.469Z</time></trkpt><trkpt lat="43.4479182" lon="11.1677237"><ele>208.5</ele><time>2026-04-11T13:33:59.485Z</time></trkpt><trkpt lat="43.4479757" lon="11.1676412"><ele>209.0</ele><time>2026-04-11T13:34:02.472Z</time></trkpt><trkpt lat="43.4480311" lon="11.1675525"><ele>209.5</ele><time>2026-04-11T13:34:05.469Z</time></trkpt><trkpt lat="43.4481028" lon="11.1674723"><ele>210.0</ele><time>2026-04-11T13:34:08.486Z</time></trkpt><trkpt lat="43.4481797" lon="11.1673981"><ele>210.85714285714286</ele><time>2026-04-11T13:34:11.472Z</time></trkpt><trkpt lat="43.4482293" lon="11.1673443"><ele>211.71428571428572</ele><time>2026-04-11T13:34:13.474Z</time></trkpt><trkpt lat="43.4482788" lon="11.1672858"><ele>212.57142857142856</ele><time>2026-04-11T13:34:15.477Z</time></trkpt><trkpt lat="43.4483321" lon="11.16722"><ele>213.42857142857144</ele><time>2026-04-11T13:34:17.457Z</time></trkpt><trkpt lat="43.4483847" lon="11.1671445"><ele>214.28571428571428</ele><time>2026-04-11T13:34:19.48Z</time></trkpt><trkpt lat="43.4484373" lon="11.1670814"><ele>215.14285714285714</ele><time>2026-04-11T13:34:21.472Z</time></trkpt><trkpt lat="43.4484966" lon="11.1670283"><ele>216.0</ele><time>2026-04-11T13:34:23.483Z</time></trkpt><trkpt lat="43.4485579" lon="11.1669697"><ele>216.0</ele><time>2026-04-11T13:34:25.469Z</time></trkpt><trkpt lat="43.4486171" lon="11.1669057"><ele>216.0</ele><time>2026-04-11T13:34:27.478Z</time></trkpt><trkpt lat="43.4486695" lon="11.1668396"><ele>216.0</ele><time>2026-04-11T13:34:29.472Z</time></trkpt><trkpt lat="43.4487166" lon="11.1667776"><ele>216.0</ele><time>2026-04-11T13:34:31.483Z</time></trkpt><trkpt lat="43.4487613" lon="11.1667113"><ele>216.0</ele><time>2026-04-11T13:34:33.473Z</time></trkpt><trkpt lat="43.4488052" lon="11.1666383"><ele>216.0</ele><time>2026-04-11T13:34:35.479Z</time></trkpt><trkpt lat="43.4488446" lon="11.1665668"><ele>216.0</ele><time>2026-04-11T13:34:37.476Z</time></trkpt><trkpt lat="43.448878" lon="11.1664901"><ele>214.66666666666666</ele><time>2026-04-11T13:34:39.482Z</time></trkpt><trkpt lat="43.4489044" lon="11.1663997"><ele>213.33333333333331</ele><time>2026-04-11T13:34:41.474Z</time></trkpt><trkpt lat="43.4489244" lon="11.1663122"><ele>212.0</ele><time>2026-04-11T13:34:43.468Z</time></trkpt><trkpt lat="43.4489499" lon="11.1662187"><ele>210.66666666666666</ele><time>2026-04-11T13:34:45.471Z</time></trkpt><trkpt lat="43.4489869" lon="11.1661238"><ele>209.33333333333331</ele><time>2026-04-11T13:34:47.481Z</time></trkpt><trkpt lat="43.449032" lon="11.1660215"><ele>208.0</ele><time>2026-04-11T13:34:49.471Z</time></trkpt><trkpt lat="43.4490765" lon="11.1659163"><ele>207.99999999999997</ele><time>2026-04-11T13:34:51.479Z</time></trkpt><trkpt lat="43.4491181" lon="11.1658176"><ele>208.0</ele><time>2026-04-11T13:34:53.474Z</time></trkpt><trkpt lat="43.4491678" lon="11.165683"><ele>208.0</ele><time>2026-04-11T13:34:55.459Z</time></trkpt><trkpt lat="43.449203" lon="11.1656026"><ele>208.0</ele><time>2026-04-11T13:34:56.489Z</time></trkpt><trkpt lat="43.4492366" lon="11.1655147"><ele>207.99999999999997</ele><time>2026-04-11T13:34:57.475Z</time></trkpt><trkpt lat="43.4492731" lon="11.1654205"><ele>208.0</ele><time>2026-04-11T13:34:58.487Z</time></trkpt><trkpt lat="43.4493072" lon="11.1653309"><ele>208.14285714285714</ele><time>2026-04-11T13:34:59.469Z</time></trkpt><trkpt lat="43.4493395" lon="11.1652313"><ele>208.2857142857143</ele><time>2026-04-11T13:35:00.466Z</time></trkpt><trkpt lat="43.4493699" lon="11.1651315"><ele>208.42857142857144</ele><time>2026-04-11T13:35:01.464Z</time></trkpt><trkpt lat="43.4493981" lon="11.1650376"><ele>208.57142857142856</ele><time>2026-04-11T13:35:02.46Z</time></trkpt><trkpt lat="43.4494277" lon="11.1649454"><ele>208.71428571428572</ele><time>2026-04-11T13:35:03.473Z</time></trkpt><trkpt lat="43.4494559" lon="11.1648611"><ele>208.85714285714286</ele><time>2026-04-11T13:35:04.457Z</time></trkpt><trkpt lat="43.4494826" lon="11.1647808"><ele>209.0</ele><time>2026-04-11T13:35:05.457Z</time></trkpt><trkpt lat="43.4495096" lon="11.1647007"><ele>208.2</ele><time>2026-04-11T13:35:06.455Z</time></trkpt><trkpt lat="43.4495514" lon="11.1645521"><ele>207.39999999999998</ele><time>2026-04-11T13:35:08.471Z</time></trkpt><trkpt lat="43.4495785" lon="11.1644308"><ele>206.6</ele><time>2026-04-11T13:35:10.468Z</time></trkpt><trkpt lat="43.4496015" lon="11.1643265"><ele>205.8</ele><time>2026-04-11T13:35:12.477Z</time></trkpt><trkpt lat="43.4496411" lon="11.1642197"><ele>205.0</ele><time>2026-04-11T13:35:14.469Z</time></trkpt><trkpt lat="43.4496538" lon="11.164098"><ele>202.6</ele><time>2026-04-11T13:35:16.483Z</time></trkpt><trkpt lat="43.4496522" lon="11.1639886"><ele>200.2</ele><time>2026-04-11T13:35:18.468Z</time></trkpt><trkpt lat="43.4496518" lon="11.1638702"><ele>197.8</ele><time>2026-04-11T13:35:20.457Z</time></trkpt><trkpt lat="43.449654" lon="11.1637065"><ele>195.4</ele><time>2026-04-11T13:35:22.463Z</time></trkpt><trkpt lat="43.4496682" lon="11.1635465"><ele>193.0</ele><time>2026-04-11T13:35:24.473Z</time></trkpt><trkpt lat="43.449701" lon="11.1633942"><ele>193.0</ele><time>2026-04-11T13:35:26.473Z</time></trkpt><trkpt lat="43.4497492" lon="11.1632413"><ele>193.0</ele><time>2026-04-11T13:35:28.482Z</time></trkpt><trkpt lat="43.4497926" lon="11.1630832"><ele>193.0</ele><time>2026-04-11T13:35:30.477Z</time></trkpt><trkpt lat="43.4498161" lon="11.1629971"><ele>193.0</ele><time>2026-04-11T13:35:31.469Z</time></trkpt><trkpt lat="43.4498649" lon="11.1628523"><ele>193.0</ele><time>2026-04-11T13:35:33.472Z</time></trkpt><trkpt lat="43.449919" lon="11.1627198"><ele>193.16666666666666</ele><time>2026-04-11T13:35:35.479Z</time></trkpt><trkpt lat="43.4499441" lon="11.1626113"><ele>193.33333333333331</ele><time>2026-04-11T13:35:37.474Z</time></trkpt><trkpt lat="43.4499955" lon="11.1625301"><ele>193.5</ele><time>2026-04-11T13:35:39.472Z</time></trkpt><trkpt lat="43.4500631" lon="11.1625035"><ele>193.66666666666669</ele><time>2026-04-11T13:35:41.472Z</time></trkpt><trkpt lat="43.4501573" lon="11.1624711"><ele>193.83333333333334</ele><time>2026-04-11T13:35:44.488Z</time></trkpt><trkpt lat="43.4502334" lon="11.1624545"><ele>194.0</ele><time>2026-04-11T13:35:46.483Z</time></trkpt><trkpt lat="43.4503192" lon="11.16244"><ele>194.0</ele><time>2026-04-11T13:35:48.483Z</time></trkpt><trkpt lat="43.4504021" lon="11.1624363"><ele>194.0</ele><time>2026-04-11T13:35:50.475Z</time></trkpt><trkpt lat="43.4504873" lon="11.1624204"><ele>194.0</ele><time>2026-04-11T13:35:52.457Z</time></trkpt><trkpt lat="43.4505891" lon="11.1624016"><ele>194.0</ele><time>2026-04-11T13:35:54.474Z</time></trkpt><trkpt lat="43.4507086" lon="11.1623785"><ele>194.0</ele><time>2026-04-11T13:35:56.467Z</time></trkpt><trkpt lat="43.4508067" lon="11.162351"><ele>193.79999999999998</ele><time>2026-04-11T13:35:58.458Z</time></trkpt><trkpt lat="43.4509011" lon="11.1623266"><ele>193.6</ele><time>2026-04-11T13:36:00.466Z</time></trkpt><trkpt lat="43.4510018" lon="11.1622935"><ele>193.4</ele><time>2026-04-11T13:36:02.48Z</time></trkpt><trkpt lat="43.451112" lon="11.1622387"><ele>193.2</ele><time>2026-04-11T13:36:04.45Z</time></trkpt><trkpt lat="43.4512056" lon="11.1622059"><ele>193.0</ele><time>2026-04-11T13:36:06.47Z</time></trkpt><trkpt lat="43.4512775" lon="11.1622002"><ele>191.66666666666666</ele><time>2026-04-11T13:36:08.468Z</time></trkpt><trkpt lat="43.4513798" lon="11.1621906"><ele>190.33333333333331</ele><time>2026-04-11T13:36:10.467Z</time></trkpt><trkpt lat="43.4514786" lon="11.1621911"><ele>189.0</ele><time>2026-04-11T13:36:12.473Z</time></trkpt><trkpt lat="43.4515647" lon="11.1621829"><ele>187.66666666666666</ele><time>2026-04-11T13:36:14.466Z</time></trkpt><trkpt lat="43.4516487" lon="11.162173"><ele>186.33333333333331</ele><time>2026-04-11T13:36:16.471Z</time></trkpt><trkpt lat="43.451719" lon="11.1621484"><ele>185.0</ele><time>2026-04-11T13:36:18.466Z</time></trkpt><trkpt lat="43.4517856" lon="11.1621302"><ele>185.0</ele><time>2026-04-11T13:36:20.469Z</time></trkpt><trkpt lat="43.4518754" lon="11.1621054"><ele>185.0</ele><time>2026-04-11T13:36:23.472Z</time></trkpt><trkpt lat="43.4519675" lon="11.1621022"><ele>185.0</ele><time>2026-04-11T13:36:26.477Z</time></trkpt><trkpt lat="43.4520575" lon="11.1621303"><ele>185.0</ele><time>2026-04-11T13:36:28.469Z</time></trkpt><trkpt lat="43.4521604" lon="11.1621616"><ele>185.0</ele><time>2026-04-11T13:36:30.476Z</time></trkpt><trkpt lat="43.4522522" lon="11.162168"><ele>181.2</ele><time>2026-04-11T13:36:32.476Z</time></trkpt><trkpt lat="43.4523377" lon="11.1621369"><ele>177.4</ele><time>2026-04-11T13:36:34.467Z</time></trkpt><trkpt lat="43.4524205" lon="11.1620748"><ele>173.60000000000002</ele><time>2026-04-11T13:36:36.475Z</time></trkpt><trkpt lat="43.4525007" lon="11.1620001"><ele>169.8</ele><time>2026-04-11T13:36:38.488Z</time></trkpt><trkpt lat="43.4526029" lon="11.1619751"><ele>166.0</ele><time>2026-04-11T13:36:40.468Z</time></trkpt><trkpt lat="43.4527099" lon="11.1619683"><ele>166.0</ele><time>2026-04-11T13:36:42.469Z</time></trkpt><trkpt lat="43.4527957" lon="11.1619087"><ele>166.0</ele><time>2026-04-11T13:36:44.471Z</time></trkpt><trkpt lat="43.4528604" lon="11.1618063"><ele>166.0</ele><time>2026-04-11T13:36:46.472Z</time></trkpt><trkpt lat="43.4529055" lon="11.1616967"><ele>166.0</ele><time>2026-04-11T13:36:48.473Z</time></trkpt><trkpt lat="43.4529534" lon="11.1615814"><ele>166.0</ele><time>2026-04-11T13:36:50.479Z</time></trkpt><trkpt lat="43.4530036" lon="11.1614592"><ele>162.8</ele><time>2026-04-11T13:36:52.464Z</time></trkpt><trkpt lat="43.453059" lon="11.1613275"><ele>159.60000000000002</ele><time>2026-04-11T13:36:54.487Z</time></trkpt><trkpt lat="43.4531277" lon="11.161194"><ele>156.4</ele><time>2026-04-11T13:36:56.474Z</time></trkpt><trkpt lat="43.4531629" lon="11.1611079"><ele>153.2</ele><time>2026-04-11T13:36:57.468Z</time></trkpt><trkpt lat="43.4532017" lon="11.1610173"><ele>150.0</ele><time>2026-04-11T13:36:58.47Z</time></trkpt><trkpt lat="43.4532402" lon="11.1609181"><ele>150.0</ele><time>2026-04-11T13:36:59.467Z</time></trkpt><trkpt lat="43.4532779" lon="11.1608144"><ele>150.0</ele><time>2026-04-11T13:37:00.474Z</time></trkpt><trkpt lat="43.4533171" lon="11.1607072"><ele>150.0</ele><time>2026-04-11T13:37:01.471Z</time></trkpt><trkpt lat="43.4533585" lon="11.1606043"><ele>150.0</ele><time>2026-04-11T13:37:02.473Z</time></trkpt><trkpt lat="43.453402" lon="11.1605111"><ele>150.0</ele><time>2026-04-11T13:37:03.472Z</time></trkpt><trkpt lat="43.453447" lon="11.1604356"><ele>150.0</ele><time>2026-04-11T13:37:04.469Z</time></trkpt><trkpt lat="43.4535337" lon="11.1603268"><ele>150.85714285714283</ele><time>2026-04-11T13:37:06.481Z</time></trkpt><trkpt lat="43.4536351" lon="11.1602501"><ele>151.71428571428572</ele><time>2026-04-11T13:37:08.471Z</time></trkpt><trkpt lat="43.4536939" lon="11.160206"><ele>152.57142857142856</ele><time>2026-04-11T13:37:09.472Z</time></trkpt><trkpt lat="43.4537516" lon="11.160163"><ele>153.42857142857142</ele><time>2026-04-11T13:37:10.468Z</time></trkpt><trkpt lat="43.4538094" lon="11.1601209"><ele>154.28571428571428</ele><time>2026-04-11T13:37:11.473Z</time></trkpt><trkpt lat="43.4538693" lon="11.1600778"><ele>155.14285714285714</ele><time>2026-04-11T13:37:12.475Z</time></trkpt><trkpt lat="43.4539304" lon="11.1600382"><ele>156.0</ele><time>2026-04-11T13:37:13.479Z</time></trkpt><trkpt lat="43.45399" lon="11.1599969"><ele>152.4</ele><time>2026-04-11T13:37:14.474Z</time></trkpt><trkpt lat="43.4540473" lon="11.1599535"><ele>148.8</ele><time>2026-04-11T13:37:15.478Z</time></trkpt><trkpt lat="43.4541495" lon="11.1598643"><ele>145.20000000000002</ele><time>2026-04-11T13:37:17.469Z</time></trkpt><trkpt lat="43.4542416" lon="11.1597984"><ele>141.6</ele><time>2026-04-11T13:37:19.486Z</time></trkpt><trkpt lat="43.4543328" lon="11.1597303"><ele>138.0</ele><time>2026-04-11T13:37:21.476Z</time></trkpt><trkpt lat="43.4544343" lon="11.1596654"><ele>137.5</ele><time>2026-04-11T13:37:23.479Z</time></trkpt><trkpt lat="43.4544941" lon="11.1596367"><ele>137.0</ele><time>2026-04-11T13:37:24.469Z</time></trkpt><trkpt lat="43.4545569" lon="11.1596043"><ele>136.5</ele><time>2026-04-11T13:37:25.473Z</time></trkpt><trkpt lat="43.4546166" lon="11.1595684"><ele>136.0</ele><time>2026-04-11T13:37:26.48Z</time></trkpt><trkpt lat="43.4547333" lon="11.1594982"><ele>135.5</ele><time>2026-04-11T13:37:28.48Z</time></trkpt><trkpt lat="43.4548005" lon="11.1594608"><ele>135.0</ele><time>2026-04-11T13:37:29.474Z</time></trkpt><trkpt lat="43.454871" lon="11.1594248"><ele>133.42857142857142</ele><time>2026-04-11T13:37:30.463Z</time></trkpt><trkpt lat="43.4549332" lon="11.1593892"><ele>131.85714285714283</ele><time>2026-04-11T13:37:31.469Z</time></trkpt><trkpt lat="43.4549971" lon="11.1593514"><ele>130.28571428571428</ele><time>2026-04-11T13:37:32.471Z</time></trkpt><trkpt lat="43.4550653" lon="11.1593327"><ele>128.71428571428572</ele><time>2026-04-11T13:37:33.485Z</time></trkpt><trkpt lat="43.4551333" lon="11.1593393"><ele>127.14285714285715</ele><time>2026-04-11T13:37:34.472Z</time></trkpt><trkpt lat="43.4552023" lon="11.159353"><ele>125.57142857142858</ele><time>2026-04-11T13:37:35.471Z</time></trkpt><trkpt lat="43.4552682" lon="11.1593859"><ele>124.0</ele><time>2026-04-11T13:37:36.475Z</time></trkpt><trkpt lat="43.455357" lon="11.1594676"><ele>124.00000000000001</ele><time>2026-04-11T13:37:38.483Z</time></trkpt><trkpt lat="43.4553719" lon="11.1595693"><ele>124.0</ele><time>2026-04-11T13:37:41.469Z</time></trkpt><trkpt lat="43.4554361" lon="11.1596139"><ele>124.0</ele><time>2026-04-11T13:38:10.487Z</time></trkpt><trkpt lat="43.4554982" lon="11.1596624"><ele>124.0</ele><time>2026-04-11T13:38:12.481Z</time></trkpt><trkpt lat="43.4555919" lon="11.1597008"><ele>124.00000000000001</ele><time>2026-04-11T13:38:14.473Z</time></trkpt><trkpt lat="43.4557197" lon="11.1597002"><ele>124.0</ele><time>2026-04-11T13:38:16.473Z</time></trkpt><trkpt lat="43.4557882" lon="11.159671"><ele>122.16666666666667</ele><time>2026-04-11T13:38:17.487Z</time></trkpt><trkpt lat="43.4558477" lon="11.159623"><ele>120.33333333333334</ele><time>2026-04-11T13:38:18.471Z</time></trkpt><trkpt lat="43.4559005" lon="11.1595653"><ele>118.5</ele><time>2026-04-11T13:38:19.482Z</time></trkpt><trkpt lat="43.4559842" lon="11.1594482"><ele>116.66666666666666</ele><time>2026-04-11T13:38:21.469Z</time></trkpt><trkpt lat="43.4560391" lon="11.1593535"><ele>114.83333333333333</ele><time>2026-04-11T13:38:23.472Z</time></trkpt><trkpt lat="43.4560858" lon="11.1592843"><ele>113.0</ele><time>2026-04-11T13:38:25.47Z</time></trkpt><trkpt lat="43.4561401" lon="11.1592204"><ele>113.0</ele><time>2026-04-11T13:38:27.475Z</time></trkpt><trkpt lat="43.4562016" lon="11.1591552"><ele>113.00000000000001</ele><time>2026-04-11T13:38:29.469Z</time></trkpt><trkpt lat="43.4562794" lon="11.1590649"><ele>113.00000000000001</ele><time>2026-04-11T13:38:31.478Z</time></trkpt><trkpt lat="43.4563693" lon="11.1589448"><ele>113.0</ele><time>2026-04-11T13:38:33.471Z</time></trkpt><trkpt lat="43.4564708" lon="11.1588585"><ele>113.0</ele><time>2026-04-11T13:38:35.474Z</time></trkpt><trkpt lat="43.4565775" lon="11.1587964"><ele>111.83333333333333</ele><time>2026-04-11T13:38:37.472Z</time></trkpt><trkpt lat="43.456654" lon="11.1587438"><ele>110.66666666666666</ele><time>2026-04-11T13:38:39.469Z</time></trkpt><trkpt lat="43.456731" lon="11.1586964"><ele>109.5</ele><time>2026-04-11T13:38:41.471Z</time></trkpt><trkpt lat="43.456825" lon="11.1586795"><ele>108.33333333333334</ele><time>2026-04-11T13:38:43.475Z</time></trkpt><trkpt lat="43.4568896" lon="11.1586907"><ele>107.16666666666667</ele><time>2026-04-11T13:38:44.484Z</time></trkpt><trkpt lat="43.4569576" lon="11.1587074"><ele>106.0</ele><time>2026-04-11T13:38:45.466Z</time></trkpt><trkpt lat="43.4570198" lon="11.1587224"><ele>106.16666666666667</ele><time>2026-04-11T13:38:46.487Z</time></trkpt><trkpt lat="43.4571258" lon="11.1587471"><ele>106.33333333333334</ele><time>2026-04-11T13:38:48.475Z</time></trkpt><trkpt lat="43.4572137" lon="11.1587681"><ele>106.5</ele><time>2026-04-11T13:38:50.467Z</time></trkpt><trkpt lat="43.4572993" lon="11.1587722"><ele>106.66666666666666</ele><time>2026-04-11T13:38:52.471Z</time></trkpt><trkpt lat="43.4573812" lon="11.1587836"><ele>106.83333333333333</ele><time>2026-04-11T13:38:54.472Z</time></trkpt><trkpt lat="43.4574606" lon="11.1587913"><ele>107.0</ele><time>2026-04-11T13:38:56.469Z</time></trkpt><trkpt lat="43.4575278" lon="11.1587807"><ele>106.99999999999999</ele><time>2026-04-11T13:38:58.479Z</time></trkpt><trkpt lat="43.4576114" lon="11.1587284"><ele>107.0</ele><time>2026-04-11T13:39:01.471Z</time></trkpt><trkpt lat="43.4576831" lon="11.1586553"><ele>107.0</ele><time>2026-04-11T13:39:04.556Z</time></trkpt><trkpt lat="43.4577284" lon="11.1585895"><ele>107.0</ele><time>2026-04-11T13:39:06.477Z</time></trkpt><trkpt lat="43.4578208" lon="11.158589"><ele>106.99999999999999</ele><time>2026-04-11T13:39:09.466Z</time></trkpt><trkpt lat="43.4578514" lon="11.1586666"><ele>107.0</ele><time>2026-04-11T13:39:11.472Z</time></trkpt><trkpt lat="43.4578753" lon="11.1587634"><ele>106.99999999999999</ele><time>2026-04-11T13:39:13.481Z</time></trkpt><trkpt lat="43.4579191" lon="11.1588386"><ele>107.0</ele><time>2026-04-11T13:39:15.478Z</time></trkpt><trkpt lat="43.4579972" lon="11.1588611"><ele>107.0</ele><time>2026-04-11T13:39:17.472Z</time></trkpt><trkpt lat="43.4580643" lon="11.1589143"><ele>107.0</ele><time>2026-04-11T13:39:19.474Z</time></trkpt><trkpt lat="43.4581266" lon="11.1589974"><ele>106.99999999999999</ele><time>2026-04-11T13:39:21.462Z</time></trkpt><trkpt lat="43.4581802" lon="11.1590856"><ele>107.0</ele><time>2026-04-11T13:39:23.48Z</time></trkpt><trkpt lat="43.4582314" lon="11.1591838"><ele>107.19999999999999</ele><time>2026-04-11T13:39:25.465Z</time></trkpt><trkpt lat="43.4582782" lon="11.159289"><ele>107.39999999999999</ele><time>2026-04-11T13:39:27.47Z</time></trkpt><trkpt lat="43.4583274" lon="11.1593947"><ele>107.60000000000001</ele><time>2026-04-11T13:39:29.535Z</time></trkpt><trkpt lat="43.4583942" lon="11.1594953"><ele>107.80000000000001</ele><time>2026-04-11T13:39:31.467Z</time></trkpt><trkpt lat="43.458431" lon="11.1596087"><ele>108.0</ele><time>2026-04-11T13:39:33.461Z</time></trkpt><trkpt lat="43.4584805" lon="11.1596978"><ele>108.0</ele><time>2026-04-11T13:39:35.468Z</time></trkpt><trkpt lat="43.458531" lon="11.1598074"><ele>108.00000000000001</ele><time>2026-04-11T13:39:37.47Z</time></trkpt><trkpt lat="43.4585696" lon="11.1599121"><ele>108.00000000000001</ele><time>2026-04-11T13:39:39.468Z</time></trkpt><trkpt lat="43.4586413" lon="11.1600129"><ele>108.0</ele><time>2026-04-11T13:39:41.469Z</time></trkpt><trkpt lat="43.4587527" lon="11.1600246"><ele>108.0</ele><time>2026-04-11T13:39:43.535Z</time></trkpt><trkpt lat="43.4588455" lon="11.159985"><ele>107.80000000000001</ele><time>2026-04-11T13:39:45.466Z</time></trkpt><trkpt lat="43.4589299" lon="11.1599078"><ele>107.60000000000001</ele><time>2026-04-11T13:39:47.468Z</time></trkpt><trkpt lat="43.4590197" lon="11.1598478"><ele>107.39999999999999</ele><time>2026-04-11T13:39:49.472Z</time></trkpt><trkpt lat="43.4591186" lon="11.1598226"><ele>107.19999999999999</ele><time>2026-04-11T13:39:51.465Z</time></trkpt><trkpt lat="43.4592216" lon="11.1598022"><ele>107.0</ele><time>2026-04-11T13:39:53.472Z</time></trkpt><trkpt lat="43.4593189" lon="11.1597732"><ele>108.19999999999999</ele><time>2026-04-11T13:39:55.47Z</time></trkpt><trkpt lat="43.4594119" lon="11.159732"><ele>109.39999999999999</ele><time>2026-04-11T13:39:57.474Z</time></trkpt><trkpt lat="43.459496" lon="11.1596708"><ele>110.60000000000001</ele><time>2026-04-11T13:39:59.475Z</time></trkpt><trkpt lat="43.4595823" lon="11.1596286"><ele>111.80000000000001</ele><time>2026-04-11T13:40:01.468Z</time></trkpt><trkpt lat="43.4596713" lon="11.1596187"><ele>113.0</ele><time>2026-04-11T13:40:03.475Z</time></trkpt><trkpt lat="43.4597568" lon="11.1596029"><ele>113.4</ele><time>2026-04-11T13:40:05.472Z</time></trkpt><trkpt lat="43.4598468" lon="11.1595772"><ele>113.80000000000001</ele><time>2026-04-11T13:40:07.476Z</time></trkpt><trkpt lat="43.4599422" lon="11.1595449"><ele>114.2</ele><time>2026-04-11T13:40:09.476Z</time></trkpt><trkpt lat="43.4600416" lon="11.1595202"><ele>114.6</ele><time>2026-04-11T13:40:11.489Z</time></trkpt><trkpt lat="43.4601381" lon="11.1594983"><ele>115.0</ele><time>2026-04-11T13:40:13.486Z</time></trkpt><trkpt lat="43.4602329" lon="11.159485"><ele>115.00000000000001</ele><time>2026-04-11T13:40:15.473Z</time></trkpt><trkpt lat="43.4603257" lon="11.1594696"><ele>115.0</ele><time>2026-04-11T13:40:17.476Z</time></trkpt><trkpt lat="43.4604193" lon="11.1594704"><ele>115.0</ele><time>2026-04-11T13:40:19.457Z</time></trkpt><trkpt lat="43.4605117" lon="11.1594737"><ele>115.0</ele><time>2026-04-11T13:40:21.47Z</time></trkpt><trkpt lat="43.4605976" lon="11.1594663"><ele>115.00000000000001</ele><time>2026-04-11T13:40:23.47Z</time></trkpt><trkpt lat="43.4606761" lon="11.1594797"><ele>115.0</ele><time>2026-04-11T13:40:25.471Z</time></trkpt><trkpt lat="43.4607515" lon="11.1595226"><ele>115.2</ele><time>2026-04-11T13:40:27.464Z</time></trkpt><trkpt lat="43.4608449" lon="11.1595778"><ele>115.4</ele><time>2026-04-11T13:40:29.462Z</time></trkpt><trkpt lat="43.4609357" lon="11.1596232"><ele>115.6</ele><time>2026-04-11T13:40:31.463Z</time></trkpt><trkpt lat="43.4610177" lon="11.1596694"><ele>115.8</ele><time>2026-04-11T13:40:33.469Z</time></trkpt><trkpt lat="43.4610949" lon="11.1597214"><ele>116.0</ele><time>2026-04-11T13:40:35.466Z</time></trkpt><trkpt lat="43.4611736" lon="11.1597779"><ele>115.99999999999999</ele><time>2026-04-11T13:40:37.474Z</time></trkpt><trkpt lat="43.4612456" lon="11.1598157"><ele>116.0</ele><time>2026-04-11T13:40:39.472Z</time></trkpt><trkpt lat="43.4613069" lon="11.1598563"><ele>116.0</ele><time>2026-04-11T13:40:41.469Z</time></trkpt><trkpt lat="43.4613701" lon="11.1599151"><ele>116.0</ele><time>2026-04-11T13:40:44.472Z</time></trkpt><trkpt lat="43.461414" lon="11.1600069"><ele>115.99999999999999</ele><time>2026-04-11T13:40:48.478Z</time></trkpt><trkpt lat="43.4613767" lon="11.1601003"><ele>116.0</ele><time>2026-04-11T13:40:52.472Z</time></trkpt><trkpt lat="43.4613243" lon="11.1601964"><ele>114.99999999999999</ele><time>2026-04-11T13:40:55.477Z</time></trkpt><trkpt lat="43.461265" lon="11.1602831"><ele>114.0</ele><time>2026-04-11T13:40:58.473Z</time></trkpt><trkpt lat="43.4612089" lon="11.1603626"><ele>113.0</ele><time>2026-04-11T13:41:01.473Z</time></trkpt><trkpt lat="43.4611773" lon="11.1604381"><ele>112.0</ele><time>2026-04-11T13:41:04.475Z</time></trkpt><trkpt lat="43.4612146" lon="11.1605473"><ele>110.99999999999999</ele><time>2026-04-11T13:41:07.472Z</time></trkpt><trkpt lat="43.4612563" lon="11.160614"><ele>110.0</ele><time>2026-04-11T13:41:09.489Z</time></trkpt><trkpt lat="43.4613219" lon="11.1606741"><ele>109.16666666666666</ele><time>2026-04-11T13:41:11.479Z</time></trkpt><trkpt lat="43.461388" lon="11.1607347"><ele>108.33333333333333</ele><time>2026-04-11T13:41:13.48Z</time></trkpt><trkpt lat="43.461453" lon="11.1608066"><ele>107.5</ele><time>2026-04-11T13:41:15.458Z</time></trkpt><trkpt lat="43.4615174" lon="11.160869"><ele>106.66666666666666</ele><time>2026-04-11T13:41:17.473Z</time></trkpt><trkpt lat="43.4615894" lon="11.1609296"><ele>105.83333333333333</ele><time>2026-04-11T13:41:19.473Z</time></trkpt><trkpt lat="43.4616666" lon="11.1609974"><ele>105.0</ele><time>2026-04-11T13:41:21.474Z</time></trkpt><trkpt lat="43.4617505" lon="11.1610484"><ele>105.0</ele><time>2026-04-11T13:41:23.482Z</time></trkpt><trkpt lat="43.461834" lon="11.1610968"><ele>105.0</ele><time>2026-04-11T13:41:25.471Z</time></trkpt><trkpt lat="43.4619207" lon="11.1611365"><ele>105.0</ele><time>2026-04-11T13:41:27.484Z</time></trkpt><trkpt lat="43.4619955" lon="11.1611711"><ele>105.0</ele><time>2026-04-11T13:41:29.469Z</time></trkpt><trkpt lat="43.4620755" lon="11.1612045"><ele>105.0</ele><time>2026-04-11T13:41:31.482Z</time></trkpt><trkpt lat="43.4621661" lon="11.1612391"><ele>105.0</ele><time>2026-04-11T13:41:33.481Z</time></trkpt><trkpt lat="43.4622591" lon="11.1612721"><ele>105.2</ele><time>2026-04-11T13:41:35.453Z</time></trkpt><trkpt lat="43.4623527" lon="11.1613114"><ele>105.4</ele><time>2026-04-11T13:41:37.483Z</time></trkpt><trkpt lat="43.4624427" lon="11.1613481"><ele>105.6</ele><time>2026-04-11T13:41:39.478Z</time></trkpt><trkpt lat="43.4625337" lon="11.161394"><ele>105.8</ele><time>2026-04-11T13:41:41.48Z</time></trkpt><trkpt lat="43.4626261" lon="11.161433"><ele>106.0</ele><time>2026-04-11T13:41:43.476Z</time></trkpt><trkpt lat="43.4627163" lon="11.161474"><ele>106.0</ele><time>2026-04-11T13:41:45.481Z</time></trkpt><trkpt lat="43.4628066" lon="11.1615089"><ele>106.0</ele><time>2026-04-11T13:41:47.476Z</time></trkpt><trkpt lat="43.4629057" lon="11.1615371"><ele>106.0</ele><time>2026-04-11T13:41:49.475Z</time></trkpt><trkpt lat="43.4630073" lon="11.1615638"><ele>106.0</ele><time>2026-04-11T13:41:51.471Z</time></trkpt><trkpt lat="43.4631031" lon="11.1615913"><ele>106.0</ele><time>2026-04-11T13:41:53.481Z</time></trkpt><trkpt lat="43.4631973" lon="11.1616233"><ele>105.8</ele><time>2026-04-11T13:41:55.478Z</time></trkpt><trkpt lat="43.4632899" lon="11.1616465"><ele>105.6</ele><time>2026-04-11T13:41:57.478Z</time></trkpt><trkpt lat="43.4633844" lon="11.1616748"><ele>105.4</ele><time>2026-04-11T13:41:59.479Z</time></trkpt><trkpt lat="43.4634728" lon="11.1617103"><ele>105.2</ele><time>2026-04-11T13:42:01.468Z</time></trkpt><trkpt lat="43.4635749" lon="11.1617411"><ele>105.0</ele><time>2026-04-11T13:42:03.481Z</time></trkpt><trkpt lat="43.4636653" lon="11.1617671"><ele>105.0</ele><time>2026-04-11T13:42:05.482Z</time></trkpt><trkpt lat="43.4637506" lon="11.1618021"><ele>105.0</ele><time>2026-04-11T13:42:07.471Z</time></trkpt><trkpt lat="43.4638487" lon="11.1618372"><ele>105.0</ele><time>2026-04-11T13:42:09.479Z</time></trkpt><trkpt lat="43.4639463" lon="11.1618691"><ele>105.0</ele><time>2026-04-11T13:42:11.482Z</time></trkpt><trkpt lat="43.4640381" lon="11.1618994"><ele>105.0</ele><time>2026-04-11T13:42:13.481Z</time></trkpt><trkpt lat="43.46414" lon="11.1619345"><ele>105.0</ele><time>2026-04-11T13:42:15.484Z</time></trkpt><trkpt lat="43.4642342" lon="11.1619652"><ele>105.0</ele><time>2026-04-11T13:42:17.469Z</time></trkpt><trkpt lat="43.4643337" lon="11.161967"><ele>105.0</ele><time>2026-04-11T13:42:19.485Z</time></trkpt><trkpt lat="43.4644331" lon="11.1619395"><ele>105.0</ele><time>2026-04-11T13:42:21.464Z</time></trkpt><trkpt lat="43.4645367" lon="11.1619306"><ele>105.0</ele><time>2026-04-11T13:42:23.485Z</time></trkpt><trkpt lat="43.4646345" lon="11.1619268"><ele>104.5</ele><time>2026-04-11T13:42:25.486Z</time></trkpt><trkpt lat="43.4647388" lon="11.1619088"><ele>104.0</ele><time>2026-04-11T13:42:27.477Z</time></trkpt><trkpt lat="43.464847" lon="11.161895"><ele>103.5</ele><time>2026-04-11T13:42:29.481Z</time></trkpt><trkpt lat="43.4649607" lon="11.1619234"><ele>103.0</ele><time>2026-04-11T13:42:31.478Z</time></trkpt><trkpt lat="43.4650801" lon="11.1619597"><ele>103.0</ele><time>2026-04-11T13:42:33.47Z</time></trkpt><trkpt lat="43.4652006" lon="11.1619524"><ele>103.0</ele><time>2026-04-11T13:42:35.475Z</time></trkpt><trkpt lat="43.4652621" lon="11.1619301"><ele>103.0</ele><time>2026-04-11T13:42:36.474Z</time></trkpt><trkpt lat="43.4653737" lon="11.161883"><ele>103.0</ele><time>2026-04-11T13:42:38.473Z</time></trkpt><trkpt lat="43.4654707" lon="11.1618132"><ele>103.0</ele><time>2026-04-11T13:42:40.467Z</time></trkpt><trkpt lat="43.4655662" lon="11.1617302"><ele>103.2</ele><time>2026-04-11T13:42:42.489Z</time></trkpt><trkpt lat="43.4656651" lon="11.1616389"><ele>103.4</ele><time>2026-04-11T13:42:44.478Z</time></trkpt><trkpt lat="43.4657601" lon="11.1615469"><ele>103.60000000000001</ele><time>2026-04-11T13:42:46.467Z</time></trkpt><trkpt lat="43.4658199" lon="11.1614428"><ele>103.80000000000001</ele><time>2026-04-11T13:42:48.468Z</time></trkpt><trkpt lat="43.4658399" lon="11.161319"><ele>104.0</ele><time>2026-04-11T13:42:50.483Z</time></trkpt><trkpt lat="43.4658339" lon="11.1611865"><ele>104.0</ele><time>2026-04-11T13:42:52.472Z</time></trkpt><trkpt lat="43.4658304" lon="11.1610461"><ele>104.0</ele><time>2026-04-11T13:42:54.471Z</time></trkpt><trkpt lat="43.4658259" lon="11.1609137"><ele>104.0</ele><time>2026-04-11T13:42:56.47Z</time></trkpt><trkpt lat="43.4658224" lon="11.1607784"><ele>104.0</ele><time>2026-04-11T13:42:58.474Z</time></trkpt><trkpt lat="43.4658443" lon="11.160651"><ele>104.0</ele><time>2026-04-11T13:43:00.472Z</time></trkpt><trkpt lat="43.4658761" lon="11.1605045"><ele>104.0</ele><time>2026-04-11T13:43:02.479Z</time></trkpt><trkpt lat="43.4659103" lon="11.1603512"><ele>104.0</ele><time>2026-04-11T13:43:04.472Z</time></trkpt><trkpt lat="43.4659312" lon="11.1602675"><ele>104.0</ele><time>2026-04-11T13:43:05.467Z</time></trkpt><trkpt lat="43.4659606" lon="11.1601038"><ele>104.0</ele><time>2026-04-11T13:43:07.48Z</time></trkpt><trkpt lat="43.4659946" lon="11.1599388"><ele>104.0</ele><time>2026-04-11T13:43:09.462Z</time></trkpt><trkpt lat="43.4660349" lon="11.1597806"><ele>104.0</ele><time>2026-04-11T13:43:11.478Z</time></trkpt><trkpt lat="43.4660776" lon="11.1596249"><ele>104.0</ele><time>2026-04-11T13:43:13.472Z</time></trkpt><trkpt lat="43.4661134" lon="11.1594646"><ele>104.0</ele><time>2026-04-11T13:43:15.479Z</time></trkpt><trkpt lat="43.4661436" lon="11.1593007"><ele>104.0</ele><time>2026-04-11T13:43:17.487Z</time></trkpt><trkpt lat="43.4661792" lon="11.1591376"><ele>104.0</ele><time>2026-04-11T13:43:19.466Z</time></trkpt><trkpt lat="43.4662117" lon="11.1589803"><ele>104.0</ele><time>2026-04-11T13:43:21.474Z</time></trkpt><trkpt lat="43.4662363" lon="11.1588357"><ele>104.0</ele><time>2026-04-11T13:43:23.466Z</time></trkpt><trkpt lat="43.4662725" lon="11.1586899"><ele>104.0</ele><time>2026-04-11T13:43:25.468Z</time></trkpt><trkpt lat="43.4663094" lon="11.1585417"><ele>103.5</ele><time>2026-04-11T13:43:27.46Z</time></trkpt><trkpt lat="43.4663474" lon="11.158395"><ele>103.0</ele><time>2026-04-11T13:43:29.483Z</time></trkpt><trkpt lat="43.4663853" lon="11.1582498"><ele>102.5</ele><time>2026-04-11T13:43:31.478Z</time></trkpt><trkpt lat="43.46643" lon="11.158099"><ele>102.0</ele><time>2026-04-11T13:43:33.492Z</time></trkpt><trkpt lat="43.4664616" lon="11.157952"><ele>101.75</ele><time>2026-04-11T13:43:35.48Z</time></trkpt><trkpt lat="43.4664983" lon="11.1578015"><ele>101.5</ele><time>2026-04-11T13:43:37.47Z</time></trkpt><trkpt lat="43.4665309" lon="11.1576537"><ele>101.25</ele><time>2026-04-11T13:43:39.469Z</time></trkpt><trkpt lat="43.4665673" lon="11.1575074"><ele>101.0</ele><time>2026-04-11T13:43:41.476Z</time></trkpt><trkpt lat="43.4666089" lon="11.1573608"><ele>101.4</ele><time>2026-04-11T13:43:43.48Z</time></trkpt><trkpt lat="43.4666399" lon="11.1572108"><ele>101.8</ele><time>2026-04-11T13:43:45.473Z</time></trkpt><trkpt lat="43.4666715" lon="11.1570672"><ele>102.2</ele><time>2026-04-11T13:43:47.478Z</time></trkpt><trkpt lat="43.4666955" lon="11.15692"><ele>102.60000000000001</ele><time>2026-04-11T13:43:49.489Z</time></trkpt><trkpt lat="43.466727" lon="11.1567735"><ele>103.0</ele><time>2026-04-11T13:43:51.474Z</time></trkpt><trkpt lat="43.4667635" lon="11.1566308"><ele>103.0</ele><time>2026-04-11T13:43:53.479Z</time></trkpt><trkpt lat="43.4668067" lon="11.1564837"><ele>103.0</ele><time>2026-04-11T13:43:55.47Z</time></trkpt><trkpt lat="43.4668497" lon="11.1563411"><ele>103.0</ele><time>2026-04-11T13:43:57.48Z</time></trkpt><trkpt lat="43.4668918" lon="11.1561964"><ele>103.0</ele><time>2026-04-11T13:43:59.471Z</time></trkpt><trkpt lat="43.4669329" lon="11.1560507"><ele>103.0</ele><time>2026-04-11T13:44:01.471Z</time></trkpt><trkpt lat="43.4669743" lon="11.155898"><ele>103.0</ele><time>2026-04-11T13:44:03.478Z</time></trkpt><trkpt lat="43.4670096" lon="11.1557459"><ele>103.0</ele><time>2026-04-11T13:44:05.48Z</time></trkpt><trkpt lat="43.4670467" lon="11.1555974"><ele>103.0</ele><time>2026-04-11T13:44:07.475Z</time></trkpt><trkpt lat="43.4670783" lon="11.1554501"><ele>102.60000000000001</ele><time>2026-04-11T13:44:09.47Z</time></trkpt><trkpt lat="43.4671159" lon="11.1553099"><ele>102.2</ele><time>2026-04-11T13:44:11.466Z</time></trkpt><trkpt lat="43.46715" lon="11.1551693"><ele>101.8</ele><time>2026-04-11T13:44:13.478Z</time></trkpt><trkpt lat="43.4671937" lon="11.1550324"><ele>101.4</ele><time>2026-04-11T13:44:15.471Z</time></trkpt><trkpt lat="43.4672362" lon="11.154893"><ele>101.0</ele><time>2026-04-11T13:44:17.486Z</time></trkpt><trkpt lat="43.4672728" lon="11.1547468"><ele>101.0</ele><time>2026-04-11T13:44:19.47Z</time></trkpt><trkpt lat="43.4673115" lon="11.1546044"><ele>101.0</ele><time>2026-04-11T13:44:21.478Z</time></trkpt><trkpt lat="43.4673529" lon="11.1544632"><ele>101.0</ele><time>2026-04-11T13:44:23.474Z</time></trkpt><trkpt lat="43.4673938" lon="11.1543161"><ele>101.0</ele><time>2026-04-11T13:44:25.468Z</time></trkpt><trkpt lat="43.4674297" lon="11.1541705"><ele>101.0</ele><time>2026-04-11T13:44:27.469Z</time></trkpt><trkpt lat="43.467465" lon="11.1540233"><ele>101.0</ele><time>2026-04-11T13:44:29.454Z</time></trkpt><trkpt lat="43.4675128" lon="11.1538914"><ele>101.0</ele><time>2026-04-11T13:44:31.474Z</time></trkpt><trkpt lat="43.4675593" lon="11.1537604"><ele>101.0</ele><time>2026-04-11T13:44:33.479Z</time></trkpt><trkpt lat="43.4676257" lon="11.1536392"><ele>101.0</ele><time>2026-04-11T13:44:35.482Z</time></trkpt><trkpt lat="43.4677004" lon="11.1535172"><ele>101.0</ele><time>2026-04-11T13:44:37.472Z</time></trkpt><trkpt lat="43.4677895" lon="11.1534065"><ele>101.0</ele><time>2026-04-11T13:44:39.481Z</time></trkpt><trkpt lat="43.4678844" lon="11.1532987"><ele>101.0</ele><time>2026-04-11T13:44:41.485Z</time></trkpt><trkpt lat="43.4679367" lon="11.1532497"><ele>101.0</ele><time>2026-04-11T13:44:42.481Z</time></trkpt><trkpt lat="43.4680408" lon="11.1531669"><ele>101.0</ele><time>2026-04-11T13:44:44.494Z</time></trkpt><trkpt lat="43.4681498" lon="11.1531131"><ele>101.0</ele><time>2026-04-11T13:44:46.477Z</time></trkpt><trkpt lat="43.4682319" lon="11.1531061"><ele>100.83333333333333</ele><time>2026-04-11T13:44:48.479Z</time></trkpt><trkpt lat="43.4682969" lon="11.1531362"><ele>100.66666666666666</ele><time>2026-04-11T13:44:52.489Z</time></trkpt><trkpt lat="43.4683512" lon="11.1532142"><ele>100.5</ele><time>2026-04-11T13:44:55.48Z</time></trkpt><trkpt lat="43.468418" lon="11.1532515"><ele>100.33333333333334</ele><time>2026-04-11T13:44:57.48Z</time></trkpt><trkpt lat="43.4685037" lon="11.1532455"><ele>100.16666666666667</ele><time>2026-04-11T13:44:59.469Z</time></trkpt><trkpt lat="43.4685894" lon="11.1532276"><ele>100.0</ele><time>2026-04-11T13:45:01.471Z</time></trkpt><trkpt lat="43.468683" lon="11.1531894"><ele>100.4</ele><time>2026-04-11T13:45:03.473Z</time></trkpt><trkpt lat="43.4687893" lon="11.153131"><ele>100.8</ele><time>2026-04-11T13:45:05.479Z</time></trkpt><trkpt lat="43.4688947" lon="11.1530796"><ele>101.19999999999999</ele><time>2026-04-11T13:45:07.472Z</time></trkpt><trkpt lat="43.4689982" lon="11.1530289"><ele>101.6</ele><time>2026-04-11T13:45:09.451Z</time></trkpt><trkpt lat="43.4691027" lon="11.1529839"><ele>102.0</ele><time>2026-04-11T13:45:11.473Z</time></trkpt><trkpt lat="43.4692103" lon="11.1529422"><ele>102.0</ele><time>2026-04-11T13:45:13.467Z</time></trkpt><trkpt lat="43.4693156" lon="11.1528997"><ele>102.0</ele><time>2026-04-11T13:45:15.451Z</time></trkpt><trkpt lat="43.4694241" lon="11.1528434"><ele>102.0</ele><time>2026-04-11T13:45:17.464Z</time></trkpt><trkpt lat="43.4695253" lon="11.1527924"><ele>102.0</ele><time>2026-04-11T13:45:19.475Z</time></trkpt><trkpt lat="43.4696393" lon="11.1527539"><ele>102.25</ele><time>2026-04-11T13:45:21.465Z</time></trkpt><trkpt lat="43.4697532" lon="11.1527089"><ele>102.5</ele><time>2026-04-11T13:45:23.471Z</time></trkpt><trkpt lat="43.4698654" lon="11.1526486"><ele>102.75</ele><time>2026-04-11T13:45:25.478Z</time></trkpt><trkpt lat="43.4699715" lon="11.152592"><ele>103.0</ele><time>2026-04-11T13:45:27.476Z</time></trkpt><trkpt lat="43.4700785" lon="11.1525443"><ele>103.0</ele><time>2026-04-11T13:45:29.466Z</time></trkpt><trkpt lat="43.4701858" lon="11.1525016"><ele>103.0</ele><time>2026-04-11T13:45:31.471Z</time></trkpt><trkpt lat="43.4702917" lon="11.1524672"><ele>103.0</ele><time>2026-04-11T13:45:33.48Z</time></trkpt><trkpt lat="43.4703951" lon="11.1524269"><ele>103.0</ele><time>2026-04-11T13:45:35.464Z</time></trkpt><trkpt lat="43.4704959" lon="11.1523752"><ele>103.0</ele><time>2026-04-11T13:45:37.481Z</time></trkpt><trkpt lat="43.4706061" lon="11.1523448"><ele>102.75</ele><time>2026-04-11T13:45:39.481Z</time></trkpt><trkpt lat="43.4707232" lon="11.1523586"><ele>102.5</ele><time>2026-04-11T13:45:41.473Z</time></trkpt><trkpt lat="43.4708299" lon="11.1524143"><ele>102.25</ele><time>2026-04-11T13:45:43.488Z</time></trkpt><trkpt lat="43.4709205" lon="11.1524998"><ele>102.0</ele><time>2026-04-11T13:45:45.468Z</time></trkpt><trkpt lat="43.4709895" lon="11.1526189"><ele>102.0</ele><time>2026-04-11T13:45:47.483Z</time></trkpt><trkpt lat="43.4710335" lon="11.1527623"><ele>102.0</ele><time>2026-04-11T13:45:49.464Z</time></trkpt><trkpt lat="43.4710722" lon="11.1529028"><ele>102.0</ele><time>2026-04-11T13:45:51.465Z</time></trkpt><trkpt lat="43.471106" lon="11.1530386"><ele>102.0</ele><time>2026-04-11T13:45:53.487Z</time></trkpt><trkpt lat="43.4711414" lon="11.1531719"><ele>102.0</ele><time>2026-04-11T13:45:55.476Z</time></trkpt><trkpt lat="43.4711695" lon="11.1533081"><ele>102.0</ele><time>2026-04-11T13:45:57.476Z</time></trkpt><trkpt lat="43.4712023" lon="11.1534397"><ele>102.0</ele><time>2026-04-11T13:45:59.475Z</time></trkpt><trkpt lat="43.4712758" lon="11.1534896"><ele>102.0</ele><time>2026-04-11T13:46:01.45Z</time></trkpt><trkpt lat="43.471368" lon="11.1534601"><ele>102.0</ele><time>2026-04-11T13:46:03.47Z</time></trkpt><trkpt lat="43.471448" lon="11.1533797"><ele>102.0</ele><time>2026-04-11T13:46:05.467Z</time></trkpt><trkpt lat="43.4715382" lon="11.1533216"><ele>102.19999999999999</ele><time>2026-04-11T13:46:07.466Z</time></trkpt><trkpt lat="43.4716336" lon="11.1532694"><ele>102.4</ele><time>2026-04-11T13:46:09.449Z</time></trkpt><trkpt lat="43.4717369" lon="11.1532069"><ele>102.6</ele><time>2026-04-11T13:46:11.482Z</time></trkpt><trkpt lat="43.4718386" lon="11.1531478"><ele>102.80000000000001</ele><time>2026-04-11T13:46:13.48Z</time></trkpt><trkpt lat="43.4719341" lon="11.1530944"><ele>103.0</ele><time>2026-04-11T13:46:15.476Z</time></trkpt><trkpt lat="43.4720193" lon="11.1530402"><ele>103.0</ele><time>2026-04-11T13:46:17.476Z</time></trkpt><trkpt lat="43.4721057" lon="11.152984"><ele>103.0</ele><time>2026-04-11T13:46:19.473Z</time></trkpt><trkpt lat="43.4721952" lon="11.1529215"><ele>103.0</ele><time>2026-04-11T13:46:21.478Z</time></trkpt><trkpt lat="43.472283" lon="11.1528441"><ele>103.0</ele><time>2026-04-11T13:46:23.475Z</time></trkpt><trkpt lat="43.4723682" lon="11.1527561"><ele>103.0</ele><time>2026-04-11T13:46:25.466Z</time></trkpt><trkpt lat="43.4724504" lon="11.1526679"><ele>103.2</ele><time>2026-04-11T13:46:27.474Z</time></trkpt><trkpt lat="43.472531" lon="11.1525599"><ele>103.4</ele><time>2026-04-11T13:46:29.466Z</time></trkpt><trkpt lat="43.4726084" lon="11.1524454"><ele>103.60000000000001</ele><time>2026-04-11T13:46:31.474Z</time></trkpt><trkpt lat="43.4726849" lon="11.1523344"><ele>103.80000000000001</ele><time>2026-04-11T13:46:33.473Z</time></trkpt><trkpt lat="43.4727606" lon="11.1522222"><ele>104.0</ele><time>2026-04-11T13:46:35.466Z</time></trkpt><trkpt lat="43.4728426" lon="11.152112"><ele>103.80000000000001</ele><time>2026-04-11T13:46:37.465Z</time></trkpt><trkpt lat="43.4729249" lon="11.1520049"><ele>103.60000000000001</ele><time>2026-04-11T13:46:39.476Z</time></trkpt><trkpt lat="43.4730021" lon="11.1518959"><ele>103.4</ele><time>2026-04-11T13:46:41.472Z</time></trkpt><trkpt lat="43.4730807" lon="11.1517879"><ele>103.2</ele><time>2026-04-11T13:46:43.475Z</time></trkpt><trkpt lat="43.4731546" lon="11.1516729"><ele>103.0</ele><time>2026-04-11T13:46:45.475Z</time></trkpt><trkpt lat="43.4732282" lon="11.1515641"><ele>102.60000000000001</ele><time>2026-04-11T13:46:47.477Z</time></trkpt><trkpt lat="43.4732931" lon="11.1514503"><ele>102.2</ele><time>2026-04-11T13:46:49.476Z</time></trkpt><trkpt lat="43.4733662" lon="11.151351"><ele>101.8</ele><time>2026-04-11T13:46:51.476Z</time></trkpt><trkpt lat="43.4734348" lon="11.1512413"><ele>101.4</ele><time>2026-04-11T13:46:53.449Z</time></trkpt><trkpt lat="43.4734981" lon="11.1511452"><ele>101.0</ele><time>2026-04-11T13:46:55.462Z</time></trkpt><trkpt lat="43.4735618" lon="11.1510398"><ele>101.0</ele><time>2026-04-11T13:46:57.463Z</time></trkpt><trkpt lat="43.4736275" lon="11.1509319"><ele>101.0</ele><time>2026-04-11T13:46:59.536Z</time></trkpt><trkpt lat="43.4736929" lon="11.1508374"><ele>101.0</ele><time>2026-04-11T13:47:01.468Z</time></trkpt><trkpt lat="43.4737722" lon="11.150727"><ele>101.0</ele><time>2026-04-11T13:47:03.48Z</time></trkpt><trkpt lat="43.4738348" lon="11.15062"><ele>101.0</ele><time>2026-04-11T13:47:05.481Z</time></trkpt><trkpt lat="43.4738917" lon="11.1505219"><ele>101.0</ele><time>2026-04-11T13:47:07.475Z</time></trkpt><trkpt lat="43.4739546" lon="11.1504303"><ele>101.0</ele><time>2026-04-11T13:47:09.475Z</time></trkpt><trkpt lat="43.4740207" lon="11.1503349"><ele>101.0</ele><time>2026-04-11T13:47:11.478Z</time></trkpt><trkpt lat="43.4740853" lon="11.1502322"><ele>101.0</ele><time>2026-04-11T13:47:13.486Z</time></trkpt><trkpt lat="43.4741523" lon="11.1501319"><ele>101.0</ele><time>2026-04-11T13:47:15.468Z</time></trkpt><trkpt lat="43.4742276" lon="11.1500316"><ele>101.0</ele><time>2026-04-11T13:47:17.47Z</time></trkpt><trkpt lat="43.4742888" lon="11.1499239"><ele>101.0</ele><time>2026-04-11T13:47:19.548Z</time></trkpt><trkpt lat="43.4743502" lon="11.1498331"><ele>101.0</ele><time>2026-04-11T13:47:21.458Z</time></trkpt><trkpt lat="43.4744238" lon="11.1497245"><ele>101.0</ele><time>2026-04-11T13:47:23.473Z</time></trkpt><trkpt lat="43.4744984" lon="11.1496143"><ele>101.0</ele><time>2026-04-11T13:47:25.47Z</time></trkpt><trkpt lat="43.4745699" lon="11.149498"><ele>100.8</ele><time>2026-04-11T13:47:27.481Z</time></trkpt><trkpt lat="43.4746333" lon="11.1493872"><ele>100.6</ele><time>2026-04-11T13:47:29.476Z</time></trkpt><trkpt lat="43.4747026" lon="11.1492739"><ele>100.4</ele><time>2026-04-11T13:47:31.454Z</time></trkpt><trkpt lat="43.4747801" lon="11.1491653"><ele>100.2</ele><time>2026-04-11T13:47:33.464Z</time></trkpt><trkpt lat="43.4748602" lon="11.1490673"><ele>100.0</ele><time>2026-04-11T13:47:35.482Z</time></trkpt><trkpt lat="43.4749327" lon="11.1489582"><ele>100.0</ele><time>2026-04-11T13:47:37.465Z</time></trkpt><trkpt lat="43.4750062" lon="11.1488454"><ele>100.0</ele><time>2026-04-11T13:47:39.465Z</time></trkpt><trkpt lat="43.4750775" lon="11.1487357"><ele>100.0</ele><time>2026-04-11T13:47:41.467Z</time></trkpt><trkpt lat="43.4751512" lon="11.148627"><ele>100.0</ele><time>2026-04-11T13:47:43.465Z</time></trkpt><trkpt lat="43.4752191" lon="11.1485283"><ele>100.0</ele><time>2026-04-11T13:47:45.473Z</time></trkpt><trkpt lat="43.4753039" lon="11.1484489"><ele>100.0</ele><time>2026-04-11T13:47:47.478Z</time></trkpt><trkpt lat="43.4753741" lon="11.1483264"><ele>100.0</ele><time>2026-04-11T13:47:49.471Z</time></trkpt><trkpt lat="43.4754412" lon="11.1481969"><ele>100.0</ele><time>2026-04-11T13:47:51.471Z</time></trkpt><trkpt lat="43.4755193" lon="11.1480851"><ele>100.0</ele><time>2026-04-11T13:47:53.444Z</time></trkpt><trkpt lat="43.4756313" lon="11.1479159"><ele>100.2</ele><time>2026-04-11T13:47:56.473Z</time></trkpt><trkpt lat="43.4756871" lon="11.1478069"><ele>100.4</ele><time>2026-04-11T13:47:58.473Z</time></trkpt><trkpt lat="43.475739" lon="11.1476739"><ele>100.6</ele><time>2026-04-11T13:48:00.464Z</time></trkpt><trkpt lat="43.4757673" lon="11.1475564"><ele>100.8</ele><time>2026-04-11T13:48:02.452Z</time></trkpt><trkpt lat="43.475792" lon="11.1474377"><ele>101.0</ele><time>2026-04-11T13:48:05.546Z</time></trkpt><trkpt lat="43.4758244" lon="11.147324"><ele>100.99999999999999</ele><time>2026-04-11T13:48:08.476Z</time></trkpt><trkpt lat="43.4758654" lon="11.1472189"><ele>101.0</ele><time>2026-04-11T13:48:11.463Z</time></trkpt><trkpt lat="43.4759027" lon="11.1471488"><ele>101.0</ele><time>2026-04-11T13:48:13.552Z</time></trkpt><trkpt lat="43.4759271" lon="11.1470554"><ele>101.0</ele><time>2026-04-11T13:48:15.545Z</time></trkpt><trkpt lat="43.4759872" lon="11.1469888"><ele>100.99999999999999</ele><time>2026-04-11T13:48:17.472Z</time></trkpt><trkpt lat="43.4760772" lon="11.1469947"><ele>101.0</ele><time>2026-04-11T13:48:19.471Z</time></trkpt><trkpt lat="43.4761523" lon="11.1469926"><ele>100.99999999999999</ele><time>2026-04-11T13:48:21.478Z</time></trkpt><trkpt lat="43.4762363" lon="11.1470175"><ele>101.0</ele><time>2026-04-11T13:48:23.463Z</time></trkpt><trkpt lat="43.4763233" lon="11.1470263"><ele>101.0</ele><time>2026-04-11T13:48:25.449Z</time></trkpt><trkpt lat="43.4763937" lon="11.1470268"><ele>101.0</ele><time>2026-04-11T13:48:27.467Z</time></trkpt><trkpt lat="43.4764773" lon="11.1470444"><ele>100.99999999999999</ele><time>2026-04-11T13:48:30.465Z</time></trkpt><trkpt lat="43.4765686" lon="11.1470644"><ele>101.0</ele><time>2026-04-11T13:48:32.443Z</time></trkpt><trkpt lat="43.4766594" lon="11.1470888"><ele>101.19999999999999</ele><time>2026-04-11T13:48:34.468Z</time></trkpt><trkpt lat="43.4767539" lon="11.1471191"><ele>101.39999999999999</ele><time>2026-04-11T13:48:36.472Z</time></trkpt><trkpt lat="43.4768416" lon="11.1471405"><ele>101.6</ele><time>2026-04-11T13:48:38.56Z</time></trkpt><trkpt lat="43.4769335" lon="11.147158"><ele>101.8</ele><time>2026-04-11T13:48:40.467Z</time></trkpt><trkpt lat="43.4770229" lon="11.1471829"><ele>102.0</ele><time>2026-04-11T13:48:42.475Z</time></trkpt><trkpt lat="43.4771172" lon="11.1472137"><ele>102.0</ele><time>2026-04-11T13:48:44.451Z</time></trkpt><trkpt lat="43.4772134" lon="11.1472342"><ele>102.0</ele><time>2026-04-11T13:48:46.471Z</time></trkpt><trkpt lat="43.4773091" lon="11.1472525"><ele>102.0</ele><time>2026-04-11T13:48:48.462Z</time></trkpt><trkpt lat="43.4774055" lon="11.1472692"><ele>102.0</ele><time>2026-04-11T13:48:50.476Z</time></trkpt><trkpt lat="43.4775063" lon="11.1472891"><ele>102.0</ele><time>2026-04-11T13:48:52.473Z</time></trkpt><trkpt lat="43.4776182" lon="11.1472947"><ele>102.0</ele><time>2026-04-11T13:48:54.556Z</time></trkpt><trkpt lat="43.4777297" lon="11.1473067"><ele>102.0</ele><time>2026-04-11T13:48:56.457Z</time></trkpt><trkpt lat="43.4778335" lon="11.1473317"><ele>102.0</ele><time>2026-04-11T13:48:58.47Z</time></trkpt><trkpt lat="43.4779298" lon="11.1473569"><ele>102.0</ele><time>2026-04-11T13:49:00.459Z</time></trkpt><trkpt lat="43.4780082" lon="11.1473723"><ele>102.0</ele><time>2026-04-11T13:49:02.489Z</time></trkpt><trkpt lat="43.4780756" lon="11.1474029"><ele>103.14285714285714</ele><time>2026-04-11T13:49:04.473Z</time></trkpt><trkpt lat="43.4781324" lon="11.147441"><ele>104.28571428571429</ele><time>2026-04-11T13:49:06.467Z</time></trkpt><trkpt lat="43.4781966" lon="11.1474521"><ele>105.42857142857142</ele><time>2026-04-11T13:49:08.472Z</time></trkpt><trkpt lat="43.4782599" lon="11.1474444"><ele>106.57142857142857</ele><time>2026-04-11T13:49:10.465Z</time></trkpt><trkpt lat="43.478349" lon="11.1474343"><ele>107.71428571428571</ele><time>2026-04-11T13:49:13.475Z</time></trkpt><trkpt lat="43.4784252" lon="11.1474215"><ele>108.85714285714285</ele><time>2026-04-11T13:49:16.468Z</time></trkpt><trkpt lat="43.4785008" lon="11.1474385"><ele>110.0</ele><time>2026-04-11T13:49:19.54Z</time></trkpt><trkpt lat="43.4785648" lon="11.1474593"><ele>109.99999999999999</ele><time>2026-04-11T13:49:22.468Z</time></trkpt><trkpt lat="43.4786345" lon="11.1474695"><ele>110.0</ele><time>2026-04-11T13:49:25.538Z</time></trkpt><trkpt lat="43.4787075" lon="11.1474748"><ele>110.0</ele><time>2026-04-11T13:49:28.472Z</time></trkpt><trkpt lat="43.4787729" lon="11.1475083"><ele>110.0</ele><time>2026-04-11T13:49:31.458Z</time></trkpt><trkpt lat="43.478859" lon="11.1474745"><ele>110.0</ele><time>2026-04-11T13:49:33.455Z</time></trkpt><trkpt lat="43.4789288" lon="11.1474932"><ele>109.99999999999999</ele><time>2026-04-11T13:49:36.467Z</time></trkpt><trkpt lat="43.4789939" lon="11.1474841"><ele>110.0</ele><time>2026-04-11T13:49:39.451Z</time></trkpt><trkpt lat="43.4790622" lon="11.1475142"><ele>111.0</ele><time>2026-04-11T13:49:41.46Z</time></trkpt><trkpt lat="43.479129" lon="11.147493"><ele>112.0</ele><time>2026-04-11T13:49:44.484Z</time></trkpt><trkpt lat="43.4791962" lon="11.147499"><ele>113.0</ele><time>2026-04-11T13:49:48.473Z</time></trkpt><trkpt lat="43.4792675" lon="11.1474966"><ele>114.0</ele><time>2026-04-11T13:49:51.465Z</time></trkpt><trkpt lat="43.4793316" lon="11.1475028"><ele>115.00000000000001</ele><time>2026-04-11T13:49:54.466Z</time></trkpt><trkpt lat="43.4794152" lon="11.147513"><ele>116.0</ele><time>2026-04-11T13:49:58.465Z</time></trkpt><trkpt lat="43.4794794" lon="11.1475229"><ele>117.0</ele><time>2026-04-11T13:50:01.479Z</time></trkpt><trkpt lat="43.4795549" lon="11.1475236"><ele>118.0</ele><time>2026-04-11T13:50:05.466Z</time></trkpt><trkpt lat="43.4796277" lon="11.1475319"><ele>119.00000000000001</ele><time>2026-04-11T13:50:09.479Z</time></trkpt><trkpt lat="43.4796981" lon="11.1475364"><ele>120.0</ele><time>2026-04-11T13:50:12.477Z</time></trkpt><trkpt lat="43.4797725" lon="11.1475367"><ele>121.0</ele><time>2026-04-11T13:50:15.534Z</time></trkpt><trkpt lat="43.4798393" lon="11.1475441"><ele>122.00000000000001</ele><time>2026-04-11T13:50:18.481Z</time></trkpt><trkpt lat="43.4799219" lon="11.1475379"><ele>123.0</ele><time>2026-04-11T13:50:22.469Z</time></trkpt><trkpt lat="43.4800014" lon="11.1475504"><ele>124.0</ele><time>2026-04-11T13:50:26.473Z</time></trkpt><trkpt lat="43.4800688" lon="11.14757"><ele>124.0</ele><time>2026-04-11T13:50:29.476Z</time></trkpt><trkpt lat="43.4801402" lon="11.1475838"><ele>124.00000000000001</ele><time>2026-04-11T13:50:32.475Z</time></trkpt><trkpt lat="43.4802073" lon="11.1475856"><ele>124.0</ele><time>2026-04-11T13:50:35.454Z</time></trkpt><trkpt lat="43.4802712" lon="11.1475871"><ele>124.0</ele><time>2026-04-11T13:50:38.472Z</time></trkpt><trkpt lat="43.4803419" lon="11.1476234"><ele>124.00000000000001</ele><time>2026-04-11T13:50:42.47Z</time></trkpt><trkpt lat="43.4804155" lon="11.1476612"><ele>124.0</ele><time>2026-04-11T13:50:45.468Z</time></trkpt><trkpt lat="43.4804781" lon="11.1476917"><ele>124.0</ele><time>2026-04-11T13:50:47.484Z</time></trkpt><trkpt lat="43.4805503" lon="11.1477305"><ele>123.2</ele><time>2026-04-11T13:50:49.458Z</time></trkpt><trkpt lat="43.4806416" lon="11.1477899"><ele>122.4</ele><time>2026-04-11T13:50:51.469Z</time></trkpt><trkpt lat="43.4807378" lon="11.1478372"><ele>121.6</ele><time>2026-04-11T13:50:53.478Z</time></trkpt><trkpt lat="43.4808633" lon="11.1478942"><ele>120.8</ele><time>2026-04-11T13:50:55.533Z</time></trkpt><trkpt lat="43.4809286" lon="11.1479325"><ele>120.0</ele><time>2026-04-11T13:50:56.447Z</time></trkpt><trkpt lat="43.4810035" lon="11.1479659"><ele>120.0</ele><time>2026-04-11T13:50:57.466Z</time></trkpt><trkpt lat="43.4810733" lon="11.1480045"><ele>120.0</ele><time>2026-04-11T13:50:58.463Z</time></trkpt><trkpt lat="43.4811539" lon="11.1480404"><ele>120.0</ele><time>2026-04-11T13:50:59.456Z</time></trkpt><trkpt lat="43.4812345" lon="11.1480616"><ele>120.0</ele><time>2026-04-11T13:51:00.455Z</time></trkpt><trkpt lat="43.4813176" lon="11.148073"><ele>120.0</ele><time>2026-04-11T13:51:01.453Z</time></trkpt><trkpt lat="43.4813913" lon="11.1481091"><ele>120.0</ele><time>2026-04-11T13:51:02.472Z</time></trkpt><trkpt lat="43.4814694" lon="11.1481559"><ele>120.16666666666667</ele><time>2026-04-11T13:51:03.463Z</time></trkpt><trkpt lat="43.4815591" lon="11.1482206"><ele>120.33333333333334</ele><time>2026-04-11T13:51:04.539Z</time></trkpt><trkpt lat="43.4816409" lon="11.1482724"><ele>120.5</ele><time>2026-04-11T13:51:05.531Z</time></trkpt><trkpt lat="43.4817142" lon="11.1483092"><ele>120.66666666666667</ele><time>2026-04-11T13:51:06.46Z</time></trkpt><trkpt lat="43.4817855" lon="11.1483513"><ele>120.83333333333334</ele><time>2026-04-11T13:51:07.473Z</time></trkpt><trkpt lat="43.4818584" lon="11.1483927"><ele>121.0</ele><time>2026-04-11T13:51:08.478Z</time></trkpt><trkpt lat="43.4819345" lon="11.1484277"><ele>121.00000000000001</ele><time>2026-04-11T13:51:09.477Z</time></trkpt><trkpt lat="43.482017" lon="11.1484709"><ele>121.0</ele><time>2026-04-11T13:51:10.473Z</time></trkpt><trkpt lat="43.4820881" lon="11.1485138"><ele>121.0</ele><time>2026-04-11T13:51:11.473Z</time></trkpt><trkpt lat="43.4821602" lon="11.1485537"><ele>121.0</ele><time>2026-04-11T13:51:12.467Z</time></trkpt><trkpt lat="43.48223" lon="11.1485901"><ele>121.00000000000001</ele><time>2026-04-11T13:51:13.466Z</time></trkpt><trkpt lat="43.4823073" lon="11.1486329"><ele>121.0</ele><time>2026-04-11T13:51:14.47Z</time></trkpt><trkpt lat="43.482384" lon="11.1486696"><ele>120.0</ele><time>2026-04-11T13:51:15.483Z</time></trkpt><trkpt lat="43.4824545" lon="11.1487029"><ele>118.99999999999999</ele><time>2026-04-11T13:51:16.478Z</time></trkpt><trkpt lat="43.4825263" lon="11.1487404"><ele>118.0</ele><time>2026-04-11T13:51:17.462Z</time></trkpt><trkpt lat="43.4825959" lon="11.1487809"><ele>117.0</ele><time>2026-04-11T13:51:18.467Z</time></trkpt><trkpt lat="43.4826631" lon="11.1488197"><ele>115.99999999999999</ele><time>2026-04-11T13:51:19.473Z</time></trkpt><trkpt lat="43.4827338" lon="11.1488435"><ele>115.0</ele><time>2026-04-11T13:51:20.466Z</time></trkpt><trkpt lat="43.4828056" lon="11.1488687"><ele>114.0</ele><time>2026-04-11T13:51:21.478Z</time></trkpt><trkpt lat="43.4828806" lon="11.148901"><ele>113.42857142857142</ele><time>2026-04-11T13:51:22.469Z</time></trkpt><trkpt lat="43.4829516" lon="11.1489321"><ele>112.85714285714285</ele><time>2026-04-11T13:51:23.478Z</time></trkpt><trkpt lat="43.4830181" lon="11.1489616"><ele>112.28571428571428</ele><time>2026-04-11T13:51:24.46Z</time></trkpt><trkpt lat="43.4830877" lon="11.1489936"><ele>111.71428571428571</ele><time>2026-04-11T13:51:25.469Z</time></trkpt><trkpt lat="43.4831588" lon="11.1490241"><ele>111.14285714285714</ele><time>2026-04-11T13:51:26.468Z</time></trkpt><trkpt lat="43.4832227" lon="11.1490586"><ele>110.57142857142856</ele><time>2026-04-11T13:51:27.48Z</time></trkpt><trkpt lat="43.4832856" lon="11.1490896"><ele>110.0</ele><time>2026-04-11T13:51:28.481Z</time></trkpt><trkpt lat="43.4833426" lon="11.1491271"><ele>109.99999999999999</ele><time>2026-04-11T13:51:29.468Z</time></trkpt><trkpt lat="43.4834522" lon="11.1491999"><ele>110.0</ele><time>2026-04-11T13:51:31.466Z</time></trkpt><trkpt lat="43.4835608" lon="11.1492676"><ele>110.0</ele><time>2026-04-11T13:51:33.47Z</time></trkpt><trkpt lat="43.483618" lon="11.1493041"><ele>110.0</ele><time>2026-04-11T13:51:34.477Z</time></trkpt><trkpt lat="43.483674" lon="11.1493469"><ele>109.99999999999999</ele><time>2026-04-11T13:51:35.479Z</time></trkpt><trkpt lat="43.4837348" lon="11.1493917"><ele>110.0</ele><time>2026-04-11T13:51:36.477Z</time></trkpt><trkpt lat="43.4838342" lon="11.1494858"><ele>109.99999999999999</ele><time>2026-04-11T13:51:38.466Z</time></trkpt><trkpt lat="43.4839228" lon="11.1495887"><ele>110.0</ele><time>2026-04-11T13:51:40.469Z</time></trkpt><trkpt lat="43.483969" lon="11.1496482"><ele>110.0</ele><time>2026-04-11T13:51:41.47Z</time></trkpt><trkpt lat="43.4840573" lon="11.1497723"><ele>110.0</ele><time>2026-04-11T13:51:43.468Z</time></trkpt><trkpt lat="43.4841055" lon="11.1498403"><ele>109.99999999999999</ele><time>2026-04-11T13:51:44.476Z</time></trkpt><trkpt lat="43.4841603" lon="11.1499102"><ele>110.0</ele><time>2026-04-11T13:51:45.465Z</time></trkpt><trkpt lat="43.4842184" lon="11.1499822"><ele>110.33333333333333</ele><time>2026-04-11T13:51:46.472Z</time></trkpt><trkpt lat="43.4842827" lon="11.1500463"><ele>110.66666666666666</ele><time>2026-04-11T13:51:47.47Z</time></trkpt><trkpt lat="43.4843524" lon="11.1500946"><ele>111.0</ele><time>2026-04-11T13:51:48.47Z</time></trkpt><trkpt lat="43.4844275" lon="11.1501242"><ele>111.33333333333334</ele><time>2026-04-11T13:51:49.478Z</time></trkpt><trkpt lat="43.4845074" lon="11.1501436"><ele>111.66666666666667</ele><time>2026-04-11T13:51:50.47Z</time></trkpt><trkpt lat="43.4845932" lon="11.150156"><ele>112.0</ele><time>2026-04-11T13:51:51.481Z</time></trkpt><trkpt lat="43.4846803" lon="11.1501715"><ele>111.16666666666667</ele><time>2026-04-11T13:51:52.471Z</time></trkpt><trkpt lat="43.4847652" lon="11.1501882"><ele>110.33333333333334</ele><time>2026-04-11T13:51:53.483Z</time></trkpt><trkpt lat="43.4848495" lon="11.1502058"><ele>109.5</ele><time>2026-04-11T13:51:54.467Z</time></trkpt><trkpt lat="43.484934" lon="11.1502224"><ele>108.66666666666666</ele><time>2026-04-11T13:51:55.469Z</time></trkpt><trkpt lat="43.4850211" lon="11.1502416"><ele>107.83333333333333</ele><time>2026-04-11T13:51:56.474Z</time></trkpt><trkpt lat="43.4851074" lon="11.1502642"><ele>107.0</ele><time>2026-04-11T13:51:57.456Z</time></trkpt><trkpt lat="43.4851939" lon="11.1502858"><ele>106.99999999999999</ele><time>2026-04-11T13:51:58.469Z</time></trkpt><trkpt lat="43.485277" lon="11.1503089"><ele>107.0</ele><time>2026-04-11T13:51:59.481Z</time></trkpt><trkpt lat="43.4853589" lon="11.1503333"><ele>107.0</ele><time>2026-04-11T13:52:00.467Z</time></trkpt><trkpt lat="43.485439" lon="11.150352"><ele>107.0</ele><time>2026-04-11T13:52:01.482Z</time></trkpt><trkpt lat="43.4855194" lon="11.1503687"><ele>106.99999999999999</ele><time>2026-04-11T13:52:02.47Z</time></trkpt><trkpt lat="43.4855998" lon="11.1503854"><ele>107.0</ele><time>2026-04-11T13:52:03.47Z</time></trkpt><trkpt lat="43.4856805" lon="11.1504029"><ele>107.0</ele><time>2026-04-11T13:52:04.468Z</time></trkpt><trkpt lat="43.4857587" lon="11.1504204"><ele>106.99999999999999</ele><time>2026-04-11T13:52:05.475Z</time></trkpt><trkpt lat="43.4858323" lon="11.150442"><ele>106.99999999999999</ele><time>2026-04-11T13:52:06.468Z</time></trkpt><trkpt lat="43.485898" lon="11.1504767"><ele>107.0</ele><time>2026-04-11T13:52:07.478Z</time></trkpt><trkpt lat="43.4859943" lon="11.1505766"><ele>107.0</ele><time>2026-04-11T13:52:09.486Z</time></trkpt><trkpt lat="43.4860727" lon="11.1506943"><ele>107.0</ele><time>2026-04-11T13:52:11.476Z</time></trkpt><trkpt lat="43.4861631" lon="11.1508065"><ele>106.99999999999999</ele><time>2026-04-11T13:52:13.467Z</time></trkpt><trkpt lat="43.4862052" lon="11.1508715"><ele>106.99999999999999</ele><time>2026-04-11T13:52:14.472Z</time></trkpt><trkpt lat="43.4862509" lon="11.1509333"><ele>107.0</ele><time>2026-04-11T13:52:15.474Z</time></trkpt><trkpt lat="43.4863621" lon="11.1510105"><ele>107.0</ele><time>2026-04-11T13:52:17.473Z</time></trkpt><trkpt lat="43.486487" lon="11.1510308"><ele>107.0</ele><time>2026-04-11T13:52:19.48Z</time></trkpt><trkpt lat="43.4866046" lon="11.1509968"><ele>106.99999999999999</ele><time>2026-04-11T13:52:21.479Z</time></trkpt><trkpt lat="43.4866606" lon="11.1509545"><ele>106.99999999999999</ele><time>2026-04-11T13:52:22.468Z</time></trkpt><trkpt lat="43.4867557" lon="11.1508641"><ele>107.0</ele><time>2026-04-11T13:52:24.463Z</time></trkpt><trkpt lat="43.4868375" lon="11.1507543"><ele>107.0</ele><time>2026-04-11T13:52:26.476Z</time></trkpt><trkpt lat="43.4869317" lon="11.1506733"><ele>107.0</ele><time>2026-04-11T13:52:28.474Z</time></trkpt><trkpt lat="43.4870407" lon="11.1506188"><ele>106.99999999999999</ele><time>2026-04-11T13:52:30.469Z</time></trkpt><trkpt lat="43.4871465" lon="11.1505993"><ele>106.99999999999999</ele><time>2026-04-11T13:52:32.476Z</time></trkpt><trkpt lat="43.4872383" lon="11.150595"><ele>107.0</ele><time>2026-04-11T13:52:34.485Z</time></trkpt><trkpt lat="43.4873191" lon="11.150591"><ele>107.0</ele><time>2026-04-11T13:52:36.482Z</time></trkpt><trkpt lat="43.4874078" lon="11.1505755"><ele>107.19999999999999</ele><time>2026-04-11T13:52:38.473Z</time></trkpt><trkpt lat="43.4875018" lon="11.1505613"><ele>107.39999999999999</ele><time>2026-04-11T13:52:40.48Z</time></trkpt><trkpt lat="43.4876017" lon="11.1505471"><ele>107.60000000000001</ele><time>2026-04-11T13:52:42.473Z</time></trkpt><trkpt lat="43.4877036" lon="11.1505334"><ele>107.80000000000001</ele><time>2026-04-11T13:52:44.471Z</time></trkpt><trkpt lat="43.4878074" lon="11.1505249"><ele>108.0</ele><time>2026-04-11T13:52:46.474Z</time></trkpt><trkpt lat="43.4879122" lon="11.1505196"><ele>108.4</ele><time>2026-04-11T13:52:48.485Z</time></trkpt><trkpt lat="43.4880144" lon="11.1505138"><ele>108.80000000000001</ele><time>2026-04-11T13:52:50.47Z</time></trkpt><trkpt lat="43.4881117" lon="11.150514"><ele>109.2</ele><time>2026-04-11T13:52:52.478Z</time></trkpt><trkpt lat="43.4882072" lon="11.1505225"><ele>109.6</ele><time>2026-04-11T13:52:54.483Z</time></trkpt><trkpt lat="43.4882879" lon="11.1504895"><ele>110.0</ele><time>2026-04-11T13:52:56.487Z</time></trkpt><trkpt lat="43.4883034" lon="11.15037"><ele>110.0</ele><time>2026-04-11T13:52:58.457Z</time></trkpt><trkpt lat="43.4882861" lon="11.1502327"><ele>110.0</ele><time>2026-04-11T13:53:00.532Z</time></trkpt><trkpt lat="43.4882593" lon="11.1501096"><ele>110.0</ele><time>2026-04-11T13:53:02.476Z</time></trkpt><trkpt lat="43.4882541" lon="11.1500005"><ele>110.0</ele><time>2026-04-11T13:53:04.454Z</time></trkpt><trkpt lat="43.4882526" lon="11.149886"><ele>110.0</ele><time>2026-04-11T13:53:06.474Z</time></trkpt><trkpt lat="43.488257" lon="11.1497511"><ele>109.8</ele><time>2026-04-11T13:53:08.469Z</time></trkpt><trkpt lat="43.4882816" lon="11.14963"><ele>109.6</ele><time>2026-04-11T13:53:10.499Z</time></trkpt><trkpt lat="43.4883226" lon="11.1495189"><ele>109.4</ele><time>2026-04-11T13:53:12.472Z</time></trkpt><trkpt lat="43.4883606" lon="11.1493923"><ele>109.2</ele><time>2026-04-11T13:53:14.471Z</time></trkpt><trkpt lat="43.4884016" lon="11.1492772"><ele>109.0</ele><time>2026-04-11T13:53:16.466Z</time></trkpt><trkpt lat="43.4884353" lon="11.1491513"><ele>109.0</ele><time>2026-04-11T13:53:18.453Z</time></trkpt><trkpt lat="43.4884661" lon="11.1489266"><ele>109.0</ele><time>2026-04-11T13:53:21.463Z</time></trkpt><trkpt lat="43.4884997" lon="11.1487646"><ele>109.0</ele><time>2026-04-11T13:53:23.482Z</time></trkpt><trkpt lat="43.4885175" lon="11.1486129"><ele>109.0</ele><time>2026-04-11T13:53:25.452Z</time></trkpt><trkpt lat="43.4885283" lon="11.1484779"><ele>109.00000000000001</ele><time>2026-04-11T13:53:27.474Z</time></trkpt><trkpt lat="43.4885271" lon="11.148347"><ele>109.0</ele><time>2026-04-11T13:53:29.446Z</time></trkpt><trkpt lat="43.4885224" lon="11.1482228"><ele>109.0</ele><time>2026-04-11T13:53:31.488Z</time></trkpt><trkpt lat="43.4885271" lon="11.1481256"><ele>109.0</ele><time>2026-04-11T13:53:33.463Z</time></trkpt><trkpt lat="43.4885276" lon="11.1480081"><ele>109.00000000000001</ele><time>2026-04-11T13:53:36.479Z</time></trkpt><trkpt lat="43.4885236" lon="11.1478968"><ele>109.0</ele><time>2026-04-11T13:53:39.458Z</time></trkpt><trkpt lat="43.4885174" lon="11.1478036"><ele>109.33333333333334</ele><time>2026-04-11T13:53:42.478Z</time></trkpt><trkpt lat="43.4885157" lon="11.1477055"><ele>109.66666666666667</ele><time>2026-04-11T13:53:46.461Z</time></trkpt><trkpt lat="43.488517" lon="11.1475956"><ele>110.0</ele><time>2026-04-11T13:53:50.448Z</time></trkpt><trkpt lat="43.4885196" lon="11.1474906"><ele>110.33333333333334</ele><time>2026-04-11T13:53:54.47Z</time></trkpt><trkpt lat="43.4885182" lon="11.1473874"><ele>110.66666666666667</ele><time>2026-04-11T13:53:58.466Z</time></trkpt><trkpt lat="43.4885156" lon="11.1472882"><ele>111.0</ele><time>2026-04-11T13:54:02.466Z</time></trkpt><trkpt lat="43.4885103" lon="11.147184"><ele>111.28571428571428</ele><time>2026-04-11T13:54:06.469Z</time></trkpt><trkpt lat="43.4885157" lon="11.1470747"><ele>111.57142857142858</ele><time>2026-04-11T13:54:10.48Z</time></trkpt><trkpt lat="43.4885141" lon="11.1469782"><ele>111.85714285714286</ele><time>2026-04-11T13:54:14.455Z</time></trkpt><trkpt lat="43.4885281" lon="11.1468886"><ele>112.14285714285714</ele><time>2026-04-11T13:54:18.471Z</time></trkpt><trkpt lat="43.4885373" lon="11.1467946"><ele>112.42857142857142</ele><time>2026-04-11T13:54:22.468Z</time></trkpt><trkpt lat="43.4885732" lon="11.146723"><ele>112.71428571428572</ele><time>2026-04-11T13:54:26.472Z</time></trkpt><trkpt lat="43.4886217" lon="11.1466546"><ele>113.0</ele><time>2026-04-11T13:54:30.466Z</time></trkpt><trkpt lat="43.4886879" lon="11.1466124"><ele>113.0</ele><time>2026-04-11T13:54:34.451Z</time></trkpt><trkpt lat="43.4887561" lon="11.1465883"><ele>113.0</ele><time>2026-04-11T13:54:38.476Z</time></trkpt><trkpt lat="43.4888333" lon="11.146572"><ele>113.0</ele><time>2026-04-11T13:54:43.483Z</time></trkpt><trkpt lat="43.4888989" lon="11.1465607"><ele>113.0</ele><time>2026-04-11T13:54:47.472Z</time></trkpt><trkpt lat="43.4889648" lon="11.1465333"><ele>113.0</ele><time>2026-04-11T13:54:51.478Z</time></trkpt><trkpt lat="43.489042" lon="11.1465201"><ele>113.0</ele><time>2026-04-11T13:54:56.47Z</time></trkpt><trkpt lat="43.4891196" lon="11.146503"><ele>113.0</ele><time>2026-04-11T13:55:01.481Z</time></trkpt><trkpt lat="43.4891847" lon="11.1464848"><ele>115.14285714285714</ele><time>2026-04-11T13:55:05.474Z</time></trkpt><trkpt lat="43.4892581" lon="11.1464729"><ele>117.28571428571428</ele><time>2026-04-11T13:55:10.466Z</time></trkpt><trkpt lat="43.4893316" lon="11.1464547"><ele>119.42857142857142</ele><time>2026-04-11T13:55:15.456Z</time></trkpt><trkpt lat="43.4894087" lon="11.1464225"><ele>121.57142857142857</ele><time>2026-04-11T13:55:19.477Z</time></trkpt><trkpt lat="43.4894728" lon="11.1463815"><ele>123.7142857142857</ele><time>2026-04-11T13:55:23.467Z</time></trkpt><trkpt lat="43.489546" lon="11.1463578"><ele>125.85714285714285</ele><time>2026-04-11T13:55:27.476Z</time></trkpt><trkpt lat="43.4896097" lon="11.1463058"><ele>128.0</ele><time>2026-04-11T13:55:31.472Z</time></trkpt><trkpt lat="43.4896649" lon="11.1462626"><ele>128.42857142857142</ele><time>2026-04-11T13:55:34.468Z</time></trkpt><trkpt lat="43.4897202" lon="11.1462092"><ele>128.85714285714283</ele><time>2026-04-11T13:55:37.469Z</time></trkpt><trkpt lat="43.4897817" lon="11.1461411"><ele>129.28571428571428</ele><time>2026-04-11T13:55:41.473Z</time></trkpt><trkpt lat="43.4898328" lon="11.146089"><ele>129.71428571428572</ele><time>2026-04-11T13:55:44.475Z</time></trkpt><trkpt lat="43.4899023" lon="11.1460333"><ele>130.14285714285717</ele><time>2026-04-11T13:55:48.483Z</time></trkpt><trkpt lat="43.4899599" lon="11.1459916"><ele>130.57142857142858</ele><time>2026-04-11T13:55:51.477Z</time></trkpt><trkpt lat="43.4900131" lon="11.1459355"><ele>131.0</ele><time>2026-04-11T13:55:54.479Z</time></trkpt><trkpt lat="43.4900726" lon="11.1458702"><ele>131.0</ele><time>2026-04-11T13:55:58.482Z</time></trkpt><trkpt lat="43.4901307" lon="11.14581"><ele>131.0</ele><time>2026-04-11T13:56:03.469Z</time></trkpt><trkpt lat="43.490185" lon="11.1457631"><ele>131.0</ele><time>2026-04-11T13:56:06.459Z</time></trkpt><trkpt lat="43.4902455" lon="11.1457114"><ele>131.0</ele><time>2026-04-11T13:56:09.453Z</time></trkpt><trkpt lat="43.4903044" lon="11.1456625"><ele>131.0</ele><time>2026-04-11T13:56:12.476Z</time></trkpt><trkpt lat="43.4903776" lon="11.145618"><ele>131.0</ele><time>2026-04-11T13:56:16.491Z</time></trkpt><trkpt lat="43.4904422" lon="11.1455904"><ele>131.0</ele><time>2026-04-11T13:56:19.482Z</time></trkpt><trkpt lat="43.4905218" lon="11.1455637"><ele>132.57142857142858</ele><time>2026-04-11T13:56:23.471Z</time></trkpt><trkpt lat="43.4905924" lon="11.1455362"><ele>134.14285714285717</ele><time>2026-04-11T13:56:27.464Z</time></trkpt><trkpt lat="43.4906593" lon="11.1455129"><ele>135.71428571428572</ele><time>2026-04-11T13:56:30.468Z</time></trkpt><trkpt lat="43.4907362" lon="11.1454847"><ele>137.28571428571428</ele><time>2026-04-11T13:56:33.464Z</time></trkpt><trkpt lat="43.4908141" lon="11.1454654"><ele>138.85714285714283</ele><time>2026-04-11T13:56:36.449Z</time></trkpt><trkpt lat="43.490892" lon="11.145443"><ele>140.42857142857142</ele><time>2026-04-11T13:56:39.454Z</time></trkpt><trkpt lat="43.4909549" lon="11.1454293"><ele>142.0</ele><time>2026-04-11T13:56:42.457Z</time></trkpt><trkpt lat="43.491034" lon="11.1454203"><ele>142.0</ele><time>2026-04-11T13:56:46.458Z</time></trkpt><trkpt lat="43.4911104" lon="11.1454154"><ele>142.0</ele><time>2026-04-11T13:56:50.466Z</time></trkpt><trkpt lat="43.4911855" lon="11.145403"><ele>142.0</ele><time>2026-04-11T13:56:54.454Z</time></trkpt><trkpt lat="43.4912625" lon="11.1453909"><ele>142.0</ele><time>2026-04-11T13:56:58.451Z</time></trkpt><trkpt lat="43.4913397" lon="11.1453771"><ele>142.0</ele><time>2026-04-11T13:57:02.457Z</time></trkpt><trkpt lat="43.4914168" lon="11.1453398"><ele>142.0</ele><time>2026-04-11T13:57:06.457Z</time></trkpt><trkpt lat="43.4914852" lon="11.1453068"><ele>142.5</ele><time>2026-04-11T13:57:10.459Z</time></trkpt><trkpt lat="43.491563" lon="11.1452669"><ele>143.0</ele><time>2026-04-11T13:57:14.464Z</time></trkpt><trkpt lat="43.4916412" lon="11.1452259"><ele>143.5</ele><time>2026-04-11T13:57:18.455Z</time></trkpt><trkpt lat="43.4917042" lon="11.145201"><ele>144.0</ele><time>2026-04-11T13:57:21.449Z</time></trkpt><trkpt lat="43.4917796" lon="11.1451644"><ele>144.5</ele><time>2026-04-11T13:57:25.448Z</time></trkpt><trkpt lat="43.4918565" lon="11.1451276"><ele>145.0</ele><time>2026-04-11T13:57:29.46Z</time></trkpt><trkpt lat="43.4919339" lon="11.1451052"><ele>145.0</ele><time>2026-04-11T13:57:33.46Z</time></trkpt><trkpt lat="43.4920073" lon="11.1450758"><ele>145.0</ele><time>2026-04-11T13:57:37.45Z</time></trkpt><trkpt lat="43.4920873" lon="11.1450325"><ele>145.0</ele><time>2026-04-11T13:57:41.448Z</time></trkpt><trkpt lat="43.4921499" lon="11.1450012"><ele>145.0</ele><time>2026-04-11T13:57:44.471Z</time></trkpt><trkpt lat="43.4922264" lon="11.1449647"><ele>145.0</ele><time>2026-04-11T13:57:48.461Z</time></trkpt><trkpt lat="43.4922958" lon="11.1449205"><ele>145.0</ele><time>2026-04-11T13:57:52.464Z</time></trkpt><trkpt lat="43.4923738" lon="11.144881"><ele>147.33333333333334</ele><time>2026-04-11T13:57:56.453Z</time></trkpt><trkpt lat="43.4924427" lon="11.1448458"><ele>149.66666666666669</ele><time>2026-04-11T13:58:00.469Z</time></trkpt><trkpt lat="43.4925148" lon="11.1448044"><ele>152.0</ele><time>2026-04-11T13:58:04.461Z</time></trkpt><trkpt lat="43.4925957" lon="11.1447659"><ele>154.33333333333334</ele><time>2026-04-11T13:58:08.471Z</time></trkpt><trkpt lat="43.4926648" lon="11.1447224"><ele>156.66666666666666</ele><time>2026-04-11T13:58:11.455Z</time></trkpt><trkpt lat="43.49273" lon="11.1446917"><ele>159.0</ele><time>2026-04-11T13:58:14.447Z</time></trkpt><trkpt lat="43.4927962" lon="11.1446654"><ele>159.0</ele><time>2026-04-11T13:58:18.455Z</time></trkpt><trkpt lat="43.4928714" lon="11.1446255"><ele>159.0</ele><time>2026-04-11T13:58:22.457Z</time></trkpt><trkpt lat="43.4929363" lon="11.1445799"><ele>159.0</ele><time>2026-04-11T13:58:25.453Z</time></trkpt><trkpt lat="43.4930133" lon="11.1445331"><ele>159.0</ele><time>2026-04-11T13:58:28.456Z</time></trkpt><trkpt lat="43.4931014" lon="11.1445033"><ele>159.0</ele><time>2026-04-11T13:58:31.461Z</time></trkpt><trkpt lat="43.4931857" lon="11.1444623"><ele>159.0</ele><time>2026-04-11T13:58:34.458Z</time></trkpt><trkpt lat="43.4932705" lon="11.1444106"><ele>158.33333333333334</ele><time>2026-04-11T13:58:37.455Z</time></trkpt><trkpt lat="43.4933386" lon="11.1443821"><ele>157.66666666666666</ele><time>2026-04-11T13:58:39.461Z</time></trkpt><trkpt lat="43.4934162" lon="11.1443421"><ele>157.0</ele><time>2026-04-11T13:58:41.45Z</time></trkpt><trkpt lat="43.4934867" lon="11.1443139"><ele>156.33333333333331</ele><time>2026-04-11T13:58:43.466Z</time></trkpt><trkpt lat="43.4935749" lon="11.1442758"><ele>155.66666666666666</ele><time>2026-04-11T13:58:46.461Z</time></trkpt><trkpt lat="43.4936351" lon="11.1442473"><ele>155.0</ele><time>2026-04-11T13:58:48.464Z</time></trkpt><trkpt lat="43.493708" lon="11.1442132"><ele>155.83333333333331</ele><time>2026-04-11T13:58:51.457Z</time></trkpt><trkpt lat="43.4937872" lon="11.1441879"><ele>156.66666666666666</ele><time>2026-04-11T13:58:54.464Z</time></trkpt><trkpt lat="43.4938706" lon="11.1441465"><ele>157.5</ele><time>2026-04-11T13:58:57.457Z</time></trkpt><trkpt lat="43.4939354" lon="11.1441105"><ele>158.33333333333334</ele><time>2026-04-11T13:58:59.471Z</time></trkpt><trkpt lat="43.4940003" lon="11.1440801"><ele>159.16666666666669</ele><time>2026-04-11T13:59:01.454Z</time></trkpt><trkpt lat="43.4940638" lon="11.1440441"><ele>160.0</ele><time>2026-04-11T13:59:03.466Z</time></trkpt><trkpt lat="43.4941383" lon="11.1440009"><ele>160.0</ele><time>2026-04-11T13:59:05.466Z</time></trkpt><trkpt lat="43.4942077" lon="11.1439593"><ele>160.0</ele><time>2026-04-11T13:59:07.447Z</time></trkpt><trkpt lat="43.4942722" lon="11.1439253"><ele>160.0</ele><time>2026-04-11T13:59:09.461Z</time></trkpt><trkpt lat="43.4943355" lon="11.1438859"><ele>160.0</ele><time>2026-04-11T13:59:11.463Z</time></trkpt><trkpt lat="43.4943998" lon="11.1438571"><ele>160.0</ele><time>2026-04-11T13:59:13.458Z</time></trkpt><trkpt lat="43.4944715" lon="11.1438155"><ele>160.0</ele><time>2026-04-11T13:59:16.453Z</time></trkpt><trkpt lat="43.4945317" lon="11.1437761"><ele>160.0</ele><time>2026-04-11T13:59:19.449Z</time></trkpt><trkpt lat="43.494598" lon="11.1437499"><ele>160.14285714285714</ele><time>2026-04-11T13:59:22.462Z</time></trkpt><trkpt lat="43.494663" lon="11.1437185"><ele>160.28571428571428</ele><time>2026-04-11T13:59:25.453Z</time></trkpt><trkpt lat="43.4947263" lon="11.143686"><ele>160.42857142857144</ele><time>2026-04-11T13:59:28.457Z</time></trkpt><trkpt lat="43.4948039" lon="11.1436472"><ele>160.57142857142856</ele><time>2026-04-11T13:59:32.462Z</time></trkpt><trkpt lat="43.4948809" lon="11.14363"><ele>160.71428571428572</ele><time>2026-04-11T13:59:36.45Z</time></trkpt><trkpt lat="43.4949481" lon="11.1436229"><ele>160.85714285714286</ele><time>2026-04-11T13:59:39.461Z</time></trkpt><trkpt lat="43.4950157" lon="11.1436037"><ele>161.0</ele><time>2026-04-11T13:59:42.454Z</time></trkpt><trkpt lat="43.4950961" lon="11.143585"><ele>161.0</ele><time>2026-04-11T13:59:46.482Z</time></trkpt><trkpt lat="43.4951727" lon="11.1435616"><ele>161.0</ele><time>2026-04-11T13:59:50.451Z</time></trkpt><trkpt lat="43.4952534" lon="11.1435289"><ele>161.0</ele><time>2026-04-11T13:59:54.453Z</time></trkpt><trkpt lat="43.495328" lon="11.1434932"><ele>161.0</ele><time>2026-04-11T13:59:58.468Z</time></trkpt><trkpt lat="43.495407" lon="11.1434796"><ele>161.0</ele><time>2026-04-11T14:00:02.452Z</time></trkpt><trkpt lat="43.4954687" lon="11.1434601"><ele>161.0</ele><time>2026-04-11T14:00:05.459Z</time></trkpt><trkpt lat="43.4955528" lon="11.1434546"><ele>161.0</ele><time>2026-04-11T14:00:09.457Z</time></trkpt><trkpt lat="43.4956169" lon="11.1434379"><ele>161.0</ele><time>2026-04-11T14:00:12.459Z</time></trkpt><trkpt lat="43.4956808" lon="11.1434079"><ele>161.0</ele><time>2026-04-11T14:00:15.475Z</time></trkpt><trkpt lat="43.4957451" lon="11.1433838"><ele>161.0</ele><time>2026-04-11T14:00:18.46Z</time></trkpt><trkpt lat="43.4958116" lon="11.1433634"><ele>161.0</ele><time>2026-04-11T14:00:21.453Z</time></trkpt><trkpt lat="43.4958916" lon="11.1433486"><ele>161.0</ele><time>2026-04-11T14:00:25.452Z</time></trkpt><trkpt lat="43.4959743" lon="11.1433262"><ele>161.0</ele><time>2026-04-11T14:00:29.45Z</time></trkpt><trkpt lat="43.4960372" lon="11.1433189"><ele>161.0</ele><time>2026-04-11T14:00:32.455Z</time></trkpt><trkpt lat="43.4961009" lon="11.1432972"><ele>161.0</ele><time>2026-04-11T14:00:35.465Z</time></trkpt><trkpt lat="43.4961635" lon="11.1432747"><ele>161.0</ele><time>2026-04-11T14:00:38.459Z</time></trkpt><trkpt lat="43.4962356" lon="11.143251"><ele>161.0</ele><time>2026-04-11T14:00:41.456Z</time></trkpt><trkpt lat="43.4963062" lon="11.1432328"><ele>161.0</ele><time>2026-04-11T14:00:44.452Z</time></trkpt><trkpt lat="43.4963867" lon="11.1432059"><ele>161.0</ele><time>2026-04-11T14:00:48.459Z</time></trkpt><trkpt lat="43.4964496" lon="11.1431893"><ele>161.0</ele><time>2026-04-11T14:00:51.458Z</time></trkpt><trkpt lat="43.4965229" lon="11.1431752"><ele>163.83333333333331</ele><time>2026-04-11T14:00:55.456Z</time></trkpt><trkpt lat="43.4966016" lon="11.143158"><ele>166.66666666666666</ele><time>2026-04-11T14:00:59.464Z</time></trkpt><trkpt lat="43.4966741" lon="11.1431401"><ele>169.5</ele><time>2026-04-11T14:01:03.46Z</time></trkpt><trkpt lat="43.4967441" lon="11.143125"><ele>172.33333333333334</ele><time>2026-04-11T14:01:07.453Z</time></trkpt><trkpt lat="43.4968264" lon="11.1431054"><ele>175.16666666666669</ele><time>2026-04-11T14:01:11.46Z</time></trkpt><trkpt lat="43.4968978" lon="11.1430865"><ele>178.0</ele><time>2026-04-11T14:01:14.459Z</time></trkpt><trkpt lat="43.4969692" lon="11.1430762"><ele>177.99999999999997</ele><time>2026-04-11T14:01:17.457Z</time></trkpt><trkpt lat="43.4970432" lon="11.1430541"><ele>178.0</ele><time>2026-04-11T14:01:20.45Z</time></trkpt><trkpt lat="43.4971189" lon="11.1430575"><ele>178.0</ele><time>2026-04-11T14:01:23.458Z</time></trkpt><trkpt lat="43.4971943" lon="11.143068"><ele>178.0</ele><time>2026-04-11T14:01:26.464Z</time></trkpt><trkpt lat="43.4972623" lon="11.1431146"><ele>178.0</ele><time>2026-04-11T14:01:30.444Z</time></trkpt><trkpt lat="43.4973235" lon="11.1431538"><ele>177.99999999999997</ele><time>2026-04-11T14:01:33.453Z</time></trkpt><trkpt lat="43.497383" lon="11.1431972"><ele>178.0</ele><time>2026-04-11T14:01:36.452Z</time></trkpt><trkpt lat="43.4974436" lon="11.1432298"><ele>178.14285714285714</ele><time>2026-04-11T14:01:39.45Z</time></trkpt><trkpt lat="43.4975152" lon="11.1432818"><ele>178.28571428571428</ele><time>2026-04-11T14:01:43.449Z</time></trkpt><trkpt lat="43.497584" lon="11.1433221"><ele>178.42857142857144</ele><time>2026-04-11T14:01:46.452Z</time></trkpt><trkpt lat="43.4976454" lon="11.1433503"><ele>178.57142857142856</ele><time>2026-04-11T14:01:49.453Z</time></trkpt><trkpt lat="43.4977166" lon="11.143371"><ele>178.71428571428572</ele><time>2026-04-11T14:01:52.462Z</time></trkpt><trkpt lat="43.4977787" lon="11.1433876"><ele>178.85714285714286</ele><time>2026-04-11T14:01:55.459Z</time></trkpt><trkpt lat="43.4978505" lon="11.1434062"><ele>179.0</ele><time>2026-04-11T14:01:58.459Z</time></trkpt><trkpt lat="43.4979189" lon="11.1434272"><ele>179.0</ele><time>2026-04-11T14:02:01.454Z</time></trkpt><trkpt lat="43.497989" lon="11.1434396"><ele>179.0</ele><time>2026-04-11T14:02:04.459Z</time></trkpt><trkpt lat="43.4980638" lon="11.143452"><ele>179.0</ele><time>2026-04-11T14:02:07.478Z</time></trkpt><trkpt lat="43.4981551" lon="11.1434808"><ele>179.0</ele><time>2026-04-11T14:02:10.455Z</time></trkpt><trkpt lat="43.4982513" lon="11.1434973"><ele>179.0</ele><time>2026-04-11T14:02:13.461Z</time></trkpt><trkpt lat="43.4983214" lon="11.1435078"><ele>179.0</ele><time>2026-04-11T14:02:15.448Z</time></trkpt><trkpt lat="43.4983858" lon="11.1435184"><ele>179.00000000000003</ele><time>2026-04-11T14:02:17.45Z</time></trkpt><trkpt lat="43.4984477" lon="11.1435363"><ele>179.0</ele><time>2026-04-11T14:02:19.462Z</time></trkpt><trkpt lat="43.4985108" lon="11.1435587"><ele>179.0</ele><time>2026-04-11T14:02:21.448Z</time></trkpt><trkpt lat="43.4985756" lon="11.1435718"><ele>179.0</ele><time>2026-04-11T14:02:23.446Z</time></trkpt><trkpt lat="43.4986467" lon="11.1435821"><ele>179.0</ele><time>2026-04-11T14:02:25.453Z</time></trkpt><trkpt lat="43.4987168" lon="11.1435899"><ele>179.00000000000003</ele><time>2026-04-11T14:02:27.451Z</time></trkpt><trkpt lat="43.4987879" lon="11.1436022"><ele>179.0</ele><time>2026-04-11T14:02:29.463Z</time></trkpt><trkpt lat="43.4988572" lon="11.1436173"><ele>179.66666666666666</ele><time>2026-04-11T14:02:31.447Z</time></trkpt><trkpt lat="43.4989287" lon="11.1436319"><ele>180.33333333333331</ele><time>2026-04-11T14:02:33.465Z</time></trkpt><trkpt lat="43.4990011" lon="11.1436526"><ele>181.0</ele><time>2026-04-11T14:02:35.454Z</time></trkpt><trkpt lat="43.4990806" lon="11.1436744"><ele>181.66666666666666</ele><time>2026-04-11T14:02:37.448Z</time></trkpt><trkpt lat="43.4991536" lon="11.143693"><ele>182.33333333333334</ele><time>2026-04-11T14:02:39.472Z</time></trkpt><trkpt lat="43.4992309" lon="11.1437061"><ele>183.0</ele><time>2026-04-11T14:02:41.454Z</time></trkpt><trkpt lat="43.4993072" lon="11.1437233"><ele>183.0</ele><time>2026-04-11T14:02:43.472Z</time></trkpt><trkpt lat="43.4993762" lon="11.1437305"><ele>183.0</ele><time>2026-04-11T14:02:45.449Z</time></trkpt><trkpt lat="43.4994643" lon="11.1437398"><ele>183.0</ele><time>2026-04-11T14:02:48.456Z</time></trkpt><trkpt lat="43.4995296" lon="11.14373"><ele>183.0</ele><time>2026-04-11T14:02:50.468Z</time></trkpt><trkpt lat="43.4995993" lon="11.1437222"><ele>183.0</ele><time>2026-04-11T14:02:52.456Z</time></trkpt><trkpt lat="43.4996792" lon="11.1436922"><ele>183.0</ele><time>2026-04-11T14:02:54.482Z</time></trkpt><trkpt lat="43.4997483" lon="11.1436668"><ele>183.0</ele><time>2026-04-11T14:02:56.459Z</time></trkpt><trkpt lat="43.4998086" lon="11.1436404"><ele>181.66666666666666</ele><time>2026-04-11T14:02:58.459Z</time></trkpt><trkpt lat="43.4998842" lon="11.1436151"><ele>180.33333333333334</ele><time>2026-04-11T14:03:00.456Z</time></trkpt><trkpt lat="43.4999761" lon="11.1435952"><ele>179.0</ele><time>2026-04-11T14:03:02.449Z</time></trkpt><trkpt lat="43.5000689" lon="11.1435845"><ele>177.66666666666669</ele><time>2026-04-11T14:03:04.447Z</time></trkpt><trkpt lat="43.5001578" lon="11.1435733"><ele>176.33333333333334</ele><time>2026-04-11T14:03:06.456Z</time></trkpt><trkpt lat="43.5002489" lon="11.1435578"><ele>175.0</ele><time>2026-04-11T14:03:08.447Z</time></trkpt><trkpt lat="43.5003284" lon="11.1435635"><ele>175.0</ele><time>2026-04-11T14:03:10.462Z</time></trkpt><trkpt lat="43.5004096" lon="11.1435693"><ele>175.0</ele><time>2026-04-11T14:03:12.481Z</time></trkpt><trkpt lat="43.500489" lon="11.1435839"><ele>175.0</ele><time>2026-04-11T14:03:14.45Z</time></trkpt><trkpt lat="43.5005763" lon="11.1435948"><ele>175.0</ele><time>2026-04-11T14:03:16.46Z</time></trkpt><trkpt lat="43.5006741" lon="11.1436068"><ele>175.0</ele><time>2026-04-11T14:03:18.478Z</time></trkpt><trkpt lat="43.5007752" lon="11.1436123"><ele>175.0</ele><time>2026-04-11T14:03:20.449Z</time></trkpt><trkpt lat="43.5008835" lon="11.1436266"><ele>173.6</ele><time>2026-04-11T14:03:22.461Z</time></trkpt><trkpt lat="43.5009915" lon="11.1436371"><ele>172.2</ele><time>2026-04-11T14:03:24.463Z</time></trkpt><trkpt lat="43.5011066" lon="11.1436578"><ele>170.8</ele><time>2026-04-11T14:03:26.451Z</time></trkpt><trkpt lat="43.5012252" lon="11.1437176"><ele>169.4</ele><time>2026-04-11T14:03:28.459Z</time></trkpt><trkpt lat="43.5012833" lon="11.1437557"><ele>168.0</ele><time>2026-04-11T14:03:29.461Z</time></trkpt><trkpt lat="43.5013846" lon="11.143825"><ele>168.0</ele><time>2026-04-11T14:03:31.465Z</time></trkpt><trkpt lat="43.501479" lon="11.1438715"><ele>168.0</ele><time>2026-04-11T14:03:33.463Z</time></trkpt><trkpt lat="43.5015613" lon="11.143902"><ele>168.0</ele><time>2026-04-11T14:03:35.467Z</time></trkpt><trkpt lat="43.5016326" lon="11.1439469"><ele>168.0</ele><time>2026-04-11T14:03:37.46Z</time></trkpt><trkpt lat="43.5016959" lon="11.1439828"><ele>168.0</ele><time>2026-04-11T14:03:39.456Z</time></trkpt><trkpt lat="43.5017589" lon="11.1440281"><ele>168.0</ele><time>2026-04-11T14:03:41.468Z</time></trkpt><trkpt lat="43.5018302" lon="11.1440731"><ele>167.42857142857142</ele><time>2026-04-11T14:03:43.47Z</time></trkpt><trkpt lat="43.5018933" lon="11.1441023"><ele>166.85714285714286</ele><time>2026-04-11T14:03:45.476Z</time></trkpt><trkpt lat="43.5019532" lon="11.1441353"><ele>166.28571428571428</ele><time>2026-04-11T14:03:47.462Z</time></trkpt><trkpt lat="43.5020151" lon="11.1441659"><ele>165.71428571428572</ele><time>2026-04-11T14:03:49.468Z</time></trkpt><trkpt lat="43.5020809" lon="11.1442069"><ele>165.14285714285714</ele><time>2026-04-11T14:03:51.493Z</time></trkpt><trkpt lat="43.5021596" lon="11.1442623"><ele>164.57142857142856</ele><time>2026-04-11T14:03:54.458Z</time></trkpt><trkpt lat="43.5022361" lon="11.1443098"><ele>164.0</ele><time>2026-04-11T14:03:57.46Z</time></trkpt><trkpt lat="43.5023131" lon="11.1443481"><ele>165.66666666666666</ele><time>2026-04-11T14:04:00.457Z</time></trkpt><trkpt lat="43.5023944" lon="11.1444012"><ele>167.33333333333331</ele><time>2026-04-11T14:04:03.45Z</time></trkpt><trkpt lat="43.5024635" lon="11.1444586"><ele>169.0</ele><time>2026-04-11T14:04:06.448Z</time></trkpt><trkpt lat="43.502536" lon="11.1445131"><ele>170.66666666666666</ele><time>2026-04-11T14:04:10.446Z</time></trkpt><trkpt lat="43.5026125" lon="11.1445557"><ele>172.33333333333334</ele><time>2026-04-11T14:04:14.493Z</time></trkpt><trkpt lat="43.5026853" lon="11.1445837"><ele>174.0</ele><time>2026-04-11T14:04:18.458Z</time></trkpt><trkpt lat="43.5027605" lon="11.144622"><ele>174.0</ele><time>2026-04-11T14:04:23.461Z</time></trkpt><trkpt lat="43.5028266" lon="11.1446646"><ele>174.0</ele><time>2026-04-11T14:04:28.471Z</time></trkpt><trkpt lat="43.5028925" lon="11.1446879"><ele>174.0</ele><time>2026-04-11T14:04:33.468Z</time></trkpt><trkpt lat="43.5029637" lon="11.1447204"><ele>174.0</ele><time>2026-04-11T14:04:38.455Z</time></trkpt><trkpt lat="43.5030356" lon="11.144745"><ele>174.0</ele><time>2026-04-11T14:04:44.472Z</time></trkpt><trkpt lat="43.5031065" lon="11.1447595"><ele>174.0</ele><time>2026-04-11T14:04:54.483Z</time></trkpt><trkpt lat="43.5031871" lon="11.1447864"><ele>174.0</ele><time>2026-04-11T14:05:01.459Z</time></trkpt><trkpt lat="43.5032492" lon="11.1448123"><ele>174.85714285714286</ele><time>2026-04-11T14:05:08.457Z</time></trkpt><trkpt lat="43.5033107" lon="11.1448328"><ele>175.71428571428572</ele><time>2026-04-11T14:05:14.464Z</time></trkpt><trkpt lat="43.5033806" lon="11.1448434"><ele>176.57142857142856</ele><time>2026-04-11T14:05:21.456Z</time></trkpt><trkpt lat="43.5034459" lon="11.1448729"><ele>177.42857142857144</ele><time>2026-04-11T14:05:27.477Z</time></trkpt><trkpt lat="43.503518" lon="11.1449183"><ele>178.2857142857143</ele><time>2026-04-11T14:05:35.469Z</time></trkpt><trkpt lat="43.5035699" lon="11.1449759"><ele>179.14285714285714</ele><time>2026-04-11T14:05:40.46Z</time></trkpt><trkpt lat="43.5036367" lon="11.1450681"><ele>180.0</ele><time>2026-04-11T14:05:50.467Z</time></trkpt><trkpt lat="43.5036779" lon="11.1451589"><ele>180.0</ele><time>2026-04-11T14:05:57.462Z</time></trkpt><trkpt lat="43.5037116" lon="11.1452517"><ele>180.0</ele><time>2026-04-11T14:06:02.473Z</time></trkpt><trkpt lat="43.5037444" lon="11.1453363"><ele>180.0</ele><time>2026-04-11T14:06:07.463Z</time></trkpt><trkpt lat="43.5037774" lon="11.1454134"><ele>180.0</ele><time>2026-04-11T14:06:13.46Z</time></trkpt><trkpt lat="43.5038229" lon="11.1454835"><ele>180.0</ele><time>2026-04-11T14:06:18.453Z</time></trkpt><trkpt lat="43.5038878" lon="11.1455349"><ele>180.0</ele><time>2026-04-11T14:06:24.475Z</time></trkpt><trkpt lat="43.5039658" lon="11.1455321"><ele>180.0</ele><time>2026-04-11T14:06:30.457Z</time></trkpt><trkpt lat="43.5040289" lon="11.1454921"><ele>183.0</ele><time>2026-04-11T14:06:36.468Z</time></trkpt><trkpt lat="43.5040872" lon="11.1454409"><ele>186.0</ele><time>2026-04-11T14:06:43.487Z</time></trkpt><trkpt lat="43.5041573" lon="11.145363"><ele>189.0</ele><time>2026-04-11T14:06:51.47Z</time></trkpt><trkpt lat="43.5042293" lon="11.14536"><ele>192.0</ele><time>2026-04-11T14:06:57.448Z</time></trkpt><trkpt lat="43.5042955" lon="11.1453897"><ele>195.0</ele><time>2026-04-11T14:07:04.462Z</time></trkpt><trkpt lat="43.5043227" lon="11.1454852"><ele>198.0</ele><time>2026-04-11T14:07:12.467Z</time></trkpt><trkpt lat="43.5043594" lon="11.1455627"><ele>201.0</ele><time>2026-04-11T14:07:17.465Z</time></trkpt><trkpt lat="43.5044106" lon="11.1456279"><ele>201.0</ele><time>2026-04-11T14:07:22.453Z</time></trkpt><trkpt lat="43.5044793" lon="11.145652"><ele>201.0</ele><time>2026-04-11T14:07:27.463Z</time></trkpt><trkpt lat="43.504547" lon="11.1456313"><ele>201.0</ele><time>2026-04-11T14:07:33.477Z</time></trkpt><trkpt lat="43.5046106" lon="11.1456265"><ele>201.0</ele><time>2026-04-11T14:07:39.46Z</time></trkpt><trkpt lat="43.5046955" lon="11.145585"><ele>201.0</ele><time>2026-04-11T14:07:50.451Z</time></trkpt><trkpt lat="43.5047721" lon="11.1455951"><ele>201.0</ele><time>2026-04-11T14:07:57.451Z</time></trkpt><trkpt lat="43.5048419" lon="11.1455733"><ele>201.0</ele><time>2026-04-11T14:08:03.465Z</time></trkpt><trkpt lat="43.5049055" lon="11.1455518"><ele>202.57142857142856</ele><time>2026-04-11T14:08:09.461Z</time></trkpt><trkpt lat="43.5049794" lon="11.1455377"><ele>204.14285714285717</ele><time>2026-04-11T14:08:15.453Z</time></trkpt><trkpt lat="43.5050453" lon="11.1455306"><ele>205.71428571428572</ele><time>2026-04-11T14:08:20.46Z</time></trkpt><trkpt lat="43.5051173" lon="11.1455312"><ele>207.28571428571428</ele><time>2026-04-11T14:08:26.456Z</time></trkpt><trkpt lat="43.5051861" lon="11.1455245"><ele>208.85714285714283</ele><time>2026-04-11T14:08:31.47Z</time></trkpt><trkpt lat="43.5052821" lon="11.1455239"><ele>210.42857142857144</ele><time>2026-04-11T14:08:39.46Z</time></trkpt><trkpt lat="43.5053509" lon="11.1455071"><ele>212.0</ele><time>2026-04-11T14:08:46.474Z</time></trkpt><trkpt lat="43.5054173" lon="11.1455151"><ele>213.14285714285714</ele><time>2026-04-11T14:08:53.463Z</time></trkpt><trkpt lat="43.5054832" lon="11.1455147"><ele>214.28571428571428</ele><time>2026-04-11T14:09:01.467Z</time></trkpt><trkpt lat="43.5055471" lon="11.1454932"><ele>215.42857142857142</ele><time>2026-04-11T14:09:06.461Z</time></trkpt><trkpt lat="43.5056112" lon="11.145478"><ele>216.57142857142856</ele><time>2026-04-11T14:09:10.471Z</time></trkpt><trkpt lat="43.5056738" lon="11.1454655"><ele>217.71428571428572</ele><time>2026-04-11T14:09:14.453Z</time></trkpt><trkpt lat="43.5057464" lon="11.1454665"><ele>218.85714285714283</ele><time>2026-04-11T14:09:19.459Z</time></trkpt><trkpt lat="43.5058124" lon="11.1454758"><ele>220.0</ele><time>2026-04-11T14:09:24.463Z</time></trkpt><trkpt lat="43.5058855" lon="11.1454744"><ele>219.99999999999997</ele><time>2026-04-11T14:09:30.449Z</time></trkpt><trkpt lat="43.5059559" lon="11.1454647"><ele>220.0</ele><time>2026-04-11T14:09:36.458Z</time></trkpt><trkpt lat="43.5060278" lon="11.1454583"><ele>220.0</ele><time>2026-04-11T14:09:42.454Z</time></trkpt><trkpt lat="43.5060928" lon="11.145458"><ele>220.0</ele><time>2026-04-11T14:09:47.45Z</time></trkpt><trkpt lat="43.5061562" lon="11.1454425"><ele>220.0</ele><time>2026-04-11T14:09:52.459Z</time></trkpt><trkpt lat="43.5062314" lon="11.1454448"><ele>219.99999999999997</ele><time>2026-04-11T14:09:57.462Z</time></trkpt><trkpt lat="43.5062987" lon="11.1454529"><ele>220.0</ele><time>2026-04-11T14:10:01.465Z</time></trkpt><trkpt lat="43.5063694" lon="11.1454421"><ele>221.42857142857142</ele><time>2026-04-11T14:10:06.458Z</time></trkpt><trkpt lat="43.5064448" lon="11.1454331"><ele>222.85714285714283</ele><time>2026-04-11T14:10:11.445Z</time></trkpt><trkpt lat="43.5065084" lon="11.1454375"><ele>224.28571428571428</ele><time>2026-04-11T14:10:15.455Z</time></trkpt><trkpt lat="43.5065777" lon="11.1454423"><ele>225.7142857142857</ele><time>2026-04-11T14:10:20.45Z</time></trkpt><trkpt lat="43.5066467" lon="11.14543"><ele>227.14285714285714</ele><time>2026-04-11T14:10:25.467Z</time></trkpt><trkpt lat="43.5067131" lon="11.1454271"><ele>228.57142857142853</ele><time>2026-04-11T14:10:28.455Z</time></trkpt><trkpt lat="43.5067933" lon="11.1454149"><ele>229.99999999999997</ele><time>2026-04-11T14:10:31.455Z</time></trkpt><trkpt lat="43.5068576" lon="11.1453937"><ele>230.00000000000003</ele><time>2026-04-11T14:10:34.457Z</time></trkpt><trkpt lat="43.5069276" lon="11.145387"><ele>230.0</ele><time>2026-04-11T14:10:37.464Z</time></trkpt><trkpt lat="43.5070132" lon="11.1453817"><ele>230.0</ele><time>2026-04-11T14:10:40.461Z</time></trkpt><trkpt lat="43.5070878" lon="11.1453936"><ele>230.0</ele><time>2026-04-11T14:10:43.456Z</time></trkpt><trkpt lat="43.5071679" lon="11.1454099"><ele>230.00000000000003</ele><time>2026-04-11T14:10:46.454Z</time></trkpt><trkpt lat="43.5072517" lon="11.1454297"><ele>230.0</ele><time>2026-04-11T14:10:49.479Z</time></trkpt><trkpt lat="43.5073255" lon="11.1454544"><ele>231.33333333333334</ele><time>2026-04-11T14:10:52.459Z</time></trkpt><trkpt lat="43.5074055" lon="11.1454768"><ele>232.66666666666669</ele><time>2026-04-11T14:10:55.481Z</time></trkpt><trkpt lat="43.5075017" lon="11.1454974"><ele>234.0</ele><time>2026-04-11T14:10:58.453Z</time></trkpt><trkpt lat="43.5075927" lon="11.1455146"><ele>235.33333333333331</ele><time>2026-04-11T14:11:01.461Z</time></trkpt><trkpt lat="43.5076549" lon="11.1455284"><ele>236.66666666666666</ele><time>2026-04-11T14:11:03.452Z</time></trkpt><trkpt lat="43.5077353" lon="11.1455313"><ele>238.0</ele><time>2026-04-11T14:11:06.454Z</time></trkpt><trkpt lat="43.5078037" lon="11.1455259"><ele>237.99999999999997</ele><time>2026-04-11T14:11:09.473Z</time></trkpt><trkpt lat="43.507881" lon="11.1455305"><ele>238.0</ele><time>2026-04-11T14:11:12.456Z</time></trkpt><trkpt lat="43.5079464" lon="11.1455414"><ele>238.0</ele><time>2026-04-11T14:11:14.45Z</time></trkpt><trkpt lat="43.5080307" lon="11.1455341"><ele>238.0</ele><time>2026-04-11T14:11:17.445Z</time></trkpt><trkpt lat="43.5081185" lon="11.1455168"><ele>237.99999999999997</ele><time>2026-04-11T14:11:20.46Z</time></trkpt><trkpt lat="43.5082034" lon="11.1455094"><ele>238.0</ele><time>2026-04-11T14:11:23.457Z</time></trkpt><trkpt lat="43.5082834" lon="11.1454969"><ele>238.83333333333331</ele><time>2026-04-11T14:11:26.454Z</time></trkpt><trkpt lat="43.5083602" lon="11.1454649"><ele>239.66666666666666</ele><time>2026-04-11T14:11:29.454Z</time></trkpt><trkpt lat="43.5084415" lon="11.1454337"><ele>240.5</ele><time>2026-04-11T14:11:32.455Z</time></trkpt><trkpt lat="43.5085155" lon="11.145411"><ele>241.33333333333331</ele><time>2026-04-11T14:11:35.448Z</time></trkpt><trkpt lat="43.5085876" lon="11.1453841"><ele>242.16666666666666</ele><time>2026-04-11T14:11:38.445Z</time></trkpt><trkpt lat="43.5086571" lon="11.1453674"><ele>243.0</ele><time>2026-04-11T14:11:41.455Z</time></trkpt><trkpt lat="43.508723" lon="11.1453284"><ele>241.83333333333334</ele><time>2026-04-11T14:11:44.446Z</time></trkpt><trkpt lat="43.5087874" lon="11.1452908"><ele>240.66666666666669</ele><time>2026-04-11T14:11:47.458Z</time></trkpt><trkpt lat="43.5088624" lon="11.1452528"><ele>239.5</ele><time>2026-04-11T14:11:50.451Z</time></trkpt><trkpt lat="43.5089325" lon="11.1452338"><ele>238.33333333333334</ele><time>2026-04-11T14:11:52.462Z</time></trkpt><trkpt lat="43.5090124" lon="11.1452172"><ele>237.16666666666669</ele><time>2026-04-11T14:11:54.453Z</time></trkpt><trkpt lat="43.509088" lon="11.1451999"><ele>236.0</ele><time>2026-04-11T14:11:56.466Z</time></trkpt><trkpt lat="43.5091602" lon="11.1451853"><ele>236.0</ele><time>2026-04-11T14:11:58.454Z</time></trkpt><trkpt lat="43.5092507" lon="11.1451618"><ele>236.00000000000003</ele><time>2026-04-11T14:12:00.465Z</time></trkpt><trkpt lat="43.5093524" lon="11.1451391"><ele>236.00000000000003</ele><time>2026-04-11T14:12:02.457Z</time></trkpt><trkpt lat="43.5094392" lon="11.1451252"><ele>236.0</ele><time>2026-04-11T14:12:04.452Z</time></trkpt><trkpt lat="43.5095562" lon="11.1451205"><ele>236.0</ele><time>2026-04-11T14:12:06.455Z</time></trkpt><trkpt lat="43.5096268" lon="11.1451152"><ele>235.20000000000002</ele><time>2026-04-11T14:12:07.468Z</time></trkpt><trkpt lat="43.509692" lon="11.145112"><ele>234.40000000000003</ele><time>2026-04-11T14:12:08.455Z</time></trkpt><trkpt lat="43.509808" lon="11.1451382"><ele>233.6</ele><time>2026-04-11T14:12:10.455Z</time></trkpt><trkpt lat="43.5099169" lon="11.1451648"><ele>232.8</ele><time>2026-04-11T14:12:12.464Z</time></trkpt><trkpt lat="43.5100172" lon="11.1451825"><ele>232.0</ele><time>2026-04-11T14:12:14.469Z</time></trkpt><trkpt lat="43.5101149" lon="11.1451943"><ele>231.99999999999997</ele><time>2026-04-11T14:12:16.467Z</time></trkpt><trkpt lat="43.5102065" lon="11.1451956"><ele>232.0</ele><time>2026-04-11T14:12:18.451Z</time></trkpt><trkpt lat="43.5102858" lon="11.1452115"><ele>232.0</ele><time>2026-04-11T14:12:20.46Z</time></trkpt><trkpt lat="43.5103478" lon="11.1452327"><ele>232.0</ele><time>2026-04-11T14:12:22.455Z</time></trkpt><trkpt lat="43.5104289" lon="11.1452592"><ele>231.99999999999997</ele><time>2026-04-11T14:12:25.475Z</time></trkpt><trkpt lat="43.5105051" lon="11.1452562"><ele>232.0</ele><time>2026-04-11T14:12:28.471Z</time></trkpt><trkpt lat="43.5105675" lon="11.145281"><ele>233.28571428571433</ele><time>2026-04-11T14:12:31.449Z</time></trkpt><trkpt lat="43.5106295" lon="11.1453026"><ele>234.57142857142858</ele><time>2026-04-11T14:12:35.463Z</time></trkpt><trkpt lat="43.5106977" lon="11.1453195"><ele>235.8571428571429</ele><time>2026-04-11T14:12:39.454Z</time></trkpt><trkpt lat="43.5107607" lon="11.1453347"><ele>237.14285714285717</ele><time>2026-04-11T14:12:43.459Z</time></trkpt><trkpt lat="43.5108247" lon="11.145352"><ele>238.42857142857144</ele><time>2026-04-11T14:12:47.477Z</time></trkpt><trkpt lat="43.5108921" lon="11.1453786"><ele>239.71428571428572</ele><time>2026-04-11T14:12:52.452Z</time></trkpt><trkpt lat="43.5109606" lon="11.1454131"><ele>241.0</ele><time>2026-04-11T14:12:58.453Z</time></trkpt><trkpt lat="43.5110184" lon="11.1454558"><ele>241.0</ele><time>2026-04-11T14:13:03.472Z</time></trkpt><trkpt lat="43.5110712" lon="11.1455065"><ele>241.00000000000003</ele><time>2026-04-11T14:13:08.461Z</time></trkpt><trkpt lat="43.5111379" lon="11.1455548"><ele>241.0</ele><time>2026-04-11T14:13:14.462Z</time></trkpt><trkpt lat="43.5111958" lon="11.1455974"><ele>241.0</ele><time>2026-04-11T14:13:19.488Z</time></trkpt><trkpt lat="43.5112554" lon="11.1456511"><ele>241.00000000000003</ele><time>2026-04-11T14:13:24.456Z</time></trkpt><trkpt lat="43.5113134" lon="11.1456886"><ele>241.0</ele><time>2026-04-11T14:13:29.456Z</time></trkpt><trkpt lat="43.5113732" lon="11.1457352"><ele>241.0</ele><time>2026-04-11T14:13:35.453Z</time></trkpt><trkpt lat="43.5114386" lon="11.1457819"><ele>242.42857142857144</ele><time>2026-04-11T14:13:41.457Z</time></trkpt><trkpt lat="43.5114964" lon="11.1458253"><ele>243.8571428571429</ele><time>2026-04-11T14:13:46.462Z</time></trkpt><trkpt lat="43.5115586" lon="11.1458762"><ele>245.28571428571428</ele><time>2026-04-11T14:13:52.464Z</time></trkpt><trkpt lat="43.5116285" lon="11.145913"><ele>246.71428571428572</ele><time>2026-04-11T14:13:58.476Z</time></trkpt><trkpt lat="43.5116872" lon="11.1459465"><ele>248.14285714285714</ele><time>2026-04-11T14:14:03.467Z</time></trkpt><trkpt lat="43.5117485" lon="11.1459732"><ele>249.57142857142856</ele><time>2026-04-11T14:14:09.467Z</time></trkpt><trkpt lat="43.5118104" lon="11.146001"><ele>250.99999999999997</ele><time>2026-04-11T14:14:14.455Z</time></trkpt><trkpt lat="43.5118752" lon="11.1460258"><ele>250.99999999999997</ele><time>2026-04-11T14:14:19.469Z</time></trkpt><trkpt lat="43.5119342" lon="11.1460576"><ele>251.0</ele><time>2026-04-11T14:14:24.459Z</time></trkpt><trkpt lat="43.5119991" lon="11.1460889"><ele>250.99999999999997</ele><time>2026-04-11T14:14:30.465Z</time></trkpt><trkpt lat="43.5120696" lon="11.1461091"><ele>250.99999999999997</ele><time>2026-04-11T14:14:36.458Z</time></trkpt><trkpt lat="43.5121298" lon="11.1461391"><ele>251.0</ele><time>2026-04-11T14:14:42.453Z</time></trkpt><trkpt lat="43.5121978" lon="11.1461613"><ele>250.99999999999997</ele><time>2026-04-11T14:14:48.46Z</time></trkpt><trkpt lat="43.5122618" lon="11.1461876"><ele>250.99999999999997</ele><time>2026-04-11T14:14:55.448Z</time></trkpt><trkpt lat="43.5123268" lon="11.1462044"><ele>251.99999999999997</ele><time>2026-04-11T14:15:00.459Z</time></trkpt><trkpt lat="43.5123946" lon="11.1462466"><ele>253.0</ele><time>2026-04-11T14:15:07.459Z</time></trkpt><trkpt lat="43.5124813" lon="11.1462745"><ele>253.99999999999997</ele><time>2026-04-11T14:15:15.457Z</time></trkpt><trkpt lat="43.512547" lon="11.1463058"><ele>254.99999999999997</ele><time>2026-04-11T14:15:22.469Z</time></trkpt><trkpt lat="43.5126163" lon="11.1463296"><ele>256.0</ele><time>2026-04-11T14:15:29.448Z</time></trkpt><trkpt lat="43.5126801" lon="11.1463496"><ele>256.99999999999994</ele><time>2026-04-11T14:15:35.476Z</time></trkpt><trkpt lat="43.5127333" lon="11.1463971"><ele>258.0</ele><time>2026-04-11T14:15:41.465Z</time></trkpt><trkpt lat="43.51281" lon="11.1464107"><ele>257.99999999999994</ele><time>2026-04-11T14:15:46.477Z</time></trkpt><trkpt lat="43.5128793" lon="11.1463975"><ele>258.0</ele><time>2026-04-11T14:15:50.467Z</time></trkpt><trkpt lat="43.5129476" lon="11.1463621"><ele>258.0</ele><time>2026-04-11T14:15:55.462Z</time></trkpt><trkpt lat="43.5130176" lon="11.1463384"><ele>258.0</ele><time>2026-04-11T14:16:00.467Z</time></trkpt><trkpt lat="43.5130847" lon="11.1463104"><ele>258.0</ele><time>2026-04-11T14:16:04.461Z</time></trkpt><trkpt lat="43.513151" lon="11.1463061"><ele>257.99999999999994</ele><time>2026-04-11T14:16:09.467Z</time></trkpt><trkpt lat="43.5132351" lon="11.1463098"><ele>258.0</ele><time>2026-04-11T14:16:14.465Z</time></trkpt><trkpt lat="43.5132989" lon="11.1463267"><ele>258.3333333333333</ele><time>2026-04-11T14:16:17.458Z</time></trkpt><trkpt lat="43.513374" lon="11.1463559"><ele>258.6666666666667</ele><time>2026-04-11T14:16:20.45Z</time></trkpt><trkpt lat="43.5134506" lon="11.1464126"><ele>259.0</ele><time>2026-04-11T14:16:22.462Z</time></trkpt><trkpt lat="43.5135235" lon="11.1464814"><ele>259.33333333333337</ele><time>2026-04-11T14:16:24.457Z</time></trkpt><trkpt lat="43.5135877" lon="11.1465452"><ele>259.6666666666667</ele><time>2026-04-11T14:16:26.468Z</time></trkpt><trkpt lat="43.5136396" lon="11.1466195"><ele>260.0</ele><time>2026-04-11T14:16:28.457Z</time></trkpt><trkpt lat="43.5136791" lon="11.1466978"><ele>260.5</ele><time>2026-04-11T14:16:30.477Z</time></trkpt><trkpt lat="43.5137133" lon="11.1468096"><ele>261.0</ele><time>2026-04-11T14:16:33.47Z</time></trkpt><trkpt lat="43.5137381" lon="11.1469132"><ele>261.5</ele><time>2026-04-11T14:16:36.478Z</time></trkpt><trkpt lat="43.513765" lon="11.1470017"><ele>262.0</ele><time>2026-04-11T14:16:40.45Z</time></trkpt><trkpt lat="43.5137909" lon="11.1470919"><ele>262.5</ele><time>2026-04-11T14:16:55.46Z</time></trkpt><trkpt lat="43.5138406" lon="11.147154"><ele>263.0</ele><time>2026-04-11T14:17:46.464Z</time></trkpt><trkpt lat="43.5139032" lon="11.1472392"><ele>263.0</ele><time>2026-04-11T14:17:49.461Z</time></trkpt><trkpt lat="43.5139539" lon="11.1473453"><ele>263.0</ele><time>2026-04-11T14:17:51.46Z</time></trkpt><trkpt lat="43.5140112" lon="11.1474587"><ele>263.0</ele><time>2026-04-11T14:17:53.456Z</time></trkpt><trkpt lat="43.5140791" lon="11.1475707"><ele>263.0</ele><time>2026-04-11T14:17:55.459Z</time></trkpt><trkpt lat="43.5141639" lon="11.1476716"><ele>263.0</ele><time>2026-04-11T14:17:57.454Z</time></trkpt><trkpt lat="43.5142601" lon="11.1477712"><ele>264.0</ele><time>2026-04-11T14:17:59.459Z</time></trkpt><trkpt lat="43.5143354" lon="11.14791"><ele>265.0</ele><time>2026-04-11T14:18:01.461Z</time></trkpt><trkpt lat="43.5143722" lon="11.1479883"><ele>266.0</ele><time>2026-04-11T14:18:02.46Z</time></trkpt><trkpt lat="43.5144123" lon="11.148064"><ele>267.0</ele><time>2026-04-11T14:18:03.459Z</time></trkpt><trkpt lat="43.5144536" lon="11.1481363"><ele>268.0</ele><time>2026-04-11T14:18:04.456Z</time></trkpt><trkpt lat="43.5145009" lon="11.1482048"><ele>269.0</ele><time>2026-04-11T14:18:05.468Z</time></trkpt><trkpt lat="43.5145455" lon="11.148276"><ele>267.8571428571429</ele><time>2026-04-11T14:18:06.447Z</time></trkpt><trkpt lat="43.5146014" lon="11.1483378"><ele>266.7142857142857</ele><time>2026-04-11T14:18:07.46Z</time></trkpt><trkpt lat="43.5146562" lon="11.1483975"><ele>265.57142857142856</ele><time>2026-04-11T14:18:08.458Z</time></trkpt><trkpt lat="43.5147147" lon="11.1484505"><ele>264.42857142857144</ele><time>2026-04-11T14:18:09.453Z</time></trkpt><trkpt lat="43.5147726" lon="11.1485003"><ele>263.2857142857143</ele><time>2026-04-11T14:18:10.448Z</time></trkpt><trkpt lat="43.5148306" lon="11.148542"><ele>262.14285714285717</ele><time>2026-04-11T14:18:11.458Z</time></trkpt><trkpt lat="43.514887" lon="11.1485828"><ele>261.0</ele><time>2026-04-11T14:18:12.458Z</time></trkpt><trkpt lat="43.5149899" lon="11.1486626"><ele>261.0</ele><time>2026-04-11T14:18:14.461Z</time></trkpt><trkpt lat="43.5150904" lon="11.1487024"><ele>261.0</ele><time>2026-04-11T14:18:16.488Z</time></trkpt><trkpt lat="43.5151906" lon="11.1487272"><ele>261.0</ele><time>2026-04-11T14:18:18.456Z</time></trkpt><trkpt lat="43.5152894" lon="11.1487386"><ele>261.0</ele><time>2026-04-11T14:18:20.467Z</time></trkpt><trkpt lat="43.5153875" lon="11.1487507"><ele>261.0</ele><time>2026-04-11T14:18:22.461Z</time></trkpt><trkpt lat="43.5154805" lon="11.1487546"><ele>261.2</ele><time>2026-04-11T14:18:24.455Z</time></trkpt><trkpt lat="43.5155795" lon="11.148751"><ele>261.40000000000003</ele><time>2026-04-11T14:18:26.461Z</time></trkpt><trkpt lat="43.5156779" lon="11.1487491"><ele>261.6</ele><time>2026-04-11T14:18:28.463Z</time></trkpt><trkpt lat="43.5157691" lon="11.1487478"><ele>261.8</ele><time>2026-04-11T14:18:30.453Z</time></trkpt><trkpt lat="43.5158568" lon="11.1487547"><ele>262.0</ele><time>2026-04-11T14:18:32.452Z</time></trkpt><trkpt lat="43.5159438" lon="11.1487607"><ele>262.0</ele><time>2026-04-11T14:18:34.463Z</time></trkpt><trkpt lat="43.5160206" lon="11.1487716"><ele>262.0</ele><time>2026-04-11T14:18:36.468Z</time></trkpt><trkpt lat="43.5160994" lon="11.1487635"><ele>262.0</ele><time>2026-04-11T14:18:38.453Z</time></trkpt><trkpt lat="43.5161791" lon="11.1487487"><ele>262.0</ele><time>2026-04-11T14:18:40.471Z</time></trkpt><trkpt lat="43.5162583" lon="11.1487388"><ele>262.0</ele><time>2026-04-11T14:18:42.467Z</time></trkpt><trkpt lat="43.5163365" lon="11.1487345"><ele>262.0</ele><time>2026-04-11T14:18:44.465Z</time></trkpt><trkpt lat="43.5164137" lon="11.1487367"><ele>262.16666666666663</ele><time>2026-04-11T14:18:46.458Z</time></trkpt><trkpt lat="43.516491" lon="11.1487426"><ele>262.3333333333333</ele><time>2026-04-11T14:18:48.457Z</time></trkpt><trkpt lat="43.516568" lon="11.1487483"><ele>262.5</ele><time>2026-04-11T14:18:50.453Z</time></trkpt><trkpt lat="43.5166371" lon="11.1487436"><ele>262.6666666666667</ele><time>2026-04-11T14:18:52.471Z</time></trkpt><trkpt lat="43.5167114" lon="11.1487405"><ele>262.83333333333337</ele><time>2026-04-11T14:18:54.453Z</time></trkpt><trkpt lat="43.5167957" lon="11.1487448"><ele>263.0</ele><time>2026-04-11T14:18:56.468Z</time></trkpt><trkpt lat="43.5168863" lon="11.148758"><ele>263.0</ele><time>2026-04-11T14:18:58.458Z</time></trkpt><trkpt lat="43.5169827" lon="11.148767"><ele>263.0</ele><time>2026-04-11T14:19:00.462Z</time></trkpt><trkpt lat="43.5170815" lon="11.1487868"><ele>263.0</ele><time>2026-04-11T14:19:02.455Z</time></trkpt><trkpt lat="43.5172018" lon="11.1488221"><ele>263.0</ele><time>2026-04-11T14:19:04.463Z</time></trkpt><trkpt lat="43.5172669" lon="11.1488408"><ele>263.0</ele><time>2026-04-11T14:19:05.461Z</time></trkpt><trkpt lat="43.5173352" lon="11.1488638"><ele>263.1666666666667</ele><time>2026-04-11T14:19:06.459Z</time></trkpt><trkpt lat="43.5174048" lon="11.148899"><ele>263.33333333333337</ele><time>2026-04-11T14:19:07.472Z</time></trkpt><trkpt lat="43.517475" lon="11.1489426"><ele>263.5</ele><time>2026-04-11T14:19:08.463Z</time></trkpt><trkpt lat="43.5175484" lon="11.148978"><ele>263.6666666666667</ele><time>2026-04-11T14:19:09.467Z</time></trkpt><trkpt lat="43.5176285" lon="11.1490064"><ele>263.8333333333333</ele><time>2026-04-11T14:19:10.454Z</time></trkpt><trkpt lat="43.5177085" lon="11.1490321"><ele>264.0</ele><time>2026-04-11T14:19:11.474Z</time></trkpt><trkpt lat="43.5177862" lon="11.1490569"><ele>264.0</ele><time>2026-04-11T14:19:12.46Z</time></trkpt><trkpt lat="43.5178628" lon="11.1490826"><ele>264.0</ele><time>2026-04-11T14:19:13.456Z</time></trkpt><trkpt lat="43.5179377" lon="11.1491099"><ele>264.0</ele><time>2026-04-11T14:19:14.467Z</time></trkpt><trkpt lat="43.5180109" lon="11.1491367"><ele>264.0</ele><time>2026-04-11T14:19:15.462Z</time></trkpt><trkpt lat="43.5180835" lon="11.1491622"><ele>264.0</ele><time>2026-04-11T14:19:16.458Z</time></trkpt><trkpt lat="43.518156" lon="11.1491881"><ele>264.0</ele><time>2026-04-11T14:19:17.459Z</time></trkpt><trkpt lat="43.5182294" lon="11.1492135"><ele>263.42857142857144</ele><time>2026-04-11T14:19:18.474Z</time></trkpt><trkpt lat="43.5182992" lon="11.1492411"><ele>262.8571428571429</ele><time>2026-04-11T14:19:19.456Z</time></trkpt><trkpt lat="43.5183694" lon="11.1492697"><ele>262.28571428571433</ele><time>2026-04-11T14:19:20.46Z</time></trkpt><trkpt lat="43.5184397" lon="11.1492987"><ele>261.7142857142857</ele><time>2026-04-11T14:19:21.455Z</time></trkpt><trkpt lat="43.5185096" lon="11.1493279"><ele>261.14285714285717</ele><time>2026-04-11T14:19:22.471Z</time></trkpt><trkpt lat="43.5185787" lon="11.1493528"><ele>260.5714285714286</ele><time>2026-04-11T14:19:23.464Z</time></trkpt><trkpt lat="43.5186448" lon="11.1493771"><ele>260.0</ele><time>2026-04-11T14:19:24.457Z</time></trkpt><trkpt lat="43.5187113" lon="11.1494029"><ele>259.8571428571429</ele><time>2026-04-11T14:19:25.454Z</time></trkpt><trkpt lat="43.5187764" lon="11.1494262"><ele>259.7142857142857</ele><time>2026-04-11T14:19:26.464Z</time></trkpt><trkpt lat="43.5188419" lon="11.1494455"><ele>259.57142857142856</ele><time>2026-04-11T14:19:27.454Z</time></trkpt><trkpt lat="43.5189082" lon="11.149464"><ele>259.42857142857144</ele><time>2026-04-11T14:19:28.452Z</time></trkpt><trkpt lat="43.5189741" lon="11.1494849"><ele>259.2857142857143</ele><time>2026-04-11T14:19:29.465Z</time></trkpt><trkpt lat="43.5190383" lon="11.1495071"><ele>259.14285714285717</ele><time>2026-04-11T14:19:30.464Z</time></trkpt><trkpt lat="43.5191014" lon="11.1495321"><ele>259.0</ele><time>2026-04-11T14:19:31.459Z</time></trkpt><trkpt lat="43.5191662" lon="11.1495559"><ele>259.0</ele><time>2026-04-11T14:19:32.473Z</time></trkpt><trkpt lat="43.5192306" lon="11.149579"><ele>259.0</ele><time>2026-04-11T14:19:33.478Z</time></trkpt><trkpt lat="43.5192955" lon="11.1495964"><ele>259.0</ele><time>2026-04-11T14:19:34.451Z</time></trkpt><trkpt lat="43.5193588" lon="11.1496136"><ele>259.0</ele><time>2026-04-11T14:19:35.466Z</time></trkpt><trkpt lat="43.5194233" lon="11.1496282"><ele>259.0</ele><time>2026-04-11T14:19:36.469Z</time></trkpt><trkpt lat="43.5194872" lon="11.149643"><ele>259.0</ele><time>2026-04-11T14:19:37.463Z</time></trkpt><trkpt lat="43.5195512" lon="11.1496573"><ele>259.0</ele><time>2026-04-11T14:19:38.469Z</time></trkpt><trkpt lat="43.5196131" lon="11.1496755"><ele>258.57142857142856</ele><time>2026-04-11T14:19:39.466Z</time></trkpt><trkpt lat="43.5196754" lon="11.1496958"><ele>258.1428571428571</ele><time>2026-04-11T14:19:40.471Z</time></trkpt><trkpt lat="43.5197385" lon="11.1497071"><ele>257.7142857142857</ele><time>2026-04-11T14:19:41.459Z</time></trkpt><trkpt lat="43.5198044" lon="11.1497185"><ele>257.2857142857143</ele><time>2026-04-11T14:19:42.469Z</time></trkpt><trkpt lat="43.519867" lon="11.1497294"><ele>256.85714285714283</ele><time>2026-04-11T14:19:43.469Z</time></trkpt><trkpt lat="43.5199317" lon="11.1497389"><ele>256.42857142857144</ele><time>2026-04-11T14:19:44.453Z</time></trkpt><trkpt lat="43.519996" lon="11.1497494"><ele>256.0</ele><time>2026-04-11T14:19:45.466Z</time></trkpt><trkpt lat="43.5200598" lon="11.1497594"><ele>256.0</ele><time>2026-04-11T14:19:46.46Z</time></trkpt><trkpt lat="43.5201234" lon="11.1497686"><ele>256.0</ele><time>2026-04-11T14:19:47.463Z</time></trkpt><trkpt lat="43.5202471" lon="11.1497872"><ele>256.0</ele><time>2026-04-11T14:19:49.479Z</time></trkpt><trkpt lat="43.5203661" lon="11.149826"><ele>256.0</ele><time>2026-04-11T14:19:51.46Z</time></trkpt><trkpt lat="43.5204712" lon="11.149875"><ele>256.0</ele><time>2026-04-11T14:19:53.47Z</time></trkpt><trkpt lat="43.52057" lon="11.1499259"><ele>256.3333333333333</ele><time>2026-04-11T14:19:55.467Z</time></trkpt><trkpt lat="43.5206602" lon="11.1499769"><ele>256.66666666666663</ele><time>2026-04-11T14:19:57.472Z</time></trkpt><trkpt lat="43.5207434" lon="11.1500228"><ele>257.0</ele><time>2026-04-11T14:19:59.488Z</time></trkpt><trkpt lat="43.5208221" lon="11.150067"><ele>257.3333333333333</ele><time>2026-04-11T14:20:01.455Z</time></trkpt><trkpt lat="43.5208946" lon="11.150116"><ele>257.6666666666667</ele><time>2026-04-11T14:20:03.459Z</time></trkpt><trkpt lat="43.5209653" lon="11.1501633"><ele>258.0</ele><time>2026-04-11T14:20:05.463Z</time></trkpt><trkpt lat="43.5210315" lon="11.1502164"><ele>258.0</ele><time>2026-04-11T14:20:07.456Z</time></trkpt><trkpt lat="43.5211001" lon="11.1502629"><ele>258.0</ele><time>2026-04-11T14:20:09.458Z</time></trkpt><trkpt lat="43.5211693" lon="11.1503108"><ele>258.0</ele><time>2026-04-11T14:20:11.459Z</time></trkpt><trkpt lat="43.5212358" lon="11.1503651"><ele>258.0</ele><time>2026-04-11T14:20:13.453Z</time></trkpt><trkpt lat="43.5213037" lon="11.1504241"><ele>258.0</ele><time>2026-04-11T14:20:15.456Z</time></trkpt><trkpt lat="43.5213658" lon="11.150483"><ele>258.0</ele><time>2026-04-11T14:20:17.465Z</time></trkpt><trkpt lat="43.5214186" lon="11.1505387"><ele>258.3333333333333</ele><time>2026-04-11T14:20:19.452Z</time></trkpt><trkpt lat="43.5214752" lon="11.1505901"><ele>258.6666666666667</ele><time>2026-04-11T14:20:21.47Z</time></trkpt><trkpt lat="43.5215338" lon="11.1506379"><ele>259.0</ele><time>2026-04-11T14:20:23.45Z</time></trkpt><trkpt lat="43.5215911" lon="11.1506889"><ele>259.33333333333337</ele><time>2026-04-11T14:20:25.453Z</time></trkpt><trkpt lat="43.5216476" lon="11.1507419"><ele>259.6666666666667</ele><time>2026-04-11T14:20:27.459Z</time></trkpt><trkpt lat="43.5217191" lon="11.1508222"><ele>260.0</ele><time>2026-04-11T14:20:30.466Z</time></trkpt><trkpt lat="43.5217871" lon="11.1508925"><ele>260.33333333333337</ele><time>2026-04-11T14:20:33.476Z</time></trkpt><trkpt lat="43.5218492" lon="11.1509568"><ele>260.6666666666667</ele><time>2026-04-11T14:20:36.469Z</time></trkpt><trkpt lat="43.5219088" lon="11.1510136"><ele>261.0</ele><time>2026-04-11T14:20:39.476Z</time></trkpt><trkpt lat="43.5219648" lon="11.1510842"><ele>261.3333333333333</ele><time>2026-04-11T14:20:43.458Z</time></trkpt><trkpt lat="43.5220333" lon="11.1511513"><ele>261.66666666666663</ele><time>2026-04-11T14:20:47.488Z</time></trkpt><trkpt lat="43.5220984" lon="11.1512095"><ele>262.0</ele><time>2026-04-11T14:20:51.458Z</time></trkpt><trkpt lat="43.5221489" lon="11.1512841"><ele>262.7142857142857</ele><time>2026-04-11T14:20:55.48Z</time></trkpt><trkpt lat="43.5222011" lon="11.1513374"><ele>263.42857142857144</ele><time>2026-04-11T14:20:59.473Z</time></trkpt><trkpt lat="43.5222502" lon="11.1514137"><ele>264.14285714285717</ele><time>2026-04-11T14:21:03.486Z</time></trkpt><trkpt lat="43.522298" lon="11.1514723"><ele>264.8571428571429</ele><time>2026-04-11T14:21:06.465Z</time></trkpt><trkpt lat="43.5223595" lon="11.1515173"><ele>265.57142857142856</ele><time>2026-04-11T14:21:09.474Z</time></trkpt><trkpt lat="43.5224205" lon="11.1515556"><ele>266.28571428571433</ele><time>2026-04-11T14:21:12.474Z</time></trkpt><trkpt lat="43.5224959" lon="11.1515812"><ele>267.0</ele><time>2026-04-11T14:21:16.483Z</time></trkpt><trkpt lat="43.5225686" lon="11.1515649"><ele>267.00000000000006</ele><time>2026-04-11T14:21:20.451Z</time></trkpt><trkpt lat="43.5226376" lon="11.1515262"><ele>267.0</ele><time>2026-04-11T14:21:24.469Z</time></trkpt><trkpt lat="43.522712" lon="11.1514871"><ele>267.0</ele><time>2026-04-11T14:21:28.468Z</time></trkpt><trkpt lat="43.5227827" lon="11.1514326"><ele>267.0</ele><time>2026-04-11T14:21:32.465Z</time></trkpt><trkpt lat="43.5228356" lon="11.1513818"><ele>267.0</ele><time>2026-04-11T14:21:35.455Z</time></trkpt><trkpt lat="43.5228942" lon="11.1513387"><ele>267.00000000000006</ele><time>2026-04-11T14:21:38.474Z</time></trkpt><trkpt lat="43.5229536" lon="11.1512899"><ele>267.0</ele><time>2026-04-11T14:21:41.464Z</time></trkpt><trkpt lat="43.5230223" lon="11.1512225"><ele>267.42857142857144</ele><time>2026-04-11T14:21:45.473Z</time></trkpt><trkpt lat="43.5230904" lon="11.1511638"><ele>267.8571428571429</ele><time>2026-04-11T14:21:49.475Z</time></trkpt><trkpt lat="43.5231393" lon="11.1511081"><ele>268.2857142857143</ele><time>2026-04-11T14:21:52.469Z</time></trkpt><trkpt lat="43.5232069" lon="11.1510376"><ele>268.7142857142857</ele><time>2026-04-11T14:21:56.469Z</time></trkpt><trkpt lat="43.5232632" lon="11.1509658"><ele>269.1428571428571</ele><time>2026-04-11T14:21:59.468Z</time></trkpt><trkpt lat="43.5233094" lon="11.1508988"><ele>269.57142857142856</ele><time>2026-04-11T14:22:02.468Z</time></trkpt><trkpt lat="43.5233549" lon="11.1508247"><ele>270.0</ele><time>2026-04-11T14:22:05.472Z</time></trkpt><trkpt lat="43.5234065" lon="11.1507589"><ele>270.2857142857143</ele><time>2026-04-11T14:22:08.481Z</time></trkpt><trkpt lat="43.5234553" lon="11.1506993"><ele>270.57142857142856</ele><time>2026-04-11T14:22:11.471Z</time></trkpt><trkpt lat="43.5235059" lon="11.1506188"><ele>270.85714285714283</ele><time>2026-04-11T14:22:14.477Z</time></trkpt><trkpt lat="43.5235576" lon="11.1505417"><ele>271.1428571428571</ele><time>2026-04-11T14:22:17.47Z</time></trkpt><trkpt lat="43.5236036" lon="11.1504668"><ele>271.42857142857144</ele><time>2026-04-11T14:22:20.471Z</time></trkpt><trkpt lat="43.5236412" lon="11.150388"><ele>271.71428571428567</ele><time>2026-04-11T14:22:23.474Z</time></trkpt><trkpt lat="43.5237098" lon="11.1503135"><ele>272.0</ele><time>2026-04-11T14:22:26.458Z</time></trkpt><trkpt lat="43.5237572" lon="11.150228"><ele>273.6666666666667</ele><time>2026-04-11T14:22:30.479Z</time></trkpt><trkpt lat="43.5238202" lon="11.1501738"><ele>275.33333333333337</ele><time>2026-04-11T14:22:34.543Z</time></trkpt><trkpt lat="43.5238844" lon="11.1501089"><ele>277.0</ele><time>2026-04-11T14:22:38.46Z</time></trkpt><trkpt lat="43.5239488" lon="11.1500467"><ele>278.6666666666667</ele><time>2026-04-11T14:22:42.474Z</time></trkpt><trkpt lat="43.5240143" lon="11.1499907"><ele>280.3333333333333</ele><time>2026-04-11T14:22:46.479Z</time></trkpt><trkpt lat="43.5240736" lon="11.1499394"><ele>282.0</ele><time>2026-04-11T14:22:50.485Z</time></trkpt><trkpt lat="43.5241419" lon="11.1498838"><ele>282.7142857142857</ele><time>2026-04-11T14:22:55.471Z</time></trkpt><trkpt lat="43.5242013" lon="11.1498312"><ele>283.42857142857144</ele><time>2026-04-11T14:22:59.471Z</time></trkpt><trkpt lat="43.5242542" lon="11.1497762"><ele>284.1428571428571</ele><time>2026-04-11T14:23:03.478Z</time></trkpt><trkpt lat="43.5243216" lon="11.1497308"><ele>284.8571428571429</ele><time>2026-04-11T14:23:08.474Z</time></trkpt><trkpt lat="43.5243812" lon="11.1496808"><ele>285.57142857142856</ele><time>2026-04-11T14:23:13.478Z</time></trkpt><trkpt lat="43.5244388" lon="11.1496317"><ele>286.2857142857143</ele><time>2026-04-11T14:23:18.461Z</time></trkpt><trkpt lat="43.5245008" lon="11.1495942"><ele>287.0</ele><time>2026-04-11T14:23:23.476Z</time></trkpt><trkpt lat="43.5245506" lon="11.1495361"><ele>287.7142857142857</ele><time>2026-04-11T14:23:28.469Z</time></trkpt><trkpt lat="43.5246005" lon="11.1494576"><ele>288.42857142857144</ele><time>2026-04-11T14:23:31.462Z</time></trkpt><trkpt lat="43.5246459" lon="11.1493914"><ele>289.1428571428571</ele><time>2026-04-11T14:23:38.471Z</time></trkpt><trkpt lat="43.524708" lon="11.149337"><ele>289.8571428571429</ele><time>2026-04-11T14:23:43.459Z</time></trkpt><trkpt lat="43.5247616" lon="11.1492851"><ele>290.57142857142856</ele><time>2026-04-11T14:23:49.522Z</time></trkpt><trkpt lat="43.5248127" lon="11.1492318"><ele>291.2857142857143</ele><time>2026-04-11T14:23:54.538Z</time></trkpt><trkpt lat="43.5248724" lon="11.1491796"><ele>292.0</ele><time>2026-04-11T14:23:59.534Z</time></trkpt><trkpt lat="43.5249398" lon="11.1491366"><ele>292.0</ele><time>2026-04-11T14:24:04.471Z</time></trkpt><trkpt lat="43.5249997" lon="11.1490787"><ele>292.0</ele><time>2026-04-11T14:24:09.535Z</time></trkpt><trkpt lat="43.5250588" lon="11.1490344"><ele>292.0</ele><time>2026-04-11T14:24:14.471Z</time></trkpt><trkpt lat="43.525124" lon="11.1489895"><ele>292.0</ele><time>2026-04-11T14:24:18.451Z</time></trkpt><trkpt lat="43.525196" lon="11.148938"><ele>292.0</ele><time>2026-04-11T14:24:22.478Z</time></trkpt><trkpt lat="43.5252658" lon="11.1488947"><ele>292.0</ele><time>2026-04-11T14:24:26.46Z</time></trkpt><trkpt lat="43.5253428" lon="11.1488468"><ele>292.16666666666663</ele><time>2026-04-11T14:24:30.456Z</time></trkpt><trkpt lat="43.5254148" lon="11.1488066"><ele>292.3333333333333</ele><time>2026-04-11T14:24:33.463Z</time></trkpt><trkpt lat="43.5254908" lon="11.1487454"><ele>292.5</ele><time>2026-04-11T14:24:36.461Z</time></trkpt><trkpt lat="43.5255726" lon="11.148685"><ele>292.6666666666667</ele><time>2026-04-11T14:24:39.548Z</time></trkpt><trkpt lat="43.5256511" lon="11.1486412"><ele>292.83333333333337</ele><time>2026-04-11T14:24:42.463Z</time></trkpt><trkpt lat="43.5257131" lon="11.1486028"><ele>293.0</ele><time>2026-04-11T14:24:44.486Z</time></trkpt><trkpt lat="43.5257772" lon="11.1485738"><ele>292.99999999999994</ele><time>2026-04-11T14:24:46.471Z</time></trkpt><trkpt lat="43.5258398" lon="11.1485423"><ele>293.0</ele><time>2026-04-11T14:24:48.472Z</time></trkpt><trkpt lat="43.5259026" lon="11.1485154"><ele>293.0</ele><time>2026-04-11T14:24:50.538Z</time></trkpt><trkpt lat="43.5259675" lon="11.1484957"><ele>293.0</ele><time>2026-04-11T14:24:52.481Z</time></trkpt><trkpt lat="43.5260312" lon="11.1484776"><ele>293.0</ele><time>2026-04-11T14:24:54.541Z</time></trkpt><trkpt lat="43.5260969" lon="11.1484634"><ele>292.99999999999994</ele><time>2026-04-11T14:24:56.463Z</time></trkpt><trkpt lat="43.5261628" lon="11.1484522"><ele>293.0</ele><time>2026-04-11T14:24:58.463Z</time></trkpt><trkpt lat="43.526227" lon="11.1484542"><ele>293.33333333333337</ele><time>2026-04-11T14:25:00.474Z</time></trkpt><trkpt lat="43.526294" lon="11.148452"><ele>293.6666666666667</ele><time>2026-04-11T14:25:02.457Z</time></trkpt><trkpt lat="43.5263579" lon="11.1484482"><ele>294.0</ele><time>2026-04-11T14:25:04.456Z</time></trkpt><trkpt lat="43.5264497" lon="11.1484374"><ele>294.3333333333333</ele><time>2026-04-11T14:25:07.474Z</time></trkpt><trkpt lat="43.5265128" lon="11.1484411"><ele>294.66666666666663</ele><time>2026-04-11T14:25:09.471Z</time></trkpt><trkpt lat="43.5265952" lon="11.1484412"><ele>295.0</ele><time>2026-04-11T14:25:12.468Z</time></trkpt><trkpt lat="43.5266779" lon="11.1484385"><ele>295.0</ele><time>2026-04-11T14:25:15.473Z</time></trkpt><trkpt lat="43.5267575" lon="11.1484526"><ele>295.0</ele><time>2026-04-11T14:25:18.533Z</time></trkpt><trkpt lat="43.526847" lon="11.1484528"><ele>295.0</ele><time>2026-04-11T14:25:21.547Z</time></trkpt><trkpt lat="43.5269764" lon="11.1484764"><ele>295.0</ele><time>2026-04-11T14:25:25.534Z</time></trkpt><trkpt lat="43.5270403" lon="11.148501"><ele>295.0</ele><time>2026-04-11T14:25:27.462Z</time></trkpt><trkpt lat="43.5271268" lon="11.1484836"><ele>295.0</ele><time>2026-04-11T14:25:30.457Z</time></trkpt><trkpt lat="43.5271815" lon="11.1483948"><ele>295.0</ele><time>2026-04-11T14:25:33.471Z</time></trkpt><trkpt lat="43.5271552" lon="11.1483119"><ele>295.0</ele><time>2026-04-11T14:25:35.541Z</time></trkpt><trkpt lat="43.52711" lon="11.1482071"><ele>295.0</ele><time>2026-04-11T14:25:38.469Z</time></trkpt><trkpt lat="43.5270107" lon="11.1480313"><ele>295.0</ele><time>2026-04-11T14:25:43.466Z</time></trkpt><trkpt lat="43.5269766" lon="11.1479544"><ele>295.0</ele><time>2026-04-11T14:25:45.465Z</time></trkpt><trkpt lat="43.5269433" lon="11.147829"><ele>295.0</ele><time>2026-04-11T14:25:48.494Z</time></trkpt><trkpt lat="43.5269165" lon="11.1477379"><ele>295.0</ele><time>2026-04-11T14:25:50.475Z</time></trkpt><trkpt lat="43.5268902" lon="11.1478354"><ele>295.0</ele><time>2026-04-11T14:25:56.468Z</time></trkpt><trkpt lat="43.5269268" lon="11.1480136"><ele>295.0</ele><time>2026-04-11T14:26:00.459Z</time></trkpt><trkpt lat="43.5269766" lon="11.1481243"><ele>295.0</ele><time>2026-04-11T14:26:02.464Z</time></trkpt><trkpt lat="43.5270269" lon="11.1482008"><ele>295.0</ele><time>2026-04-11T14:26:04.466Z</time></trkpt><trkpt lat="43.5270813" lon="11.1483107"><ele>295.0</ele><time>2026-04-11T14:26:06.46Z</time></trkpt><trkpt lat="43.5271378" lon="11.1484067"><ele>295.0</ele><time>2026-04-11T14:26:08.464Z</time></trkpt><trkpt lat="43.5273486" lon="11.1487036"><ele>294.4</ele><time>2026-04-11T14:26:14.543Z</time></trkpt><trkpt lat="43.5274372" lon="11.1487511"><ele>293.8</ele><time>2026-04-11T14:26:16.477Z</time></trkpt><trkpt lat="43.5275149" lon="11.148845"><ele>293.2</ele><time>2026-04-11T14:26:18.479Z</time></trkpt><trkpt lat="43.5276203" lon="11.1489085"><ele>292.6</ele><time>2026-04-11T14:26:20.541Z</time></trkpt><trkpt lat="43.5276855" lon="11.1489553"><ele>292.0</ele><time>2026-04-11T14:26:21.457Z</time></trkpt><trkpt lat="43.5277836" lon="11.1490295"><ele>292.0</ele><time>2026-04-11T14:26:23.465Z</time></trkpt><trkpt lat="43.5278819" lon="11.1490782"><ele>292.0</ele><time>2026-04-11T14:26:25.532Z</time></trkpt><trkpt lat="43.527988" lon="11.1491107"><ele>292.0</ele><time>2026-04-11T14:26:27.483Z</time></trkpt><trkpt lat="43.5280863" lon="11.1491808"><ele>292.0</ele><time>2026-04-11T14:26:29.457Z</time></trkpt><trkpt lat="43.5281884" lon="11.1492188"><ele>292.0</ele><time>2026-04-11T14:26:31.481Z</time></trkpt><trkpt lat="43.5282798" lon="11.1492603"><ele>292.16666666666663</ele><time>2026-04-11T14:26:33.467Z</time></trkpt><trkpt lat="43.5283649" lon="11.1493086"><ele>292.3333333333333</ele><time>2026-04-11T14:26:35.536Z</time></trkpt><trkpt lat="43.528436" lon="11.1493598"><ele>292.5</ele><time>2026-04-11T14:26:37.464Z</time></trkpt><trkpt lat="43.5285064" lon="11.1493918"><ele>292.6666666666667</ele><time>2026-04-11T14:26:39.473Z</time></trkpt><trkpt lat="43.5285705" lon="11.1494212"><ele>292.83333333333337</ele><time>2026-04-11T14:26:41.478Z</time></trkpt><trkpt lat="43.5286578" lon="11.1494508"><ele>293.0</ele><time>2026-04-11T14:26:44.464Z</time></trkpt><trkpt lat="43.5287177" lon="11.1494789"><ele>293.5</ele><time>2026-04-11T14:26:47.464Z</time></trkpt><trkpt lat="43.5287885" lon="11.1495027"><ele>294.0</ele><time>2026-04-11T14:26:50.54Z</time></trkpt><trkpt lat="43.5288577" lon="11.1495132"><ele>294.5</ele><time>2026-04-11T14:26:52.471Z</time></trkpt><trkpt lat="43.5289403" lon="11.1495591"><ele>295.0</ele><time>2026-04-11T14:26:56.466Z</time></trkpt><trkpt lat="43.5289987" lon="11.1496042"><ele>295.5</ele><time>2026-04-11T14:26:59.529Z</time></trkpt><trkpt lat="43.529081" lon="11.1496334"><ele>296.0</ele><time>2026-04-11T14:27:03.463Z</time></trkpt><trkpt lat="43.529153" lon="11.149673"><ele>296.0</ele><time>2026-04-11T14:27:06.461Z</time></trkpt><trkpt lat="43.5292123" lon="11.1497101"><ele>296.0</ele><time>2026-04-11T14:27:09.465Z</time></trkpt><trkpt lat="43.5292711" lon="11.1497463"><ele>296.0</ele><time>2026-04-11T14:27:13.466Z</time></trkpt><trkpt lat="43.5293442" lon="11.1497779"><ele>296.0</ele><time>2026-04-11T14:27:18.465Z</time></trkpt><trkpt lat="43.5294033" lon="11.1498094"><ele>296.0</ele><time>2026-04-11T14:27:22.47Z</time></trkpt><trkpt lat="43.5294605" lon="11.1498654"><ele>296.0</ele><time>2026-04-11T14:27:27.468Z</time></trkpt><trkpt lat="43.5295283" lon="11.1499009"><ele>296.0</ele><time>2026-04-11T14:27:31.443Z</time></trkpt><trkpt lat="43.5295915" lon="11.1499546"><ele>298.33333333333337</ele><time>2026-04-11T14:27:36.536Z</time></trkpt><trkpt lat="43.529648" lon="11.150026"><ele>300.6666666666667</ele><time>2026-04-11T14:27:42.472Z</time></trkpt><trkpt lat="43.5297175" lon="11.1501094"><ele>303.0</ele><time>2026-04-11T14:27:46.481Z</time></trkpt><trkpt lat="43.5297643" lon="11.1501702"><ele>305.3333333333333</ele><time>2026-04-11T14:27:51.471Z</time></trkpt><trkpt lat="43.5298208" lon="11.1502409"><ele>307.66666666666663</ele><time>2026-04-11T14:27:56.465Z</time></trkpt><trkpt lat="43.5298762" lon="11.1503137"><ele>310.0</ele><time>2026-04-11T14:28:01.484Z</time></trkpt><trkpt lat="43.5299294" lon="11.1503968"><ele>310.0</ele><time>2026-04-11T14:28:06.467Z</time></trkpt><trkpt lat="43.5299805" lon="11.1504595"><ele>310.0</ele><time>2026-04-11T14:28:10.471Z</time></trkpt><trkpt lat="43.5300205" lon="11.1505379"><ele>310.0</ele><time>2026-04-11T14:28:14.473Z</time></trkpt><trkpt lat="43.5300721" lon="11.1506236"><ele>310.0</ele><time>2026-04-11T14:28:18.463Z</time></trkpt><trkpt lat="43.5301265" lon="11.1506769"><ele>310.0</ele><time>2026-04-11T14:28:21.541Z</time></trkpt><trkpt lat="43.5301674" lon="11.1507594"><ele>310.0</ele><time>2026-04-11T14:28:24.511Z</time></trkpt><trkpt lat="43.5302129" lon="11.1508366"><ele>310.0</ele><time>2026-04-11T14:28:27.471Z</time></trkpt><trkpt lat="43.5302714" lon="11.1509151"><ele>309.57142857142856</ele><time>2026-04-11T14:28:30.537Z</time></trkpt><trkpt lat="43.5303225" lon="11.1509971"><ele>309.1428571428571</ele><time>2026-04-11T14:28:33.467Z</time></trkpt><trkpt lat="43.5303691" lon="11.1511076"><ele>308.71428571428567</ele><time>2026-04-11T14:28:36.541Z</time></trkpt><trkpt lat="43.5304182" lon="11.1511898"><ele>308.2857142857143</ele><time>2026-04-11T14:28:38.475Z</time></trkpt><trkpt lat="43.5304709" lon="11.1512382"><ele>307.85714285714283</ele><time>2026-04-11T14:28:40.464Z</time></trkpt><trkpt lat="43.5305078" lon="11.151309"><ele>307.4285714285714</ele><time>2026-04-11T14:28:42.455Z</time></trkpt><trkpt lat="43.5305489" lon="11.1513842"><ele>307.0</ele><time>2026-04-11T14:28:44.535Z</time></trkpt><trkpt lat="43.530602" lon="11.1514785"><ele>307.4</ele><time>2026-04-11T14:28:46.48Z</time></trkpt><trkpt lat="43.5306441" lon="11.1515619"><ele>307.79999999999995</ele><time>2026-04-11T14:28:48.466Z</time></trkpt><trkpt lat="43.5307038" lon="11.1516454"><ele>308.2</ele><time>2026-04-11T14:28:50.539Z</time></trkpt><trkpt lat="43.5307603" lon="11.1517386"><ele>308.59999999999997</ele><time>2026-04-11T14:28:52.475Z</time></trkpt><trkpt lat="43.530827" lon="11.1518417"><ele>309.0</ele><time>2026-04-11T14:28:54.47Z</time></trkpt><trkpt lat="43.5308995" lon="11.1519508"><ele>309.0</ele><time>2026-04-11T14:28:56.466Z</time></trkpt><trkpt lat="43.5309859" lon="11.1520496"><ele>309.0</ele><time>2026-04-11T14:28:58.467Z</time></trkpt><trkpt lat="43.5310757" lon="11.1521411"><ele>309.0</ele><time>2026-04-11T14:29:00.533Z</time></trkpt><trkpt lat="43.5311534" lon="11.1522548"><ele>309.0</ele><time>2026-04-11T14:29:02.456Z</time></trkpt><trkpt lat="43.5311957" lon="11.1524062"><ele>307.8333333333333</ele><time>2026-04-11T14:29:04.455Z</time></trkpt><trkpt lat="43.531201" lon="11.1525018"><ele>306.6666666666667</ele><time>2026-04-11T14:29:05.534Z</time></trkpt><trkpt lat="43.5312008" lon="11.1525902"><ele>305.5</ele><time>2026-04-11T14:29:06.474Z</time></trkpt><trkpt lat="43.5311954" lon="11.1526891"><ele>304.33333333333337</ele><time>2026-04-11T14:29:07.471Z</time></trkpt><trkpt lat="43.5312174" lon="11.1528373"><ele>303.1666666666667</ele><time>2026-04-11T14:29:09.527Z</time></trkpt><trkpt lat="43.5312493" lon="11.1529939"><ele>302.0</ele><time>2026-04-11T14:29:11.462Z</time></trkpt><trkpt lat="43.5312988" lon="11.153124"><ele>302.0</ele><time>2026-04-11T14:29:13.487Z</time></trkpt><trkpt lat="43.5313267" lon="11.1532502"><ele>302.0</ele><time>2026-04-11T14:29:15.474Z</time></trkpt><trkpt lat="43.5313469" lon="11.1533674"><ele>302.0</ele><time>2026-04-11T14:29:17.477Z</time></trkpt><trkpt lat="43.5313592" lon="11.1534801"><ele>302.0</ele><time>2026-04-11T14:29:19.465Z</time></trkpt><trkpt lat="43.5313636" lon="11.1536053"><ele>302.0</ele><time>2026-04-11T14:29:21.512Z</time></trkpt><trkpt lat="43.5313734" lon="11.1537452"><ele>302.0</ele><time>2026-04-11T14:29:23.476Z</time></trkpt><trkpt lat="43.5313811" lon="11.1538999"><ele>302.0</ele><time>2026-04-11T14:29:25.486Z</time></trkpt><trkpt lat="43.5313803" lon="11.154065"><ele>302.0</ele><time>2026-04-11T14:29:27.445Z</time></trkpt><trkpt lat="43.5313755" lon="11.1541531"><ele>302.0</ele><time>2026-04-11T14:29:28.465Z</time></trkpt><trkpt lat="43.5313651" lon="11.1543289"><ele>302.0</ele><time>2026-04-11T14:29:30.537Z</time></trkpt><trkpt lat="43.5313474" lon="11.1545939"><ele>301.8</ele><time>2026-04-11T14:29:33.443Z</time></trkpt><trkpt lat="43.5313058" lon="11.1547557"><ele>301.6</ele><time>2026-04-11T14:29:35.461Z</time></trkpt><trkpt lat="43.531296" lon="11.1548534"><ele>301.40000000000003</ele><time>2026-04-11T14:29:36.462Z</time></trkpt><trkpt lat="43.5312837" lon="11.1549444"><ele>301.2</ele><time>2026-04-11T14:29:37.458Z</time></trkpt><trkpt lat="43.5312512" lon="11.1551107"><ele>301.0</ele><time>2026-04-11T14:29:39.532Z</time></trkpt><trkpt lat="43.5312223" lon="11.1551882"><ele>301.0</ele><time>2026-04-11T14:29:40.525Z</time></trkpt><trkpt lat="43.5311857" lon="11.1553308"><ele>301.0</ele><time>2026-04-11T14:29:42.469Z</time></trkpt><trkpt lat="43.5311664" lon="11.1554906"><ele>301.0</ele><time>2026-04-11T14:29:44.54Z</time></trkpt><trkpt lat="43.5311448" lon="11.1556338"><ele>301.0</ele><time>2026-04-11T14:29:46.449Z</time></trkpt><trkpt lat="43.5311215" lon="11.155778"><ele>301.0</ele><time>2026-04-11T14:29:48.469Z</time></trkpt><trkpt lat="43.5310939" lon="11.1558629"><ele>301.40000000000003</ele><time>2026-04-11T14:29:50.474Z</time></trkpt><trkpt lat="43.5310717" lon="11.1559638"><ele>301.8</ele><time>2026-04-11T14:29:52.448Z</time></trkpt><trkpt lat="43.5310506" lon="11.1560904"><ele>302.20000000000005</ele><time>2026-04-11T14:29:54.512Z</time></trkpt><trkpt lat="43.5310202" lon="11.1562326"><ele>302.6</ele><time>2026-04-11T14:29:56.457Z</time></trkpt><trkpt lat="43.5309993" lon="11.156402"><ele>303.0</ele><time>2026-04-11T14:29:58.481Z</time></trkpt><trkpt lat="43.5309899" lon="11.1564952"><ele>302.0</ele><time>2026-04-11T14:29:59.522Z</time></trkpt><trkpt lat="43.5309792" lon="11.1565916"><ele>301.0</ele><time>2026-04-11T14:30:00.453Z</time></trkpt><trkpt lat="43.5309671" lon="11.1566864"><ele>300.0</ele><time>2026-04-11T14:30:01.461Z</time></trkpt><trkpt lat="43.5309588" lon="11.1567956"><ele>299.0</ele><time>2026-04-11T14:30:02.459Z</time></trkpt><trkpt lat="43.5309528" lon="11.1569204"><ele>298.0</ele><time>2026-04-11T14:30:03.479Z</time></trkpt><trkpt lat="43.5309577" lon="11.1570488"><ele>297.0</ele><time>2026-04-11T14:30:04.485Z</time></trkpt><trkpt lat="43.5309698" lon="11.1571844"><ele>297.0</ele><time>2026-04-11T14:30:05.473Z</time></trkpt><trkpt lat="43.5309902" lon="11.1573222"><ele>297.0</ele><time>2026-04-11T14:30:06.529Z</time></trkpt><trkpt lat="43.531013" lon="11.1574527"><ele>297.0</ele><time>2026-04-11T14:30:07.446Z</time></trkpt><trkpt lat="43.5310464" lon="11.1575971"><ele>297.0</ele><time>2026-04-11T14:30:08.466Z</time></trkpt><trkpt lat="43.5311024" lon="11.1577227"><ele>297.0</ele><time>2026-04-11T14:30:09.473Z</time></trkpt><trkpt lat="43.5311655" lon="11.157856"><ele>294.4</ele><time>2026-04-11T14:30:10.467Z</time></trkpt><trkpt lat="43.5312292" lon="11.1579854"><ele>291.79999999999995</ele><time>2026-04-11T14:30:11.465Z</time></trkpt><trkpt lat="43.5312911" lon="11.1581146"><ele>289.2</ele><time>2026-04-11T14:30:12.462Z</time></trkpt><trkpt lat="43.5313511" lon="11.1582488"><ele>286.59999999999997</ele><time>2026-04-11T14:30:13.478Z</time></trkpt><trkpt lat="43.5314036" lon="11.1583788"><ele>284.0</ele><time>2026-04-11T14:30:14.471Z</time></trkpt><trkpt lat="43.5314547" lon="11.1585113"><ele>284.0</ele><time>2026-04-11T14:30:15.531Z</time></trkpt><trkpt lat="43.5314968" lon="11.1586239"><ele>284.0</ele><time>2026-04-11T14:30:16.459Z</time></trkpt><trkpt lat="43.5315321" lon="11.1587258"><ele>284.0</ele><time>2026-04-11T14:30:17.472Z</time></trkpt><trkpt lat="43.5315722" lon="11.1588433"><ele>284.0</ele><time>2026-04-11T14:30:18.485Z</time></trkpt><trkpt lat="43.5316193" lon="11.158961"><ele>284.0</ele><time>2026-04-11T14:30:19.449Z</time></trkpt><trkpt lat="43.5316747" lon="11.1590888"><ele>284.4</ele><time>2026-04-11T14:30:20.467Z</time></trkpt><trkpt lat="43.5317296" lon="11.1592235"><ele>284.79999999999995</ele><time>2026-04-11T14:30:21.48Z</time></trkpt><trkpt lat="43.5317821" lon="11.1593451"><ele>285.20000000000005</ele><time>2026-04-11T14:30:22.473Z</time></trkpt><trkpt lat="43.5318304" lon="11.1594627"><ele>285.6</ele><time>2026-04-11T14:30:23.471Z</time></trkpt><trkpt lat="43.5318769" lon="11.1595723"><ele>286.0</ele><time>2026-04-11T14:30:24.532Z</time></trkpt><trkpt lat="43.5319152" lon="11.1596677"><ele>286.0</ele><time>2026-04-11T14:30:25.467Z</time></trkpt><trkpt lat="43.5319525" lon="11.1597607"><ele>286.0</ele><time>2026-04-11T14:30:26.471Z</time></trkpt><trkpt lat="43.5319899" lon="11.1598465"><ele>286.0</ele><time>2026-04-11T14:30:27.469Z</time></trkpt><trkpt lat="43.5320259" lon="11.1599243"><ele>286.0</ele><time>2026-04-11T14:30:28.476Z</time></trkpt><trkpt lat="43.5320553" lon="11.1600013"><ele>286.0</ele><time>2026-04-11T14:30:29.552Z</time></trkpt><trkpt lat="43.5321067" lon="11.1601343"><ele>286.0</ele><time>2026-04-11T14:30:31.463Z</time></trkpt><trkpt lat="43.5321555" lon="11.1602625"><ele>286.5</ele><time>2026-04-11T14:30:33.476Z</time></trkpt><trkpt lat="43.5321939" lon="11.1603736"><ele>287.0</ele><time>2026-04-11T14:30:35.539Z</time></trkpt><trkpt lat="43.5322296" lon="11.1604835"><ele>287.5</ele><time>2026-04-11T14:30:37.47Z</time></trkpt><trkpt lat="43.5322624" lon="11.1605689"><ele>288.0</ele><time>2026-04-11T14:30:39.541Z</time></trkpt><trkpt lat="43.5322975" lon="11.1606758"><ele>288.5</ele><time>2026-04-11T14:30:42.456Z</time></trkpt><trkpt lat="43.5323042" lon="11.1607692"><ele>289.0</ele><time>2026-04-11T14:30:46.471Z</time></trkpt><trkpt lat="43.5323717" lon="11.1608439"><ele>289.7142857142857</ele><time>2026-04-11T14:30:50.463Z</time></trkpt><trkpt lat="43.5324158" lon="11.1609169"><ele>290.42857142857144</ele><time>2026-04-11T14:30:53.467Z</time></trkpt><trkpt lat="43.5324593" lon="11.1609965"><ele>291.1428571428571</ele><time>2026-04-11T14:30:56.476Z</time></trkpt><trkpt lat="43.5324916" lon="11.1610804"><ele>291.8571428571429</ele><time>2026-04-11T14:30:59.466Z</time></trkpt><trkpt lat="43.5325279" lon="11.1611746"><ele>292.57142857142856</ele><time>2026-04-11T14:31:03.472Z</time></trkpt><trkpt lat="43.5325533" lon="11.1612622"><ele>293.2857142857143</ele><time>2026-04-11T14:31:07.477Z</time></trkpt><trkpt lat="43.5325739" lon="11.1613501"><ele>294.0</ele><time>2026-04-11T14:31:11.469Z</time></trkpt><trkpt lat="43.5325908" lon="11.1614368"><ele>295.14285714285717</ele><time>2026-04-11T14:31:15.533Z</time></trkpt><trkpt lat="43.5326029" lon="11.1615384"><ele>296.2857142857143</ele><time>2026-04-11T14:31:19.458Z</time></trkpt><trkpt lat="43.5326298" lon="11.1616372"><ele>297.42857142857144</ele><time>2026-04-11T14:31:26.478Z</time></trkpt><trkpt lat="43.5326367" lon="11.1617522"><ele>298.57142857142856</ele><time>2026-04-11T14:31:30.532Z</time></trkpt><trkpt lat="43.5326183" lon="11.1618443"><ele>299.7142857142857</ele><time>2026-04-11T14:31:35.472Z</time></trkpt><trkpt lat="43.5326107" lon="11.1619466"><ele>300.8571428571429</ele><time>2026-04-11T14:31:40.469Z</time></trkpt><trkpt lat="43.5326215" lon="11.1620332"><ele>302.0</ele><time>2026-04-11T14:31:44.463Z</time></trkpt><trkpt lat="43.5326564" lon="11.1621219"><ele>302.00000000000006</ele><time>2026-04-11T14:31:48.47Z</time></trkpt><trkpt lat="43.5326613" lon="11.1622268"><ele>302.0</ele><time>2026-04-11T14:31:55.531Z</time></trkpt><trkpt lat="43.53268" lon="11.1623234"><ele>302.0</ele><time>2026-04-11T14:31:58.47Z</time></trkpt><trkpt lat="43.5327031" lon="11.1624147"><ele>302.0</ele><time>2026-04-11T14:32:02.458Z</time></trkpt><trkpt lat="43.5327421" lon="11.1625058"><ele>302.0</ele><time>2026-04-11T14:32:07.459Z</time></trkpt><trkpt lat="43.5327732" lon="11.1625875"><ele>302.00000000000006</ele><time>2026-04-11T14:32:13.466Z</time></trkpt><trkpt lat="43.5328209" lon="11.1626461"><ele>302.0</ele><time>2026-04-11T14:32:17.477Z</time></trkpt><trkpt lat="43.5328737" lon="11.162722"><ele>304.0</ele><time>2026-04-11T14:32:21.463Z</time></trkpt><trkpt lat="43.5329254" lon="11.1627971"><ele>306.0</ele><time>2026-04-11T14:32:25.464Z</time></trkpt><trkpt lat="43.5329963" lon="11.162871"><ele>308.0</ele><time>2026-04-11T14:32:28.473Z</time></trkpt><trkpt lat="43.5330388" lon="11.162951"><ele>310.0</ele><time>2026-04-11T14:32:33.468Z</time></trkpt><trkpt lat="43.533087" lon="11.1630383"><ele>312.0</ele><time>2026-04-11T14:32:37.468Z</time></trkpt><trkpt lat="43.533143" lon="11.1631015"><ele>314.0</ele><time>2026-04-11T14:32:41.526Z</time></trkpt><trkpt lat="43.5332045" lon="11.1631751"><ele>313.99999999999994</ele><time>2026-04-11T14:32:46.527Z</time></trkpt><trkpt lat="43.533253" lon="11.1632382"><ele>314.0</ele><time>2026-04-11T14:32:49.471Z</time></trkpt><trkpt lat="43.5333025" lon="11.1633061"><ele>314.0</ele><time>2026-04-11T14:32:52.476Z</time></trkpt><trkpt lat="43.5333505" lon="11.1633959"><ele>314.0</ele><time>2026-04-11T14:32:56.536Z</time></trkpt><trkpt lat="43.533395" lon="11.1634633"><ele>314.0</ele><time>2026-04-11T14:32:59.49Z</time></trkpt><trkpt lat="43.5334579" lon="11.1635208"><ele>313.99999999999994</ele><time>2026-04-11T14:33:03.466Z</time></trkpt><trkpt lat="43.5335083" lon="11.1636157"><ele>314.0</ele><time>2026-04-11T14:33:07.47Z</time></trkpt><trkpt lat="43.5335521" lon="11.1636873"><ele>313.99999999999994</ele><time>2026-04-11T14:33:10.536Z</time></trkpt><trkpt lat="43.533599" lon="11.1637589"><ele>314.0</ele><time>2026-04-11T14:33:13.464Z</time></trkpt><trkpt lat="43.5336592" lon="11.1638317"><ele>314.0</ele><time>2026-04-11T14:33:16.468Z</time></trkpt><trkpt lat="43.5337245" lon="11.1639002"><ele>314.0</ele><time>2026-04-11T14:33:19.525Z</time></trkpt><trkpt lat="43.5337708" lon="11.163964"><ele>314.0</ele><time>2026-04-11T14:33:22.47Z</time></trkpt><trkpt lat="43.5338228" lon="11.1640529"><ele>313.99999999999994</ele><time>2026-04-11T14:33:26.546Z</time></trkpt><trkpt lat="43.5338672" lon="11.1641176"><ele>314.0</ele><time>2026-04-11T14:33:29.53Z</time></trkpt><trkpt lat="43.5338919" lon="11.1642229"><ele>313.85714285714283</ele><time>2026-04-11T14:33:32.472Z</time></trkpt><trkpt lat="43.5339375" lon="11.1643137"><ele>313.7142857142857</ele><time>2026-04-11T14:33:36.533Z</time></trkpt><trkpt lat="43.5339991" lon="11.1643654"><ele>313.57142857142856</ele><time>2026-04-11T14:33:39.48Z</time></trkpt><trkpt lat="43.5340511" lon="11.1644186"><ele>313.42857142857144</ele><time>2026-04-11T14:33:42.501Z</time></trkpt><trkpt lat="43.5341067" lon="11.1644828"><ele>313.2857142857143</ele><time>2026-04-11T14:33:46.55Z</time></trkpt><trkpt lat="43.5341337" lon="11.1645621"><ele>313.1428571428571</ele><time>2026-04-11T14:33:48.464Z</time></trkpt><trkpt lat="43.5341747" lon="11.1646505"><ele>313.0</ele><time>2026-04-11T14:33:51.482Z</time></trkpt><trkpt lat="43.5342343" lon="11.1646975"><ele>313.0</ele><time>2026-04-11T14:33:54.474Z</time></trkpt><trkpt lat="43.5342843" lon="11.1647543"><ele>313.0</ele><time>2026-04-11T14:33:57.476Z</time></trkpt><trkpt lat="43.534335" lon="11.1648221"><ele>313.0</ele><time>2026-04-11T14:34:00.474Z</time></trkpt><trkpt lat="43.5343911" lon="11.1648833"><ele>313.0</ele><time>2026-04-11T14:34:03.481Z</time></trkpt><trkpt lat="43.5344377" lon="11.1649473"><ele>313.0</ele><time>2026-04-11T14:34:06.479Z</time></trkpt><trkpt lat="43.5344848" lon="11.1650122"><ele>313.0</ele><time>2026-04-11T14:34:09.461Z</time></trkpt><trkpt lat="43.534543" lon="11.1650896"><ele>313.0</ele><time>2026-04-11T14:34:13.468Z</time></trkpt><trkpt lat="43.5345948" lon="11.1651517"><ele>313.3333333333333</ele><time>2026-04-11T14:34:16.536Z</time></trkpt><trkpt lat="43.5346253" lon="11.1652436"><ele>313.66666666666663</ele><time>2026-04-11T14:34:20.481Z</time></trkpt><trkpt lat="43.5346869" lon="11.1653023"><ele>314.0</ele><time>2026-04-11T14:34:23.467Z</time></trkpt><trkpt lat="43.5347361" lon="11.16537"><ele>314.3333333333333</ele><time>2026-04-11T14:34:26.526Z</time></trkpt><trkpt lat="43.53478" lon="11.165464"><ele>314.6666666666667</ele><time>2026-04-11T14:34:30.536Z</time></trkpt><trkpt lat="43.5348398" lon="11.1655615"><ele>315.0</ele><time>2026-04-11T14:34:33.475Z</time></trkpt><trkpt lat="43.5348894" lon="11.1656396"><ele>317.75</ele><time>2026-04-11T14:34:35.472Z</time></trkpt><trkpt lat="43.5349411" lon="11.1657383"><ele>320.5</ele><time>2026-04-11T14:34:37.478Z</time></trkpt><trkpt lat="43.5349943" lon="11.1658394"><ele>323.25</ele><time>2026-04-11T14:34:39.482Z</time></trkpt><trkpt lat="43.5350476" lon="11.1659347"><ele>326.0</ele><time>2026-04-11T14:34:41.527Z</time></trkpt><trkpt lat="43.5352346" lon="11.1661834"><ele>326.0</ele><time>2026-04-11T14:34:47.471Z</time></trkpt><trkpt lat="43.5352806" lon="11.1662481"><ele>326.0</ele><time>2026-04-11T14:34:49.452Z</time></trkpt><trkpt lat="43.5353297" lon="11.1663562"><ele>326.0</ele><time>2026-04-11T14:34:51.448Z</time></trkpt><trkpt lat="43.5353654" lon="11.1664511"><ele>326.0</ele><time>2026-04-11T14:34:53.472Z</time></trkpt><trkpt lat="43.5354162" lon="11.1665478"><ele>326.0</ele><time>2026-04-11T14:34:55.459Z</time></trkpt><trkpt lat="43.535453" lon="11.1666428"><ele>326.0</ele><time>2026-04-11T14:34:57.467Z</time></trkpt><trkpt lat="43.5354967" lon="11.1667283"><ele>325.1666666666667</ele><time>2026-04-11T14:34:59.474Z</time></trkpt><trkpt lat="43.535547" lon="11.1668232"><ele>324.33333333333337</ele><time>2026-04-11T14:35:01.474Z</time></trkpt><trkpt lat="43.5356041" lon="11.1669153"><ele>323.5</ele><time>2026-04-11T14:35:03.465Z</time></trkpt><trkpt lat="43.5356548" lon="11.1670108"><ele>322.6666666666667</ele><time>2026-04-11T14:35:05.479Z</time></trkpt><trkpt lat="43.5357103" lon="11.1670772"><ele>321.8333333333333</ele><time>2026-04-11T14:35:07.473Z</time></trkpt><trkpt lat="43.5357718" lon="11.167139"><ele>321.0</ele><time>2026-04-11T14:35:09.474Z</time></trkpt><trkpt lat="43.5358499" lon="11.1672212"><ele>321.0</ele><time>2026-04-11T14:35:11.483Z</time></trkpt><trkpt lat="43.5359297" lon="11.1673077"><ele>321.0</ele><time>2026-04-11T14:35:13.478Z</time></trkpt><trkpt lat="43.5359892" lon="11.1673723"><ele>321.0</ele><time>2026-04-11T14:35:15.476Z</time></trkpt><trkpt lat="43.5360555" lon="11.1674006"><ele>321.0</ele><time>2026-04-11T14:35:18.473Z</time></trkpt><trkpt lat="43.5361236" lon="11.1674463"><ele>321.0</ele><time>2026-04-11T14:35:20.45Z</time></trkpt><trkpt lat="43.5361954" lon="11.1675177"><ele>321.0</ele><time>2026-04-11T14:35:22.47Z</time></trkpt><trkpt lat="43.536253" lon="11.167574"><ele>322.0</ele><time>2026-04-11T14:35:24.473Z</time></trkpt><trkpt lat="43.5363071" lon="11.1676251"><ele>323.0</ele><time>2026-04-11T14:35:26.457Z</time></trkpt><trkpt lat="43.5363679" lon="11.1677122"><ele>324.0</ele><time>2026-04-11T14:35:29.464Z</time></trkpt><trkpt lat="43.5364431" lon="11.1677944"><ele>325.0</ele><time>2026-04-11T14:35:32.48Z</time></trkpt><trkpt lat="43.5365311" lon="11.1678447"><ele>326.0</ele><time>2026-04-11T14:35:34.484Z</time></trkpt><trkpt lat="43.5366384" lon="11.1678957"><ele>326.0</ele><time>2026-04-11T14:35:36.481Z</time></trkpt><trkpt lat="43.5367333" lon="11.1679275"><ele>326.0</ele><time>2026-04-11T14:35:38.467Z</time></trkpt><trkpt lat="43.5368099" lon="11.1679579"><ele>326.0</ele><time>2026-04-11T14:35:40.473Z</time></trkpt><trkpt lat="43.5368802" lon="11.1679936"><ele>326.0</ele><time>2026-04-11T14:35:42.471Z</time></trkpt><trkpt lat="43.5369542" lon="11.1680213"><ele>326.0</ele><time>2026-04-11T14:35:44.469Z</time></trkpt><trkpt lat="43.5370322" lon="11.1680614"><ele>326.0</ele><time>2026-04-11T14:35:46.459Z</time></trkpt><trkpt lat="43.5371108" lon="11.1681117"><ele>325.6666666666667</ele><time>2026-04-11T14:35:48.477Z</time></trkpt><trkpt lat="43.5371911" lon="11.1681659"><ele>325.33333333333337</ele><time>2026-04-11T14:35:50.469Z</time></trkpt><trkpt lat="43.5372769" lon="11.1682037"><ele>325.0</ele><time>2026-04-11T14:35:52.466Z</time></trkpt><trkpt lat="43.537362" lon="11.168247"><ele>324.6666666666667</ele><time>2026-04-11T14:35:54.473Z</time></trkpt><trkpt lat="43.5374301" lon="11.1683255"><ele>324.3333333333333</ele><time>2026-04-11T14:35:56.456Z</time></trkpt><trkpt lat="43.5374812" lon="11.1683818"><ele>324.0</ele><time>2026-04-11T14:35:58.465Z</time></trkpt><trkpt lat="43.5375257" lon="11.1684581"><ele>324.8333333333333</ele><time>2026-04-11T14:36:00.52Z</time></trkpt><trkpt lat="43.5375765" lon="11.1685303"><ele>325.6666666666667</ele><time>2026-04-11T14:36:02.47Z</time></trkpt><trkpt lat="43.5376284" lon="11.1685939"><ele>326.5</ele><time>2026-04-11T14:36:04.482Z</time></trkpt><trkpt lat="43.5376792" lon="11.1686634"><ele>327.33333333333337</ele><time>2026-04-11T14:36:06.473Z</time></trkpt><trkpt lat="43.537733" lon="11.1687256"><ele>328.1666666666667</ele><time>2026-04-11T14:36:08.487Z</time></trkpt><trkpt lat="43.5377949" lon="11.1687996"><ele>329.0</ele><time>2026-04-11T14:36:10.538Z</time></trkpt><trkpt lat="43.5378628" lon="11.1688778"><ele>329.0</ele><time>2026-04-11T14:36:12.476Z</time></trkpt><trkpt lat="43.5379182" lon="11.1689334"><ele>329.0</ele><time>2026-04-11T14:36:14.481Z</time></trkpt><trkpt lat="43.5379944" lon="11.1690089"><ele>329.0</ele><time>2026-04-11T14:36:17.468Z</time></trkpt><trkpt lat="43.5380523" lon="11.1690565"><ele>329.0</ele><time>2026-04-11T14:36:19.478Z</time></trkpt><trkpt lat="43.5381108" lon="11.1691011"><ele>329.0</ele><time>2026-04-11T14:36:21.525Z</time></trkpt><trkpt lat="43.5381891" lon="11.1691607"><ele>329.0</ele><time>2026-04-11T14:36:24.472Z</time></trkpt><trkpt lat="43.5382615" lon="11.1691686"><ele>329.0</ele><time>2026-04-11T14:36:26.47Z</time></trkpt><trkpt lat="43.5383293" lon="11.1691903"><ele>329.0</ele><time>2026-04-11T14:36:28.471Z</time></trkpt><trkpt lat="43.5383949" lon="11.1692195"><ele>329.0</ele><time>2026-04-11T14:36:30.544Z</time></trkpt><trkpt lat="43.5384674" lon="11.1692333"><ele>329.0</ele><time>2026-04-11T14:36:32.468Z</time></trkpt><trkpt lat="43.5385301" lon="11.1692682"><ele>329.0</ele><time>2026-04-11T14:36:35.463Z</time></trkpt><trkpt lat="43.5386007" lon="11.1692773"><ele>329.0</ele><time>2026-04-11T14:36:37.471Z</time></trkpt><trkpt lat="43.538671" lon="11.1692903"><ele>329.0</ele><time>2026-04-11T14:36:39.473Z</time></trkpt><trkpt lat="43.5387453" lon="11.1692982"><ele>329.5</ele><time>2026-04-11T14:36:41.463Z</time></trkpt><trkpt lat="43.5388127" lon="11.1693123"><ele>330.0</ele><time>2026-04-11T14:36:43.466Z</time></trkpt><trkpt lat="43.5389091" lon="11.1693765"><ele>330.5</ele><time>2026-04-11T14:36:46.471Z</time></trkpt><trkpt lat="43.5389329" lon="11.1695025"><ele>331.0</ele><time>2026-04-11T14:36:48.457Z</time></trkpt><trkpt lat="43.5389268" lon="11.1696443"><ele>331.5</ele><time>2026-04-11T14:36:50.462Z</time></trkpt><trkpt lat="43.5388891" lon="11.1697341"><ele>332.0</ele><time>2026-04-11T14:36:52.466Z</time></trkpt><trkpt lat="43.5387966" lon="11.1697769"><ele>331.5</ele><time>2026-04-11T14:36:55.454Z</time></trkpt><trkpt lat="43.5387122" lon="11.1697757"><ele>331.0</ele><time>2026-04-11T14:36:57.473Z</time></trkpt><trkpt lat="43.5386051" lon="11.1697408"><ele>330.5</ele><time>2026-04-11T14:36:59.462Z</time></trkpt><trkpt lat="43.5385385" lon="11.1697189"><ele>330.0</ele><time>2026-04-11T14:37:00.471Z</time></trkpt><trkpt lat="43.5384703" lon="11.1696881"><ele>329.5</ele><time>2026-04-11T14:37:01.553Z</time></trkpt><trkpt lat="43.5383943" lon="11.1696562"><ele>329.0</ele><time>2026-04-11T14:37:02.475Z</time></trkpt><trkpt lat="43.5383124" lon="11.1696238"><ele>329.0</ele><time>2026-04-11T14:37:03.462Z</time></trkpt><trkpt lat="43.5382258" lon="11.1695932"><ele>329.0</ele><time>2026-04-11T14:37:04.471Z</time></trkpt><trkpt lat="43.5381304" lon="11.1695604"><ele>329.0</ele><time>2026-04-11T14:37:05.45Z</time></trkpt><trkpt lat="43.5380298" lon="11.1695229"><ele>329.0</ele><time>2026-04-11T14:37:06.477Z</time></trkpt><trkpt lat="43.5379255" lon="11.1694775"><ele>329.0</ele><time>2026-04-11T14:37:07.483Z</time></trkpt><trkpt lat="43.5378186" lon="11.1694213"><ele>326.75</ele><time>2026-04-11T14:37:08.471Z</time></trkpt><trkpt lat="43.5377153" lon="11.1693502"><ele>324.5</ele><time>2026-04-11T14:37:09.453Z</time></trkpt><trkpt lat="43.5376118" lon="11.1692662"><ele>322.25</ele><time>2026-04-11T14:37:10.548Z</time></trkpt><trkpt lat="43.5375095" lon="11.1691859"><ele>320.0</ele><time>2026-04-11T14:37:11.537Z</time></trkpt><trkpt lat="43.5374067" lon="11.1691055"><ele>320.0</ele><time>2026-04-11T14:37:12.46Z</time></trkpt><trkpt lat="43.5372984" lon="11.1690243"><ele>320.0</ele><time>2026-04-11T14:37:13.463Z</time></trkpt><trkpt lat="43.5371895" lon="11.1689458"><ele>320.0</ele><time>2026-04-11T14:37:14.469Z</time></trkpt><trkpt lat="43.5370815" lon="11.1688681"><ele>320.0</ele><time>2026-04-11T14:37:15.528Z</time></trkpt><trkpt lat="43.5369688" lon="11.1688019"><ele>320.0</ele><time>2026-04-11T14:37:16.534Z</time></trkpt><trkpt lat="43.5368517" lon="11.1687274"><ele>320.0</ele><time>2026-04-11T14:37:17.452Z</time></trkpt><trkpt lat="43.5367306" lon="11.1686538"><ele>320.0</ele><time>2026-04-11T14:37:18.481Z</time></trkpt><trkpt lat="43.5366166" lon="11.1686179"><ele>320.0</ele><time>2026-04-11T14:37:19.462Z</time></trkpt><trkpt lat="43.5365024" lon="11.1686055"><ele>320.0</ele><time>2026-04-11T14:37:20.553Z</time></trkpt><trkpt lat="43.5363884" lon="11.1685949"><ele>320.0</ele><time>2026-04-11T14:37:21.533Z</time></trkpt><trkpt lat="43.5362807" lon="11.1685834"><ele>320.0</ele><time>2026-04-11T14:37:22.458Z</time></trkpt><trkpt lat="43.536179" lon="11.1685758"><ele>320.0</ele><time>2026-04-11T14:37:23.47Z</time></trkpt><trkpt lat="43.5360712" lon="11.1685597"><ele>320.0</ele><time>2026-04-11T14:37:24.463Z</time></trkpt><trkpt lat="43.5359533" lon="11.1685144"><ele>317.5</ele><time>2026-04-11T14:37:25.537Z</time></trkpt><trkpt lat="43.5358506" lon="11.168456"><ele>315.0</ele><time>2026-04-11T14:37:26.506Z</time></trkpt><trkpt lat="43.5357413" lon="11.1684045"><ele>312.5</ele><time>2026-04-11T14:37:27.456Z</time></trkpt><trkpt lat="43.535641" lon="11.1683315"><ele>310.0</ele><time>2026-04-11T14:37:28.466Z</time></trkpt><trkpt lat="43.5355474" lon="11.1682452"><ele>314.0</ele><time>2026-04-11T14:37:29.463Z</time></trkpt><trkpt lat="43.535454" lon="11.1681713"><ele>318.0</ele><time>2026-04-11T14:37:30.537Z</time></trkpt><trkpt lat="43.5353758" lon="11.1681097"><ele>322.0</ele><time>2026-04-11T14:37:31.461Z</time></trkpt><trkpt lat="43.5350983" lon="11.1680751"><ele>322.0</ele><time>2026-04-11T14:37:34.457Z</time></trkpt><trkpt lat="43.5349574" lon="11.1681245"><ele>322.0</ele><time>2026-04-11T14:37:36.474Z</time></trkpt><trkpt lat="43.5348655" lon="11.1681499"><ele>322.0</ele><time>2026-04-11T14:37:37.477Z</time></trkpt><trkpt lat="43.5347721" lon="11.1681612"><ele>322.0</ele><time>2026-04-11T14:37:38.472Z</time></trkpt><trkpt lat="43.5346852" lon="11.1681583"><ele>322.0</ele><time>2026-04-11T14:37:39.472Z</time></trkpt><trkpt lat="43.5346012" lon="11.1681433"><ele>321.16666666666663</ele><time>2026-04-11T14:37:40.469Z</time></trkpt><trkpt lat="43.5345136" lon="11.1681169"><ele>320.3333333333333</ele><time>2026-04-11T14:37:41.527Z</time></trkpt><trkpt lat="43.5344363" lon="11.1680887"><ele>319.5</ele><time>2026-04-11T14:37:42.485Z</time></trkpt><trkpt lat="43.5343529" lon="11.1680525"><ele>318.6666666666667</ele><time>2026-04-11T14:37:43.489Z</time></trkpt><trkpt lat="43.534276" lon="11.1680114"><ele>317.83333333333337</ele><time>2026-04-11T14:37:44.47Z</time></trkpt><trkpt lat="43.5341968" lon="11.167968"><ele>317.0</ele><time>2026-04-11T14:37:45.477Z</time></trkpt><trkpt lat="43.5341186" lon="11.1679355"><ele>317.0</ele><time>2026-04-11T14:37:46.469Z</time></trkpt><trkpt lat="43.5340378" lon="11.1679062"><ele>317.0</ele><time>2026-04-11T14:37:47.468Z</time></trkpt><trkpt lat="43.5339627" lon="11.167878"><ele>317.0</ele><time>2026-04-11T14:37:48.48Z</time></trkpt><trkpt lat="43.5338947" lon="11.1678481"><ele>317.0</ele><time>2026-04-11T14:37:49.448Z</time></trkpt><trkpt lat="43.533828" lon="11.1678204"><ele>317.0</ele><time>2026-04-11T14:37:50.451Z</time></trkpt><trkpt lat="43.5337613" lon="11.167797"><ele>317.0</ele><time>2026-04-11T14:37:51.475Z</time></trkpt><trkpt lat="43.533699" lon="11.1677771"><ele>317.0</ele><time>2026-04-11T14:37:52.476Z</time></trkpt><trkpt lat="43.5335905" lon="11.1677421"><ele>315.8</ele><time>2026-04-11T14:37:54.495Z</time></trkpt><trkpt lat="43.5334897" lon="11.1677059"><ele>314.6</ele><time>2026-04-11T14:37:56.47Z</time></trkpt><trkpt lat="43.5333918" lon="11.167677"><ele>313.40000000000003</ele><time>2026-04-11T14:37:58.471Z</time></trkpt><trkpt lat="43.5332858" lon="11.1676716"><ele>312.2</ele><time>2026-04-11T14:38:00.537Z</time></trkpt><trkpt lat="43.5331804" lon="11.1676812"><ele>311.0</ele><time>2026-04-11T14:38:02.458Z</time></trkpt><trkpt lat="43.5330713" lon="11.1677207"><ele>311.0</ele><time>2026-04-11T14:38:04.479Z</time></trkpt><trkpt lat="43.532965" lon="11.1677919"><ele>311.0</ele><time>2026-04-11T14:38:06.524Z</time></trkpt><trkpt lat="43.5328538" lon="11.167876"><ele>311.0</ele><time>2026-04-11T14:38:08.472Z</time></trkpt><trkpt lat="43.532796" lon="11.1679126"><ele>311.0</ele><time>2026-04-11T14:38:09.469Z</time></trkpt><trkpt lat="43.5327358" lon="11.1679459"><ele>311.0</ele><time>2026-04-11T14:38:10.529Z</time></trkpt><trkpt lat="43.5326745" lon="11.16797"><ele>311.0</ele><time>2026-04-11T14:38:11.55Z</time></trkpt><trkpt lat="43.532562" lon="11.1679623"><ele>310.2</ele><time>2026-04-11T14:38:13.464Z</time></trkpt><trkpt lat="43.5324456" lon="11.1679626"><ele>309.40000000000003</ele><time>2026-04-11T14:38:15.547Z</time></trkpt><trkpt lat="43.532336" lon="11.1679593"><ele>308.6</ele><time>2026-04-11T14:38:17.476Z</time></trkpt><trkpt lat="43.5322126" lon="11.1679564"><ele>307.8</ele><time>2026-04-11T14:38:19.482Z</time></trkpt><trkpt lat="43.5321495" lon="11.1679738"><ele>307.0</ele><time>2026-04-11T14:38:20.468Z</time></trkpt><trkpt lat="43.53209" lon="11.1680093"><ele>305.75</ele><time>2026-04-11T14:38:21.463Z</time></trkpt><trkpt lat="43.5319867" lon="11.1680852"><ele>304.5</ele><time>2026-04-11T14:38:23.484Z</time></trkpt><trkpt lat="43.5318804" lon="11.1681563"><ele>303.25</ele><time>2026-04-11T14:38:25.533Z</time></trkpt><trkpt lat="43.5317758" lon="11.1682301"><ele>302.0</ele><time>2026-04-11T14:38:27.474Z</time></trkpt><trkpt lat="43.5316656" lon="11.1683174"><ele>302.0</ele><time>2026-04-11T14:38:29.469Z</time></trkpt><trkpt lat="43.5316108" lon="11.1683704"><ele>302.0</ele><time>2026-04-11T14:38:30.482Z</time></trkpt><trkpt lat="43.5315541" lon="11.1684204"><ele>302.0</ele><time>2026-04-11T14:38:31.47Z</time></trkpt><trkpt lat="43.5314896" lon="11.1684719"><ele>302.0</ele><time>2026-04-11T14:38:32.468Z</time></trkpt><trkpt lat="43.5314148" lon="11.1685189"><ele>302.0</ele><time>2026-04-11T14:38:33.467Z</time></trkpt><trkpt lat="43.5313349" lon="11.168565"><ele>302.0</ele><time>2026-04-11T14:38:34.49Z</time></trkpt><trkpt lat="43.5312479" lon="11.1686055"><ele>301.0</ele><time>2026-04-11T14:38:35.472Z</time></trkpt><trkpt lat="43.5311517" lon="11.168638"><ele>300.0</ele><time>2026-04-11T14:38:36.48Z</time></trkpt><trkpt lat="43.5310566" lon="11.1686678"><ele>299.0</ele><time>2026-04-11T14:38:37.472Z</time></trkpt><trkpt lat="43.5309632" lon="11.1686935"><ele>298.0</ele><time>2026-04-11T14:38:38.474Z</time></trkpt><trkpt lat="43.5308691" lon="11.1687115"><ele>297.0</ele><time>2026-04-11T14:38:39.479Z</time></trkpt><trkpt lat="43.5307746" lon="11.1687283"><ele>297.0</ele><time>2026-04-11T14:38:40.48Z</time></trkpt><trkpt lat="43.530682" lon="11.1687441"><ele>297.0</ele><time>2026-04-11T14:38:41.458Z</time></trkpt><trkpt lat="43.5305875" lon="11.1687601"><ele>297.0</ele><time>2026-04-11T14:38:42.475Z</time></trkpt><trkpt lat="43.5304959" lon="11.1687747"><ele>297.0</ele><time>2026-04-11T14:38:43.462Z</time></trkpt><trkpt lat="43.5304051" lon="11.1687915"><ele>297.0</ele><time>2026-04-11T14:38:44.483Z</time></trkpt><trkpt lat="43.5303194" lon="11.1688141"><ele>296.0</ele><time>2026-04-11T14:38:45.475Z</time></trkpt><trkpt lat="43.5302335" lon="11.1688424"><ele>295.0</ele><time>2026-04-11T14:38:46.477Z</time></trkpt><trkpt lat="43.5301493" lon="11.1688722"><ele>294.0</ele><time>2026-04-11T14:38:47.529Z</time></trkpt><trkpt lat="43.5300681" lon="11.1688997"><ele>293.0</ele><time>2026-04-11T14:38:48.479Z</time></trkpt><trkpt lat="43.5299849" lon="11.1689302"><ele>292.0</ele><time>2026-04-11T14:38:49.459Z</time></trkpt><trkpt lat="43.5299065" lon="11.1689603"><ele>291.0</ele><time>2026-04-11T14:38:50.461Z</time></trkpt><trkpt lat="43.5298251" lon="11.16899"><ele>290.8333333333333</ele><time>2026-04-11T14:38:51.522Z</time></trkpt><trkpt lat="43.529758" lon="11.16903"><ele>290.6666666666667</ele><time>2026-04-11T14:38:52.476Z</time></trkpt><trkpt lat="43.529688" lon="11.1690734"><ele>290.5</ele><time>2026-04-11T14:38:53.47Z</time></trkpt><trkpt lat="43.5296138" lon="11.1691165"><ele>290.33333333333337</ele><time>2026-04-11T14:38:54.46Z</time></trkpt><trkpt lat="43.5295395" lon="11.1691544"><ele>290.1666666666667</ele><time>2026-04-11T14:38:55.528Z</time></trkpt><trkpt lat="43.5294633" lon="11.1691823"><ele>290.0</ele><time>2026-04-11T14:38:56.537Z</time></trkpt><trkpt lat="43.529389" lon="11.169208"><ele>290.83333333333337</ele><time>2026-04-11T14:38:57.464Z</time></trkpt><trkpt lat="43.5293094" lon="11.1692368"><ele>291.6666666666667</ele><time>2026-04-11T14:38:58.473Z</time></trkpt><trkpt lat="43.5292305" lon="11.1692632"><ele>292.5</ele><time>2026-04-11T14:38:59.474Z</time></trkpt><trkpt lat="43.5291555" lon="11.1692889"><ele>293.3333333333333</ele><time>2026-04-11T14:39:00.471Z</time></trkpt><trkpt lat="43.5290803" lon="11.1693169"><ele>294.16666666666663</ele><time>2026-04-11T14:39:01.533Z</time></trkpt><trkpt lat="43.5290098" lon="11.1693514"><ele>295.0</ele><time>2026-04-11T14:39:02.472Z</time></trkpt><trkpt lat="43.528941" lon="11.169403"><ele>295.0</ele><time>2026-04-11T14:39:03.469Z</time></trkpt><trkpt lat="43.5288847" lon="11.1694618"><ele>295.0</ele><time>2026-04-11T14:39:04.472Z</time></trkpt><trkpt lat="43.5288437" lon="11.169534"><ele>295.0</ele><time>2026-04-11T14:39:05.49Z</time></trkpt><trkpt lat="43.5288114" lon="11.1696191"><ele>295.0</ele><time>2026-04-11T14:39:06.477Z</time></trkpt><trkpt lat="43.5287818" lon="11.1697162"><ele>295.0</ele><time>2026-04-11T14:39:07.475Z</time></trkpt><trkpt lat="43.5287563" lon="11.1698285"><ele>295.0</ele><time>2026-04-11T14:39:08.467Z</time></trkpt><trkpt lat="43.5287396" lon="11.1699586"><ele>295.8</ele><time>2026-04-11T14:39:09.49Z</time></trkpt><trkpt lat="43.5287305" lon="11.1700955"><ele>296.6</ele><time>2026-04-11T14:39:10.467Z</time></trkpt><trkpt lat="43.5287256" lon="11.1702454"><ele>297.4</ele><time>2026-04-11T14:39:11.551Z</time></trkpt><trkpt lat="43.5287042" lon="11.1703995"><ele>298.2</ele><time>2026-04-11T14:39:12.473Z</time></trkpt><trkpt lat="43.528665" lon="11.1705626"><ele>299.0</ele><time>2026-04-11T14:39:13.469Z</time></trkpt><trkpt lat="43.5286105" lon="11.1707167"><ele>297.0</ele><time>2026-04-11T14:39:14.475Z</time></trkpt><trkpt lat="43.5285485" lon="11.1708644"><ele>295.0</ele><time>2026-04-11T14:39:15.479Z</time></trkpt><trkpt lat="43.5284824" lon="11.1710027"><ele>293.0</ele><time>2026-04-11T14:39:16.47Z</time></trkpt><trkpt lat="43.52841" lon="11.1711355"><ele>291.0</ele><time>2026-04-11T14:39:17.47Z</time></trkpt><trkpt lat="43.5283268" lon="11.1712556"><ele>291.0</ele><time>2026-04-11T14:39:18.491Z</time></trkpt><trkpt lat="43.5282314" lon="11.1713493"><ele>291.0</ele><time>2026-04-11T14:39:19.474Z</time></trkpt><trkpt lat="43.5281263" lon="11.1714108"><ele>291.0</ele><time>2026-04-11T14:39:20.472Z</time></trkpt><trkpt lat="43.5280163" lon="11.1714174"><ele>291.0</ele><time>2026-04-11T14:39:21.457Z</time></trkpt><trkpt lat="43.5279072" lon="11.1713892"><ele>290.25</ele><time>2026-04-11T14:39:22.472Z</time></trkpt><trkpt lat="43.5277981" lon="11.1713504"><ele>289.5</ele><time>2026-04-11T14:39:23.488Z</time></trkpt><trkpt lat="43.5276881" lon="11.1713179"><ele>288.75</ele><time>2026-04-11T14:39:24.474Z</time></trkpt><trkpt lat="43.5275792" lon="11.1712877"><ele>288.0</ele><time>2026-04-11T14:39:25.47Z</time></trkpt><trkpt lat="43.5274666" lon="11.1712607"><ele>288.0</ele><time>2026-04-11T14:39:26.469Z</time></trkpt><trkpt lat="43.5273563" lon="11.1712351"><ele>288.0</ele><time>2026-04-11T14:39:27.486Z</time></trkpt><trkpt lat="43.5272457" lon="11.1712097"><ele>288.0</ele><time>2026-04-11T14:39:28.476Z</time></trkpt><trkpt lat="43.5271361" lon="11.1711863"><ele>288.0</ele><time>2026-04-11T14:39:29.527Z</time></trkpt><trkpt lat="43.5270296" lon="11.1711681"><ele>288.0</ele><time>2026-04-11T14:39:30.538Z</time></trkpt><trkpt lat="43.526924" lon="11.1711574"><ele>286.0</ele><time>2026-04-11T14:39:31.538Z</time></trkpt><trkpt lat="43.5268168" lon="11.1711625"><ele>284.0</ele><time>2026-04-11T14:39:32.473Z</time></trkpt><trkpt lat="43.526701" lon="11.1711895"><ele>282.0</ele><time>2026-04-11T14:39:33.475Z</time></trkpt><trkpt lat="43.5265907" lon="11.1712185"><ele>280.0</ele><time>2026-04-11T14:39:34.477Z</time></trkpt><trkpt lat="43.5264789" lon="11.1712479"><ele>280.0</ele><time>2026-04-11T14:39:35.545Z</time></trkpt><trkpt lat="43.5263631" lon="11.1712831"><ele>280.0</ele><time>2026-04-11T14:39:36.534Z</time></trkpt><trkpt lat="43.5262579" lon="11.1713421"><ele>280.0</ele><time>2026-04-11T14:39:37.48Z</time></trkpt><trkpt lat="43.5261573" lon="11.1714124"><ele>280.0</ele><time>2026-04-11T14:39:38.485Z</time></trkpt><trkpt lat="43.5260654" lon="11.1714805"><ele>280.0</ele><time>2026-04-11T14:39:39.49Z</time></trkpt><trkpt lat="43.5259726" lon="11.1715657"><ele>278.8</ele><time>2026-04-11T14:39:40.539Z</time></trkpt><trkpt lat="43.5258844" lon="11.1716577"><ele>277.6</ele><time>2026-04-11T14:39:41.53Z</time></trkpt><trkpt lat="43.5258022" lon="11.1717596"><ele>276.4</ele><time>2026-04-11T14:39:42.458Z</time></trkpt><trkpt lat="43.5257253" lon="11.1718624"><ele>275.2</ele><time>2026-04-11T14:39:43.466Z</time></trkpt><trkpt lat="43.5256485" lon="11.1719614"><ele>274.0</ele><time>2026-04-11T14:39:44.461Z</time></trkpt><trkpt lat="43.5255642" lon="11.1720481"><ele>274.0</ele><time>2026-04-11T14:39:45.535Z</time></trkpt><trkpt lat="43.5254787" lon="11.172137"><ele>274.0</ele><time>2026-04-11T14:39:46.461Z</time></trkpt><trkpt lat="43.5253893" lon="11.1722156"><ele>274.0</ele><time>2026-04-11T14:39:47.458Z</time></trkpt><trkpt lat="43.5252984" lon="11.172272"><ele>274.0</ele><time>2026-04-11T14:39:48.478Z</time></trkpt><trkpt lat="43.5252084" lon="11.172311"><ele>274.0</ele><time>2026-04-11T14:39:49.465Z</time></trkpt><trkpt lat="43.5251093" lon="11.1723332"><ele>273.2</ele><time>2026-04-11T14:39:50.469Z</time></trkpt><trkpt lat="43.5250085" lon="11.172345"><ele>272.4</ele><time>2026-04-11T14:39:51.462Z</time></trkpt><trkpt lat="43.5249102" lon="11.1723538"><ele>271.6</ele><time>2026-04-11T14:39:52.486Z</time></trkpt><trkpt lat="43.5248153" lon="11.1723607"><ele>270.8</ele><time>2026-04-11T14:39:53.473Z</time></trkpt><trkpt lat="43.5247193" lon="11.1723674"><ele>270.0</ele><time>2026-04-11T14:39:54.484Z</time></trkpt><trkpt lat="43.5246277" lon="11.172374"><ele>269.6666666666667</ele><time>2026-04-11T14:39:55.466Z</time></trkpt><trkpt lat="43.5245363" lon="11.1723859"><ele>269.3333333333333</ele><time>2026-04-11T14:39:56.462Z</time></trkpt><trkpt lat="43.5244455" lon="11.1723963"><ele>269.0</ele><time>2026-04-11T14:39:57.478Z</time></trkpt><trkpt lat="43.5243573" lon="11.1724054"><ele>268.66666666666663</ele><time>2026-04-11T14:39:58.47Z</time></trkpt><trkpt lat="43.5242673" lon="11.1724077"><ele>268.3333333333333</ele><time>2026-04-11T14:39:59.474Z</time></trkpt><trkpt lat="43.5241796" lon="11.1724071"><ele>268.0</ele><time>2026-04-11T14:40:00.459Z</time></trkpt><trkpt lat="43.5240933" lon="11.1724019"><ele>268.0</ele><time>2026-04-11T14:40:01.469Z</time></trkpt><trkpt lat="43.5240081" lon="11.1723904"><ele>268.0</ele><time>2026-04-11T14:40:02.478Z</time></trkpt><trkpt lat="43.5239252" lon="11.1723656"><ele>268.0</ele><time>2026-04-11T14:40:03.474Z</time></trkpt><trkpt lat="43.5238439" lon="11.172337"><ele>268.0</ele><time>2026-04-11T14:40:04.463Z</time></trkpt><trkpt lat="43.5237607" lon="11.1723084"><ele>268.0</ele><time>2026-04-11T14:40:05.471Z</time></trkpt><trkpt lat="43.5236791" lon="11.1722768"><ele>268.0</ele><time>2026-04-11T14:40:06.47Z</time></trkpt><trkpt lat="43.5235995" lon="11.1722385"><ele>267.16666666666663</ele><time>2026-04-11T14:40:07.49Z</time></trkpt><trkpt lat="43.5235239" lon="11.1721883"><ele>266.3333333333333</ele><time>2026-04-11T14:40:08.471Z</time></trkpt><trkpt lat="43.5234538" lon="11.1721188"><ele>265.5</ele><time>2026-04-11T14:40:09.473Z</time></trkpt><trkpt lat="43.5233929" lon="11.1720312"><ele>264.6666666666667</ele><time>2026-04-11T14:40:10.48Z</time></trkpt><trkpt lat="43.5233451" lon="11.1719329"><ele>263.83333333333337</ele><time>2026-04-11T14:40:11.482Z</time></trkpt><trkpt lat="43.5233033" lon="11.1718308"><ele>263.0</ele><time>2026-04-11T14:40:12.456Z</time></trkpt><trkpt lat="43.5232601" lon="11.1717304"><ele>263.0</ele><time>2026-04-11T14:40:13.474Z</time></trkpt><trkpt lat="43.5232175" lon="11.1716275"><ele>263.0</ele><time>2026-04-11T14:40:14.55Z</time></trkpt><trkpt lat="43.5231739" lon="11.1715278"><ele>263.0</ele><time>2026-04-11T14:40:15.534Z</time></trkpt><trkpt lat="43.523126" lon="11.1714304"><ele>263.0</ele><time>2026-04-11T14:40:16.467Z</time></trkpt><trkpt lat="43.5230677" lon="11.1713323"><ele>263.0</ele><time>2026-04-11T14:40:17.538Z</time></trkpt><trkpt lat="43.5230073" lon="11.1712515"><ele>263.0</ele><time>2026-04-11T14:40:18.467Z</time></trkpt><trkpt lat="43.5229374" lon="11.1711717"><ele>261.2</ele><time>2026-04-11T14:40:19.485Z</time></trkpt><trkpt lat="43.5228553" lon="11.1711069"><ele>259.4</ele><time>2026-04-11T14:40:20.479Z</time></trkpt><trkpt lat="43.5227611" lon="11.1710761"><ele>257.59999999999997</ele><time>2026-04-11T14:40:21.468Z</time></trkpt><trkpt lat="43.5226606" lon="11.1710573"><ele>255.79999999999998</ele><time>2026-04-11T14:40:22.537Z</time></trkpt><trkpt lat="43.5225642" lon="11.1710609"><ele>254.0</ele><time>2026-04-11T14:40:23.457Z</time></trkpt><trkpt lat="43.522464" lon="11.1710832"><ele>254.0</ele><time>2026-04-11T14:40:24.449Z</time></trkpt><trkpt lat="43.5223594" lon="11.1711169"><ele>253.99999999999997</ele><time>2026-04-11T14:40:25.513Z</time></trkpt><trkpt lat="43.5222582" lon="11.1711423"><ele>253.99999999999997</ele><time>2026-04-11T14:40:26.548Z</time></trkpt><trkpt lat="43.522161" lon="11.1711445"><ele>254.0</ele><time>2026-04-11T14:40:27.455Z</time></trkpt><trkpt lat="43.5220634" lon="11.1710868"><ele>254.0</ele><time>2026-04-11T14:40:28.475Z</time></trkpt><trkpt lat="43.5219717" lon="11.1710068"><ele>255.25</ele><time>2026-04-11T14:40:29.471Z</time></trkpt><trkpt lat="43.5218756" lon="11.1709206"><ele>256.5</ele><time>2026-04-11T14:40:30.541Z</time></trkpt><trkpt lat="43.5217782" lon="11.1708359"><ele>257.75</ele><time>2026-04-11T14:40:31.532Z</time></trkpt><trkpt lat="43.5216785" lon="11.1707517"><ele>259.0</ele><time>2026-04-11T14:40:32.455Z</time></trkpt><trkpt lat="43.521585" lon="11.1706603"><ele>256.25</ele><time>2026-04-11T14:40:33.467Z</time></trkpt><trkpt lat="43.5214962" lon="11.1705521"><ele>253.5</ele><time>2026-04-11T14:40:34.471Z</time></trkpt><trkpt lat="43.5214342" lon="11.1704263"><ele>250.75</ele><time>2026-04-11T14:40:35.527Z</time></trkpt><trkpt lat="43.5213857" lon="11.1702912"><ele>248.0</ele><time>2026-04-11T14:40:36.535Z</time></trkpt><trkpt lat="43.5213465" lon="11.1701427"><ele>248.0</ele><time>2026-04-11T14:40:37.452Z</time></trkpt><trkpt lat="43.5213356" lon="11.1699782"><ele>248.0</ele><time>2026-04-11T14:40:38.483Z</time></trkpt><trkpt lat="43.5213456" lon="11.1698114"><ele>248.0</ele><time>2026-04-11T14:40:39.473Z</time></trkpt><trkpt lat="43.5213281" lon="11.169657"><ele>248.0</ele><time>2026-04-11T14:40:40.469Z</time></trkpt><trkpt lat="43.5212838" lon="11.1695132"><ele>248.8</ele><time>2026-04-11T14:40:41.473Z</time></trkpt><trkpt lat="43.5212101" lon="11.1693888"><ele>249.60000000000002</ele><time>2026-04-11T14:40:42.538Z</time></trkpt><trkpt lat="43.5211293" lon="11.1692915"><ele>250.39999999999998</ele><time>2026-04-11T14:40:43.474Z</time></trkpt><trkpt lat="43.5210516" lon="11.1692042"><ele>251.2</ele><time>2026-04-11T14:40:44.474Z</time></trkpt><trkpt lat="43.5209635" lon="11.1690981"><ele>252.0</ele><time>2026-04-11T14:40:45.471Z</time></trkpt><trkpt lat="43.5208776" lon="11.1689949"><ele>249.25</ele><time>2026-04-11T14:40:46.469Z</time></trkpt><trkpt lat="43.5207945" lon="11.1688938"><ele>246.5</ele><time>2026-04-11T14:40:47.479Z</time></trkpt><trkpt lat="43.5207081" lon="11.1687901"><ele>243.75</ele><time>2026-04-11T14:40:48.465Z</time></trkpt><trkpt lat="43.520623" lon="11.1686842"><ele>241.0</ele><time>2026-04-11T14:40:49.473Z</time></trkpt><trkpt lat="43.5205409" lon="11.1685739"><ele>241.0</ele><time>2026-04-11T14:40:50.461Z</time></trkpt><trkpt lat="43.5204613" lon="11.1684565"><ele>241.00000000000003</ele><time>2026-04-11T14:40:51.538Z</time></trkpt><trkpt lat="43.5203949" lon="11.1683474"><ele>241.00000000000003</ele><time>2026-04-11T14:40:52.47Z</time></trkpt><trkpt lat="43.5203285" lon="11.1682379"><ele>241.0</ele><time>2026-04-11T14:40:53.476Z</time></trkpt><trkpt lat="43.5202607" lon="11.1681285"><ele>241.0</ele><time>2026-04-11T14:40:54.477Z</time></trkpt><trkpt lat="43.5202023" lon="11.1679962"><ele>240.25</ele><time>2026-04-11T14:40:55.472Z</time></trkpt><trkpt lat="43.5201542" lon="11.1678529"><ele>239.5</ele><time>2026-04-11T14:40:56.465Z</time></trkpt><trkpt lat="43.5201088" lon="11.1677004"><ele>238.75</ele><time>2026-04-11T14:40:57.467Z</time></trkpt><trkpt lat="43.5200626" lon="11.1675432"><ele>238.0</ele><time>2026-04-11T14:40:58.477Z</time></trkpt><trkpt lat="43.5200133" lon="11.1673887"><ele>236.60000000000002</ele><time>2026-04-11T14:40:59.537Z</time></trkpt><trkpt lat="43.5199604" lon="11.1672416"><ele>235.20000000000002</ele><time>2026-04-11T14:41:00.536Z</time></trkpt><trkpt lat="43.5199133" lon="11.1671142"><ele>233.8</ele><time>2026-04-11T14:41:01.478Z</time></trkpt><trkpt lat="43.519856" lon="11.1669871"><ele>232.4</ele><time>2026-04-11T14:41:02.544Z</time></trkpt><trkpt lat="43.5197922" lon="11.1668809"><ele>231.0</ele><time>2026-04-11T14:41:03.467Z</time></trkpt><trkpt lat="43.5197092" lon="11.1667532"><ele>231.0</ele><time>2026-04-11T14:41:04.474Z</time></trkpt><trkpt lat="43.5196029" lon="11.1666553"><ele>231.0</ele><time>2026-04-11T14:41:05.527Z</time></trkpt><trkpt lat="43.5194998" lon="11.1665788"><ele>231.0</ele><time>2026-04-11T14:41:06.534Z</time></trkpt><trkpt lat="43.5193764" lon="11.1665132"><ele>231.0</ele><time>2026-04-11T14:41:07.466Z</time></trkpt><trkpt lat="43.5192429" lon="11.1664684"><ele>230.25</ele><time>2026-04-11T14:41:08.46Z</time></trkpt><trkpt lat="43.5190984" lon="11.1664359"><ele>229.5</ele><time>2026-04-11T14:41:09.479Z</time></trkpt><trkpt lat="43.5189671" lon="11.1664156"><ele>228.75</ele><time>2026-04-11T14:41:10.514Z</time></trkpt><trkpt lat="43.5188464" lon="11.1663958"><ele>228.0</ele><time>2026-04-11T14:41:11.474Z</time></trkpt><trkpt lat="43.5187281" lon="11.1663455"><ele>228.0</ele><time>2026-04-11T14:41:12.535Z</time></trkpt><trkpt lat="43.5186208" lon="11.1662635"><ele>228.0</ele><time>2026-04-11T14:41:13.458Z</time></trkpt><trkpt lat="43.5185291" lon="11.1661587"><ele>228.0</ele><time>2026-04-11T14:41:14.479Z</time></trkpt><trkpt lat="43.5184396" lon="11.1660427"><ele>228.0</ele><time>2026-04-11T14:41:15.533Z</time></trkpt><trkpt lat="43.5183577" lon="11.1659373"><ele>228.0</ele><time>2026-04-11T14:41:16.467Z</time></trkpt><trkpt lat="43.5182683" lon="11.1658353"><ele>228.0</ele><time>2026-04-11T14:41:17.527Z</time></trkpt><trkpt lat="43.5181843" lon="11.1657427"><ele>228.0</ele><time>2026-04-11T14:41:18.478Z</time></trkpt><trkpt lat="43.5181003" lon="11.1656514"><ele>228.0</ele><time>2026-04-11T14:41:19.484Z</time></trkpt><trkpt lat="43.5180194" lon="11.1655679"><ele>228.0</ele><time>2026-04-11T14:41:20.487Z</time></trkpt><trkpt lat="43.5179388" lon="11.1654889"><ele>226.66666666666666</ele><time>2026-04-11T14:41:21.54Z</time></trkpt><trkpt lat="43.5178622" lon="11.1654173"><ele>225.33333333333331</ele><time>2026-04-11T14:41:22.459Z</time></trkpt><trkpt lat="43.5177879" lon="11.165346"><ele>224.0</ele><time>2026-04-11T14:41:23.467Z</time></trkpt><trkpt lat="43.5177146" lon="11.1652881"><ele>222.66666666666666</ele><time>2026-04-11T14:41:24.486Z</time></trkpt><trkpt lat="43.5176371" lon="11.165245"><ele>221.33333333333331</ele><time>2026-04-11T14:41:25.476Z</time></trkpt><trkpt lat="43.5175568" lon="11.1652385"><ele>220.0</ele><time>2026-04-11T14:41:26.478Z</time></trkpt><trkpt lat="43.5174695" lon="11.165249"><ele>219.99999999999997</ele><time>2026-04-11T14:41:27.479Z</time></trkpt><trkpt lat="43.5173828" lon="11.1652636"><ele>220.0</ele><time>2026-04-11T14:41:28.478Z</time></trkpt><trkpt lat="43.5172933" lon="11.1652776"><ele>220.0</ele><time>2026-04-11T14:41:29.47Z</time></trkpt><trkpt lat="43.5172016" lon="11.1652925"><ele>220.0</ele><time>2026-04-11T14:41:30.542Z</time></trkpt><trkpt lat="43.5171223" lon="11.1653132"><ele>219.99999999999997</ele><time>2026-04-11T14:41:31.454Z</time></trkpt><trkpt lat="43.5170424" lon="11.1653391"><ele>220.0</ele><time>2026-04-11T14:41:32.479Z</time></trkpt><trkpt lat="43.5169466" lon="11.1653472"><ele>219.4</ele><time>2026-04-11T14:41:33.473Z</time></trkpt><trkpt lat="43.5168381" lon="11.1653486"><ele>218.8</ele><time>2026-04-11T14:41:34.467Z</time></trkpt><trkpt lat="43.5167275" lon="11.1653691"><ele>218.2</ele><time>2026-04-11T14:41:35.469Z</time></trkpt><trkpt lat="43.5166234" lon="11.1653986"><ele>217.6</ele><time>2026-04-11T14:41:36.46Z</time></trkpt><trkpt lat="43.5165151" lon="11.1654221"><ele>217.0</ele><time>2026-04-11T14:41:37.524Z</time></trkpt><trkpt lat="43.5164265" lon="11.1654364"><ele>217.0</ele><time>2026-04-11T14:41:38.458Z</time></trkpt><trkpt lat="43.5163374" lon="11.1654397"><ele>217.0</ele><time>2026-04-11T14:41:39.481Z</time></trkpt><trkpt lat="43.5162314" lon="11.1654336"><ele>217.0</ele><time>2026-04-11T14:41:40.45Z</time></trkpt><trkpt lat="43.5161082" lon="11.1654077"><ele>217.0</ele><time>2026-04-11T14:41:41.476Z</time></trkpt><trkpt lat="43.5159904" lon="11.1653566"><ele>217.0</ele><time>2026-04-11T14:41:42.473Z</time></trkpt><trkpt lat="43.5158738" lon="11.165297"><ele>215.75</ele><time>2026-04-11T14:41:43.457Z</time></trkpt><trkpt lat="43.5157622" lon="11.1652331"><ele>214.5</ele><time>2026-04-11T14:41:44.464Z</time></trkpt><trkpt lat="43.5156491" lon="11.1651668"><ele>213.25</ele><time>2026-04-11T14:41:45.541Z</time></trkpt><trkpt lat="43.5155432" lon="11.1651049"><ele>212.0</ele><time>2026-04-11T14:41:46.538Z</time></trkpt><trkpt lat="43.5154391" lon="11.1650331"><ele>211.25</ele><time>2026-04-11T14:41:47.466Z</time></trkpt><trkpt lat="43.515329" lon="11.1649509"><ele>210.5</ele><time>2026-04-11T14:41:48.469Z</time></trkpt><trkpt lat="43.5152137" lon="11.1648868"><ele>209.75</ele><time>2026-04-11T14:41:49.463Z</time></trkpt><trkpt lat="43.515094" lon="11.1648349"><ele>209.0</ele><time>2026-04-11T14:41:50.537Z</time></trkpt><trkpt lat="43.5149825" lon="11.1647686"><ele>207.25</ele><time>2026-04-11T14:41:51.54Z</time></trkpt><trkpt lat="43.514875" lon="11.1646821"><ele>205.5</ele><time>2026-04-11T14:41:52.472Z</time></trkpt><trkpt lat="43.5147556" lon="11.1646067"><ele>203.75</ele><time>2026-04-11T14:41:53.476Z</time></trkpt><trkpt lat="43.5146403" lon="11.1645506"><ele>202.0</ele><time>2026-04-11T14:41:54.467Z</time></trkpt><trkpt lat="43.5145251" lon="11.1645006"><ele>202.0</ele><time>2026-04-11T14:41:55.524Z</time></trkpt><trkpt lat="43.5144118" lon="11.1644467"><ele>202.0</ele><time>2026-04-11T14:41:56.537Z</time></trkpt><trkpt lat="43.5140969" lon="11.1642634"><ele>202.0</ele><time>2026-04-11T14:41:59.466Z</time></trkpt><trkpt lat="43.5139983" lon="11.1642132"><ele>202.0</ele><time>2026-04-11T14:42:00.469Z</time></trkpt><trkpt lat="43.5138937" lon="11.1641632"><ele>202.0</ele><time>2026-04-11T14:42:01.529Z</time></trkpt><trkpt lat="43.5137885" lon="11.1641008"><ele>202.0</ele><time>2026-04-11T14:42:02.455Z</time></trkpt><trkpt lat="43.5136817" lon="11.1640518"><ele>202.0</ele><time>2026-04-11T14:42:03.468Z</time></trkpt><trkpt lat="43.5135772" lon="11.1640014"><ele>200.8</ele><time>2026-04-11T14:42:04.475Z</time></trkpt><trkpt lat="43.5134773" lon="11.1639442"><ele>199.6</ele><time>2026-04-11T14:42:05.527Z</time></trkpt><trkpt lat="43.5133897" lon="11.1638801"><ele>198.4</ele><time>2026-04-11T14:42:06.458Z</time></trkpt><trkpt lat="43.5133027" lon="11.1638116"><ele>197.20000000000002</ele><time>2026-04-11T14:42:07.452Z</time></trkpt><trkpt lat="43.5132136" lon="11.1637424"><ele>196.0</ele><time>2026-04-11T14:42:08.454Z</time></trkpt><trkpt lat="43.5131267" lon="11.1636738"><ele>196.0</ele><time>2026-04-11T14:42:09.473Z</time></trkpt><trkpt lat="43.5130428" lon="11.1636049"><ele>196.0</ele><time>2026-04-11T14:42:10.472Z</time></trkpt><trkpt lat="43.5129573" lon="11.1635347"><ele>196.0</ele><time>2026-04-11T14:42:11.489Z</time></trkpt><trkpt lat="43.5128747" lon="11.1634633"><ele>196.0</ele><time>2026-04-11T14:42:12.48Z</time></trkpt><trkpt lat="43.5127947" lon="11.1633953"><ele>196.0</ele><time>2026-04-11T14:42:13.491Z</time></trkpt><trkpt lat="43.5127154" lon="11.1633291"><ele>196.49999999999997</ele><time>2026-04-11T14:42:14.513Z</time></trkpt><trkpt lat="43.5126397" lon="11.1632635"><ele>197.0</ele><time>2026-04-11T14:42:15.525Z</time></trkpt><trkpt lat="43.5125647" lon="11.1631967"><ele>197.5</ele><time>2026-04-11T14:42:16.539Z</time></trkpt><trkpt lat="43.5125045" lon="11.1631381"><ele>198.0</ele><time>2026-04-11T14:42:17.461Z</time></trkpt><trkpt lat="43.5124526" lon="11.163077"><ele>198.49999999999997</ele><time>2026-04-11T14:42:18.485Z</time></trkpt><trkpt lat="43.5123936" lon="11.1630143"><ele>199.0</ele><time>2026-04-11T14:42:19.489Z</time></trkpt><trkpt lat="43.5123168" lon="11.1629576"><ele>198.99999999999997</ele><time>2026-04-11T14:42:20.487Z</time></trkpt><trkpt lat="43.5122333" lon="11.1628924"><ele>199.0</ele><time>2026-04-11T14:42:21.533Z</time></trkpt><trkpt lat="43.5121603" lon="11.1628236"><ele>199.0</ele><time>2026-04-11T14:42:22.465Z</time></trkpt><trkpt lat="43.5120898" lon="11.1627575"><ele>199.0</ele><time>2026-04-11T14:42:23.465Z</time></trkpt><trkpt lat="43.5120234" lon="11.1626939"><ele>198.99999999999997</ele><time>2026-04-11T14:42:24.455Z</time></trkpt><trkpt lat="43.5119581" lon="11.1626314"><ele>199.0</ele><time>2026-04-11T14:42:25.464Z</time></trkpt><trkpt lat="43.5118959" lon="11.1625684"><ele>199.14285714285714</ele><time>2026-04-11T14:42:26.476Z</time></trkpt><trkpt lat="43.5118359" lon="11.1625054"><ele>199.28571428571428</ele><time>2026-04-11T14:42:27.475Z</time></trkpt><trkpt lat="43.5117763" lon="11.1624415"><ele>199.42857142857144</ele><time>2026-04-11T14:42:28.469Z</time></trkpt><trkpt lat="43.5117174" lon="11.1623823"><ele>199.57142857142856</ele><time>2026-04-11T14:42:29.456Z</time></trkpt><trkpt lat="43.5116555" lon="11.1623258"><ele>199.71428571428572</ele><time>2026-04-11T14:42:30.533Z</time></trkpt><trkpt lat="43.5115957" lon="11.1622709"><ele>199.85714285714286</ele><time>2026-04-11T14:42:31.535Z</time></trkpt><trkpt lat="43.5115403" lon="11.1622145"><ele>200.0</ele><time>2026-04-11T14:42:32.461Z</time></trkpt><trkpt lat="43.5114836" lon="11.1621605"><ele>200.00000000000003</ele><time>2026-04-11T14:42:33.454Z</time></trkpt><trkpt lat="43.5114274" lon="11.1621068"><ele>200.0</ele><time>2026-04-11T14:42:34.468Z</time></trkpt><trkpt lat="43.5113678" lon="11.1620569"><ele>200.0</ele><time>2026-04-11T14:42:35.535Z</time></trkpt><trkpt lat="43.511314" lon="11.1620091"><ele>200.0</ele><time>2026-04-11T14:42:36.539Z</time></trkpt><trkpt lat="43.5112224" lon="11.1619"><ele>200.00000000000003</ele><time>2026-04-11T14:42:38.475Z</time></trkpt><trkpt lat="43.5111196" lon="11.1618127"><ele>200.0</ele><time>2026-04-11T14:42:40.537Z</time></trkpt><trkpt lat="43.5110141" lon="11.1617402"><ele>199.6</ele><time>2026-04-11T14:42:42.447Z</time></trkpt><trkpt lat="43.5109167" lon="11.161677"><ele>199.2</ele><time>2026-04-11T14:42:44.48Z</time></trkpt><trkpt lat="43.5108168" lon="11.1616069"><ele>198.8</ele><time>2026-04-11T14:42:46.537Z</time></trkpt><trkpt lat="43.5107323" lon="11.161553"><ele>198.4</ele><time>2026-04-11T14:42:48.474Z</time></trkpt><trkpt lat="43.5106615" lon="11.1615254"><ele>198.0</ele><time>2026-04-11T14:42:50.534Z</time></trkpt><trkpt lat="43.5106141" lon="11.1614601"><ele>198.0</ele><time>2026-04-11T14:42:52.467Z</time></trkpt><trkpt lat="43.510558" lon="11.1614096"><ele>198.0</ele><time>2026-04-11T14:42:54.469Z</time></trkpt><trkpt lat="43.5104951" lon="11.1613819"><ele>198.0</ele><time>2026-04-11T14:42:56.478Z</time></trkpt><trkpt lat="43.5104075" lon="11.1613427"><ele>198.0</ele><time>2026-04-11T14:42:59.484Z</time></trkpt><trkpt lat="43.5103215" lon="11.1613086"><ele>198.0</ele><time>2026-04-11T14:43:02.479Z</time></trkpt><trkpt lat="43.5102455" lon="11.161273"><ele>198.0</ele><time>2026-04-11T14:43:05.467Z</time></trkpt><trkpt lat="43.5101688" lon="11.1612375"><ele>199.16666666666666</ele><time>2026-04-11T14:43:08.463Z</time></trkpt><trkpt lat="43.5100978" lon="11.1611973"><ele>200.33333333333331</ele><time>2026-04-11T14:43:11.474Z</time></trkpt><trkpt lat="43.5100277" lon="11.1611529"><ele>201.5</ele><time>2026-04-11T14:43:14.478Z</time></trkpt><trkpt lat="43.5099595" lon="11.1611087"><ele>202.66666666666666</ele><time>2026-04-11T14:43:17.465Z</time></trkpt><trkpt lat="43.509887" lon="11.1610704"><ele>203.83333333333331</ele><time>2026-04-11T14:43:20.475Z</time></trkpt><trkpt lat="43.5098096" lon="11.1610317"><ele>205.0</ele><time>2026-04-11T14:43:23.472Z</time></trkpt><trkpt lat="43.5097362" lon="11.160991"><ele>205.0</ele><time>2026-04-11T14:43:26.539Z</time></trkpt><trkpt lat="43.509668" lon="11.1609507"><ele>205.0</ele><time>2026-04-11T14:43:29.481Z</time></trkpt><trkpt lat="43.5096053" lon="11.1609384"><ele>205.0</ele><time>2026-04-11T14:43:32.452Z</time></trkpt><trkpt lat="43.5095345" lon="11.1609028"><ele>205.0</ele><time>2026-04-11T14:43:35.531Z</time></trkpt><trkpt lat="43.5094859" lon="11.1608404"><ele>205.0</ele><time>2026-04-11T14:43:38.472Z</time></trkpt><trkpt lat="43.5094042" lon="11.1607992"><ele>205.0</ele><time>2026-04-11T14:43:41.477Z</time></trkpt><trkpt lat="43.5093263" lon="11.1607784"><ele>205.0</ele><time>2026-04-11T14:43:44.475Z</time></trkpt><trkpt lat="43.5092709" lon="11.1607259"><ele>204.66666666666666</ele><time>2026-04-11T14:43:47.478Z</time></trkpt><trkpt lat="43.5092018" lon="11.1606988"><ele>204.33333333333331</ele><time>2026-04-11T14:43:50.47Z</time></trkpt><trkpt lat="43.5091297" lon="11.160669"><ele>204.0</ele><time>2026-04-11T14:43:53.472Z</time></trkpt><trkpt lat="43.5090548" lon="11.1606484"><ele>203.66666666666669</ele><time>2026-04-11T14:43:56.492Z</time></trkpt><trkpt lat="43.5089822" lon="11.1606171"><ele>203.33333333333334</ele><time>2026-04-11T14:43:59.467Z</time></trkpt><trkpt lat="43.5089135" lon="11.1605789"><ele>203.0</ele><time>2026-04-11T14:44:02.459Z</time></trkpt><trkpt lat="43.5088436" lon="11.1605295"><ele>203.00000000000003</ele><time>2026-04-11T14:44:05.538Z</time></trkpt><trkpt lat="43.5087791" lon="11.1604531"><ele>203.0</ele><time>2026-04-11T14:44:08.46Z</time></trkpt><trkpt lat="43.5086933" lon="11.16042"><ele>203.0</ele><time>2026-04-11T14:44:11.528Z</time></trkpt><trkpt lat="43.5086233" lon="11.1603981"><ele>203.0</ele><time>2026-04-11T14:44:13.47Z</time></trkpt><trkpt lat="43.5085513" lon="11.1603516"><ele>203.00000000000003</ele><time>2026-04-11T14:44:16.544Z</time></trkpt><trkpt lat="43.5084768" lon="11.1602963"><ele>203.0</ele><time>2026-04-11T14:44:19.47Z</time></trkpt><trkpt lat="43.5084038" lon="11.1602477"><ele>204.50000000000003</ele><time>2026-04-11T14:44:22.45Z</time></trkpt><trkpt lat="43.5083288" lon="11.1601982"><ele>206.0</ele><time>2026-04-11T14:44:25.472Z</time></trkpt><trkpt lat="43.5082526" lon="11.1601404"><ele>207.5</ele><time>2026-04-11T14:44:28.474Z</time></trkpt><trkpt lat="43.508183" lon="11.1600804"><ele>209.0</ele><time>2026-04-11T14:44:31.535Z</time></trkpt><trkpt lat="43.5081097" lon="11.1600202"><ele>210.50000000000003</ele><time>2026-04-11T14:44:34.462Z</time></trkpt><trkpt lat="43.5080314" lon="11.159958"><ele>212.0</ele><time>2026-04-11T14:44:37.479Z</time></trkpt><trkpt lat="43.5079534" lon="11.1599001"><ele>212.16666666666669</ele><time>2026-04-11T14:44:40.471Z</time></trkpt><trkpt lat="43.5078823" lon="11.1598447"><ele>212.33333333333334</ele><time>2026-04-11T14:44:43.484Z</time></trkpt><trkpt lat="43.5078121" lon="11.1597869"><ele>212.5</ele><time>2026-04-11T14:44:46.472Z</time></trkpt><trkpt lat="43.5077368" lon="11.1597354"><ele>212.66666666666669</ele><time>2026-04-11T14:44:49.468Z</time></trkpt><trkpt lat="43.5076606" lon="11.1596794"><ele>212.83333333333334</ele><time>2026-04-11T14:44:52.47Z</time></trkpt><trkpt lat="43.507597" lon="11.1596235"><ele>213.0</ele><time>2026-04-11T14:44:55.53Z</time></trkpt><trkpt lat="43.5075324" lon="11.1595498"><ele>213.0</ele><time>2026-04-11T14:44:58.472Z</time></trkpt><trkpt lat="43.5074652" lon="11.1594994"><ele>213.0</ele><time>2026-04-11T14:45:01.542Z</time></trkpt><trkpt lat="43.5073944" lon="11.1594702"><ele>213.0</ele><time>2026-04-11T14:45:04.466Z</time></trkpt><trkpt lat="43.507328" lon="11.1594395"><ele>213.0</ele><time>2026-04-11T14:45:08.449Z</time></trkpt><trkpt lat="43.5072507" lon="11.1594015"><ele>213.0</ele><time>2026-04-11T14:45:11.475Z</time></trkpt><trkpt lat="43.5071789" lon="11.1593652"><ele>213.0</ele><time>2026-04-11T14:45:15.474Z</time></trkpt><trkpt lat="43.5071102" lon="11.1593267"><ele>214.33333333333334</ele><time>2026-04-11T14:45:19.47Z</time></trkpt><trkpt lat="43.5070397" lon="11.1592995"><ele>215.66666666666669</ele><time>2026-04-11T14:45:23.466Z</time></trkpt><trkpt lat="43.5069704" lon="11.1592599"><ele>217.0</ele><time>2026-04-11T14:45:27.548Z</time></trkpt><trkpt lat="43.5068955" lon="11.1592528"><ele>218.33333333333334</ele><time>2026-04-11T14:45:31.475Z</time></trkpt><trkpt lat="43.506825" lon="11.1592294"><ele>219.66666666666669</ele><time>2026-04-11T14:45:35.535Z</time></trkpt><trkpt lat="43.5067366" lon="11.1592535"><ele>221.0</ele><time>2026-04-11T14:45:39.474Z</time></trkpt><trkpt lat="43.5066687" lon="11.1592543"><ele>221.00000000000003</ele><time>2026-04-11T14:45:42.541Z</time></trkpt><trkpt lat="43.5066047" lon="11.159231"><ele>221.0</ele><time>2026-04-11T14:45:46.526Z</time></trkpt><trkpt lat="43.5065362" lon="11.1592537"><ele>221.0</ele><time>2026-04-11T14:45:49.473Z</time></trkpt><trkpt lat="43.5064679" lon="11.1592231"><ele>221.0</ele><time>2026-04-11T14:45:55.485Z</time></trkpt><trkpt lat="43.5064047" lon="11.1592002"><ele>221.0</ele><time>2026-04-11T14:45:59.472Z</time></trkpt><trkpt lat="43.5063404" lon="11.1591799"><ele>221.00000000000003</ele><time>2026-04-11T14:46:03.469Z</time></trkpt><trkpt lat="43.5062718" lon="11.1591659"><ele>221.0</ele><time>2026-04-11T14:46:06.475Z</time></trkpt><trkpt lat="43.5061899" lon="11.1591581"><ele>222.0</ele><time>2026-04-11T14:46:09.471Z</time></trkpt><trkpt lat="43.5061273" lon="11.1591482"><ele>223.0</ele><time>2026-04-11T14:46:12.525Z</time></trkpt><trkpt lat="43.5060511" lon="11.1590806"><ele>224.0</ele><time>2026-04-11T14:46:15.534Z</time></trkpt><trkpt lat="43.5059809" lon="11.1590975"><ele>225.0</ele><time>2026-04-11T14:46:17.476Z</time></trkpt><trkpt lat="43.5059118" lon="11.159082"><ele>225.99999999999997</ele><time>2026-04-11T14:46:22.461Z</time></trkpt><trkpt lat="43.5058439" lon="11.1590717"><ele>227.0</ele><time>2026-04-11T14:46:25.457Z</time></trkpt><trkpt lat="43.5057748" lon="11.1590555"><ele>228.0</ele><time>2026-04-11T14:46:28.448Z</time></trkpt><trkpt lat="43.5056975" lon="11.1590282"><ele>227.33333333333334</ele><time>2026-04-11T14:46:31.462Z</time></trkpt><trkpt lat="43.505639" lon="11.1589893"><ele>226.66666666666669</ele><time>2026-04-11T14:46:33.46Z</time></trkpt><trkpt lat="43.5055759" lon="11.1589579"><ele>226.0</ele><time>2026-04-11T14:46:35.464Z</time></trkpt><trkpt lat="43.505505" lon="11.1589259"><ele>225.33333333333334</ele><time>2026-04-11T14:46:37.453Z</time></trkpt><trkpt lat="43.5054366" lon="11.158893"><ele>224.66666666666669</ele><time>2026-04-11T14:46:39.452Z</time></trkpt><trkpt lat="43.5053648" lon="11.1588537"><ele>224.0</ele><time>2026-04-11T14:46:41.47Z</time></trkpt><trkpt lat="43.5052727" lon="11.1587621"><ele>224.00000000000003</ele><time>2026-04-11T14:46:43.453Z</time></trkpt><trkpt lat="43.5051868" lon="11.158673"><ele>224.0</ele><time>2026-04-11T14:46:45.446Z</time></trkpt><trkpt lat="43.5051075" lon="11.1585799"><ele>224.0</ele><time>2026-04-11T14:46:47.448Z</time></trkpt><trkpt lat="43.5050275" lon="11.1584747"><ele>224.0</ele><time>2026-04-11T14:46:49.458Z</time></trkpt><trkpt lat="43.504981" lon="11.1584151"><ele>224.00000000000003</ele><time>2026-04-11T14:46:50.458Z</time></trkpt><trkpt lat="43.5049344" lon="11.1583564"><ele>224.0</ele><time>2026-04-11T14:46:51.455Z</time></trkpt><trkpt lat="43.5048489" lon="11.1582216"><ele>223.71428571428572</ele><time>2026-04-11T14:46:53.456Z</time></trkpt><trkpt lat="43.5048029" lon="11.1581524"><ele>223.42857142857144</ele><time>2026-04-11T14:46:54.45Z</time></trkpt><trkpt lat="43.504751" lon="11.1580831"><ele>223.14285714285714</ele><time>2026-04-11T14:46:55.459Z</time></trkpt><trkpt lat="43.5046968" lon="11.1580138"><ele>222.85714285714286</ele><time>2026-04-11T14:46:56.444Z</time></trkpt><trkpt lat="43.5046447" lon="11.1579497"><ele>222.57142857142858</ele><time>2026-04-11T14:46:57.443Z</time></trkpt><trkpt lat="43.504596" lon="11.157889"><ele>222.28571428571428</ele><time>2026-04-11T14:46:58.458Z</time></trkpt><trkpt lat="43.5045504" lon="11.1578269"><ele>222.0</ele><time>2026-04-11T14:46:59.452Z</time></trkpt><trkpt lat="43.5045055" lon="11.1577617"><ele>222.0</ele><time>2026-04-11T14:47:00.458Z</time></trkpt><trkpt lat="43.5044594" lon="11.157701"><ele>222.0</ele><time>2026-04-11T14:47:01.461Z</time></trkpt><trkpt lat="43.5043642" lon="11.1575911"><ele>222.0</ele><time>2026-04-11T14:47:03.454Z</time></trkpt><trkpt lat="43.5042718" lon="11.1574942"><ele>222.0</ele><time>2026-04-11T14:47:05.462Z</time></trkpt><trkpt lat="43.5041785" lon="11.1574109"><ele>222.0</ele><time>2026-04-11T14:47:07.456Z</time></trkpt><trkpt lat="43.5040892" lon="11.1573272"><ele>222.2</ele><time>2026-04-11T14:47:09.47Z</time></trkpt><trkpt lat="43.5040098" lon="11.1572487"><ele>222.39999999999998</ele><time>2026-04-11T14:47:11.461Z</time></trkpt><trkpt lat="43.5039345" lon="11.157186"><ele>222.60000000000002</ele><time>2026-04-11T14:47:13.445Z</time></trkpt><trkpt lat="43.5038593" lon="11.1571167"><ele>222.8</ele><time>2026-04-11T14:47:15.457Z</time></trkpt><trkpt lat="43.5037841" lon="11.1570397"><ele>223.0</ele><time>2026-04-11T14:47:17.464Z</time></trkpt><trkpt lat="43.503714" lon="11.1569658"><ele>223.0</ele><time>2026-04-11T14:47:19.468Z</time></trkpt><trkpt lat="43.503645" lon="11.1568945"><ele>223.0</ele><time>2026-04-11T14:47:21.46Z</time></trkpt><trkpt lat="43.5035739" lon="11.1568242"><ele>223.0</ele><time>2026-04-11T14:47:23.464Z</time></trkpt><trkpt lat="43.5034953" lon="11.1567584"><ele>223.0</ele><time>2026-04-11T14:47:25.471Z</time></trkpt><trkpt lat="43.5034164" lon="11.1566773"><ele>223.0</ele><time>2026-04-11T14:47:27.464Z</time></trkpt><trkpt lat="43.5033335" lon="11.1565907"><ele>222.33333333333331</ele><time>2026-04-11T14:47:29.455Z</time></trkpt><trkpt lat="43.5032428" lon="11.1565133"><ele>221.66666666666666</ele><time>2026-04-11T14:47:31.451Z</time></trkpt><trkpt lat="43.5031416" lon="11.1564306"><ele>221.0</ele><time>2026-04-11T14:47:33.455Z</time></trkpt><trkpt lat="43.5030825" lon="11.1563851"><ele>220.33333333333331</ele><time>2026-04-11T14:47:34.451Z</time></trkpt><trkpt lat="43.5030192" lon="11.1563378"><ele>219.66666666666666</ele><time>2026-04-11T14:47:35.463Z</time></trkpt><trkpt lat="43.5029507" lon="11.1562891"><ele>219.0</ele><time>2026-04-11T14:47:36.446Z</time></trkpt><trkpt lat="43.5028793" lon="11.1562435"><ele>219.0</ele><time>2026-04-11T14:47:37.465Z</time></trkpt><trkpt lat="43.5028029" lon="11.1561951"><ele>219.0</ele><time>2026-04-11T14:47:38.452Z</time></trkpt><trkpt lat="43.5027218" lon="11.1561451"><ele>219.0</ele><time>2026-04-11T14:47:39.464Z</time></trkpt><trkpt lat="43.5026386" lon="11.1560934"><ele>219.0</ele><time>2026-04-11T14:47:40.454Z</time></trkpt><trkpt lat="43.5025571" lon="11.1560373"><ele>219.0</ele><time>2026-04-11T14:47:41.453Z</time></trkpt><trkpt lat="43.5024772" lon="11.1559765"><ele>219.0</ele><time>2026-04-11T14:47:42.457Z</time></trkpt><trkpt lat="43.5024009" lon="11.1559133"><ele>219.0</ele><time>2026-04-11T14:47:43.458Z</time></trkpt><trkpt lat="43.50233" lon="11.1558459"><ele>219.0</ele><time>2026-04-11T14:47:44.456Z</time></trkpt><trkpt lat="43.50226" lon="11.1557807"><ele>219.0</ele><time>2026-04-11T14:47:45.45Z</time></trkpt><trkpt lat="43.5021908" lon="11.1557156"><ele>219.0</ele><time>2026-04-11T14:47:46.46Z</time></trkpt><trkpt lat="43.5021234" lon="11.1556506"><ele>219.0</ele><time>2026-04-11T14:47:47.462Z</time></trkpt><trkpt lat="43.5020543" lon="11.1555873"><ele>219.0</ele><time>2026-04-11T14:47:48.457Z</time></trkpt><trkpt lat="43.5019891" lon="11.1555213"><ele>219.42857142857144</ele><time>2026-04-11T14:47:49.452Z</time></trkpt><trkpt lat="43.5019263" lon="11.1554598"><ele>219.85714285714283</ele><time>2026-04-11T14:47:50.448Z</time></trkpt><trkpt lat="43.5018647" lon="11.1553986"><ele>220.28571428571428</ele><time>2026-04-11T14:47:51.458Z</time></trkpt><trkpt lat="43.5018048" lon="11.1553422"><ele>220.71428571428572</ele><time>2026-04-11T14:47:52.453Z</time></trkpt><trkpt lat="43.5017442" lon="11.1552879"><ele>221.14285714285717</ele><time>2026-04-11T14:47:53.46Z</time></trkpt><trkpt lat="43.5016897" lon="11.1552318"><ele>221.57142857142856</ele><time>2026-04-11T14:47:54.46Z</time></trkpt><trkpt lat="43.5016426" lon="11.155171"><ele>222.0</ele><time>2026-04-11T14:47:55.456Z</time></trkpt><trkpt lat="43.5016029" lon="11.1551009"><ele>222.0</ele><time>2026-04-11T14:47:56.47Z</time></trkpt><trkpt lat="43.5015268" lon="11.1549791"><ele>222.0</ele><time>2026-04-11T14:47:58.464Z</time></trkpt><trkpt lat="43.5014468" lon="11.1548648"><ele>222.0</ele><time>2026-04-11T14:48:00.456Z</time></trkpt><trkpt lat="43.5013735" lon="11.1547659"><ele>222.0</ele><time>2026-04-11T14:48:02.466Z</time></trkpt><trkpt lat="43.5013018" lon="11.1546942"><ele>222.0</ele><time>2026-04-11T14:48:04.444Z</time></trkpt><trkpt lat="43.5012281" lon="11.1546246"><ele>222.39999999999998</ele><time>2026-04-11T14:48:06.451Z</time></trkpt><trkpt lat="43.5011519" lon="11.1545517"><ele>222.79999999999998</ele><time>2026-04-11T14:48:08.456Z</time></trkpt><trkpt lat="43.5010774" lon="11.1544766"><ele>223.2</ele><time>2026-04-11T14:48:10.461Z</time></trkpt><trkpt lat="43.5010018" lon="11.1544134"><ele>223.6</ele><time>2026-04-11T14:48:12.459Z</time></trkpt><trkpt lat="43.5009141" lon="11.154384"><ele>224.0</ele><time>2026-04-11T14:48:14.443Z</time></trkpt><trkpt lat="43.5008236" lon="11.1543692"><ele>224.00000000000003</ele><time>2026-04-11T14:48:16.465Z</time></trkpt><trkpt lat="43.5007223" lon="11.1543658"><ele>224.0</ele><time>2026-04-11T14:48:18.455Z</time></trkpt><trkpt lat="43.5006067" lon="11.1543574"><ele>224.0</ele><time>2026-04-11T14:48:20.447Z</time></trkpt><trkpt lat="43.5005412" lon="11.1543507"><ele>224.0</ele><time>2026-04-11T14:48:21.448Z</time></trkpt><trkpt lat="43.50047" lon="11.1543475"><ele>224.00000000000003</ele><time>2026-04-11T14:48:22.448Z</time></trkpt><trkpt lat="43.5003917" lon="11.1543418"><ele>224.0</ele><time>2026-04-11T14:48:23.461Z</time></trkpt><trkpt lat="43.500312" lon="11.1543352"><ele>222.79999999999998</ele><time>2026-04-11T14:48:24.458Z</time></trkpt><trkpt lat="43.5002286" lon="11.1543108"><ele>221.59999999999997</ele><time>2026-04-11T14:48:25.453Z</time></trkpt><trkpt lat="43.500145" lon="11.15426"><ele>220.4</ele><time>2026-04-11T14:48:26.448Z</time></trkpt><trkpt lat="43.5000621" lon="11.1541858"><ele>219.2</ele><time>2026-04-11T14:48:27.467Z</time></trkpt><trkpt lat="43.4999826" lon="11.1540995"><ele>218.0</ele><time>2026-04-11T14:48:28.449Z</time></trkpt><trkpt lat="43.4998989" lon="11.1540078"><ele>218.0</ele><time>2026-04-11T14:48:29.47Z</time></trkpt><trkpt lat="43.4998204" lon="11.1539129"><ele>218.0</ele><time>2026-04-11T14:48:30.448Z</time></trkpt><trkpt lat="43.4997443" lon="11.1538116"><ele>218.0</ele><time>2026-04-11T14:48:31.459Z</time></trkpt><trkpt lat="43.4996722" lon="11.1537024"><ele>218.0</ele><time>2026-04-11T14:48:32.447Z</time></trkpt><trkpt lat="43.4996049" lon="11.1535753"><ele>218.0</ele><time>2026-04-11T14:48:33.449Z</time></trkpt><trkpt lat="43.4995416" lon="11.1534411"><ele>214.25</ele><time>2026-04-11T14:48:34.451Z</time></trkpt><trkpt lat="43.4994756" lon="11.153303"><ele>210.5</ele><time>2026-04-11T14:48:35.452Z</time></trkpt><trkpt lat="43.4994039" lon="11.1531683"><ele>206.75</ele><time>2026-04-11T14:48:36.449Z</time></trkpt><trkpt lat="43.4993239" lon="11.1530419"><ele>203.0</ele><time>2026-04-11T14:48:37.447Z</time></trkpt><trkpt lat="43.4992298" lon="11.1529244"><ele>202.75</ele><time>2026-04-11T14:48:38.455Z</time></trkpt><trkpt lat="43.4991317" lon="11.1528267"><ele>202.5</ele><time>2026-04-11T14:48:39.461Z</time></trkpt><trkpt lat="43.499032" lon="11.1527443"><ele>202.25</ele><time>2026-04-11T14:48:40.445Z</time></trkpt><trkpt lat="43.4989307" lon="11.1526659"><ele>202.0</ele><time>2026-04-11T14:48:41.45Z</time></trkpt><trkpt lat="43.4988303" lon="11.1525927"><ele>200.25</ele><time>2026-04-11T14:48:42.467Z</time></trkpt><trkpt lat="43.4987285" lon="11.1525245"><ele>198.5</ele><time>2026-04-11T14:48:43.45Z</time></trkpt><trkpt lat="43.4986237" lon="11.1524641"><ele>196.75</ele><time>2026-04-11T14:48:44.449Z</time></trkpt><trkpt lat="43.4985128" lon="11.1524141"><ele>195.0</ele><time>2026-04-11T14:48:45.473Z</time></trkpt><trkpt lat="43.4984001" lon="11.1523787"><ele>195.0</ele><time>2026-04-11T14:48:46.46Z</time></trkpt><trkpt lat="43.4982838" lon="11.1523682"><ele>195.0</ele><time>2026-04-11T14:48:47.444Z</time></trkpt><trkpt lat="43.498165" lon="11.1523692"><ele>195.0</ele><time>2026-04-11T14:48:48.464Z</time></trkpt><trkpt lat="43.49805" lon="11.1523798"><ele>195.0</ele><time>2026-04-11T14:48:49.468Z</time></trkpt><trkpt lat="43.4979354" lon="11.1523897"><ele>194.75</ele><time>2026-04-11T14:48:50.458Z</time></trkpt><trkpt lat="43.4978195" lon="11.1523994"><ele>194.5</ele><time>2026-04-11T14:48:51.462Z</time></trkpt><trkpt lat="43.4977039" lon="11.1524105"><ele>194.25</ele><time>2026-04-11T14:48:52.474Z</time></trkpt><trkpt lat="43.4975899" lon="11.1524242"><ele>194.0</ele><time>2026-04-11T14:48:53.443Z</time></trkpt><trkpt lat="43.4974723" lon="11.1524507"><ele>194.0</ele><time>2026-04-11T14:48:54.464Z</time></trkpt><trkpt lat="43.4973538" lon="11.1524858"><ele>194.0</ele><time>2026-04-11T14:48:55.461Z</time></trkpt><trkpt lat="43.4972399" lon="11.1525269"><ele>194.0</ele><time>2026-04-11T14:48:56.453Z</time></trkpt><trkpt lat="43.4971244" lon="11.1525719"><ele>194.0</ele><time>2026-04-11T14:48:57.467Z</time></trkpt><trkpt lat="43.4970112" lon="11.1526217"><ele>193.75</ele><time>2026-04-11T14:48:58.444Z</time></trkpt><trkpt lat="43.4968938" lon="11.1526698"><ele>193.5</ele><time>2026-04-11T14:48:59.456Z</time></trkpt><trkpt lat="43.4967748" lon="11.1527107"><ele>193.25</ele><time>2026-04-11T14:49:00.446Z</time></trkpt><trkpt lat="43.4966538" lon="11.1527443"><ele>193.0</ele><time>2026-04-11T14:49:01.452Z</time></trkpt><trkpt lat="43.4965301" lon="11.1527657"><ele>193.0</ele><time>2026-04-11T14:49:02.462Z</time></trkpt><trkpt lat="43.4963986" lon="11.1527726"><ele>193.0</ele><time>2026-04-11T14:49:03.475Z</time></trkpt><trkpt lat="43.4962652" lon="11.1527594"><ele>193.0</ele><time>2026-04-11T14:49:04.459Z</time></trkpt><trkpt lat="43.4961312" lon="11.1527305"><ele>193.0</ele><time>2026-04-11T14:49:05.462Z</time></trkpt><trkpt lat="43.495998" lon="11.152686"><ele>190.5</ele><time>2026-04-11T14:49:06.462Z</time></trkpt><trkpt lat="43.4958681" lon="11.1526336"><ele>188.0</ele><time>2026-04-11T14:49:07.458Z</time></trkpt><trkpt lat="43.4957357" lon="11.1525833"><ele>185.5</ele><time>2026-04-11T14:49:08.474Z</time></trkpt><trkpt lat="43.4956066" lon="11.1525318"><ele>183.0</ele><time>2026-04-11T14:49:09.46Z</time></trkpt><trkpt lat="43.4954751" lon="11.1524822"><ele>180.5</ele><time>2026-04-11T14:49:10.46Z</time></trkpt><trkpt lat="43.4953436" lon="11.1524374"><ele>178.0</ele><time>2026-04-11T14:49:11.449Z</time></trkpt><trkpt lat="43.4952134" lon="11.1523943"><ele>175.5</ele><time>2026-04-11T14:49:12.474Z</time></trkpt><trkpt lat="43.4950844" lon="11.1523453"><ele>173.0</ele><time>2026-04-11T14:49:13.462Z</time></trkpt><trkpt lat="43.4949547" lon="11.1522937"><ele>171.5</ele><time>2026-04-11T14:49:14.477Z</time></trkpt><trkpt lat="43.4948273" lon="11.1522429"><ele>170.0</ele><time>2026-04-11T14:49:15.461Z</time></trkpt><trkpt lat="43.4946956" lon="11.152188"><ele>168.5</ele><time>2026-04-11T14:49:16.451Z</time></trkpt><trkpt lat="43.4945631" lon="11.1521379"><ele>167.0</ele><time>2026-04-11T14:49:17.465Z</time></trkpt><trkpt lat="43.4944258" lon="11.1520889"><ele>165.5</ele><time>2026-04-11T14:49:18.465Z</time></trkpt><trkpt lat="43.4942901" lon="11.1520397"><ele>164.0</ele><time>2026-04-11T14:49:19.461Z</time></trkpt><trkpt lat="43.494152" lon="11.1519891"><ele>162.5</ele><time>2026-04-11T14:49:20.451Z</time></trkpt><trkpt lat="43.4940099" lon="11.1519415"><ele>161.0</ele><time>2026-04-11T14:49:21.465Z</time></trkpt><trkpt lat="43.4938696" lon="11.1518957"><ele>160.0</ele><time>2026-04-11T14:49:22.446Z</time></trkpt><trkpt lat="43.4937294" lon="11.1518545"><ele>159.0</ele><time>2026-04-11T14:49:23.466Z</time></trkpt><trkpt lat="43.4935871" lon="11.1518125"><ele>158.0</ele><time>2026-04-11T14:49:24.454Z</time></trkpt><trkpt lat="43.4934448" lon="11.1517759"><ele>157.0</ele><time>2026-04-11T14:49:25.449Z</time></trkpt><trkpt lat="43.493297" lon="11.1517405"><ele>157.0</ele><time>2026-04-11T14:49:26.455Z</time></trkpt><trkpt lat="43.493145" lon="11.1517046"><ele>157.0</ele><time>2026-04-11T14:49:27.468Z</time></trkpt><trkpt lat="43.4929929" lon="11.1516654"><ele>157.0</ele><time>2026-04-11T14:49:28.461Z</time></trkpt><trkpt lat="43.4928396" lon="11.1516193"><ele>154.0</ele><time>2026-04-11T14:49:29.48Z</time></trkpt><trkpt lat="43.4926858" lon="11.1515713"><ele>151.0</ele><time>2026-04-11T14:49:30.45Z</time></trkpt><trkpt lat="43.4925325" lon="11.1515167"><ele>148.0</ele><time>2026-04-11T14:49:31.478Z</time></trkpt><trkpt lat="43.4923775" lon="11.151455"><ele>147.66666666666669</ele><time>2026-04-11T14:49:32.459Z</time></trkpt><trkpt lat="43.4922292" lon="11.151384"><ele>147.33333333333334</ele><time>2026-04-11T14:49:33.475Z</time></trkpt><trkpt lat="43.4920834" lon="11.1513139"><ele>147.0</ele><time>2026-04-11T14:49:34.452Z</time></trkpt><trkpt lat="43.4919446" lon="11.1512491"><ele>145.66666666666666</ele><time>2026-04-11T14:49:35.478Z</time></trkpt><trkpt lat="43.4918003" lon="11.1511877"><ele>144.33333333333331</ele><time>2026-04-11T14:49:36.449Z</time></trkpt><trkpt lat="43.4916544" lon="11.1511324"><ele>143.0</ele><time>2026-04-11T14:49:37.456Z</time></trkpt><trkpt lat="43.4915096" lon="11.1510781"><ele>143.0</ele><time>2026-04-11T14:49:38.458Z</time></trkpt><trkpt lat="43.4913598" lon="11.1510256"><ele>143.0</ele><time>2026-04-11T14:49:39.453Z</time></trkpt><trkpt lat="43.4912102" lon="11.1509758"><ele>143.0</ele><time>2026-04-11T14:49:40.468Z</time></trkpt><trkpt lat="43.4910591" lon="11.1509325"><ele>140.66666666666666</ele><time>2026-04-11T14:49:41.454Z</time></trkpt><trkpt lat="43.4909084" lon="11.1508973"><ele>138.33333333333334</ele><time>2026-04-11T14:49:42.469Z</time></trkpt><trkpt lat="43.4907564" lon="11.1508711"><ele>136.0</ele><time>2026-04-11T14:49:43.474Z</time></trkpt><trkpt lat="43.4906058" lon="11.1508442"><ele>136.0</ele><time>2026-04-11T14:49:44.456Z</time></trkpt><trkpt lat="43.4904567" lon="11.1508133"><ele>136.0</ele><time>2026-04-11T14:49:45.455Z</time></trkpt><trkpt lat="43.4903055" lon="11.1507816"><ele>136.0</ele><time>2026-04-11T14:49:46.469Z</time></trkpt><trkpt lat="43.4901565" lon="11.1507505"><ele>133.66666666666669</ele><time>2026-04-11T14:49:47.456Z</time></trkpt><trkpt lat="43.4900049" lon="11.1507219"><ele>131.33333333333334</ele><time>2026-04-11T14:49:48.462Z</time></trkpt><trkpt lat="43.4898491" lon="11.1506937"><ele>129.0</ele><time>2026-04-11T14:49:49.457Z</time></trkpt><trkpt lat="43.4896906" lon="11.1506678"><ele>125.0</ele><time>2026-04-11T14:49:50.443Z</time></trkpt><trkpt lat="43.489528" lon="11.1506386"><ele>121.0</ele><time>2026-04-11T14:49:51.472Z</time></trkpt><trkpt lat="43.4893639" lon="11.1506147"><ele>117.0</ele><time>2026-04-11T14:49:52.458Z</time></trkpt><trkpt lat="43.4891946" lon="11.1505903"><ele>117.0</ele><time>2026-04-11T14:49:53.442Z</time></trkpt><trkpt lat="43.4890204" lon="11.1505671"><ele>117.0</ele><time>2026-04-11T14:49:54.455Z</time></trkpt><trkpt lat="43.4888446" lon="11.1505435"><ele>117.0</ele><time>2026-04-11T14:49:55.461Z</time></trkpt><trkpt lat="43.4886715" lon="11.1505236"><ele>114.66666666666666</ele><time>2026-04-11T14:49:56.456Z</time></trkpt><trkpt lat="43.4884968" lon="11.1505082"><ele>112.33333333333333</ele><time>2026-04-11T14:49:57.46Z</time></trkpt><trkpt lat="43.4883273" lon="11.1504914"><ele>110.0</ele><time>2026-04-11T14:49:58.444Z</time></trkpt><trkpt lat="43.4881627" lon="11.1504747"><ele>110.0</ele><time>2026-04-11T14:49:59.467Z</time></trkpt><trkpt lat="43.4880072" lon="11.1504662"><ele>110.0</ele><time>2026-04-11T14:50:00.462Z</time></trkpt><trkpt lat="43.4878565" lon="11.1504617"><ele>110.0</ele><time>2026-04-11T14:50:01.459Z</time></trkpt><trkpt lat="43.4877166" lon="11.1504707"><ele>110.0</ele><time>2026-04-11T14:50:02.454Z</time></trkpt><trkpt lat="43.4875851" lon="11.1504867"><ele>109.5</ele><time>2026-04-11T14:50:03.465Z</time></trkpt><trkpt lat="43.4874595" lon="11.1505021"><ele>109.0</ele><time>2026-04-11T14:50:04.462Z</time></trkpt><trkpt lat="43.4873386" lon="11.1505184"><ele>108.5</ele><time>2026-04-11T14:50:05.45Z</time></trkpt><trkpt lat="43.487223" lon="11.150533"><ele>108.0</ele><time>2026-04-11T14:50:06.46Z</time></trkpt><trkpt lat="43.4871145" lon="11.1505352"><ele>107.80000000000001</ele><time>2026-04-11T14:50:07.458Z</time></trkpt><trkpt lat="43.4870105" lon="11.1505192"><ele>107.60000000000001</ele><time>2026-04-11T14:50:08.463Z</time></trkpt><trkpt lat="43.48691" lon="11.1504752"><ele>107.39999999999999</ele><time>2026-04-11T14:50:09.449Z</time></trkpt><trkpt lat="43.4868204" lon="11.1503953"><ele>107.19999999999999</ele><time>2026-04-11T14:50:10.458Z</time></trkpt><trkpt lat="43.4867471" lon="11.150305"><ele>107.0</ele><time>2026-04-11T14:50:11.446Z</time></trkpt><trkpt lat="43.4866774" lon="11.1502148"><ele>106.99999999999999</ele><time>2026-04-11T14:50:12.452Z</time></trkpt><trkpt lat="43.4866072" lon="11.1501431"><ele>107.0</ele><time>2026-04-11T14:50:13.461Z</time></trkpt><trkpt lat="43.4865321" lon="11.1500901"><ele>107.0</ele><time>2026-04-11T14:50:14.45Z</time></trkpt><trkpt lat="43.4864536" lon="11.1500582"><ele>107.0</ele><time>2026-04-11T14:50:15.465Z</time></trkpt><trkpt lat="43.4863749" lon="11.1500479"><ele>106.99999999999999</ele><time>2026-04-11T14:50:16.454Z</time></trkpt><trkpt lat="43.486291" lon="11.1500573"><ele>107.0</ele><time>2026-04-11T14:50:17.456Z</time></trkpt><trkpt lat="43.4862179" lon="11.1500937"><ele>106.99999999999999</ele><time>2026-04-11T14:50:18.464Z</time></trkpt><trkpt lat="43.4861553" lon="11.1501524"><ele>107.0</ele><time>2026-04-11T14:50:19.456Z</time></trkpt><trkpt lat="43.4860932" lon="11.1502128"><ele>107.0</ele><time>2026-04-11T14:50:20.457Z</time></trkpt><trkpt lat="43.4860296" lon="11.1502691"><ele>107.0</ele><time>2026-04-11T14:50:21.444Z</time></trkpt><trkpt lat="43.4859622" lon="11.1503132"><ele>106.99999999999999</ele><time>2026-04-11T14:50:22.465Z</time></trkpt><trkpt lat="43.4858904" lon="11.1503348"><ele>107.0</ele><time>2026-04-11T14:50:23.466Z</time></trkpt><trkpt lat="43.4858152" lon="11.1503428"><ele>106.99999999999999</ele><time>2026-04-11T14:50:24.448Z</time></trkpt><trkpt lat="43.4857374" lon="11.1503442"><ele>107.0</ele><time>2026-04-11T14:50:25.458Z</time></trkpt><trkpt lat="43.4856613" lon="11.1503346"><ele>107.0</ele><time>2026-04-11T14:50:26.467Z</time></trkpt><trkpt lat="43.4855873" lon="11.150319"><ele>107.0</ele><time>2026-04-11T14:50:27.462Z</time></trkpt><trkpt lat="43.4855128" lon="11.1503007"><ele>106.99999999999999</ele><time>2026-04-11T14:50:28.457Z</time></trkpt><trkpt lat="43.4854392" lon="11.1502832"><ele>107.0</ele><time>2026-04-11T14:50:29.469Z</time></trkpt><trkpt lat="43.4853693" lon="11.1502699"><ele>106.99999999999999</ele><time>2026-04-11T14:50:30.452Z</time></trkpt><trkpt lat="43.4853001" lon="11.1502552"><ele>107.0</ele><time>2026-04-11T14:50:31.472Z</time></trkpt><trkpt lat="43.4852318" lon="11.1502371"><ele>107.0</ele><time>2026-04-11T14:50:32.468Z</time></trkpt><trkpt lat="43.4851662" lon="11.1502163"><ele>107.0</ele><time>2026-04-11T14:50:33.449Z</time></trkpt><trkpt lat="43.4850487" lon="11.1501838"><ele>106.99999999999999</ele><time>2026-04-11T14:50:35.472Z</time></trkpt><trkpt lat="43.4849432" lon="11.1501629"><ele>107.0</ele><time>2026-04-11T14:50:37.458Z</time></trkpt><trkpt lat="43.4848512" lon="11.1501342"><ele>106.99999999999999</ele><time>2026-04-11T14:50:39.454Z</time></trkpt><trkpt lat="43.4847668" lon="11.1501166"><ele>107.0</ele><time>2026-04-11T14:50:41.458Z</time></trkpt><trkpt lat="43.4846869" lon="11.1500956"><ele>107.0</ele><time>2026-04-11T14:50:43.458Z</time></trkpt><trkpt lat="43.4846028" lon="11.1500788"><ele>107.0</ele><time>2026-04-11T14:50:45.459Z</time></trkpt><trkpt lat="43.4845206" lon="11.1500548"><ele>106.99999999999999</ele><time>2026-04-11T14:50:47.472Z</time></trkpt><trkpt lat="43.4844375" lon="11.1500278"><ele>107.0</ele><time>2026-04-11T14:50:49.468Z</time></trkpt><trkpt lat="43.484354" lon="11.1499939"><ele>107.42857142857143</ele><time>2026-04-11T14:50:51.468Z</time></trkpt><trkpt lat="43.4842861" lon="11.1499383"><ele>107.85714285714286</ele><time>2026-04-11T14:50:53.462Z</time></trkpt><trkpt lat="43.484228" lon="11.1498728"><ele>108.28571428571428</ele><time>2026-04-11T14:50:55.457Z</time></trkpt><trkpt lat="43.4841781" lon="11.1497945"><ele>108.71428571428572</ele><time>2026-04-11T14:50:57.459Z</time></trkpt><trkpt lat="43.4841377" lon="11.1497179"><ele>109.14285714285714</ele><time>2026-04-11T14:50:59.46Z</time></trkpt><trkpt lat="43.4840917" lon="11.1496423"><ele>109.57142857142857</ele><time>2026-04-11T14:51:01.461Z</time></trkpt><trkpt lat="43.4840408" lon="11.1495676"><ele>110.0</ele><time>2026-04-11T14:51:03.46Z</time></trkpt><trkpt lat="43.4839857" lon="11.149493"><ele>109.99999999999999</ele><time>2026-04-11T14:51:05.464Z</time></trkpt><trkpt lat="43.4839322" lon="11.1494095"><ele>110.0</ele><time>2026-04-11T14:51:07.457Z</time></trkpt><trkpt lat="43.4838797" lon="11.149339"><ele>110.0</ele><time>2026-04-11T14:51:09.462Z</time></trkpt><trkpt lat="43.4838276" lon="11.1492789"><ele>110.0</ele><time>2026-04-11T14:51:11.458Z</time></trkpt><trkpt lat="43.4837606" lon="11.1492252"><ele>109.99999999999999</ele><time>2026-04-11T14:51:13.466Z</time></trkpt><trkpt lat="43.48368" lon="11.1491784"><ele>110.0</ele><time>2026-04-11T14:51:15.469Z</time></trkpt><trkpt lat="43.4835909" lon="11.1491401"><ele>110.0</ele><time>2026-04-11T14:51:17.445Z</time></trkpt><trkpt lat="43.4835047" lon="11.1491018"><ele>110.0</ele><time>2026-04-11T14:51:19.45Z</time></trkpt><trkpt lat="43.4834155" lon="11.1490649"><ele>110.0</ele><time>2026-04-11T14:51:21.453Z</time></trkpt><trkpt lat="43.4833269" lon="11.1490261"><ele>110.0</ele><time>2026-04-11T14:51:23.469Z</time></trkpt><trkpt lat="43.4832337" lon="11.1489909"><ele>110.0</ele><time>2026-04-11T14:51:25.444Z</time></trkpt><trkpt lat="43.4831443" lon="11.1489506"><ele>109.99999999999999</ele><time>2026-04-11T14:51:27.457Z</time></trkpt><trkpt lat="43.4830555" lon="11.1489043"><ele>110.0</ele><time>2026-04-11T14:51:29.455Z</time></trkpt><trkpt lat="43.4829687" lon="11.1488576"><ele>110.0</ele><time>2026-04-11T14:51:31.448Z</time></trkpt><trkpt lat="43.4828882" lon="11.148818"><ele>110.0</ele><time>2026-04-11T14:51:33.472Z</time></trkpt><trkpt lat="43.4828084" lon="11.148776"><ele>109.99999999999999</ele><time>2026-04-11T14:51:35.454Z</time></trkpt><trkpt lat="43.4827224" lon="11.1487389"><ele>110.0</ele><time>2026-04-11T14:51:37.451Z</time></trkpt><trkpt lat="43.4826387" lon="11.1486974"><ele>110.66666666666666</ele><time>2026-04-11T14:51:39.47Z</time></trkpt><trkpt lat="43.4825612" lon="11.1486618"><ele>111.33333333333333</ele><time>2026-04-11T14:51:41.467Z</time></trkpt><trkpt lat="43.4824873" lon="11.1486202"><ele>112.0</ele><time>2026-04-11T14:51:43.454Z</time></trkpt><trkpt lat="43.4824112" lon="11.1485789"><ele>112.66666666666666</ele><time>2026-04-11T14:51:45.446Z</time></trkpt><trkpt lat="43.4823283" lon="11.1485349"><ele>113.33333333333333</ele><time>2026-04-11T14:51:47.454Z</time></trkpt><trkpt lat="43.4822483" lon="11.1484929"><ele>114.0</ele><time>2026-04-11T14:51:49.46Z</time></trkpt><trkpt lat="43.4821716" lon="11.14845"><ele>115.16666666666667</ele><time>2026-04-11T14:51:51.452Z</time></trkpt><trkpt lat="43.4820972" lon="11.1484122"><ele>116.33333333333334</ele><time>2026-04-11T14:51:53.456Z</time></trkpt><trkpt lat="43.4820253" lon="11.1483726"><ele>117.5</ele><time>2026-04-11T14:51:55.463Z</time></trkpt><trkpt lat="43.4819508" lon="11.1483297"><ele>118.66666666666667</ele><time>2026-04-11T14:51:57.464Z</time></trkpt><trkpt lat="43.4818741" lon="11.1482881"><ele>119.83333333333334</ele><time>2026-04-11T14:51:59.476Z</time></trkpt><trkpt lat="43.4818011" lon="11.1482527"><ele>121.0</ele><time>2026-04-11T14:52:01.448Z</time></trkpt><trkpt lat="43.4817236" lon="11.1482124"><ele>120.83333333333334</ele><time>2026-04-11T14:52:03.476Z</time></trkpt><trkpt lat="43.4816434" lon="11.1481724"><ele>120.66666666666667</ele><time>2026-04-11T14:52:05.458Z</time></trkpt><trkpt lat="43.4815692" lon="11.1481245"><ele>120.5</ele><time>2026-04-11T14:52:07.465Z</time></trkpt><trkpt lat="43.4814946" lon="11.148076"><ele>120.33333333333334</ele><time>2026-04-11T14:52:09.46Z</time></trkpt><trkpt lat="43.481416" lon="11.1480317"><ele>120.16666666666667</ele><time>2026-04-11T14:52:11.453Z</time></trkpt><trkpt lat="43.4813362" lon="11.1479935"><ele>120.0</ele><time>2026-04-11T14:52:13.466Z</time></trkpt><trkpt lat="43.4812583" lon="11.1479541"><ele>120.0</ele><time>2026-04-11T14:52:15.467Z</time></trkpt><trkpt lat="43.4811778" lon="11.1479145"><ele>120.0</ele><time>2026-04-11T14:52:17.452Z</time></trkpt><trkpt lat="43.4810975" lon="11.1478757"><ele>120.0</ele><time>2026-04-11T14:52:19.468Z</time></trkpt><trkpt lat="43.4810247" lon="11.1478503"><ele>120.0</ele><time>2026-04-11T14:52:21.456Z</time></trkpt><trkpt lat="43.480952" lon="11.1478236"><ele>120.0</ele><time>2026-04-11T14:52:23.463Z</time></trkpt><trkpt lat="43.4808792" lon="11.1477876"><ele>120.0</ele><time>2026-04-11T14:52:25.454Z</time></trkpt><trkpt lat="43.4808112" lon="11.1477612"><ele>120.0</ele><time>2026-04-11T14:52:27.458Z</time></trkpt><trkpt lat="43.480739" lon="11.1477242"><ele>120.0</ele><time>2026-04-11T14:52:29.453Z</time></trkpt><trkpt lat="43.4806705" lon="11.1476858"><ele>120.0</ele><time>2026-04-11T14:52:31.459Z</time></trkpt><trkpt lat="43.4805978" lon="11.1476563"><ele>120.0</ele><time>2026-04-11T14:52:33.457Z</time></trkpt><trkpt lat="43.4805254" lon="11.1476266"><ele>120.0</ele><time>2026-04-11T14:52:35.451Z</time></trkpt><trkpt lat="43.4804579" lon="11.1475994"><ele>120.0</ele><time>2026-04-11T14:52:37.453Z</time></trkpt><trkpt lat="43.480374" lon="11.1475611"><ele>120.66666666666667</ele><time>2026-04-11T14:52:40.46Z</time></trkpt><trkpt lat="43.4803018" lon="11.1475262"><ele>121.33333333333334</ele><time>2026-04-11T14:52:43.455Z</time></trkpt><trkpt lat="43.4802373" lon="11.1475034"><ele>122.0</ele><time>2026-04-11T14:52:46.455Z</time></trkpt><trkpt lat="43.4801406" lon="11.1474805"><ele>122.66666666666667</ele><time>2026-04-11T14:52:49.45Z</time></trkpt><trkpt lat="43.480078" lon="11.1474674"><ele>123.33333333333334</ele><time>2026-04-11T14:52:50.452Z</time></trkpt><trkpt lat="43.4800041" lon="11.1474537"><ele>124.0</ele><time>2026-04-11T14:52:51.455Z</time></trkpt><trkpt lat="43.4799261" lon="11.1474444"><ele>124.0</ele><time>2026-04-11T14:52:52.46Z</time></trkpt><trkpt lat="43.4798545" lon="11.1474427"><ele>124.00000000000001</ele><time>2026-04-11T14:52:53.454Z</time></trkpt><trkpt lat="43.4797796" lon="11.1474406"><ele>124.0</ele><time>2026-04-11T14:52:54.443Z</time></trkpt><trkpt lat="43.4797004" lon="11.1474384"><ele>124.0</ele><time>2026-04-11T14:52:55.457Z</time></trkpt><trkpt lat="43.4796244" lon="11.1474379"><ele>124.00000000000001</ele><time>2026-04-11T14:52:56.486Z</time></trkpt><trkpt lat="43.4795507" lon="11.1474384"><ele>124.0</ele><time>2026-04-11T14:52:57.469Z</time></trkpt><trkpt lat="43.4794767" lon="11.1474349"><ele>124.0</ele><time>2026-04-11T14:52:58.464Z</time></trkpt><trkpt lat="43.4794001" lon="11.147435"><ele>122.83333333333334</ele><time>2026-04-11T14:52:59.469Z</time></trkpt><trkpt lat="43.4793197" lon="11.1474326"><ele>121.66666666666667</ele><time>2026-04-11T14:53:00.47Z</time></trkpt><trkpt lat="43.4792333" lon="11.1474326"><ele>120.5</ele><time>2026-04-11T14:53:01.465Z</time></trkpt><trkpt lat="43.4791459" lon="11.1474266"><ele>119.33333333333334</ele><time>2026-04-11T14:53:02.457Z</time></trkpt><trkpt lat="43.4790556" lon="11.1474166"><ele>118.16666666666667</ele><time>2026-04-11T14:53:03.454Z</time></trkpt><trkpt lat="43.4789627" lon="11.147408"><ele>117.0</ele><time>2026-04-11T14:53:04.453Z</time></trkpt><trkpt lat="43.4788687" lon="11.1473981"><ele>117.0</ele><time>2026-04-11T14:53:05.464Z</time></trkpt><trkpt lat="43.4787745" lon="11.147389"><ele>117.0</ele><time>2026-04-11T14:53:06.449Z</time></trkpt><trkpt lat="43.4786838" lon="11.1473813"><ele>117.0</ele><time>2026-04-11T14:53:07.453Z</time></trkpt><trkpt lat="43.4785993" lon="11.1473739"><ele>117.0</ele><time>2026-04-11T14:53:08.448Z</time></trkpt><trkpt lat="43.4785181" lon="11.1473684"><ele>117.0</ele><time>2026-04-11T14:53:09.46Z</time></trkpt><trkpt lat="43.4784364" lon="11.1473632"><ele>117.0</ele><time>2026-04-11T14:53:10.468Z</time></trkpt><trkpt lat="43.4783575" lon="11.1473556"><ele>115.83333333333333</ele><time>2026-04-11T14:53:11.461Z</time></trkpt><trkpt lat="43.4782783" lon="11.147341"><ele>114.66666666666666</ele><time>2026-04-11T14:53:12.454Z</time></trkpt><trkpt lat="43.4781939" lon="11.1473246"><ele>113.5</ele><time>2026-04-11T14:53:13.447Z</time></trkpt><trkpt lat="43.4781035" lon="11.1473082"><ele>112.33333333333333</ele><time>2026-04-11T14:53:14.451Z</time></trkpt><trkpt lat="43.4780081" lon="11.1472957"><ele>111.16666666666666</ele><time>2026-04-11T14:53:15.447Z</time></trkpt><trkpt lat="43.477914" lon="11.147285"><ele>110.0</ele><time>2026-04-11T14:53:16.453Z</time></trkpt><trkpt lat="43.4778234" lon="11.1472651"><ele>108.4</ele><time>2026-04-11T14:53:17.444Z</time></trkpt><trkpt lat="43.4777281" lon="11.1472449"><ele>106.8</ele><time>2026-04-11T14:53:18.45Z</time></trkpt><trkpt lat="43.4776363" lon="11.1472213"><ele>105.19999999999999</ele><time>2026-04-11T14:53:19.458Z</time></trkpt><trkpt lat="43.4775455" lon="11.1471987"><ele>103.6</ele><time>2026-04-11T14:53:20.449Z</time></trkpt><trkpt lat="43.4774573" lon="11.147182"><ele>102.0</ele><time>2026-04-11T14:53:21.439Z</time></trkpt><trkpt lat="43.4773713" lon="11.1471695"><ele>102.0</ele><time>2026-04-11T14:53:22.452Z</time></trkpt><trkpt lat="43.4772889" lon="11.147156"><ele>102.0</ele><time>2026-04-11T14:53:23.453Z</time></trkpt><trkpt lat="43.4772066" lon="11.1471385"><ele>102.0</ele><time>2026-04-11T14:53:24.449Z</time></trkpt><trkpt lat="43.4771252" lon="11.147123"><ele>102.0</ele><time>2026-04-11T14:53:25.454Z</time></trkpt><trkpt lat="43.4770484" lon="11.1471085"><ele>102.0</ele><time>2026-04-11T14:53:26.44Z</time></trkpt><trkpt lat="43.4769714" lon="11.1470945"><ele>102.0</ele><time>2026-04-11T14:53:27.476Z</time></trkpt><trkpt lat="43.4769029" lon="11.1470795"><ele>102.0</ele><time>2026-04-11T14:53:28.463Z</time></trkpt><trkpt lat="43.4768322" lon="11.1470631"><ele>102.0</ele><time>2026-04-11T14:53:29.454Z</time></trkpt><trkpt lat="43.4767643" lon="11.1470494"><ele>102.0</ele><time>2026-04-11T14:53:30.452Z</time></trkpt><trkpt lat="43.4766989" lon="11.1470311"><ele>102.0</ele><time>2026-04-11T14:53:31.468Z</time></trkpt><trkpt lat="43.4766349" lon="11.1470181"><ele>102.0</ele><time>2026-04-11T14:53:32.461Z</time></trkpt><trkpt lat="43.4765705" lon="11.147006"><ele>102.0</ele><time>2026-04-11T14:53:33.468Z</time></trkpt><trkpt lat="43.4765072" lon="11.1469941"><ele>102.0</ele><time>2026-04-11T14:53:34.453Z</time></trkpt><trkpt lat="43.4764437" lon="11.1469798"><ele>102.0</ele><time>2026-04-11T14:53:35.468Z</time></trkpt><trkpt lat="43.4763805" lon="11.1469639"><ele>102.0</ele><time>2026-04-11T14:53:36.455Z</time></trkpt><trkpt lat="43.4763182" lon="11.1469459"><ele>102.0</ele><time>2026-04-11T14:53:37.461Z</time></trkpt><trkpt lat="43.4762544" lon="11.1469276"><ele>102.0</ele><time>2026-04-11T14:53:38.464Z</time></trkpt><trkpt lat="43.4761866" lon="11.1469162"><ele>102.0</ele><time>2026-04-11T14:53:39.448Z</time></trkpt><trkpt lat="43.4761193" lon="11.1469071"><ele>102.0</ele><time>2026-04-11T14:53:40.464Z</time></trkpt><trkpt lat="43.4760506" lon="11.1468968"><ele>102.0</ele><time>2026-04-11T14:53:41.464Z</time></trkpt><trkpt lat="43.4759819" lon="11.1468891"><ele>101.83333333333333</ele><time>2026-04-11T14:53:42.453Z</time></trkpt><trkpt lat="43.4759143" lon="11.1468904"><ele>101.66666666666666</ele><time>2026-04-11T14:53:43.46Z</time></trkpt><trkpt lat="43.4758486" lon="11.1468909"><ele>101.5</ele><time>2026-04-11T14:53:44.461Z</time></trkpt><trkpt lat="43.4757822" lon="11.1468887"><ele>101.33333333333333</ele><time>2026-04-11T14:53:45.463Z</time></trkpt><trkpt lat="43.4757191" lon="11.1468895"><ele>101.16666666666666</ele><time>2026-04-11T14:53:46.468Z</time></trkpt><trkpt lat="43.4755915" lon="11.1468778"><ele>101.0</ele><time>2026-04-11T14:53:48.46Z</time></trkpt><trkpt lat="43.4755227" lon="11.1468704"><ele>101.0</ele><time>2026-04-11T14:53:49.46Z</time></trkpt><trkpt lat="43.4754491" lon="11.1468659"><ele>101.0</ele><time>2026-04-11T14:53:50.469Z</time></trkpt><trkpt lat="43.4753807" lon="11.1468592"><ele>101.0</ele><time>2026-04-11T14:53:51.463Z</time></trkpt><trkpt lat="43.4753118" lon="11.1468547"><ele>101.0</ele><time>2026-04-11T14:53:52.447Z</time></trkpt><trkpt lat="43.4752445" lon="11.146853"><ele>101.0</ele><time>2026-04-11T14:53:53.467Z</time></trkpt><trkpt lat="43.4751737" lon="11.1468579"><ele>101.0</ele><time>2026-04-11T14:53:54.469Z</time></trkpt><trkpt lat="43.4751038" lon="11.1468573"><ele>101.0</ele><time>2026-04-11T14:53:55.457Z</time></trkpt><trkpt lat="43.4750334" lon="11.1468523"><ele>101.0</ele><time>2026-04-11T14:53:56.466Z</time></trkpt><trkpt lat="43.4749699" lon="11.1468488"><ele>101.0</ele><time>2026-04-11T14:53:57.451Z</time></trkpt><trkpt lat="43.4748535" lon="11.1468345"><ele>101.0</ele><time>2026-04-11T14:53:59.46Z</time></trkpt><trkpt lat="43.4747409" lon="11.1468034"><ele>101.0</ele><time>2026-04-11T14:54:01.452Z</time></trkpt><trkpt lat="43.4746179" lon="11.1467936"><ele>101.0</ele><time>2026-04-11T14:54:03.456Z</time></trkpt><trkpt lat="43.474501" lon="11.1467963"><ele>101.0</ele><time>2026-04-11T14:54:05.475Z</time></trkpt><trkpt lat="43.47439" lon="11.1467968"><ele>101.0</ele><time>2026-04-11T14:54:07.453Z</time></trkpt><trkpt lat="43.474277" lon="11.1468034"><ele>101.0</ele><time>2026-04-11T14:54:09.459Z</time></trkpt><trkpt lat="43.4741655" lon="11.1468093"><ele>101.0</ele><time>2026-04-11T14:54:11.469Z</time></trkpt><trkpt lat="43.4740611" lon="11.1468152"><ele>101.0</ele><time>2026-04-11T14:54:13.471Z</time></trkpt><trkpt lat="43.4739556" lon="11.1468113"><ele>101.0</ele><time>2026-04-11T14:54:15.463Z</time></trkpt><trkpt lat="43.4738473" lon="11.1467863"><ele>101.0</ele><time>2026-04-11T14:54:17.454Z</time></trkpt><trkpt lat="43.4737356" lon="11.1467748"><ele>101.0</ele><time>2026-04-11T14:54:19.454Z</time></trkpt><trkpt lat="43.4736171" lon="11.1467701"><ele>101.0</ele><time>2026-04-11T14:54:21.458Z</time></trkpt><trkpt lat="43.4735014" lon="11.1467586"><ele>100.75</ele><time>2026-04-11T14:54:23.45Z</time></trkpt><trkpt lat="43.4733831" lon="11.1467503"><ele>100.5</ele><time>2026-04-11T14:54:25.446Z</time></trkpt><trkpt lat="43.4732655" lon="11.1467484"><ele>100.25</ele><time>2026-04-11T14:54:27.464Z</time></trkpt><trkpt lat="43.4731453" lon="11.1467449"><ele>100.0</ele><time>2026-04-11T14:54:29.475Z</time></trkpt><trkpt lat="43.4730262" lon="11.1467316"><ele>100.25</ele><time>2026-04-11T14:54:31.467Z</time></trkpt><trkpt lat="43.4729124" lon="11.1467265"><ele>100.5</ele><time>2026-04-11T14:54:33.458Z</time></trkpt><trkpt lat="43.4727965" lon="11.1467158"><ele>100.75</ele><time>2026-04-11T14:54:35.46Z</time></trkpt><trkpt lat="43.4726743" lon="11.1467041"><ele>101.0</ele><time>2026-04-11T14:54:37.455Z</time></trkpt><trkpt lat="43.4725566" lon="11.1467396"><ele>100.99999999999999</ele><time>2026-04-11T14:54:39.46Z</time></trkpt><trkpt lat="43.4724956" lon="11.1467795"><ele>101.0</ele><time>2026-04-11T14:54:40.454Z</time></trkpt><trkpt lat="43.4724372" lon="11.1468282"><ele>101.0</ele><time>2026-04-11T14:54:41.458Z</time></trkpt><trkpt lat="43.4723822" lon="11.1468861"><ele>101.0</ele><time>2026-04-11T14:54:42.455Z</time></trkpt><trkpt lat="43.4722923" lon="11.146999"><ele>100.99999999999999</ele><time>2026-04-11T14:54:44.464Z</time></trkpt><trkpt lat="43.4722253" lon="11.1471344"><ele>101.0</ele><time>2026-04-11T14:54:46.468Z</time></trkpt><trkpt lat="43.4721677" lon="11.1472747"><ele>100.75</ele><time>2026-04-11T14:54:48.457Z</time></trkpt><trkpt lat="43.4721017" lon="11.1474113"><ele>100.5</ele><time>2026-04-11T14:54:50.463Z</time></trkpt><trkpt lat="43.4720222" lon="11.1475372"><ele>100.25</ele><time>2026-04-11T14:54:52.463Z</time></trkpt><trkpt lat="43.4719491" lon="11.147668"><ele>100.0</ele><time>2026-04-11T14:54:54.464Z</time></trkpt><trkpt lat="43.4718738" lon="11.1477967"><ele>100.00000000000001</ele><time>2026-04-11T14:54:56.463Z</time></trkpt><trkpt lat="43.4718368" lon="11.1478691"><ele>100.0</ele><time>2026-04-11T14:54:57.46Z</time></trkpt><trkpt lat="43.4717949" lon="11.1479382"><ele>100.0</ele><time>2026-04-11T14:54:58.46Z</time></trkpt><trkpt lat="43.4717525" lon="11.1480077"><ele>100.0</ele><time>2026-04-11T14:54:59.468Z</time></trkpt><trkpt lat="43.4717143" lon="11.1480808"><ele>100.00000000000001</ele><time>2026-04-11T14:55:00.456Z</time></trkpt><trkpt lat="43.4716417" lon="11.1482183"><ele>100.0</ele><time>2026-04-11T14:55:02.461Z</time></trkpt><trkpt lat="43.471575" lon="11.1483512"><ele>99.5</ele><time>2026-04-11T14:55:04.466Z</time></trkpt><trkpt lat="43.4715054" lon="11.1484798"><ele>99.0</ele><time>2026-04-11T14:55:06.47Z</time></trkpt><trkpt lat="43.4714289" lon="11.148599"><ele>98.5</ele><time>2026-04-11T14:55:08.448Z</time></trkpt><trkpt lat="43.4713554" lon="11.1487174"><ele>98.0</ele><time>2026-04-11T14:55:10.456Z</time></trkpt><trkpt lat="43.4712751" lon="11.1488441"><ele>98.4</ele><time>2026-04-11T14:55:12.451Z</time></trkpt><trkpt lat="43.4712007" lon="11.1489717"><ele>98.80000000000001</ele><time>2026-04-11T14:55:14.449Z</time></trkpt><trkpt lat="43.4711098" lon="11.1490865"><ele>99.2</ele><time>2026-04-11T14:55:16.47Z</time></trkpt><trkpt lat="43.4710215" lon="11.1492046"><ele>99.6</ele><time>2026-04-11T14:55:18.458Z</time></trkpt><trkpt lat="43.4709794" lon="11.1492721"><ele>100.0</ele><time>2026-04-11T14:55:19.448Z</time></trkpt><trkpt lat="43.4709345" lon="11.1493337"><ele>100.14285714285715</ele><time>2026-04-11T14:55:20.477Z</time></trkpt><trkpt lat="43.4708881" lon="11.1493988"><ele>100.28571428571429</ele><time>2026-04-11T14:55:21.456Z</time></trkpt><trkpt lat="43.4708457" lon="11.1494668"><ele>100.42857142857143</ele><time>2026-04-11T14:55:22.454Z</time></trkpt><trkpt lat="43.4708028" lon="11.1495329"><ele>100.57142857142858</ele><time>2026-04-11T14:55:23.453Z</time></trkpt><trkpt lat="43.4707559" lon="11.1496007"><ele>100.71428571428571</ele><time>2026-04-11T14:55:24.449Z</time></trkpt><trkpt lat="43.4707099" lon="11.1496719"><ele>100.85714285714286</ele><time>2026-04-11T14:55:25.455Z</time></trkpt><trkpt lat="43.4706679" lon="11.149739"><ele>101.0</ele><time>2026-04-11T14:55:26.451Z</time></trkpt><trkpt lat="43.4705899" lon="11.1498659"><ele>101.0</ele><time>2026-04-11T14:55:28.455Z</time></trkpt><trkpt lat="43.4705097" lon="11.1499851"><ele>101.0</ele><time>2026-04-11T14:55:30.453Z</time></trkpt><trkpt lat="43.4704298" lon="11.1500992"><ele>101.0</ele><time>2026-04-11T14:55:32.459Z</time></trkpt><trkpt lat="43.4703577" lon="11.1502045"><ele>101.0</ele><time>2026-04-11T14:55:34.46Z</time></trkpt><trkpt lat="43.4702885" lon="11.1503016"><ele>101.0</ele><time>2026-04-11T14:55:36.472Z</time></trkpt><trkpt lat="43.4702206" lon="11.1504027"><ele>101.0</ele><time>2026-04-11T14:55:38.453Z</time></trkpt><trkpt lat="43.4701487" lon="11.1505005"><ele>101.0</ele><time>2026-04-11T14:55:40.458Z</time></trkpt><trkpt lat="43.4700878" lon="11.1505955"><ele>101.0</ele><time>2026-04-11T14:55:42.453Z</time></trkpt><trkpt lat="43.4700125" lon="11.1506923"><ele>101.0</ele><time>2026-04-11T14:55:44.455Z</time></trkpt><trkpt lat="43.4699326" lon="11.1508085"><ele>101.0</ele><time>2026-04-11T14:55:46.455Z</time></trkpt><trkpt lat="43.4698552" lon="11.1509234"><ele>101.0</ele><time>2026-04-11T14:55:48.449Z</time></trkpt><trkpt lat="43.4697792" lon="11.1510441"><ele>101.0</ele><time>2026-04-11T14:55:50.46Z</time></trkpt><trkpt lat="43.4697069" lon="11.1511683"><ele>101.0</ele><time>2026-04-11T14:55:52.444Z</time></trkpt><trkpt lat="43.4696347" lon="11.151274"><ele>101.0</ele><time>2026-04-11T14:55:54.444Z</time></trkpt><trkpt lat="43.4695617" lon="11.1513762"><ele>101.0</ele><time>2026-04-11T14:55:56.459Z</time></trkpt><trkpt lat="43.46949" lon="11.1514868"><ele>101.19999999999999</ele><time>2026-04-11T14:55:58.459Z</time></trkpt><trkpt lat="43.469412" lon="11.1515865"><ele>101.39999999999999</ele><time>2026-04-11T14:56:00.453Z</time></trkpt><trkpt lat="43.4693198" lon="11.1516537"><ele>101.6</ele><time>2026-04-11T14:56:02.472Z</time></trkpt><trkpt lat="43.4692225" lon="11.1517098"><ele>101.8</ele><time>2026-04-11T14:56:04.446Z</time></trkpt><trkpt lat="43.4691259" lon="11.1517627"><ele>102.0</ele><time>2026-04-11T14:56:06.463Z</time></trkpt><trkpt lat="43.4690281" lon="11.1518176"><ele>102.0</ele><time>2026-04-11T14:56:08.468Z</time></trkpt><trkpt lat="43.46893" lon="11.1518735"><ele>102.0</ele><time>2026-04-11T14:56:10.456Z</time></trkpt><trkpt lat="43.4688285" lon="11.1519196"><ele>102.0</ele><time>2026-04-11T14:56:12.446Z</time></trkpt><trkpt lat="43.4687291" lon="11.1519659"><ele>102.0</ele><time>2026-04-11T14:56:14.466Z</time></trkpt><trkpt lat="43.4686327" lon="11.1520125"><ele>102.0</ele><time>2026-04-11T14:56:16.458Z</time></trkpt><trkpt lat="43.4685377" lon="11.1520475"><ele>101.6</ele><time>2026-04-11T14:56:18.465Z</time></trkpt><trkpt lat="43.4684413" lon="11.1520829"><ele>101.19999999999999</ele><time>2026-04-11T14:56:20.45Z</time></trkpt><trkpt lat="43.4683442" lon="11.1521284"><ele>100.8</ele><time>2026-04-11T14:56:22.452Z</time></trkpt><trkpt lat="43.4682505" lon="11.152158"><ele>100.4</ele><time>2026-04-11T14:56:24.463Z</time></trkpt><trkpt lat="43.4681599" lon="11.1521993"><ele>100.0</ele><time>2026-04-11T14:56:26.444Z</time></trkpt><trkpt lat="43.4680686" lon="11.152248"><ele>100.00000000000001</ele><time>2026-04-11T14:56:28.446Z</time></trkpt><trkpt lat="43.4679829" lon="11.1522872"><ele>100.0</ele><time>2026-04-11T14:56:30.452Z</time></trkpt><trkpt lat="43.4678976" lon="11.1523243"><ele>100.0</ele><time>2026-04-11T14:56:32.46Z</time></trkpt><trkpt lat="43.4678098" lon="11.1523564"><ele>100.0</ele><time>2026-04-11T14:56:34.469Z</time></trkpt><trkpt lat="43.4677283" lon="11.1523963"><ele>100.00000000000001</ele><time>2026-04-11T14:56:36.463Z</time></trkpt><trkpt lat="43.4676483" lon="11.1524367"><ele>100.0</ele><time>2026-04-11T14:56:38.451Z</time></trkpt><trkpt lat="43.4675845" lon="11.1524573"><ele>100.16666666666667</ele><time>2026-04-11T14:56:40.456Z</time></trkpt><trkpt lat="43.4675231" lon="11.1524782"><ele>100.33333333333334</ele><time>2026-04-11T14:56:42.459Z</time></trkpt><trkpt lat="43.4674384" lon="11.1524926"><ele>100.5</ele><time>2026-04-11T14:56:45.457Z</time></trkpt><trkpt lat="43.4673614" lon="11.1524827"><ele>100.66666666666666</ele><time>2026-04-11T14:56:47.462Z</time></trkpt><trkpt lat="43.4672755" lon="11.1524464"><ele>100.83333333333333</ele><time>2026-04-11T14:56:49.457Z</time></trkpt><trkpt lat="43.4671841" lon="11.1524191"><ele>101.0</ele><time>2026-04-11T14:56:51.471Z</time></trkpt><trkpt lat="43.4671234" lon="11.1523257"><ele>100.99999999999999</ele><time>2026-04-11T14:56:53.456Z</time></trkpt><trkpt lat="43.467051" lon="11.1521905"><ele>101.0</ele><time>2026-04-11T14:56:55.469Z</time></trkpt><trkpt lat="43.4670124" lon="11.1521119"><ele>101.0</ele><time>2026-04-11T14:56:56.45Z</time></trkpt><trkpt lat="43.4669707" lon="11.1520228"><ele>101.0</ele><time>2026-04-11T14:56:57.469Z</time></trkpt><trkpt lat="43.4669206" lon="11.1519414"><ele>100.99999999999999</ele><time>2026-04-11T14:56:58.452Z</time></trkpt><trkpt lat="43.4668677" lon="11.1518523"><ele>101.0</ele><time>2026-04-11T14:56:59.448Z</time></trkpt><trkpt lat="43.4668154" lon="11.1517591"><ele>100.99999999999999</ele><time>2026-04-11T14:57:00.443Z</time></trkpt><trkpt lat="43.4667586" lon="11.1516718"><ele>101.0</ele><time>2026-04-11T14:57:01.456Z</time></trkpt><trkpt lat="43.466697" lon="11.151582"><ele>101.0</ele><time>2026-04-11T14:57:02.445Z</time></trkpt><trkpt lat="43.4666298" lon="11.1514868"><ele>101.0</ele><time>2026-04-11T14:57:03.465Z</time></trkpt><trkpt lat="43.4665693" lon="11.1514093"><ele>100.99999999999999</ele><time>2026-04-11T14:57:04.443Z</time></trkpt><trkpt lat="43.4665164" lon="11.1513578"><ele>101.0</ele><time>2026-04-11T14:57:05.445Z</time></trkpt><trkpt lat="43.4664375" lon="11.1512785"><ele>101.66666666666666</ele><time>2026-04-11T14:57:07.447Z</time></trkpt><trkpt lat="43.4663648" lon="11.1512102"><ele>102.33333333333333</ele><time>2026-04-11T14:57:09.466Z</time></trkpt><trkpt lat="43.4662914" lon="11.1511387"><ele>103.0</ele><time>2026-04-11T14:57:11.454Z</time></trkpt><trkpt lat="43.4662248" lon="11.1510699"><ele>103.66666666666666</ele><time>2026-04-11T14:57:13.447Z</time></trkpt><trkpt lat="43.4661635" lon="11.1509992"><ele>104.33333333333333</ele><time>2026-04-11T14:57:15.456Z</time></trkpt><trkpt lat="43.4661121" lon="11.1509381"><ele>105.0</ele><time>2026-04-11T14:57:17.465Z</time></trkpt><trkpt lat="43.4660524" lon="11.1508893"><ele>105.28571428571429</ele><time>2026-04-11T14:57:19.46Z</time></trkpt><trkpt lat="43.4659907" lon="11.1508364"><ele>105.57142857142857</ele><time>2026-04-11T14:57:21.464Z</time></trkpt><trkpt lat="43.465932" lon="11.150786"><ele>105.85714285714286</ele><time>2026-04-11T14:57:23.464Z</time></trkpt><trkpt lat="43.4658667" lon="11.1507892"><ele>106.14285714285714</ele><time>2026-04-11T14:57:25.455Z</time></trkpt><trkpt lat="43.4658083" lon="11.1508388"><ele>106.42857142857143</ele><time>2026-04-11T14:57:27.441Z</time></trkpt><trkpt lat="43.4657529" lon="11.1509331"><ele>106.71428571428572</ele><time>2026-04-11T14:57:29.454Z</time></trkpt><trkpt lat="43.465708" lon="11.1510113"><ele>107.0</ele><time>2026-04-11T14:57:31.454Z</time></trkpt><trkpt lat="43.4656521" lon="11.1510916"><ele>106.99999999999999</ele><time>2026-04-11T14:57:33.449Z</time></trkpt><trkpt lat="43.465603" lon="11.1511877"><ele>107.0</ele><time>2026-04-11T14:57:35.454Z</time></trkpt><trkpt lat="43.4655431" lon="11.1512831"><ele>107.0</ele><time>2026-04-11T14:57:37.45Z</time></trkpt><trkpt lat="43.4654871" lon="11.1513836"><ele>107.0</ele><time>2026-04-11T14:57:39.46Z</time></trkpt><trkpt lat="43.4654314" lon="11.1514769"><ele>106.99999999999999</ele><time>2026-04-11T14:57:41.446Z</time></trkpt><trkpt lat="43.4653812" lon="11.1515795"><ele>107.0</ele><time>2026-04-11T14:57:43.444Z</time></trkpt><trkpt lat="43.4653295" lon="11.1516792"><ele>107.16666666666666</ele><time>2026-04-11T14:57:45.44Z</time></trkpt><trkpt lat="43.4652722" lon="11.1517777"><ele>107.33333333333333</ele><time>2026-04-11T14:57:47.449Z</time></trkpt><trkpt lat="43.4652187" lon="11.1518672"><ele>107.5</ele><time>2026-04-11T14:57:49.45Z</time></trkpt><trkpt lat="43.4651728" lon="11.1519375"><ele>107.66666666666666</ele><time>2026-04-11T14:57:51.452Z</time></trkpt><trkpt lat="43.4650879" lon="11.1518998"><ele>107.83333333333333</ele><time>2026-04-11T14:57:54.435Z</time></trkpt><trkpt lat="43.4650251" lon="11.1518712"><ele>108.0</ele><time>2026-04-11T14:57:56.446Z</time></trkpt><trkpt lat="43.464964" lon="11.151837"><ele>108.0</ele><time>2026-04-11T14:57:58.454Z</time></trkpt><trkpt lat="43.4649377" lon="11.1517377"><ele>108.0</ele><time>2026-04-11T14:58:02.456Z</time></trkpt><trkpt lat="43.4649449" lon="11.1516478"><ele>108.0</ele><time>2026-04-11T14:58:06.448Z</time></trkpt><trkpt lat="43.464998" lon="11.1517361"><ele>108.0</ele><time>2026-04-11T14:58:18.441Z</time></trkpt><trkpt lat="43.4650545" lon="11.1517754"><ele>108.0</ele><time>2026-04-11T14:58:21.454Z</time></trkpt><trkpt lat="43.464993" lon="11.1518041"><ele>108.0</ele><time>2026-04-11T15:17:23.449Z</time></trkpt><trkpt lat="43.4649664" lon="11.151719"><ele>108.0</ele><time>2026-04-11T15:17:28.465Z</time></trkpt><trkpt lat="43.464977" lon="11.1516274"><ele>108.42857142857143</ele><time>2026-04-11T15:17:32.469Z</time></trkpt><trkpt lat="43.4650008" lon="11.1515339"><ele>108.85714285714286</ele><time>2026-04-11T15:17:37.451Z</time></trkpt><trkpt lat="43.4650393" lon="11.1514514"><ele>109.28571428571428</ele><time>2026-04-11T15:17:41.454Z</time></trkpt><trkpt lat="43.4650602" lon="11.1513652"><ele>109.71428571428572</ele><time>2026-04-11T15:17:45.457Z</time></trkpt><trkpt lat="43.4650904" lon="11.1512722"><ele>110.14285714285715</ele><time>2026-04-11T15:17:50.458Z</time></trkpt><trkpt lat="43.4650618" lon="11.1511724"><ele>110.57142857142857</ele><time>2026-04-11T15:17:58.451Z</time></trkpt><trkpt lat="43.4650047" lon="11.1512112"><ele>111.0</ele><time>2026-04-11T15:18:00.457Z</time></trkpt><trkpt lat="43.4649725" lon="11.1513064"><ele>111.0</ele><time>2026-04-11T15:18:02.452Z</time></trkpt><trkpt lat="43.4649263" lon="11.1513866"><ele>111.0</ele><time>2026-04-11T15:18:05.446Z</time></trkpt><trkpt lat="43.4648515" lon="11.1513352"><ele>111.0</ele><time>2026-04-11T15:18:08.457Z</time></trkpt><trkpt lat="43.4647832" lon="11.1512641"><ele>111.0</ele><time>2026-04-11T15:18:10.44Z</time></trkpt><trkpt lat="43.4647157" lon="11.1512122"><ele>111.0</ele><time>2026-04-11T15:18:12.441Z</time></trkpt><trkpt lat="43.4646487" lon="11.1512027"><ele>111.0</ele><time>2026-04-11T15:18:14.46Z</time></trkpt><trkpt lat="43.4645902" lon="11.1512406"><ele>110.66666666666667</ele><time>2026-04-11T15:18:16.447Z</time></trkpt><trkpt lat="43.4645182" lon="11.151316"><ele>110.33333333333334</ele><time>2026-04-11T15:18:19.459Z</time></trkpt><trkpt lat="43.4644557" lon="11.1514131"><ele>110.0</ele><time>2026-04-11T15:18:22.441Z</time></trkpt><trkpt lat="43.4644067" lon="11.1515178"><ele>109.66666666666667</ele><time>2026-04-11T15:18:25.46Z</time></trkpt><trkpt lat="43.4643668" lon="11.1515992"><ele>109.33333333333334</ele><time>2026-04-11T15:18:27.455Z</time></trkpt><trkpt lat="43.4643225" lon="11.1516799"><ele>109.0</ele><time>2026-04-11T15:18:29.463Z</time></trkpt><trkpt lat="43.4642831" lon="11.151754"><ele>109.0</ele><time>2026-04-11T15:18:31.46Z</time></trkpt><trkpt lat="43.4642403" lon="11.1518287"><ele>109.0</ele><time>2026-04-11T15:18:33.446Z</time></trkpt><trkpt lat="43.4642041" lon="11.1519056"><ele>109.0</ele><time>2026-04-11T15:18:35.469Z</time></trkpt><trkpt lat="43.464166" lon="11.1519842"><ele>109.0</ele><time>2026-04-11T15:18:37.452Z</time></trkpt><trkpt lat="43.4641298" lon="11.1520705"><ele>109.0</ele><time>2026-04-11T15:18:39.451Z</time></trkpt><trkpt lat="43.4640964" lon="11.1521493"><ele>109.0</ele><time>2026-04-11T15:18:41.447Z</time></trkpt><trkpt lat="43.4640379" lon="11.1522434"><ele>109.0</ele><time>2026-04-11T15:18:44.454Z</time></trkpt><trkpt lat="43.4639947" lon="11.1523186"><ele>109.33333333333334</ele><time>2026-04-11T15:18:46.452Z</time></trkpt><trkpt lat="43.4639565" lon="11.1524004"><ele>109.66666666666667</ele><time>2026-04-11T15:18:48.453Z</time></trkpt><trkpt lat="43.4639083" lon="11.1524873"><ele>110.0</ele><time>2026-04-11T15:18:50.447Z</time></trkpt><trkpt lat="43.463866" lon="11.1525668"><ele>110.33333333333334</ele><time>2026-04-11T15:18:52.456Z</time></trkpt><trkpt lat="43.4638196" lon="11.1526433"><ele>110.66666666666667</ele><time>2026-04-11T15:18:54.463Z</time></trkpt><trkpt lat="43.4637673" lon="11.1527245"><ele>111.0</ele><time>2026-04-11T15:18:56.444Z</time></trkpt><trkpt lat="43.4637265" lon="11.1528342"><ele>111.6</ele><time>2026-04-11T15:18:58.45Z</time></trkpt><trkpt lat="43.4636803" lon="11.1529422"><ele>112.19999999999999</ele><time>2026-04-11T15:19:00.455Z</time></trkpt><trkpt lat="43.463625" lon="11.1530487"><ele>112.80000000000001</ele><time>2026-04-11T15:19:02.454Z</time></trkpt><trkpt lat="43.463568" lon="11.1531495"><ele>113.4</ele><time>2026-04-11T15:19:04.445Z</time></trkpt><trkpt lat="43.4635139" lon="11.1532483"><ele>114.0</ele><time>2026-04-11T15:19:06.452Z</time></trkpt><trkpt lat="43.4634479" lon="11.1533456"><ele>114.0</ele><time>2026-04-11T15:19:08.464Z</time></trkpt><trkpt lat="43.4633865" lon="11.1534413"><ele>114.0</ele><time>2026-04-11T15:19:10.46Z</time></trkpt><trkpt lat="43.4633338" lon="11.1535398"><ele>114.0</ele><time>2026-04-11T15:19:12.45Z</time></trkpt><trkpt lat="43.463284" lon="11.1536505"><ele>114.0</ele><time>2026-04-11T15:19:14.464Z</time></trkpt><trkpt lat="43.4632376" lon="11.1537692"><ele>114.0</ele><time>2026-04-11T15:19:16.462Z</time></trkpt><trkpt lat="43.4631972" lon="11.1538956"><ele>114.0</ele><time>2026-04-11T15:19:18.453Z</time></trkpt><trkpt lat="43.4631599" lon="11.1540236"><ele>114.0</ele><time>2026-04-11T15:19:20.448Z</time></trkpt><trkpt lat="43.4631202" lon="11.1541527"><ele>114.0</ele><time>2026-04-11T15:19:22.457Z</time></trkpt><trkpt lat="43.4630829" lon="11.1542785"><ele>114.0</ele><time>2026-04-11T15:19:24.453Z</time></trkpt><trkpt lat="43.4630433" lon="11.1544099"><ele>114.0</ele><time>2026-04-11T15:19:26.457Z</time></trkpt><trkpt lat="43.4629989" lon="11.154546"><ele>114.0</ele><time>2026-04-11T15:19:28.454Z</time></trkpt><trkpt lat="43.4629562" lon="11.15467"><ele>114.0</ele><time>2026-04-11T15:19:30.473Z</time></trkpt><trkpt lat="43.462913" lon="11.1548028"><ele>114.0</ele><time>2026-04-11T15:19:32.463Z</time></trkpt><trkpt lat="43.4628608" lon="11.154933"><ele>114.0</ele><time>2026-04-11T15:19:34.452Z</time></trkpt><trkpt lat="43.462815" lon="11.1550727"><ele>114.0</ele><time>2026-04-11T15:19:36.446Z</time></trkpt><trkpt lat="43.4627693" lon="11.1552144"><ele>114.0</ele><time>2026-04-11T15:19:38.445Z</time></trkpt><trkpt lat="43.4627373" lon="11.1553495"><ele>114.0</ele><time>2026-04-11T15:19:40.45Z</time></trkpt><trkpt lat="43.4627021" lon="11.1554755"><ele>114.0</ele><time>2026-04-11T15:19:42.454Z</time></trkpt><trkpt lat="43.4626528" lon="11.1555987"><ele>114.0</ele><time>2026-04-11T15:19:44.444Z</time></trkpt><trkpt lat="43.4626054" lon="11.15573"><ele>114.0</ele><time>2026-04-11T15:19:46.452Z</time></trkpt><trkpt lat="43.4625606" lon="11.1558524"><ele>113.4</ele><time>2026-04-11T15:19:48.449Z</time></trkpt><trkpt lat="43.4625099" lon="11.1559805"><ele>112.80000000000001</ele><time>2026-04-11T15:19:50.45Z</time></trkpt><trkpt lat="43.4624609" lon="11.1560917"><ele>112.19999999999999</ele><time>2026-04-11T15:19:52.451Z</time></trkpt><trkpt lat="43.4624259" lon="11.1562042"><ele>111.6</ele><time>2026-04-11T15:19:54.455Z</time></trkpt><trkpt lat="43.462382" lon="11.1563083"><ele>111.0</ele><time>2026-04-11T15:19:56.46Z</time></trkpt><trkpt lat="43.462329" lon="11.1563989"><ele>111.0</ele><time>2026-04-11T15:19:58.454Z</time></trkpt><trkpt lat="43.4622956" lon="11.1565182"><ele>111.0</ele><time>2026-04-11T15:20:00.449Z</time></trkpt><trkpt lat="43.46226" lon="11.1566249"><ele>111.0</ele><time>2026-04-11T15:20:02.445Z</time></trkpt><trkpt lat="43.4622311" lon="11.1567394"><ele>111.0</ele><time>2026-04-11T15:20:04.462Z</time></trkpt><trkpt lat="43.4621847" lon="11.1568446"><ele>111.0</ele><time>2026-04-11T15:20:06.452Z</time></trkpt><trkpt lat="43.4621546" lon="11.156937"><ele>111.0</ele><time>2026-04-11T15:20:08.472Z</time></trkpt><trkpt lat="43.4621183" lon="11.1570425"><ele>111.33333333333333</ele><time>2026-04-11T15:20:10.449Z</time></trkpt><trkpt lat="43.4620891" lon="11.1571578"><ele>111.66666666666666</ele><time>2026-04-11T15:20:12.464Z</time></trkpt><trkpt lat="43.4620589" lon="11.1572736"><ele>112.0</ele><time>2026-04-11T15:20:14.461Z</time></trkpt><trkpt lat="43.4620495" lon="11.157383"><ele>112.33333333333333</ele><time>2026-04-11T15:20:16.474Z</time></trkpt><trkpt lat="43.4620221" lon="11.1574905"><ele>112.66666666666666</ele><time>2026-04-11T15:20:18.454Z</time></trkpt><trkpt lat="43.4619854" lon="11.1576011"><ele>113.0</ele><time>2026-04-11T15:20:20.462Z</time></trkpt><trkpt lat="43.4619617" lon="11.157712"><ele>112.99999999999999</ele><time>2026-04-11T15:20:22.459Z</time></trkpt><trkpt lat="43.4619233" lon="11.1578182"><ele>113.0</ele><time>2026-04-11T15:20:24.46Z</time></trkpt><trkpt lat="43.4618579" lon="11.1578919"><ele>113.0</ele><time>2026-04-11T15:20:26.46Z</time></trkpt><trkpt lat="43.4618056" lon="11.1579778"><ele>113.0</ele><time>2026-04-11T15:20:28.45Z</time></trkpt><trkpt lat="43.4617497" lon="11.158082"><ele>112.99999999999999</ele><time>2026-04-11T15:20:30.435Z</time></trkpt><trkpt lat="43.4616895" lon="11.1581742"><ele>113.0</ele><time>2026-04-11T15:20:32.446Z</time></trkpt><trkpt lat="43.4616275" lon="11.1582565"><ele>113.2</ele><time>2026-04-11T15:20:34.464Z</time></trkpt><trkpt lat="43.4615514" lon="11.1583288"><ele>113.4</ele><time>2026-04-11T15:20:36.445Z</time></trkpt><trkpt lat="43.4614696" lon="11.1583899"><ele>113.60000000000001</ele><time>2026-04-11T15:20:38.457Z</time></trkpt><trkpt lat="43.4613924" lon="11.1584469"><ele>113.80000000000001</ele><time>2026-04-11T15:20:40.468Z</time></trkpt><trkpt lat="43.4613147" lon="11.1585086"><ele>114.0</ele><time>2026-04-11T15:20:42.445Z</time></trkpt><trkpt lat="43.4612351" lon="11.1585709"><ele>115.0</ele><time>2026-04-11T15:20:44.468Z</time></trkpt><trkpt lat="43.4611569" lon="11.1586231"><ele>116.0</ele><time>2026-04-11T15:20:46.463Z</time></trkpt><trkpt lat="43.4610749" lon="11.1586705"><ele>117.0</ele><time>2026-04-11T15:20:48.467Z</time></trkpt><trkpt lat="43.4609864" lon="11.158697"><ele>118.0</ele><time>2026-04-11T15:20:50.456Z</time></trkpt><trkpt lat="43.460902" lon="11.1587179"><ele>119.0</ele><time>2026-04-11T15:20:52.467Z</time></trkpt><trkpt lat="43.4608109" lon="11.1587326"><ele>120.0</ele><time>2026-04-11T15:20:54.44Z</time></trkpt><trkpt lat="43.4607236" lon="11.1587353"><ele>120.0</ele><time>2026-04-11T15:20:56.457Z</time></trkpt><trkpt lat="43.4606344" lon="11.1587329"><ele>120.0</ele><time>2026-04-11T15:20:58.451Z</time></trkpt><trkpt lat="43.4605395" lon="11.1587326"><ele>120.0</ele><time>2026-04-11T15:21:00.459Z</time></trkpt><trkpt lat="43.46045" lon="11.1587389"><ele>120.0</ele><time>2026-04-11T15:21:02.447Z</time></trkpt><trkpt lat="43.4603656" lon="11.1587466"><ele>120.0</ele><time>2026-04-11T15:21:04.46Z</time></trkpt><trkpt lat="43.4602792" lon="11.1587541"><ele>120.0</ele><time>2026-04-11T15:21:06.457Z</time></trkpt><trkpt lat="43.4601882" lon="11.1587711"><ele>120.66666666666667</ele><time>2026-04-11T15:21:08.459Z</time></trkpt><trkpt lat="43.4601006" lon="11.1587791"><ele>121.33333333333334</ele><time>2026-04-11T15:21:10.459Z</time></trkpt><trkpt lat="43.4600123" lon="11.1587608"><ele>122.0</ele><time>2026-04-11T15:21:12.46Z</time></trkpt><trkpt lat="43.4599198" lon="11.1587254"><ele>122.66666666666667</ele><time>2026-04-11T15:21:14.449Z</time></trkpt><trkpt lat="43.4598408" lon="11.1586776"><ele>123.33333333333334</ele><time>2026-04-11T15:21:16.457Z</time></trkpt><trkpt lat="43.4597662" lon="11.1586309"><ele>124.0</ele><time>2026-04-11T15:21:18.465Z</time></trkpt><trkpt lat="43.4596909" lon="11.1585825"><ele>124.0</ele><time>2026-04-11T15:21:20.461Z</time></trkpt><trkpt lat="43.4596216" lon="11.1585356"><ele>124.00000000000001</ele><time>2026-04-11T15:21:22.441Z</time></trkpt><trkpt lat="43.4595649" lon="11.1584886"><ele>124.0</ele><time>2026-04-11T15:21:24.456Z</time></trkpt><trkpt lat="43.4595042" lon="11.1584372"><ele>124.0</ele><time>2026-04-11T15:21:26.457Z</time></trkpt><trkpt lat="43.4594387" lon="11.158378"><ele>124.00000000000001</ele><time>2026-04-11T15:21:28.446Z</time></trkpt><trkpt lat="43.4593793" lon="11.1583157"><ele>124.0</ele><time>2026-04-11T15:21:30.451Z</time></trkpt><trkpt lat="43.4593203" lon="11.1582608"><ele>124.0</ele><time>2026-04-11T15:21:32.462Z</time></trkpt><trkpt lat="43.4592551" lon="11.1581911"><ele>123.66666666666667</ele><time>2026-04-11T15:21:35.443Z</time></trkpt><trkpt lat="43.4592014" lon="11.1582425"><ele>123.33333333333334</ele><time>2026-04-11T15:21:40.44Z</time></trkpt><trkpt lat="43.459123" lon="11.1581976"><ele>123.0</ele><time>2026-04-11T15:21:43.46Z</time></trkpt><trkpt lat="43.4590687" lon="11.1581434"><ele>122.66666666666666</ele><time>2026-04-11T15:21:45.447Z</time></trkpt><trkpt lat="43.4590154" lon="11.1580843"><ele>122.33333333333333</ele><time>2026-04-11T15:21:48.444Z</time></trkpt><trkpt lat="43.4589568" lon="11.1581452"><ele>122.0</ele><time>2026-04-11T15:21:52.435Z</time></trkpt><trkpt lat="43.4588705" lon="11.1580852"><ele>121.8</ele><time>2026-04-11T15:21:55.453Z</time></trkpt><trkpt lat="43.4587977" lon="11.1580176"><ele>121.6</ele><time>2026-04-11T15:21:57.462Z</time></trkpt><trkpt lat="43.4587242" lon="11.157937"><ele>121.39999999999999</ele><time>2026-04-11T15:21:59.454Z</time></trkpt><trkpt lat="43.4586454" lon="11.1578598"><ele>121.19999999999999</ele><time>2026-04-11T15:22:01.458Z</time></trkpt><trkpt lat="43.4585613" lon="11.1577959"><ele>121.0</ele><time>2026-04-11T15:22:03.445Z</time></trkpt><trkpt lat="43.4584815" lon="11.1577471"><ele>121.00000000000001</ele><time>2026-04-11T15:22:05.444Z</time></trkpt><trkpt lat="43.4584161" lon="11.1576878"><ele>121.0</ele><time>2026-04-11T15:22:07.46Z</time></trkpt><trkpt lat="43.4583523" lon="11.1576177"><ele>121.0</ele><time>2026-04-11T15:22:09.444Z</time></trkpt><trkpt lat="43.4582823" lon="11.1575485"><ele>121.0</ele><time>2026-04-11T15:22:11.451Z</time></trkpt><trkpt lat="43.4582074" lon="11.1574844"><ele>121.00000000000001</ele><time>2026-04-11T15:22:13.457Z</time></trkpt><trkpt lat="43.4581315" lon="11.1574153"><ele>121.0</ele><time>2026-04-11T15:22:15.453Z</time></trkpt><trkpt lat="43.4580617" lon="11.1573503"><ele>120.50000000000001</ele><time>2026-04-11T15:22:17.459Z</time></trkpt><trkpt lat="43.4579837" lon="11.1572842"><ele>120.0</ele><time>2026-04-11T15:22:19.446Z</time></trkpt><trkpt lat="43.4579072" lon="11.1572126"><ele>119.5</ele><time>2026-04-11T15:22:21.451Z</time></trkpt><trkpt lat="43.4578295" lon="11.1571389"><ele>119.0</ele><time>2026-04-11T15:22:23.457Z</time></trkpt><trkpt lat="43.4577634" lon="11.1570709"><ele>118.50000000000001</ele><time>2026-04-11T15:22:25.445Z</time></trkpt><trkpt lat="43.4576852" lon="11.1570272"><ele>118.0</ele><time>2026-04-11T15:22:28.464Z</time></trkpt><trkpt lat="43.4576394" lon="11.1570929"><ele>118.00000000000001</ele><time>2026-04-11T15:22:30.465Z</time></trkpt><trkpt lat="43.4576205" lon="11.1572391"><ele>118.0</ele><time>2026-04-11T15:22:32.468Z</time></trkpt><trkpt lat="43.4575867" lon="11.157399"><ele>118.0</ele><time>2026-04-11T15:22:34.455Z</time></trkpt><trkpt lat="43.4575767" lon="11.1574926"><ele>118.0</ele><time>2026-04-11T15:22:35.452Z</time></trkpt><trkpt lat="43.4575684" lon="11.1575933"><ele>118.00000000000001</ele><time>2026-04-11T15:22:36.454Z</time></trkpt><trkpt lat="43.4575689" lon="11.1576859"><ele>118.0</ele><time>2026-04-11T15:22:37.448Z</time></trkpt><trkpt lat="43.4575881" lon="11.1577687"><ele>117.16666666666667</ele><time>2026-04-11T15:22:38.437Z</time></trkpt><trkpt lat="43.4576221" lon="11.1578487"><ele>116.33333333333334</ele><time>2026-04-11T15:22:39.456Z</time></trkpt><trkpt lat="43.4576579" lon="11.1579273"><ele>115.5</ele><time>2026-04-11T15:22:40.454Z</time></trkpt><trkpt lat="43.4576894" lon="11.1580078"><ele>114.66666666666666</ele><time>2026-04-11T15:22:41.45Z</time></trkpt><trkpt lat="43.4577327" lon="11.1581632"><ele>113.83333333333333</ele><time>2026-04-11T15:22:43.457Z</time></trkpt><trkpt lat="43.4577656" lon="11.1583302"><ele>113.0</ele><time>2026-04-11T15:22:45.464Z</time></trkpt><trkpt lat="43.4577754" lon="11.1584228"><ele>111.80000000000001</ele><time>2026-04-11T15:22:46.458Z</time></trkpt><trkpt lat="43.4577413" lon="11.1585812"><ele>110.60000000000001</ele><time>2026-04-11T15:22:48.472Z</time></trkpt><trkpt lat="43.457692" lon="11.1586392"><ele>109.39999999999999</ele><time>2026-04-11T15:22:49.448Z</time></trkpt><trkpt lat="43.457636" lon="11.1586813"><ele>108.19999999999999</ele><time>2026-04-11T15:22:50.44Z</time></trkpt><trkpt lat="43.4575353" lon="11.1587625"><ele>107.0</ele><time>2026-04-11T15:22:52.456Z</time></trkpt><trkpt lat="43.4574236" lon="11.1587692"><ele>107.0</ele><time>2026-04-11T15:22:54.462Z</time></trkpt><trkpt lat="43.4573604" lon="11.1587517"><ele>106.99999999999999</ele><time>2026-04-11T15:22:55.461Z</time></trkpt><trkpt lat="43.457297" lon="11.1587374"><ele>106.99999999999999</ele><time>2026-04-11T15:22:56.442Z</time></trkpt><trkpt lat="43.4571777" lon="11.1587112"><ele>107.0</ele><time>2026-04-11T15:22:58.461Z</time></trkpt><trkpt lat="43.4570603" lon="11.1586976"><ele>107.0</ele><time>2026-04-11T15:23:00.456Z</time></trkpt><trkpt lat="43.4569569" lon="11.1586681"><ele>106.83333333333333</ele><time>2026-04-11T15:23:02.447Z</time></trkpt><trkpt lat="43.4568565" lon="11.1586538"><ele>106.66666666666666</ele><time>2026-04-11T15:23:04.454Z</time></trkpt><trkpt lat="43.456777" lon="11.1586583"><ele>106.5</ele><time>2026-04-11T15:23:06.465Z</time></trkpt><trkpt lat="43.4567127" lon="11.1586566"><ele>106.33333333333334</ele><time>2026-04-11T15:23:09.448Z</time></trkpt><trkpt lat="43.4566659" lon="11.1585663"><ele>106.16666666666667</ele><time>2026-04-11T15:23:12.45Z</time></trkpt><trkpt lat="43.4566297" lon="11.1584507"><ele>106.0</ele><time>2026-04-11T15:23:14.451Z</time></trkpt><trkpt lat="43.4565628" lon="11.1583358"><ele>106.0</ele><time>2026-04-11T15:23:16.446Z</time></trkpt><trkpt lat="43.4565022" lon="11.1582968"><ele>106.0</ele><time>2026-04-11T15:23:17.436Z</time></trkpt><trkpt lat="43.456389" lon="11.1582231"><ele>106.0</ele><time>2026-04-11T15:23:19.452Z</time></trkpt><trkpt lat="43.4562872" lon="11.1581533"><ele>106.0</ele><time>2026-04-11T15:23:21.475Z</time></trkpt><trkpt lat="43.4561838" lon="11.1580962"><ele>106.0</ele><time>2026-04-11T15:23:23.459Z</time></trkpt><trkpt lat="43.45608" lon="11.1580727"><ele>106.19999999999999</ele><time>2026-04-11T15:23:25.438Z</time></trkpt><trkpt lat="43.4559723" lon="11.1580534"><ele>106.39999999999999</ele><time>2026-04-11T15:23:27.457Z</time></trkpt><trkpt lat="43.4558708" lon="11.1580236"><ele>106.6</ele><time>2026-04-11T15:23:29.462Z</time></trkpt><trkpt lat="43.4557704" lon="11.1580156"><ele>106.8</ele><time>2026-04-11T15:23:31.44Z</time></trkpt><trkpt lat="43.4556799" lon="11.1580111"><ele>107.0</ele><time>2026-04-11T15:23:33.459Z</time></trkpt><trkpt lat="43.4556034" lon="11.158008"><ele>106.99999999999999</ele><time>2026-04-11T15:23:35.458Z</time></trkpt><trkpt lat="43.455511" lon="11.1579996"><ele>107.0</ele><time>2026-04-11T15:23:38.462Z</time></trkpt><trkpt lat="43.4554469" lon="11.1580057"><ele>107.0</ele><time>2026-04-11T15:23:40.45Z</time></trkpt><trkpt lat="43.4553632" lon="11.1580016"><ele>107.0</ele><time>2026-04-11T15:23:42.449Z</time></trkpt><trkpt lat="43.4552891" lon="11.1579755"><ele>106.99999999999999</ele><time>2026-04-11T15:23:44.461Z</time></trkpt><trkpt lat="43.4552288" lon="11.1579224"><ele>107.0</ele><time>2026-04-11T15:23:46.437Z</time></trkpt><trkpt lat="43.4551715" lon="11.1578501"><ele>107.19999999999999</ele><time>2026-04-11T15:23:48.443Z</time></trkpt><trkpt lat="43.4551095" lon="11.157771"><ele>107.39999999999999</ele><time>2026-04-11T15:23:50.459Z</time></trkpt><trkpt lat="43.4550468" lon="11.1576833"><ele>107.60000000000001</ele><time>2026-04-11T15:23:52.451Z</time></trkpt><trkpt lat="43.4549852" lon="11.15758"><ele>107.80000000000001</ele><time>2026-04-11T15:23:54.453Z</time></trkpt><trkpt lat="43.4549132" lon="11.1574716"><ele>108.0</ele><time>2026-04-11T15:23:56.438Z</time></trkpt><trkpt lat="43.4548388" lon="11.1573592"><ele>107.60000000000001</ele><time>2026-04-11T15:23:58.443Z</time></trkpt><trkpt lat="43.4547626" lon="11.1572503"><ele>107.20000000000002</ele><time>2026-04-11T15:24:00.444Z</time></trkpt><trkpt lat="43.4546895" lon="11.1571435"><ele>106.8</ele><time>2026-04-11T15:24:02.448Z</time></trkpt><trkpt lat="43.4546161" lon="11.1570495"><ele>106.4</ele><time>2026-04-11T15:24:04.463Z</time></trkpt><trkpt lat="43.4545453" lon="11.1569533"><ele>106.0</ele><time>2026-04-11T15:24:06.457Z</time></trkpt><trkpt lat="43.4544831" lon="11.1568564"><ele>106.19999999999999</ele><time>2026-04-11T15:24:08.474Z</time></trkpt><trkpt lat="43.4544222" lon="11.1567591"><ele>106.39999999999999</ele><time>2026-04-11T15:24:10.449Z</time></trkpt><trkpt lat="43.4543591" lon="11.1566633"><ele>106.6</ele><time>2026-04-11T15:24:12.46Z</time></trkpt><trkpt lat="43.4542921" lon="11.1565681"><ele>106.8</ele><time>2026-04-11T15:24:14.446Z</time></trkpt><trkpt lat="43.4542267" lon="11.156472"><ele>107.0</ele><time>2026-04-11T15:24:16.444Z</time></trkpt><trkpt lat="43.4541537" lon="11.1563783"><ele>107.0</ele><time>2026-04-11T15:24:18.46Z</time></trkpt><trkpt lat="43.4540791" lon="11.1562894"><ele>106.99999999999999</ele><time>2026-04-11T15:24:20.451Z</time></trkpt><trkpt lat="43.4540075" lon="11.1561997"><ele>106.99999999999999</ele><time>2026-04-11T15:24:22.444Z</time></trkpt><trkpt lat="43.4539395" lon="11.1561166"><ele>107.0</ele><time>2026-04-11T15:24:24.437Z</time></trkpt><trkpt lat="43.4538885" lon="11.1560243"><ele>107.0</ele><time>2026-04-11T15:24:26.447Z</time></trkpt><trkpt lat="43.4538247" lon="11.1559274"><ele>107.33333333333333</ele><time>2026-04-11T15:24:28.45Z</time></trkpt><trkpt lat="43.4537588" lon="11.1558464"><ele>107.66666666666666</ele><time>2026-04-11T15:24:30.44Z</time></trkpt><trkpt lat="43.4536905" lon="11.1557804"><ele>108.0</ele><time>2026-04-11T15:24:32.446Z</time></trkpt><trkpt lat="43.4536485" lon="11.1556888"><ele>108.33333333333334</ele><time>2026-04-11T15:24:34.451Z</time></trkpt><trkpt lat="43.453659" lon="11.1555771"><ele>108.66666666666667</ele><time>2026-04-11T15:24:36.444Z</time></trkpt><trkpt lat="43.4536918" lon="11.1554701"><ele>109.0</ele><time>2026-04-11T15:24:38.46Z</time></trkpt><trkpt lat="43.4536789" lon="11.155356"><ele>109.00000000000001</ele><time>2026-04-11T15:24:40.453Z</time></trkpt><trkpt lat="43.4536029" lon="11.1552809"><ele>109.0</ele><time>2026-04-11T15:24:42.465Z</time></trkpt><trkpt lat="43.4535173" lon="11.1552522"><ele>109.0</ele><time>2026-04-11T15:24:44.449Z</time></trkpt><trkpt lat="43.4534312" lon="11.1552097"><ele>109.0</ele><time>2026-04-11T15:24:47.447Z</time></trkpt><trkpt lat="43.4533831" lon="11.1551525"><ele>109.00000000000001</ele><time>2026-04-11T15:24:49.452Z</time></trkpt><trkpt lat="43.453321" lon="11.1551131"><ele>109.0</ele><time>2026-04-11T15:24:51.465Z</time></trkpt><trkpt lat="43.4532443" lon="11.1550671"><ele>109.0</ele><time>2026-04-11T15:24:53.448Z</time></trkpt><trkpt lat="43.4531669" lon="11.1549972"><ele>109.0</ele><time>2026-04-11T15:24:55.454Z</time></trkpt><trkpt lat="43.4530882" lon="11.1549294"><ele>109.0</ele><time>2026-04-11T15:24:57.459Z</time></trkpt><trkpt lat="43.4530144" lon="11.1548534"><ele>109.0</ele><time>2026-04-11T15:24:59.457Z</time></trkpt><trkpt lat="43.4529453" lon="11.1547887"><ele>109.0</ele><time>2026-04-11T15:25:01.45Z</time></trkpt><trkpt lat="43.4528655" lon="11.1547151"><ele>108.83333333333334</ele><time>2026-04-11T15:25:03.456Z</time></trkpt><trkpt lat="43.4527895" lon="11.1546332"><ele>108.66666666666667</ele><time>2026-04-11T15:25:05.445Z</time></trkpt><trkpt lat="43.452719" lon="11.1545541"><ele>108.5</ele><time>2026-04-11T15:25:07.452Z</time></trkpt><trkpt lat="43.4526577" lon="11.1544769"><ele>108.33333333333334</ele><time>2026-04-11T15:25:09.456Z</time></trkpt><trkpt lat="43.4526038" lon="11.1543907"><ele>108.16666666666667</ele><time>2026-04-11T15:25:11.452Z</time></trkpt><trkpt lat="43.4525746" lon="11.1543089"><ele>108.0</ele><time>2026-04-11T15:25:13.448Z</time></trkpt><trkpt lat="43.4525539" lon="11.1542123"><ele>108.0</ele><time>2026-04-11T15:25:15.441Z</time></trkpt><trkpt lat="43.4525337" lon="11.1540973"><ele>108.0</ele><time>2026-04-11T15:25:17.445Z</time></trkpt><trkpt lat="43.4525162" lon="11.1539748"><ele>108.0</ele><time>2026-04-11T15:25:19.444Z</time></trkpt><trkpt lat="43.452499" lon="11.1538535"><ele>108.0</ele><time>2026-04-11T15:25:21.45Z</time></trkpt><trkpt lat="43.452483" lon="11.1537355"><ele>108.0</ele><time>2026-04-11T15:25:23.459Z</time></trkpt><trkpt lat="43.4524642" lon="11.1536239"><ele>108.0</ele><time>2026-04-11T15:25:25.45Z</time></trkpt><trkpt lat="43.4524411" lon="11.1535011"><ele>108.0</ele><time>2026-04-11T15:25:27.44Z</time></trkpt><trkpt lat="43.4524178" lon="11.153384"><ele>108.0</ele><time>2026-04-11T15:25:29.454Z</time></trkpt><trkpt lat="43.4523991" lon="11.1532807"><ele>108.0</ele><time>2026-04-11T15:25:31.449Z</time></trkpt><trkpt lat="43.4523802" lon="11.1531761"><ele>108.0</ele><time>2026-04-11T15:25:33.446Z</time></trkpt><trkpt lat="43.4523482" lon="11.1530622"><ele>108.0</ele><time>2026-04-11T15:25:35.444Z</time></trkpt><trkpt lat="43.4523026" lon="11.1529294"><ele>108.0</ele><time>2026-04-11T15:25:37.459Z</time></trkpt><trkpt lat="43.4522986" lon="11.1528072"><ele>108.5</ele><time>2026-04-11T15:25:39.452Z</time></trkpt><trkpt lat="43.4522804" lon="11.1527127"><ele>109.0</ele><time>2026-04-11T15:25:41.46Z</time></trkpt><trkpt lat="43.4522025" lon="11.1526401"><ele>109.5</ele><time>2026-04-11T15:25:43.453Z</time></trkpt><trkpt lat="43.4521298" lon="11.1525777"><ele>110.0</ele><time>2026-04-11T15:25:45.459Z</time></trkpt><trkpt lat="43.4520661" lon="11.1525246"><ele>110.5</ele><time>2026-04-11T15:25:47.456Z</time></trkpt><trkpt lat="43.452001" lon="11.1524644"><ele>111.0</ele><time>2026-04-11T15:25:49.452Z</time></trkpt><trkpt lat="43.4519392" lon="11.1524032"><ele>111.5</ele><time>2026-04-11T15:25:51.445Z</time></trkpt><trkpt lat="43.4518976" lon="11.1522906"><ele>112.0</ele><time>2026-04-11T15:25:54.459Z</time></trkpt><trkpt lat="43.4518859" lon="11.1521857"><ele>112.5</ele><time>2026-04-11T15:25:56.453Z</time></trkpt><trkpt lat="43.4518812" lon="11.1520642"><ele>113.0</ele><time>2026-04-11T15:25:58.456Z</time></trkpt><trkpt lat="43.4518534" lon="11.1519453"><ele>113.5</ele><time>2026-04-11T15:26:00.448Z</time></trkpt><trkpt lat="43.4517959" lon="11.1518422"><ele>114.0</ele><time>2026-04-11T15:26:02.448Z</time></trkpt><trkpt lat="43.4517269" lon="11.1517605"><ele>114.0</ele><time>2026-04-11T15:26:04.451Z</time></trkpt><trkpt lat="43.4516484" lon="11.1516897"><ele>114.0</ele><time>2026-04-11T15:26:06.446Z</time></trkpt><trkpt lat="43.451571" lon="11.1516254"><ele>114.0</ele><time>2026-04-11T15:26:08.464Z</time></trkpt><trkpt lat="43.451496" lon="11.1515712"><ele>114.0</ele><time>2026-04-11T15:26:10.453Z</time></trkpt><trkpt lat="43.4514383" lon="11.1515161"><ele>114.0</ele><time>2026-04-11T15:26:12.461Z</time></trkpt><trkpt lat="43.4513827" lon="11.1514484"><ele>114.0</ele><time>2026-04-11T15:26:14.459Z</time></trkpt><trkpt lat="43.4513242" lon="11.1513969"><ele>113.33333333333333</ele><time>2026-04-11T15:26:16.462Z</time></trkpt><trkpt lat="43.4512507" lon="11.1513546"><ele>112.66666666666666</ele><time>2026-04-11T15:26:18.453Z</time></trkpt><trkpt lat="43.4511639" lon="11.1512874"><ele>112.0</ele><time>2026-04-11T15:26:20.445Z</time></trkpt><trkpt lat="43.4510993" lon="11.1512335"><ele>111.33333333333333</ele><time>2026-04-11T15:26:22.47Z</time></trkpt><trkpt lat="43.4510292" lon="11.1511536"><ele>110.66666666666666</ele><time>2026-04-11T15:26:24.456Z</time></trkpt><trkpt lat="43.45099" lon="11.1510857"><ele>110.0</ele><time>2026-04-11T15:26:25.453Z</time></trkpt><trkpt lat="43.4509473" lon="11.1510113"><ele>109.99999999999999</ele><time>2026-04-11T15:26:26.454Z</time></trkpt><trkpt lat="43.4508998" lon="11.1509398"><ele>110.0</ele><time>2026-04-11T15:26:27.465Z</time></trkpt><trkpt lat="43.4508468" lon="11.1508735"><ele>110.0</ele><time>2026-04-11T15:26:28.443Z</time></trkpt><trkpt lat="43.4507892" lon="11.1508165"><ele>110.0</ele><time>2026-04-11T15:26:29.451Z</time></trkpt><trkpt lat="43.4507279" lon="11.1507712"><ele>110.0</ele><time>2026-04-11T15:26:30.451Z</time></trkpt><trkpt lat="43.4506658" lon="11.1507363"><ele>109.99999999999999</ele><time>2026-04-11T15:26:31.446Z</time></trkpt><trkpt lat="43.450605" lon="11.1507067"><ele>110.0</ele><time>2026-04-11T15:26:32.461Z</time></trkpt><trkpt lat="43.4505429" lon="11.1506814"><ele>110.25</ele><time>2026-04-11T15:26:33.464Z</time></trkpt><trkpt lat="43.4504214" lon="11.1506568"><ele>110.5</ele><time>2026-04-11T15:26:35.458Z</time></trkpt><trkpt lat="43.4503022" lon="11.1506346"><ele>110.75</ele><time>2026-04-11T15:26:37.456Z</time></trkpt><trkpt lat="43.4501921" lon="11.1506551"><ele>111.0</ele><time>2026-04-11T15:26:39.446Z</time></trkpt><trkpt lat="43.4501014" lon="11.1506965"><ele>111.0</ele><time>2026-04-11T15:26:41.457Z</time></trkpt><trkpt lat="43.4500046" lon="11.1507508"><ele>111.0</ele><time>2026-04-11T15:26:43.452Z</time></trkpt><trkpt lat="43.4499106" lon="11.1508349"><ele>111.0</ele><time>2026-04-11T15:26:45.456Z</time></trkpt><trkpt lat="43.4498259" lon="11.1509363"><ele>111.0</ele><time>2026-04-11T15:26:47.459Z</time></trkpt><trkpt lat="43.4497418" lon="11.1510372"><ele>111.0</ele><time>2026-04-11T15:26:49.448Z</time></trkpt><trkpt lat="43.4496469" lon="11.1511301"><ele>111.4</ele><time>2026-04-11T15:26:51.458Z</time></trkpt><trkpt lat="43.4495489" lon="11.1511881"><ele>111.8</ele><time>2026-04-11T15:26:53.445Z</time></trkpt><trkpt lat="43.4494476" lon="11.1512638"><ele>112.20000000000002</ele><time>2026-04-11T15:26:55.462Z</time></trkpt><trkpt lat="43.4493647" lon="11.1513617"><ele>112.60000000000001</ele><time>2026-04-11T15:26:57.457Z</time></trkpt><trkpt lat="43.4492881" lon="11.151455"><ele>113.0</ele><time>2026-04-11T15:26:59.449Z</time></trkpt><trkpt lat="43.4492157" lon="11.1515547"><ele>113.0</ele><time>2026-04-11T15:27:01.463Z</time></trkpt><trkpt lat="43.4491437" lon="11.1516582"><ele>113.00000000000001</ele><time>2026-04-11T15:27:03.459Z</time></trkpt><trkpt lat="43.4490676" lon="11.1517585"><ele>113.00000000000001</ele><time>2026-04-11T15:27:05.441Z</time></trkpt><trkpt lat="43.4489934" lon="11.1518564"><ele>113.0</ele><time>2026-04-11T15:27:07.454Z</time></trkpt><trkpt lat="43.4489136" lon="11.1519489"><ele>113.0</ele><time>2026-04-11T15:27:09.461Z</time></trkpt><trkpt lat="43.4488273" lon="11.1520255"><ele>113.2</ele><time>2026-04-11T15:27:11.46Z</time></trkpt><trkpt lat="43.4487437" lon="11.1520925"><ele>113.4</ele><time>2026-04-11T15:27:13.46Z</time></trkpt><trkpt lat="43.4486589" lon="11.1521501"><ele>113.60000000000001</ele><time>2026-04-11T15:27:15.458Z</time></trkpt><trkpt lat="43.4485707" lon="11.1521886"><ele>113.80000000000001</ele><time>2026-04-11T15:27:17.451Z</time></trkpt><trkpt lat="43.4484847" lon="11.1522117"><ele>114.0</ele><time>2026-04-11T15:27:19.447Z</time></trkpt><trkpt lat="43.4484079" lon="11.1522324"><ele>114.0</ele><time>2026-04-11T15:27:21.448Z</time></trkpt><trkpt lat="43.4483395" lon="11.1522476"><ele>114.0</ele><time>2026-04-11T15:27:23.438Z</time></trkpt><trkpt lat="43.4482594" lon="11.1522613"><ele>114.0</ele><time>2026-04-11T15:27:26.466Z</time></trkpt><trkpt lat="43.4481829" lon="11.1522841"><ele>114.0</ele><time>2026-04-11T15:27:29.439Z</time></trkpt><trkpt lat="43.4481187" lon="11.1523065"><ele>114.0</ele><time>2026-04-11T15:27:31.455Z</time></trkpt><trkpt lat="43.4480434" lon="11.1523326"><ele>114.0</ele><time>2026-04-11T15:27:33.452Z</time></trkpt><trkpt lat="43.4479634" lon="11.1523448"><ele>114.0</ele><time>2026-04-11T15:27:35.455Z</time></trkpt><trkpt lat="43.447865" lon="11.1523585"><ele>114.0</ele><time>2026-04-11T15:27:37.455Z</time></trkpt><trkpt lat="43.4477586" lon="11.1523804"><ele>114.0</ele><time>2026-04-11T15:27:39.438Z</time></trkpt><trkpt lat="43.4476453" lon="11.1524004"><ele>114.0</ele><time>2026-04-11T15:27:41.462Z</time></trkpt><trkpt lat="43.4475345" lon="11.1524265"><ele>114.0</ele><time>2026-04-11T15:27:43.472Z</time></trkpt><trkpt lat="43.4474296" lon="11.1524601"><ele>114.0</ele><time>2026-04-11T15:27:45.461Z</time></trkpt><trkpt lat="43.4473228" lon="11.1524897"><ele>114.0</ele><time>2026-04-11T15:27:47.455Z</time></trkpt><trkpt lat="43.4472214" lon="11.1525132"><ele>114.0</ele><time>2026-04-11T15:27:49.462Z</time></trkpt><trkpt lat="43.447117" lon="11.1525328"><ele>114.0</ele><time>2026-04-11T15:27:51.452Z</time></trkpt><trkpt lat="43.4470124" lon="11.1525612"><ele>114.0</ele><time>2026-04-11T15:27:53.453Z</time></trkpt><trkpt lat="43.4469094" lon="11.1525803"><ele>113.6</ele><time>2026-04-11T15:27:55.453Z</time></trkpt><trkpt lat="43.4468059" lon="11.1525983"><ele>113.2</ele><time>2026-04-11T15:27:57.444Z</time></trkpt><trkpt lat="43.4467024" lon="11.1526179"><ele>112.79999999999998</ele><time>2026-04-11T15:27:59.463Z</time></trkpt><trkpt lat="43.4466" lon="11.1526488"><ele>112.39999999999999</ele><time>2026-04-11T15:28:01.45Z</time></trkpt><trkpt lat="43.4464978" lon="11.1526719"><ele>112.0</ele><time>2026-04-11T15:28:03.459Z</time></trkpt><trkpt lat="43.4463956" lon="11.152686"><ele>112.0</ele><time>2026-04-11T15:28:05.468Z</time></trkpt><trkpt lat="43.4462969" lon="11.1526813"><ele>111.99999999999999</ele><time>2026-04-11T15:28:07.471Z</time></trkpt><trkpt lat="43.4461993" lon="11.1526454"><ele>111.99999999999999</ele><time>2026-04-11T15:28:09.446Z</time></trkpt><trkpt lat="43.4460991" lon="11.1525861"><ele>112.0</ele><time>2026-04-11T15:28:11.468Z</time></trkpt><trkpt lat="43.4460102" lon="11.1525162"><ele>112.0</ele><time>2026-04-11T15:28:13.461Z</time></trkpt><trkpt lat="43.4459325" lon="11.1524356"><ele>112.19999999999999</ele><time>2026-04-11T15:28:15.45Z</time></trkpt><trkpt lat="43.4458681" lon="11.1523306"><ele>112.39999999999999</ele><time>2026-04-11T15:28:17.453Z</time></trkpt><trkpt lat="43.4458015" lon="11.1522154"><ele>112.60000000000001</ele><time>2026-04-11T15:28:19.468Z</time></trkpt><trkpt lat="43.4457275" lon="11.1521095"><ele>112.80000000000001</ele><time>2026-04-11T15:28:21.458Z</time></trkpt><trkpt lat="43.4456296" lon="11.1520357"><ele>113.0</ele><time>2026-04-11T15:28:23.466Z</time></trkpt><trkpt lat="43.4455142" lon="11.1520019"><ele>112.80000000000001</ele><time>2026-04-11T15:28:25.456Z</time></trkpt><trkpt lat="43.445398" lon="11.1519983"><ele>112.60000000000001</ele><time>2026-04-11T15:28:27.443Z</time></trkpt><trkpt lat="43.4452932" lon="11.1520038"><ele>112.39999999999999</ele><time>2026-04-11T15:28:29.468Z</time></trkpt><trkpt lat="43.4451869" lon="11.1520157"><ele>112.19999999999999</ele><time>2026-04-11T15:28:31.464Z</time></trkpt><trkpt lat="43.4450722" lon="11.1520357"><ele>112.0</ele><time>2026-04-11T15:28:33.476Z</time></trkpt><trkpt lat="43.4449582" lon="11.1520388"><ele>112.0</ele><time>2026-04-11T15:28:35.454Z</time></trkpt><trkpt lat="43.44485" lon="11.1520408"><ele>111.99999999999999</ele><time>2026-04-11T15:28:37.458Z</time></trkpt><trkpt lat="43.4447402" lon="11.1520509"><ele>111.99999999999999</ele><time>2026-04-11T15:28:39.477Z</time></trkpt><trkpt lat="43.4446345" lon="11.1520644"><ele>112.0</ele><time>2026-04-11T15:28:41.464Z</time></trkpt><trkpt lat="43.444525" lon="11.1520774"><ele>112.0</ele><time>2026-04-11T15:28:43.455Z</time></trkpt><trkpt lat="43.4444184" lon="11.1520855"><ele>112.33333333333334</ele><time>2026-04-11T15:28:45.471Z</time></trkpt><trkpt lat="43.4443469" lon="11.1520841"><ele>112.66666666666667</ele><time>2026-04-11T15:29:18.452Z</time></trkpt><trkpt lat="43.4442739" lon="11.1520863"><ele>113.0</ele><time>2026-04-11T15:29:20.456Z</time></trkpt><trkpt lat="43.4442016" lon="11.1521115"><ele>113.33333333333334</ele><time>2026-04-11T15:29:22.457Z</time></trkpt><trkpt lat="43.4441323" lon="11.1521897"><ele>113.66666666666667</ele><time>2026-04-11T15:29:24.455Z</time></trkpt><trkpt lat="43.4440669" lon="11.1522773"><ele>114.0</ele><time>2026-04-11T15:29:26.459Z</time></trkpt><trkpt lat="43.4440026" lon="11.1523546"><ele>113.5</ele><time>2026-04-11T15:29:28.461Z</time></trkpt><trkpt lat="43.4439308" lon="11.1524311"><ele>113.0</ele><time>2026-04-11T15:29:30.459Z</time></trkpt><trkpt lat="43.4438619" lon="11.1524862"><ele>112.5</ele><time>2026-04-11T15:29:32.469Z</time></trkpt><trkpt lat="43.4437775" lon="11.1525143"><ele>112.0</ele><time>2026-04-11T15:29:34.468Z</time></trkpt><trkpt lat="43.4436873" lon="11.1525292"><ele>111.5</ele><time>2026-04-11T15:29:36.462Z</time></trkpt><trkpt lat="43.4435944" lon="11.1525254"><ele>111.0</ele><time>2026-04-11T15:29:38.451Z</time></trkpt><trkpt lat="43.4435052" lon="11.152512"><ele>111.0</ele><time>2026-04-11T15:29:40.456Z</time></trkpt><trkpt lat="43.4434159" lon="11.1524951"><ele>111.0</ele><time>2026-04-11T15:29:42.456Z</time></trkpt><trkpt lat="43.4433324" lon="11.1524815"><ele>111.0</ele><time>2026-04-11T15:29:44.454Z</time></trkpt><trkpt lat="43.4432364" lon="11.1524987"><ele>111.0</ele><time>2026-04-11T15:29:46.455Z</time></trkpt><trkpt lat="43.4431468" lon="11.152548"><ele>111.0</ele><time>2026-04-11T15:29:48.448Z</time></trkpt><trkpt lat="43.4430573" lon="11.1526064"><ele>111.0</ele><time>2026-04-11T15:29:50.455Z</time></trkpt><trkpt lat="43.4429701" lon="11.1526948"><ele>111.0</ele><time>2026-04-11T15:29:52.462Z</time></trkpt><trkpt lat="43.4428923" lon="11.1527923"><ele>111.0</ele><time>2026-04-11T15:29:54.467Z</time></trkpt><trkpt lat="43.4428162" lon="11.1528895"><ele>111.0</ele><time>2026-04-11T15:29:56.463Z</time></trkpt><trkpt lat="43.442753" lon="11.1529971"><ele>111.0</ele><time>2026-04-11T15:29:58.452Z</time></trkpt><trkpt lat="43.4426981" lon="11.1531163"><ele>111.8</ele><time>2026-04-11T15:30:00.467Z</time></trkpt><trkpt lat="43.4426392" lon="11.1532254"><ele>112.6</ele><time>2026-04-11T15:30:02.462Z</time></trkpt><trkpt lat="43.4425781" lon="11.1533258"><ele>113.4</ele><time>2026-04-11T15:30:04.466Z</time></trkpt><trkpt lat="43.4424946" lon="11.1534049"><ele>114.2</ele><time>2026-04-11T15:30:06.46Z</time></trkpt><trkpt lat="43.4424171" lon="11.1534803"><ele>115.0</ele><time>2026-04-11T15:30:08.462Z</time></trkpt><trkpt lat="43.4423399" lon="11.1535662"><ele>115.0</ele><time>2026-04-11T15:30:10.456Z</time></trkpt><trkpt lat="43.4422595" lon="11.1536644"><ele>115.0</ele><time>2026-04-11T15:30:12.466Z</time></trkpt><trkpt lat="43.4421809" lon="11.1537554"><ele>115.0</ele><time>2026-04-11T15:30:14.46Z</time></trkpt><trkpt lat="43.4420896" lon="11.1538214"><ele>115.0</ele><time>2026-04-11T15:30:16.448Z</time></trkpt><trkpt lat="43.4419897" lon="11.1538695"><ele>115.0</ele><time>2026-04-11T15:30:18.458Z</time></trkpt><trkpt lat="43.4418875" lon="11.1539047"><ele>114.8</ele><time>2026-04-11T15:30:20.462Z</time></trkpt><trkpt lat="43.4417785" lon="11.1539416"><ele>114.6</ele><time>2026-04-11T15:30:22.452Z</time></trkpt><trkpt lat="43.4416738" lon="11.153967"><ele>114.4</ele><time>2026-04-11T15:30:24.459Z</time></trkpt><trkpt lat="43.4415698" lon="11.153969"><ele>114.2</ele><time>2026-04-11T15:30:26.453Z</time></trkpt><trkpt lat="43.4414737" lon="11.153906"><ele>114.0</ele><time>2026-04-11T15:30:28.449Z</time></trkpt><trkpt lat="43.4413901" lon="11.1538123"><ele>114.0</ele><time>2026-04-11T15:30:30.453Z</time></trkpt><trkpt lat="43.4413144" lon="11.1537032"><ele>114.0</ele><time>2026-04-11T15:30:32.456Z</time></trkpt><trkpt lat="43.4412455" lon="11.1536046"><ele>114.0</ele><time>2026-04-11T15:30:34.458Z</time></trkpt><trkpt lat="43.4411718" lon="11.1535161"><ele>114.0</ele><time>2026-04-11T15:30:36.464Z</time></trkpt><trkpt lat="43.4410797" lon="11.1534463"><ele>114.0</ele><time>2026-04-11T15:30:38.464Z</time></trkpt><trkpt lat="43.4409725" lon="11.1534178"><ele>114.2</ele><time>2026-04-11T15:30:40.454Z</time></trkpt><trkpt lat="43.4408619" lon="11.1534169"><ele>114.4</ele><time>2026-04-11T15:30:42.461Z</time></trkpt><trkpt lat="43.4407552" lon="11.1534349"><ele>114.6</ele><time>2026-04-11T15:30:44.463Z</time></trkpt><trkpt lat="43.4406556" lon="11.1534653"><ele>114.8</ele><time>2026-04-11T15:30:46.462Z</time></trkpt><trkpt lat="43.4405501" lon="11.1535012"><ele>115.0</ele><time>2026-04-11T15:30:48.457Z</time></trkpt><trkpt lat="43.4404585" lon="11.1535486"><ele>115.2</ele><time>2026-04-11T15:30:50.443Z</time></trkpt><trkpt lat="43.4403772" lon="11.1536138"><ele>115.4</ele><time>2026-04-11T15:30:52.461Z</time></trkpt><trkpt lat="43.4402972" lon="11.1536801"><ele>115.6</ele><time>2026-04-11T15:30:54.454Z</time></trkpt><trkpt lat="43.4402147" lon="11.1537438"><ele>115.8</ele><time>2026-04-11T15:30:56.451Z</time></trkpt><trkpt lat="43.440125" lon="11.1537899"><ele>116.0</ele><time>2026-04-11T15:30:58.447Z</time></trkpt><trkpt lat="43.4400353" lon="11.1538535"><ele>116.0</ele><time>2026-04-11T15:31:00.447Z</time></trkpt><trkpt lat="43.439942" lon="11.1539319"><ele>116.0</ele><time>2026-04-11T15:31:02.441Z</time></trkpt><trkpt lat="43.4398501" lon="11.1540089"><ele>116.0</ele><time>2026-04-11T15:31:04.469Z</time></trkpt><trkpt lat="43.4397599" lon="11.1540839"><ele>116.0</ele><time>2026-04-11T15:31:06.463Z</time></trkpt><trkpt lat="43.4396624" lon="11.1541601"><ele>116.0</ele><time>2026-04-11T15:31:08.444Z</time></trkpt><trkpt lat="43.4395686" lon="11.1542437"><ele>116.4</ele><time>2026-04-11T15:31:10.46Z</time></trkpt><trkpt lat="43.439472" lon="11.1543223"><ele>116.8</ele><time>2026-04-11T15:31:12.459Z</time></trkpt><trkpt lat="43.4393727" lon="11.1544055"><ele>117.20000000000002</ele><time>2026-04-11T15:31:14.465Z</time></trkpt><trkpt lat="43.4392825" lon="11.1544961"><ele>117.60000000000001</ele><time>2026-04-11T15:31:16.458Z</time></trkpt><trkpt lat="43.4392029" lon="11.1545992"><ele>118.0</ele><time>2026-04-11T15:31:18.46Z</time></trkpt><trkpt lat="43.4391359" lon="11.1547232"><ele>118.0</ele><time>2026-04-11T15:31:20.444Z</time></trkpt><trkpt lat="43.4390663" lon="11.1548526"><ele>118.0</ele><time>2026-04-11T15:31:22.441Z</time></trkpt><trkpt lat="43.4389947" lon="11.154972"><ele>118.0</ele><time>2026-04-11T15:31:24.452Z</time></trkpt><trkpt lat="43.4389206" lon="11.155087"><ele>118.0</ele><time>2026-04-11T15:31:26.474Z</time></trkpt><trkpt lat="43.4388504" lon="11.155205"><ele>119.4</ele><time>2026-04-11T15:31:28.454Z</time></trkpt><trkpt lat="43.4387719" lon="11.1553203"><ele>120.80000000000001</ele><time>2026-04-11T15:31:30.454Z</time></trkpt><trkpt lat="43.4387029" lon="11.1554506"><ele>122.2</ele><time>2026-04-11T15:31:32.456Z</time></trkpt><trkpt lat="43.4386758" lon="11.1556072"><ele>123.6</ele><time>2026-04-11T15:31:34.454Z</time></trkpt><trkpt lat="43.4386775" lon="11.155694"><ele>125.0</ele><time>2026-04-11T15:31:35.459Z</time></trkpt><trkpt lat="43.4387043" lon="11.1558622"><ele>125.0</ele><time>2026-04-11T15:31:37.475Z</time></trkpt><trkpt lat="43.4387607" lon="11.1560092"><ele>125.0</ele><time>2026-04-11T15:31:39.458Z</time></trkpt><trkpt lat="43.4388222" lon="11.1561521"><ele>125.0</ele><time>2026-04-11T15:31:41.465Z</time></trkpt><trkpt lat="43.4388865" lon="11.1562981"><ele>125.0</ele><time>2026-04-11T15:31:43.45Z</time></trkpt><trkpt lat="43.4389478" lon="11.1564329"><ele>123.4</ele><time>2026-04-11T15:31:45.445Z</time></trkpt><trkpt lat="43.4389993" lon="11.1565694"><ele>121.8</ele><time>2026-04-11T15:31:47.44Z</time></trkpt><trkpt lat="43.439036" lon="11.1567268"><ele>120.19999999999999</ele><time>2026-04-11T15:31:49.44Z</time></trkpt><trkpt lat="43.4390489" lon="11.1568781"><ele>118.6</ele><time>2026-04-11T15:31:51.45Z</time></trkpt><trkpt lat="43.4390464" lon="11.1570156"><ele>117.0</ele><time>2026-04-11T15:31:53.462Z</time></trkpt><trkpt lat="43.4390398" lon="11.1571533"><ele>117.0</ele><time>2026-04-11T15:31:55.466Z</time></trkpt><trkpt lat="43.4390288" lon="11.1572806"><ele>117.0</ele><time>2026-04-11T15:31:57.471Z</time></trkpt><trkpt lat="43.4390209" lon="11.1574043"><ele>117.0</ele><time>2026-04-11T15:31:59.469Z</time></trkpt><trkpt lat="43.4390173" lon="11.1575261"><ele>117.0</ele><time>2026-04-11T15:32:01.469Z</time></trkpt><trkpt lat="43.439007" lon="11.157631"><ele>117.0</ele><time>2026-04-11T15:32:03.455Z</time></trkpt><trkpt lat="43.4389896" lon="11.1577427"><ele>117.0</ele><time>2026-04-11T15:32:05.482Z</time></trkpt><trkpt lat="43.4389412" lon="11.1578419"><ele>117.83333333333333</ele><time>2026-04-11T15:32:07.473Z</time></trkpt><trkpt lat="43.4388771" lon="11.1579248"><ele>118.66666666666666</ele><time>2026-04-11T15:32:09.451Z</time></trkpt><trkpt lat="43.4388172" lon="11.1580109"><ele>119.5</ele><time>2026-04-11T15:32:11.45Z</time></trkpt><trkpt lat="43.4387595" lon="11.1581072"><ele>120.33333333333333</ele><time>2026-04-11T15:32:13.456Z</time></trkpt><trkpt lat="43.4387075" lon="11.1582061"><ele>121.16666666666666</ele><time>2026-04-11T15:32:15.467Z</time></trkpt><trkpt lat="43.4386493" lon="11.1583054"><ele>122.0</ele><time>2026-04-11T15:32:17.454Z</time></trkpt><trkpt lat="43.4385853" lon="11.1584024"><ele>122.25</ele><time>2026-04-11T15:32:19.449Z</time></trkpt><trkpt lat="43.4385099" lon="11.1585186"><ele>122.5</ele><time>2026-04-11T15:32:21.435Z</time></trkpt><trkpt lat="43.4384384" lon="11.1586399"><ele>122.75</ele><time>2026-04-11T15:32:23.445Z</time></trkpt><trkpt lat="43.4383705" lon="11.1587648"><ele>123.0</ele><time>2026-04-11T15:32:25.461Z</time></trkpt><trkpt lat="43.4383046" lon="11.1588874"><ele>123.0</ele><time>2026-04-11T15:32:27.469Z</time></trkpt><trkpt lat="43.4382377" lon="11.1590151"><ele>123.0</ele><time>2026-04-11T15:32:29.47Z</time></trkpt><trkpt lat="43.4381765" lon="11.1591461"><ele>123.0</ele><time>2026-04-11T15:32:31.446Z</time></trkpt><trkpt lat="43.4381232" lon="11.1592852"><ele>123.0</ele><time>2026-04-11T15:32:33.462Z</time></trkpt><trkpt lat="43.4380686" lon="11.1594255"><ele>123.0</ele><time>2026-04-11T15:32:35.455Z</time></trkpt><trkpt lat="43.4380171" lon="11.1595627"><ele>123.00000000000001</ele><time>2026-04-11T15:32:37.469Z</time></trkpt><trkpt lat="43.4379696" lon="11.1597016"><ele>123.00000000000001</ele><time>2026-04-11T15:32:39.474Z</time></trkpt><trkpt lat="43.4379173" lon="11.1598362"><ele>123.0</ele><time>2026-04-11T15:32:41.527Z</time></trkpt><trkpt lat="43.4378664" lon="11.1599717"><ele>123.0</ele><time>2026-04-11T15:32:43.459Z</time></trkpt><trkpt lat="43.4378136" lon="11.1601033"><ele>122.60000000000001</ele><time>2026-04-11T15:32:45.465Z</time></trkpt><trkpt lat="43.4377605" lon="11.1602312"><ele>122.20000000000002</ele><time>2026-04-11T15:32:47.442Z</time></trkpt><trkpt lat="43.437718" lon="11.1603664"><ele>121.8</ele><time>2026-04-11T15:32:49.441Z</time></trkpt><trkpt lat="43.4376807" lon="11.1605094"><ele>121.4</ele><time>2026-04-11T15:32:51.443Z</time></trkpt><trkpt lat="43.4376492" lon="11.160652"><ele>121.0</ele><time>2026-04-11T15:32:53.464Z</time></trkpt><trkpt lat="43.437615" lon="11.1607888"><ele>121.0</ele><time>2026-04-11T15:32:55.472Z</time></trkpt><trkpt lat="43.4375839" lon="11.1609295"><ele>121.0</ele><time>2026-04-11T15:32:57.468Z</time></trkpt><trkpt lat="43.4375583" lon="11.1610692"><ele>121.0</ele><time>2026-04-11T15:32:59.455Z</time></trkpt><trkpt lat="43.4375364" lon="11.1612104"><ele>121.0</ele><time>2026-04-11T15:33:01.461Z</time></trkpt><trkpt lat="43.4375133" lon="11.1613521"><ele>121.0</ele><time>2026-04-11T15:33:03.474Z</time></trkpt><trkpt lat="43.437491" lon="11.1614998"><ele>120.75</ele><time>2026-04-11T15:33:05.466Z</time></trkpt><trkpt lat="43.4374705" lon="11.1616533"><ele>120.5</ele><time>2026-04-11T15:33:07.444Z</time></trkpt><trkpt lat="43.4374516" lon="11.1618084"><ele>120.25</ele><time>2026-04-11T15:33:09.467Z</time></trkpt><trkpt lat="43.4374323" lon="11.161962"><ele>120.0</ele><time>2026-04-11T15:33:11.458Z</time></trkpt><trkpt lat="43.4374098" lon="11.1621152"><ele>120.0</ele><time>2026-04-11T15:33:13.472Z</time></trkpt><trkpt lat="43.4373865" lon="11.1622644"><ele>120.0</ele><time>2026-04-11T15:33:15.468Z</time></trkpt><trkpt lat="43.4373665" lon="11.1624033"><ele>120.0</ele><time>2026-04-11T15:33:17.468Z</time></trkpt><trkpt lat="43.4373436" lon="11.1625345"><ele>120.0</ele><time>2026-04-11T15:33:19.46Z</time></trkpt><trkpt lat="43.4373247" lon="11.1626596"><ele>120.0</ele><time>2026-04-11T15:33:21.466Z</time></trkpt><trkpt lat="43.4373116" lon="11.1627885"><ele>120.4</ele><time>2026-04-11T15:33:23.473Z</time></trkpt><trkpt lat="43.4373035" lon="11.162922"><ele>120.8</ele><time>2026-04-11T15:33:25.458Z</time></trkpt><trkpt lat="43.437302" lon="11.1630646"><ele>121.19999999999999</ele><time>2026-04-11T15:33:27.44Z</time></trkpt><trkpt lat="43.4373034" lon="11.1632031"><ele>121.6</ele><time>2026-04-11T15:33:29.457Z</time></trkpt><trkpt lat="43.437305" lon="11.1633466"><ele>122.0</ele><time>2026-04-11T15:33:31.46Z</time></trkpt><trkpt lat="43.4373126" lon="11.1634805"><ele>122.0</ele><time>2026-04-11T15:33:33.455Z</time></trkpt><trkpt lat="43.4373208" lon="11.163625"><ele>121.99999999999999</ele><time>2026-04-11T15:33:35.474Z</time></trkpt><trkpt lat="43.4373287" lon="11.1637652"><ele>121.99999999999999</ele><time>2026-04-11T15:33:37.444Z</time></trkpt><trkpt lat="43.4373371" lon="11.1639078"><ele>122.0</ele><time>2026-04-11T15:33:39.472Z</time></trkpt><trkpt lat="43.4373547" lon="11.1640473"><ele>122.0</ele><time>2026-04-11T15:33:41.457Z</time></trkpt><trkpt lat="43.4373787" lon="11.1641946"><ele>122.0</ele><time>2026-04-11T15:33:43.454Z</time></trkpt><trkpt lat="43.43741" lon="11.1643393"><ele>121.99999999999999</ele><time>2026-04-11T15:33:45.465Z</time></trkpt><trkpt lat="43.4374442" lon="11.1644853"><ele>121.99999999999999</ele><time>2026-04-11T15:33:47.466Z</time></trkpt><trkpt lat="43.4374796" lon="11.1646281"><ele>122.0</ele><time>2026-04-11T15:33:49.46Z</time></trkpt><trkpt lat="43.4375217" lon="11.1647753"><ele>122.0</ele><time>2026-04-11T15:33:51.471Z</time></trkpt><trkpt lat="43.4375684" lon="11.1649163"><ele>122.0</ele><time>2026-04-11T15:33:53.458Z</time></trkpt><trkpt lat="43.4376201" lon="11.1650563"><ele>121.99999999999999</ele><time>2026-04-11T15:33:55.461Z</time></trkpt><trkpt lat="43.4376816" lon="11.1651885"><ele>121.99999999999999</ele><time>2026-04-11T15:33:57.459Z</time></trkpt><trkpt lat="43.4377405" lon="11.1653038"><ele>122.0</ele><time>2026-04-11T15:33:59.461Z</time></trkpt><trkpt lat="43.4377983" lon="11.165412"><ele>122.0</ele><time>2026-04-11T15:34:01.465Z</time></trkpt><trkpt lat="43.4378522" lon="11.1655089"><ele>122.0</ele><time>2026-04-11T15:34:03.46Z</time></trkpt><trkpt lat="43.4378997" lon="11.1656064"><ele>121.99999999999999</ele><time>2026-04-11T15:34:05.461Z</time></trkpt><trkpt lat="43.4379495" lon="11.1657127"><ele>121.99999999999999</ele><time>2026-04-11T15:34:07.469Z</time></trkpt><trkpt lat="43.4380005" lon="11.1658222"><ele>122.0</ele><time>2026-04-11T15:34:09.472Z</time></trkpt><trkpt lat="43.4380534" lon="11.165936"><ele>122.0</ele><time>2026-04-11T15:34:11.48Z</time></trkpt><trkpt lat="43.4381048" lon="11.1660391"><ele>122.66666666666666</ele><time>2026-04-11T15:34:13.461Z</time></trkpt><trkpt lat="43.4381609" lon="11.1661401"><ele>123.33333333333333</ele><time>2026-04-11T15:34:15.456Z</time></trkpt><trkpt lat="43.4382263" lon="11.1662244"><ele>124.0</ele><time>2026-04-11T15:34:17.459Z</time></trkpt><trkpt lat="43.4382905" lon="11.1662947"><ele>124.66666666666666</ele><time>2026-04-11T15:34:19.454Z</time></trkpt><trkpt lat="43.4383534" lon="11.1663524"><ele>125.33333333333333</ele><time>2026-04-11T15:34:21.461Z</time></trkpt><trkpt lat="43.4384054" lon="11.1664152"><ele>126.0</ele><time>2026-04-11T15:34:23.454Z</time></trkpt><trkpt lat="43.4384558" lon="11.1664856"><ele>125.66666666666667</ele><time>2026-04-11T15:34:25.461Z</time></trkpt><trkpt lat="43.4385093" lon="11.1665451"><ele>125.33333333333334</ele><time>2026-04-11T15:34:27.461Z</time></trkpt><trkpt lat="43.4385711" lon="11.166589"><ele>125.0</ele><time>2026-04-11T15:34:29.46Z</time></trkpt><trkpt lat="43.4386384" lon="11.1666325"><ele>124.66666666666667</ele><time>2026-04-11T15:34:31.455Z</time></trkpt><trkpt lat="43.4387077" lon="11.1666864"><ele>124.33333333333334</ele><time>2026-04-11T15:34:33.463Z</time></trkpt><trkpt lat="43.4387869" lon="11.1667564"><ele>124.0</ele><time>2026-04-11T15:34:35.458Z</time></trkpt><trkpt lat="43.4388669" lon="11.166828"><ele>125.0</ele><time>2026-04-11T15:34:37.459Z</time></trkpt><trkpt lat="43.4389463" lon="11.1669078"><ele>126.0</ele><time>2026-04-11T15:34:39.46Z</time></trkpt><trkpt lat="43.4390287" lon="11.166982"><ele>127.0</ele><time>2026-04-11T15:34:41.457Z</time></trkpt><trkpt lat="43.4391158" lon="11.1670433"><ele>128.0</ele><time>2026-04-11T15:34:43.467Z</time></trkpt><trkpt lat="43.4392118" lon="11.1670896"><ele>129.0</ele><time>2026-04-11T15:34:45.454Z</time></trkpt><trkpt lat="43.4392958" lon="11.167125"><ele>129.0</ele><time>2026-04-11T15:34:47.468Z</time></trkpt><trkpt lat="43.439371" lon="11.1671687"><ele>129.0</ele><time>2026-04-11T15:34:50.459Z</time></trkpt><trkpt lat="43.4394258" lon="11.1672394"><ele>129.0</ele><time>2026-04-11T15:34:54.473Z</time></trkpt><trkpt lat="43.4394753" lon="11.167297"><ele>129.0</ele><time>2026-04-11T15:34:56.456Z</time></trkpt><trkpt lat="43.4395491" lon="11.1674092"><ele>129.0</ele><time>2026-04-11T15:34:58.461Z</time></trkpt><trkpt lat="43.4396065" lon="11.1674764"><ele>129.0</ele><time>2026-04-11T15:34:59.459Z</time></trkpt><trkpt lat="43.4396714" lon="11.167551"><ele>128.83333333333334</ele><time>2026-04-11T15:35:00.468Z</time></trkpt><trkpt lat="43.4397341" lon="11.1676347"><ele>128.66666666666666</ele><time>2026-04-11T15:35:01.459Z</time></trkpt><trkpt lat="43.4397943" lon="11.1677204"><ele>128.5</ele><time>2026-04-11T15:35:02.47Z</time></trkpt><trkpt lat="43.4398453" lon="11.1678157"><ele>128.33333333333331</ele><time>2026-04-11T15:35:03.462Z</time></trkpt><trkpt lat="43.4398796" lon="11.1679182"><ele>128.16666666666666</ele><time>2026-04-11T15:35:04.463Z</time></trkpt><trkpt lat="43.4398991" lon="11.1680246"><ele>128.0</ele><time>2026-04-11T15:35:05.468Z</time></trkpt><trkpt lat="43.4399307" lon="11.1681218"><ele>127.0</ele><time>2026-04-11T15:35:06.466Z</time></trkpt><trkpt lat="43.439972" lon="11.168204"><ele>126.00000000000001</ele><time>2026-04-11T15:35:07.464Z</time></trkpt><trkpt lat="43.4400146" lon="11.1682778"><ele>125.00000000000001</ele><time>2026-04-11T15:35:08.47Z</time></trkpt><trkpt lat="43.4400934" lon="11.1684065"><ele>124.0</ele><time>2026-04-11T15:35:10.457Z</time></trkpt><trkpt lat="43.4401323" lon="11.1684767"><ele>123.0</ele><time>2026-04-11T15:35:11.465Z</time></trkpt><trkpt lat="43.4401996" lon="11.1686205"><ele>123.0</ele><time>2026-04-11T15:35:13.454Z</time></trkpt><trkpt lat="43.4402525" lon="11.168765"><ele>123.00000000000001</ele><time>2026-04-11T15:35:15.473Z</time></trkpt><trkpt lat="43.4403077" lon="11.1688949"><ele>123.00000000000001</ele><time>2026-04-11T15:35:17.46Z</time></trkpt><trkpt lat="43.4403615" lon="11.1690191"><ele>123.0</ele><time>2026-04-11T15:35:19.462Z</time></trkpt><trkpt lat="43.4404086" lon="11.1691418"><ele>123.0</ele><time>2026-04-11T15:35:21.455Z</time></trkpt><trkpt lat="43.4404555" lon="11.1692718"><ele>125.0</ele><time>2026-04-11T15:35:23.459Z</time></trkpt><trkpt lat="43.4405047" lon="11.1694114"><ele>127.0</ele><time>2026-04-11T15:35:25.455Z</time></trkpt><trkpt lat="43.4405597" lon="11.1695569"><ele>129.0</ele><time>2026-04-11T15:35:27.455Z</time></trkpt><trkpt lat="43.4406162" lon="11.1696968"><ele>131.0</ele><time>2026-04-11T15:35:29.463Z</time></trkpt><trkpt lat="43.4406649" lon="11.1698327"><ele>130.0</ele><time>2026-04-11T15:35:31.459Z</time></trkpt><trkpt lat="43.4407103" lon="11.1699714"><ele>129.0</ele><time>2026-04-11T15:35:33.464Z</time></trkpt><trkpt lat="43.4407542" lon="11.1701045"><ele>128.0</ele><time>2026-04-11T15:35:35.458Z</time></trkpt><trkpt lat="43.4407974" lon="11.170237"><ele>127.0</ele><time>2026-04-11T15:35:37.46Z</time></trkpt><trkpt lat="43.440835" lon="11.1703663"><ele>126.0</ele><time>2026-04-11T15:35:39.471Z</time></trkpt><trkpt lat="43.4408408" lon="11.1705232"><ele>126.0</ele><time>2026-04-11T15:35:41.46Z</time></trkpt><trkpt lat="43.4408265" lon="11.1706181"><ele>126.0</ele><time>2026-04-11T15:35:42.458Z</time></trkpt><trkpt lat="43.4408147" lon="11.1707044"><ele>126.0</ele><time>2026-04-11T15:35:43.461Z</time></trkpt><trkpt lat="43.4407913" lon="11.1708528"><ele>126.0</ele><time>2026-04-11T15:35:45.465Z</time></trkpt><trkpt lat="43.4407866" lon="11.1710034"><ele>126.0</ele><time>2026-04-11T15:35:47.468Z</time></trkpt><trkpt lat="43.440781" lon="11.1711601"><ele>125.6</ele><time>2026-04-11T15:35:49.478Z</time></trkpt><trkpt lat="43.4407731" lon="11.1713078"><ele>125.19999999999999</ele><time>2026-04-11T15:35:51.479Z</time></trkpt><trkpt lat="43.4407633" lon="11.1714366"><ele>124.80000000000001</ele><time>2026-04-11T15:35:53.465Z</time></trkpt><trkpt lat="43.4407326" lon="11.1715637"><ele>124.4</ele><time>2026-04-11T15:35:55.468Z</time></trkpt><trkpt lat="43.4406675" lon="11.1716964"><ele>124.0</ele><time>2026-04-11T15:35:57.473Z</time></trkpt><trkpt lat="43.4405941" lon="11.1718229"><ele>124.0</ele><time>2026-04-11T15:35:59.464Z</time></trkpt><trkpt lat="43.4405173" lon="11.1719466"><ele>124.0</ele><time>2026-04-11T15:36:01.452Z</time></trkpt><trkpt lat="43.4404307" lon="11.1720557"><ele>124.0</ele><time>2026-04-11T15:36:03.445Z</time></trkpt><trkpt lat="43.4403491" lon="11.1721554"><ele>124.0</ele><time>2026-04-11T15:36:05.47Z</time></trkpt><trkpt lat="43.4402722" lon="11.1722426"><ele>124.0</ele><time>2026-04-11T15:36:07.474Z</time></trkpt><trkpt lat="43.4402048" lon="11.172327"><ele>123.4</ele><time>2026-04-11T15:36:09.477Z</time></trkpt><trkpt lat="43.4401366" lon="11.1724073"><ele>122.80000000000001</ele><time>2026-04-11T15:36:11.472Z</time></trkpt><trkpt lat="43.4400627" lon="11.1724817"><ele>122.19999999999999</ele><time>2026-04-11T15:36:13.47Z</time></trkpt><trkpt lat="43.4399911" lon="11.1725493"><ele>121.6</ele><time>2026-04-11T15:36:15.463Z</time></trkpt><trkpt lat="43.439916" lon="11.1726277"><ele>121.0</ele><time>2026-04-11T15:36:17.466Z</time></trkpt><trkpt lat="43.4398456" lon="11.1727012"><ele>121.00000000000001</ele><time>2026-04-11T15:36:19.473Z</time></trkpt><trkpt lat="43.4397739" lon="11.1727769"><ele>121.0</ele><time>2026-04-11T15:36:21.466Z</time></trkpt><trkpt lat="43.4397016" lon="11.1728501"><ele>121.0</ele><time>2026-04-11T15:36:23.466Z</time></trkpt><trkpt lat="43.4396287" lon="11.1729112"><ele>121.0</ele><time>2026-04-11T15:36:25.45Z</time></trkpt><trkpt lat="43.4395523" lon="11.1729568"><ele>121.00000000000001</ele><time>2026-04-11T15:36:27.469Z</time></trkpt><trkpt lat="43.4394724" lon="11.1730051"><ele>121.0</ele><time>2026-04-11T15:36:29.472Z</time></trkpt><trkpt lat="43.4394114" lon="11.1730876"><ele>121.4</ele><time>2026-04-11T15:36:31.46Z</time></trkpt><trkpt lat="43.4393822" lon="11.1732111"><ele>121.8</ele><time>2026-04-11T15:36:33.458Z</time></trkpt><trkpt lat="43.4393768" lon="11.1733565"><ele>122.20000000000002</ele><time>2026-04-11T15:36:35.472Z</time></trkpt><trkpt lat="43.4393867" lon="11.1735013"><ele>122.60000000000001</ele><time>2026-04-11T15:36:37.457Z</time></trkpt><trkpt lat="43.4394126" lon="11.1736391"><ele>123.0</ele><time>2026-04-11T15:36:39.477Z</time></trkpt><trkpt lat="43.4394551" lon="11.1737756"><ele>123.0</ele><time>2026-04-11T15:36:41.46Z</time></trkpt><trkpt lat="43.4394944" lon="11.1739187"><ele>123.0</ele><time>2026-04-11T15:36:43.459Z</time></trkpt><trkpt lat="43.4395274" lon="11.1740655"><ele>123.0</ele><time>2026-04-11T15:36:45.46Z</time></trkpt><trkpt lat="43.4395718" lon="11.1742209"><ele>123.0</ele><time>2026-04-11T15:36:47.47Z</time></trkpt><trkpt lat="43.4396078" lon="11.1743656"><ele>123.0</ele><time>2026-04-11T15:36:49.464Z</time></trkpt><trkpt lat="43.4396209" lon="11.1745076"><ele>123.00000000000001</ele><time>2026-04-11T15:36:51.468Z</time></trkpt><trkpt lat="43.4396192" lon="11.1746514"><ele>123.00000000000001</ele><time>2026-04-11T15:36:53.462Z</time></trkpt><trkpt lat="43.4396097" lon="11.174797"><ele>123.0</ele><time>2026-04-11T15:36:55.456Z</time></trkpt><trkpt lat="43.4395881" lon="11.1749379"><ele>123.0</ele><time>2026-04-11T15:36:57.478Z</time></trkpt><trkpt lat="43.4395556" lon="11.1750761"><ele>123.0</ele><time>2026-04-11T15:36:59.441Z</time></trkpt><trkpt lat="43.4395121" lon="11.1752132"><ele>123.00000000000001</ele><time>2026-04-11T15:37:01.474Z</time></trkpt><trkpt lat="43.439475" lon="11.1753559"><ele>123.00000000000001</ele><time>2026-04-11T15:37:03.461Z</time></trkpt><trkpt lat="43.4394395" lon="11.1754974"><ele>123.0</ele><time>2026-04-11T15:37:05.473Z</time></trkpt><trkpt lat="43.4394082" lon="11.175639"><ele>123.0</ele><time>2026-04-11T15:37:07.46Z</time></trkpt><trkpt lat="43.4393715" lon="11.1757752"><ele>123.0</ele><time>2026-04-11T15:37:09.465Z</time></trkpt><trkpt lat="43.4393494" lon="11.1759141"><ele>123.00000000000001</ele><time>2026-04-11T15:37:11.466Z</time></trkpt><trkpt lat="43.4393277" lon="11.1760472"><ele>123.00000000000001</ele><time>2026-04-11T15:37:13.461Z</time></trkpt><trkpt lat="43.4392945" lon="11.1761851"><ele>123.0</ele><time>2026-04-11T15:37:15.47Z</time></trkpt><trkpt lat="43.4392705" lon="11.176327"><ele>123.0</ele><time>2026-04-11T15:37:17.467Z</time></trkpt><trkpt lat="43.4392513" lon="11.1764639"><ele>123.4</ele><time>2026-04-11T15:37:19.46Z</time></trkpt><trkpt lat="43.4392327" lon="11.1765992"><ele>123.80000000000001</ele><time>2026-04-11T15:37:21.462Z</time></trkpt><trkpt lat="43.4392116" lon="11.1767366"><ele>124.2</ele><time>2026-04-11T15:37:23.467Z</time></trkpt><trkpt lat="43.4391946" lon="11.1768738"><ele>124.6</ele><time>2026-04-11T15:37:25.466Z</time></trkpt><trkpt lat="43.4391894" lon="11.1770165"><ele>125.0</ele><time>2026-04-11T15:37:27.469Z</time></trkpt><trkpt lat="43.4391974" lon="11.1771632"><ele>125.0</ele><time>2026-04-11T15:37:29.46Z</time></trkpt><trkpt lat="43.4392168" lon="11.1773164"><ele>125.0</ele><time>2026-04-11T15:37:31.473Z</time></trkpt><trkpt lat="43.439242" lon="11.1774584"><ele>125.0</ele><time>2026-04-11T15:37:33.46Z</time></trkpt><trkpt lat="43.439261" lon="11.1775914"><ele>125.0</ele><time>2026-04-11T15:37:35.464Z</time></trkpt><trkpt lat="43.4392751" lon="11.1777199"><ele>125.0</ele><time>2026-04-11T15:37:37.469Z</time></trkpt><trkpt lat="43.4392835" lon="11.1778451"><ele>124.99999999999999</ele><time>2026-04-11T15:37:39.461Z</time></trkpt><trkpt lat="43.4392865" lon="11.1779681"><ele>125.0</ele><time>2026-04-11T15:37:41.471Z</time></trkpt><trkpt lat="43.4392823" lon="11.1780803"><ele>125.0</ele><time>2026-04-11T15:37:43.464Z</time></trkpt><trkpt lat="43.439268" lon="11.1781973"><ele>125.0</ele><time>2026-04-11T15:37:45.474Z</time></trkpt><trkpt lat="43.4392271" lon="11.1783084"><ele>124.99999999999999</ele><time>2026-04-11T15:37:47.469Z</time></trkpt><trkpt lat="43.4391795" lon="11.1784254"><ele>125.0</ele><time>2026-04-11T15:37:49.472Z</time></trkpt><trkpt lat="43.4391115" lon="11.1785468"><ele>125.0</ele><time>2026-04-11T15:37:51.463Z</time></trkpt><trkpt lat="43.4390433" lon="11.178655"><ele>125.0</ele><time>2026-04-11T15:37:53.461Z</time></trkpt><trkpt lat="43.4389765" lon="11.1787614"><ele>125.0</ele><time>2026-04-11T15:37:55.464Z</time></trkpt><trkpt lat="43.4389067" lon="11.178868"><ele>125.0</ele><time>2026-04-11T15:37:57.458Z</time></trkpt><trkpt lat="43.4388426" lon="11.1789683"><ele>125.0</ele><time>2026-04-11T15:37:59.479Z</time></trkpt><trkpt lat="43.4387793" lon="11.1790681"><ele>125.0</ele><time>2026-04-11T15:38:01.459Z</time></trkpt><trkpt lat="43.4387035" lon="11.1791459"><ele>125.0</ele><time>2026-04-11T15:38:03.464Z</time></trkpt><trkpt lat="43.4386212" lon="11.1791709"><ele>125.0</ele><time>2026-04-11T15:38:05.458Z</time></trkpt><trkpt lat="43.4385334" lon="11.1791928"><ele>125.0</ele><time>2026-04-11T15:38:07.45Z</time></trkpt><trkpt lat="43.4384393" lon="11.1792182"><ele>125.0</ele><time>2026-04-11T15:38:09.445Z</time></trkpt><trkpt lat="43.4383392" lon="11.179242"><ele>125.0</ele><time>2026-04-11T15:38:11.463Z</time></trkpt><trkpt lat="43.4382395" lon="11.1792594"><ele>125.0</ele><time>2026-04-11T15:38:13.457Z</time></trkpt><trkpt lat="43.438132" lon="11.1792622"><ele>125.0</ele><time>2026-04-11T15:38:15.466Z</time></trkpt><trkpt lat="43.4380208" lon="11.1792504"><ele>125.0</ele><time>2026-04-11T15:38:17.464Z</time></trkpt><trkpt lat="43.437915" lon="11.1792218"><ele>125.0</ele><time>2026-04-11T15:38:19.471Z</time></trkpt><trkpt lat="43.4378033" lon="11.179174"><ele>125.2</ele><time>2026-04-11T15:38:21.476Z</time></trkpt><trkpt lat="43.437704" lon="11.1791275"><ele>125.4</ele><time>2026-04-11T15:38:23.461Z</time></trkpt><trkpt lat="43.4376079" lon="11.1790832"><ele>125.6</ele><time>2026-04-11T15:38:25.48Z</time></trkpt><trkpt lat="43.4375072" lon="11.1790429"><ele>125.8</ele><time>2026-04-11T15:38:27.468Z</time></trkpt><trkpt lat="43.4374046" lon="11.1790058"><ele>126.0</ele><time>2026-04-11T15:38:29.468Z</time></trkpt><trkpt lat="43.4373041" lon="11.1789668"><ele>126.0</ele><time>2026-04-11T15:38:31.47Z</time></trkpt><trkpt lat="43.4372025" lon="11.1789284"><ele>126.0</ele><time>2026-04-11T15:38:33.461Z</time></trkpt><trkpt lat="43.4371107" lon="11.1788804"><ele>126.0</ele><time>2026-04-11T15:38:35.463Z</time></trkpt><trkpt lat="43.4370182" lon="11.1788368"><ele>126.0</ele><time>2026-04-11T15:38:37.462Z</time></trkpt><trkpt lat="43.4369248" lon="11.1787878"><ele>126.0</ele><time>2026-04-11T15:38:39.47Z</time></trkpt><trkpt lat="43.4368301" lon="11.1787431"><ele>126.4</ele><time>2026-04-11T15:38:41.463Z</time></trkpt><trkpt lat="43.4367226" lon="11.1787023"><ele>126.8</ele><time>2026-04-11T15:38:43.46Z</time></trkpt><trkpt lat="43.4366223" lon="11.1786649"><ele>127.20000000000002</ele><time>2026-04-11T15:38:45.46Z</time></trkpt><trkpt lat="43.4365221" lon="11.1786278"><ele>127.60000000000001</ele><time>2026-04-11T15:38:47.466Z</time></trkpt><trkpt lat="43.4364299" lon="11.1785979"><ele>128.0</ele><time>2026-04-11T15:38:49.458Z</time></trkpt><trkpt lat="43.4363391" lon="11.1785721"><ele>129.20000000000002</ele><time>2026-04-11T15:38:51.466Z</time></trkpt><trkpt lat="43.4362451" lon="11.1785536"><ele>130.4</ele><time>2026-04-11T15:38:53.462Z</time></trkpt><trkpt lat="43.436143" lon="11.1785447"><ele>131.60000000000002</ele><time>2026-04-11T15:38:55.469Z</time></trkpt><trkpt lat="43.4360436" lon="11.1785467"><ele>132.8</ele><time>2026-04-11T15:38:57.457Z</time></trkpt><trkpt lat="43.4359431" lon="11.1785571"><ele>134.0</ele><time>2026-04-11T15:38:59.474Z</time></trkpt><trkpt lat="43.4358408" lon="11.1785708"><ele>134.0</ele><time>2026-04-11T15:39:01.458Z</time></trkpt><trkpt lat="43.4357432" lon="11.1785939"><ele>134.0</ele><time>2026-04-11T15:39:03.467Z</time></trkpt><trkpt lat="43.4356503" lon="11.1786074"><ele>134.0</ele><time>2026-04-11T15:39:05.462Z</time></trkpt><trkpt lat="43.4355634" lon="11.1786277"><ele>134.0</ele><time>2026-04-11T15:39:07.46Z</time></trkpt><trkpt lat="43.4354703" lon="11.1786386"><ele>134.0</ele><time>2026-04-11T15:39:09.465Z</time></trkpt><trkpt lat="43.4353737" lon="11.1786528"><ele>133.2</ele><time>2026-04-11T15:39:11.469Z</time></trkpt><trkpt lat="43.4352778" lon="11.1786659"><ele>132.4</ele><time>2026-04-11T15:39:13.46Z</time></trkpt><trkpt lat="43.4351767" lon="11.1786812"><ele>131.6</ele><time>2026-04-11T15:39:15.474Z</time></trkpt><trkpt lat="43.4350749" lon="11.1786995"><ele>130.8</ele><time>2026-04-11T15:39:17.458Z</time></trkpt><trkpt lat="43.4349721" lon="11.1787167"><ele>130.0</ele><time>2026-04-11T15:39:19.462Z</time></trkpt><trkpt lat="43.4348736" lon="11.1787333"><ele>130.0</ele><time>2026-04-11T15:39:21.464Z</time></trkpt><trkpt lat="43.434776" lon="11.178746"><ele>130.0</ele><time>2026-04-11T15:39:23.477Z</time></trkpt><trkpt lat="43.4346753" lon="11.1787616"><ele>130.0</ele><time>2026-04-11T15:39:25.457Z</time></trkpt><trkpt lat="43.434575" lon="11.1787809"><ele>130.0</ele><time>2026-04-11T15:39:27.467Z</time></trkpt><trkpt lat="43.434477" lon="11.1787963"><ele>130.0</ele><time>2026-04-11T15:39:29.47Z</time></trkpt><trkpt lat="43.4343793" lon="11.1788097"><ele>129.8</ele><time>2026-04-11T15:39:31.468Z</time></trkpt><trkpt lat="43.4342769" lon="11.1788281"><ele>129.6</ele><time>2026-04-11T15:39:33.469Z</time></trkpt><trkpt lat="43.4341771" lon="11.1788433"><ele>129.4</ele><time>2026-04-11T15:39:35.467Z</time></trkpt><trkpt lat="43.4340756" lon="11.178856"><ele>129.2</ele><time>2026-04-11T15:39:37.456Z</time></trkpt><trkpt lat="43.4339711" lon="11.1788623"><ele>129.0</ele><time>2026-04-11T15:39:39.462Z</time></trkpt><trkpt lat="43.4338729" lon="11.1788619"><ele>129.16666666666666</ele><time>2026-04-11T15:39:41.46Z</time></trkpt><trkpt lat="43.4337844" lon="11.1788581"><ele>129.33333333333334</ele><time>2026-04-11T15:39:43.474Z</time></trkpt><trkpt lat="43.4337086" lon="11.1788367"><ele>129.5</ele><time>2026-04-11T15:39:45.457Z</time></trkpt><trkpt lat="43.4336461" lon="11.1787935"><ele>129.66666666666669</ele><time>2026-04-11T15:39:47.475Z</time></trkpt><trkpt lat="43.4335787" lon="11.1787402"><ele>129.83333333333334</ele><time>2026-04-11T15:39:49.46Z</time></trkpt><trkpt lat="43.4335131" lon="11.1786735"><ele>130.0</ele><time>2026-04-11T15:39:51.461Z</time></trkpt><trkpt lat="43.4334363" lon="11.1786033"><ele>130.0</ele><time>2026-04-11T15:39:53.47Z</time></trkpt><trkpt lat="43.4333443" lon="11.1785652"><ele>130.0</ele><time>2026-04-11T15:39:55.482Z</time></trkpt><trkpt lat="43.4332508" lon="11.1785532"><ele>130.0</ele><time>2026-04-11T15:39:57.455Z</time></trkpt><trkpt lat="43.4331575" lon="11.1785724"><ele>130.0</ele><time>2026-04-11T15:39:59.487Z</time></trkpt><trkpt lat="43.4330657" lon="11.1786112"><ele>130.0</ele><time>2026-04-11T15:40:01.458Z</time></trkpt><trkpt lat="43.4329815" lon="11.1786668"><ele>130.0</ele><time>2026-04-11T15:40:03.459Z</time></trkpt><trkpt lat="43.4329027" lon="11.1787293"><ele>130.0</ele><time>2026-04-11T15:40:05.459Z</time></trkpt><trkpt lat="43.4328342" lon="11.1787976"><ele>130.0</ele><time>2026-04-11T15:40:07.454Z</time></trkpt><trkpt lat="43.4327756" lon="11.1788632"><ele>130.0</ele><time>2026-04-11T15:40:09.461Z</time></trkpt><trkpt lat="43.432715" lon="11.1789284"><ele>130.0</ele><time>2026-04-11T15:40:11.468Z</time></trkpt><trkpt lat="43.4326508" lon="11.1789882"><ele>130.0</ele><time>2026-04-11T15:40:13.469Z</time></trkpt><trkpt lat="43.4325832" lon="11.1790283"><ele>130.0</ele><time>2026-04-11T15:40:16.454Z</time></trkpt><trkpt lat="43.4325087" lon="11.1790213"><ele>130.0</ele><time>2026-04-11T15:40:21.47Z</time></trkpt><trkpt lat="43.4324305" lon="11.1790202"><ele>130.0</ele><time>2026-04-11T15:40:24.47Z</time></trkpt><trkpt lat="43.4323428" lon="11.1790076"><ele>130.0</ele><time>2026-04-11T15:40:27.469Z</time></trkpt><trkpt lat="43.4322577" lon="11.1789848"><ele>130.0</ele><time>2026-04-11T15:40:30.472Z</time></trkpt><trkpt lat="43.4321801" lon="11.1789526"><ele>130.0</ele><time>2026-04-11T15:40:33.468Z</time></trkpt><trkpt lat="43.4320969" lon="11.178914"><ele>130.5</ele><time>2026-04-11T15:40:36.455Z</time></trkpt><trkpt lat="43.432031" lon="11.1788645"><ele>131.0</ele><time>2026-04-11T15:40:39.459Z</time></trkpt><trkpt lat="43.4319697" lon="11.1788086"><ele>131.5</ele><time>2026-04-11T15:40:43.453Z</time></trkpt><trkpt lat="43.4319179" lon="11.1787441"><ele>132.0</ele><time>2026-04-11T15:40:46.457Z</time></trkpt><trkpt lat="43.4318677" lon="11.1786836"><ele>132.5</ele><time>2026-04-11T15:40:48.459Z</time></trkpt><trkpt lat="43.4317889" lon="11.1786075"><ele>133.0</ele><time>2026-04-11T15:40:50.456Z</time></trkpt><trkpt lat="43.4316995" lon="11.1785343"><ele>133.0</ele><time>2026-04-11T15:40:52.46Z</time></trkpt><trkpt lat="43.4315895" lon="11.1784781"><ele>133.0</ele><time>2026-04-11T15:40:54.459Z</time></trkpt><trkpt lat="43.4314851" lon="11.1784219"><ele>133.0</ele><time>2026-04-11T15:40:56.458Z</time></trkpt><trkpt lat="43.4313899" lon="11.1783697"><ele>133.0</ele><time>2026-04-11T15:40:58.464Z</time></trkpt><trkpt lat="43.4312921" lon="11.178324"><ele>133.0</ele><time>2026-04-11T15:41:00.471Z</time></trkpt><trkpt lat="43.4312039" lon="11.1782817"><ele>132.8</ele><time>2026-04-11T15:41:02.454Z</time></trkpt><trkpt lat="43.4311199" lon="11.1782333"><ele>132.60000000000002</ele><time>2026-04-11T15:41:04.46Z</time></trkpt><trkpt lat="43.4310342" lon="11.1781859"><ele>132.39999999999998</ele><time>2026-04-11T15:41:06.461Z</time></trkpt><trkpt lat="43.4309496" lon="11.1781366"><ele>132.2</ele><time>2026-04-11T15:41:08.463Z</time></trkpt><trkpt lat="43.4308696" lon="11.1780762"><ele>132.0</ele><time>2026-04-11T15:41:10.47Z</time></trkpt><trkpt lat="43.4307945" lon="11.1780182"><ele>131.83333333333334</ele><time>2026-04-11T15:41:12.458Z</time></trkpt><trkpt lat="43.4307201" lon="11.1779515"><ele>131.66666666666666</ele><time>2026-04-11T15:41:14.468Z</time></trkpt><trkpt lat="43.4306494" lon="11.1778904"><ele>131.5</ele><time>2026-04-11T15:41:16.46Z</time></trkpt><trkpt lat="43.4305731" lon="11.1778351"><ele>131.33333333333331</ele><time>2026-04-11T15:41:18.457Z</time></trkpt><trkpt lat="43.4304899" lon="11.1777863"><ele>131.16666666666666</ele><time>2026-04-11T15:41:20.469Z</time></trkpt><trkpt lat="43.4304032" lon="11.1777391"><ele>131.0</ele><time>2026-04-11T15:41:22.465Z</time></trkpt><trkpt lat="43.4303199" lon="11.1776913"><ele>131.0</ele><time>2026-04-11T15:41:24.46Z</time></trkpt><trkpt lat="43.4302365" lon="11.1776436"><ele>131.0</ele><time>2026-04-11T15:41:26.459Z</time></trkpt><trkpt lat="43.4301557" lon="11.1776003"><ele>131.0</ele><time>2026-04-11T15:41:28.469Z</time></trkpt><trkpt lat="43.4300735" lon="11.1775575"><ele>131.0</ele><time>2026-04-11T15:41:30.458Z</time></trkpt><trkpt lat="43.4299952" lon="11.1775167"><ele>131.0</ele><time>2026-04-11T15:41:32.455Z</time></trkpt><trkpt lat="43.429925" lon="11.1774817"><ele>131.0</ele><time>2026-04-11T15:41:34.455Z</time></trkpt><trkpt lat="43.4298519" lon="11.1774584"><ele>131.0</ele><time>2026-04-11T15:41:36.465Z</time></trkpt><trkpt lat="43.4297802" lon="11.1774566"><ele>131.0</ele><time>2026-04-11T15:41:38.473Z</time></trkpt><trkpt lat="43.429688" lon="11.1774769"><ele>131.0</ele><time>2026-04-11T15:41:41.466Z</time></trkpt><trkpt lat="43.4296269" lon="11.1775185"><ele>131.0</ele><time>2026-04-11T15:41:43.449Z</time></trkpt><trkpt lat="43.4295443" lon="11.1775873"><ele>131.0</ele><time>2026-04-11T15:41:46.472Z</time></trkpt><trkpt lat="43.429491" lon="11.1776426"><ele>131.0</ele><time>2026-04-11T15:41:48.473Z</time></trkpt><trkpt lat="43.429438" lon="11.1777135"><ele>131.16666666666666</ele><time>2026-04-11T15:41:50.463Z</time></trkpt><trkpt lat="43.4293991" lon="11.1778057"><ele>131.33333333333331</ele><time>2026-04-11T15:41:52.464Z</time></trkpt><trkpt lat="43.4293634" lon="11.1779141"><ele>131.5</ele><time>2026-04-11T15:41:54.468Z</time></trkpt><trkpt lat="43.4293246" lon="11.17801"><ele>131.66666666666666</ele><time>2026-04-11T15:41:56.468Z</time></trkpt><trkpt lat="43.4292958" lon="11.1781075"><ele>131.83333333333334</ele><time>2026-04-11T15:41:58.475Z</time></trkpt><trkpt lat="43.4292613" lon="11.1781927"><ele>132.0</ele><time>2026-04-11T15:42:00.479Z</time></trkpt><trkpt lat="43.4292345" lon="11.1782756"><ele>132.0</ele><time>2026-04-11T15:42:02.463Z</time></trkpt><trkpt lat="43.4292096" lon="11.1783593"><ele>132.0</ele><time>2026-04-11T15:42:04.468Z</time></trkpt><trkpt lat="43.429182" lon="11.1784725"><ele>132.0</ele><time>2026-04-11T15:42:07.477Z</time></trkpt><trkpt lat="43.4291499" lon="11.1785771"><ele>132.0</ele><time>2026-04-11T15:42:10.476Z</time></trkpt><trkpt lat="43.4291136" lon="11.1786851"><ele>132.0</ele><time>2026-04-11T15:42:13.458Z</time></trkpt><trkpt lat="43.429083" lon="11.1787946"><ele>132.0</ele><time>2026-04-11T15:42:16.469Z</time></trkpt><trkpt lat="43.4290573" lon="11.1788772"><ele>132.0</ele><time>2026-04-11T15:42:19.471Z</time></trkpt><trkpt lat="43.4290179" lon="11.1789765"><ele>132.0</ele><time>2026-04-11T15:42:22.469Z</time></trkpt><trkpt lat="43.4289838" lon="11.1790899"><ele>132.0</ele><time>2026-04-11T15:42:25.459Z</time></trkpt><trkpt lat="43.4289397" lon="11.1792054"><ele>132.0</ele><time>2026-04-11T15:42:28.46Z</time></trkpt><trkpt lat="43.428903" lon="11.1792783"><ele>132.0</ele><time>2026-04-11T15:42:30.459Z</time></trkpt><trkpt lat="43.4288661" lon="11.1793492"><ele>132.0</ele><time>2026-04-11T15:42:32.461Z</time></trkpt><trkpt lat="43.4288084" lon="11.1794295"><ele>132.66666666666666</ele><time>2026-04-11T15:42:35.478Z</time></trkpt><trkpt lat="43.4287409" lon="11.1795037"><ele>133.33333333333334</ele><time>2026-04-11T15:42:38.459Z</time></trkpt><trkpt lat="43.4286691" lon="11.1795853"><ele>134.0</ele><time>2026-04-11T15:42:41.468Z</time></trkpt><trkpt lat="43.4286151" lon="11.1796466"><ele>134.66666666666669</ele><time>2026-04-11T15:42:43.458Z</time></trkpt><trkpt lat="43.4285424" lon="11.179712"><ele>135.33333333333334</ele><time>2026-04-11T15:42:45.462Z</time></trkpt><trkpt lat="43.4284503" lon="11.1797579"><ele>136.0</ele><time>2026-04-11T15:42:47.468Z</time></trkpt><trkpt lat="43.4283397" lon="11.17979"><ele>136.0</ele><time>2026-04-11T15:42:49.474Z</time></trkpt><trkpt lat="43.4282334" lon="11.1798518"><ele>136.0</ele><time>2026-04-11T15:42:51.46Z</time></trkpt><trkpt lat="43.428143" lon="11.1799543"><ele>136.0</ele><time>2026-04-11T15:42:53.468Z</time></trkpt><trkpt lat="43.4280704" lon="11.180062"><ele>136.0</ele><time>2026-04-11T15:42:55.467Z</time></trkpt><trkpt lat="43.4280131" lon="11.1801498"><ele>136.0</ele><time>2026-04-11T15:42:57.478Z</time></trkpt><trkpt lat="43.4279616" lon="11.1802361"><ele>135.99999999999997</ele><time>2026-04-11T15:43:00.459Z</time></trkpt><trkpt lat="43.4279205" lon="11.1803125"><ele>136.0</ele><time>2026-04-11T15:43:03.457Z</time></trkpt><trkpt lat="43.4278816" lon="11.1804082"><ele>136.0</ele><time>2026-04-11T15:43:07.456Z</time></trkpt><trkpt lat="43.4278667" lon="11.1804976"><ele>136.0</ele><time>2026-04-11T15:43:11.459Z</time></trkpt><trkpt lat="43.4278511" lon="11.1805874"><ele>136.0</ele><time>2026-04-11T15:43:16.466Z</time></trkpt><trkpt lat="43.4278304" lon="11.1806726"><ele>135.99999999999997</ele><time>2026-04-11T15:43:21.443Z</time></trkpt><trkpt lat="43.4278078" lon="11.180759"><ele>136.0</ele><time>2026-04-11T15:43:26.461Z</time></trkpt><trkpt lat="43.4277777" lon="11.1808592"><ele>136.99999999999997</ele><time>2026-04-11T15:43:31.466Z</time></trkpt><trkpt lat="43.4277429" lon="11.1809447"><ele>138.0</ele><time>2026-04-11T15:43:35.478Z</time></trkpt><trkpt lat="43.4277067" lon="11.1810279"><ele>139.0</ele><time>2026-04-11T15:43:39.455Z</time></trkpt><trkpt lat="43.4276721" lon="11.181111"><ele>140.0</ele><time>2026-04-11T15:43:43.461Z</time></trkpt><trkpt lat="43.4276333" lon="11.1811933"><ele>141.0</ele><time>2026-04-11T15:43:47.458Z</time></trkpt><trkpt lat="43.4275874" lon="11.1812826"><ele>141.99999999999997</ele><time>2026-04-11T15:43:52.462Z</time></trkpt><trkpt lat="43.4275501" lon="11.1813577"><ele>143.0</ele><time>2026-04-11T15:43:56.465Z</time></trkpt><trkpt lat="43.4275223" lon="11.1814414"><ele>143.83333333333331</ele><time>2026-04-11T15:44:00.452Z</time></trkpt><trkpt lat="43.4275346" lon="11.1815373"><ele>144.66666666666666</ele><time>2026-04-11T15:44:05.474Z</time></trkpt><trkpt lat="43.4275804" lon="11.1816068"><ele>145.5</ele><time>2026-04-11T15:44:11.47Z</time></trkpt><trkpt lat="43.4275124" lon="11.1816423"><ele>146.33333333333334</ele><time>2026-04-11T15:44:22.457Z</time></trkpt><trkpt lat="43.4274347" lon="11.1816832"><ele>147.16666666666669</ele><time>2026-04-11T15:44:26.47Z</time></trkpt><trkpt lat="43.4273636" lon="11.1817342"><ele>148.0</ele><time>2026-04-11T15:44:30.462Z</time></trkpt><trkpt lat="43.4272947" lon="11.18179"><ele>148.0</ele><time>2026-04-11T15:44:35.458Z</time></trkpt><trkpt lat="43.4272186" lon="11.1818348"><ele>148.0</ele><time>2026-04-11T15:44:39.472Z</time></trkpt><trkpt lat="43.4271447" lon="11.1818678"><ele>148.0</ele><time>2026-04-11T15:44:42.465Z</time></trkpt><trkpt lat="43.4270756" lon="11.1818858"><ele>148.0</ele><time>2026-04-11T15:44:44.466Z</time></trkpt><trkpt lat="43.4270003" lon="11.1819033"><ele>148.0</ele><time>2026-04-11T15:44:46.467Z</time></trkpt><trkpt lat="43.4269092" lon="11.1819315"><ele>148.0</ele><time>2026-04-11T15:44:48.467Z</time></trkpt><trkpt lat="43.4268072" lon="11.1819794"><ele>147.5</ele><time>2026-04-11T15:44:50.466Z</time></trkpt><trkpt lat="43.4266898" lon="11.1820226"><ele>147.0</ele><time>2026-04-11T15:44:52.459Z</time></trkpt><trkpt lat="43.4266202" lon="11.1820472"><ele>146.5</ele><time>2026-04-11T15:44:53.466Z</time></trkpt><trkpt lat="43.4265455" lon="11.1820682"><ele>146.0</ele><time>2026-04-11T15:44:54.455Z</time></trkpt><trkpt lat="43.4264661" lon="11.182084"><ele>145.5</ele><time>2026-04-11T15:44:55.46Z</time></trkpt><trkpt lat="43.4263835" lon="11.1820932"><ele>145.0</ele><time>2026-04-11T15:44:56.457Z</time></trkpt><trkpt lat="43.4263025" lon="11.1820964"><ele>145.0</ele><time>2026-04-11T15:44:57.466Z</time></trkpt><trkpt lat="43.4262226" lon="11.1820917"><ele>145.0</ele><time>2026-04-11T15:44:58.464Z</time></trkpt><trkpt lat="43.4261446" lon="11.1820812"><ele>145.0</ele><time>2026-04-11T15:44:59.454Z</time></trkpt><trkpt lat="43.4260687" lon="11.182073"><ele>145.0</ele><time>2026-04-11T15:45:00.479Z</time></trkpt><trkpt lat="43.4259952" lon="11.1820739"><ele>145.0</ele><time>2026-04-11T15:45:01.469Z</time></trkpt><trkpt lat="43.4259217" lon="11.1820834"><ele>145.0</ele><time>2026-04-11T15:45:02.46Z</time></trkpt><trkpt lat="43.4258582" lon="11.1821102"><ele>145.0</ele><time>2026-04-11T15:45:03.467Z</time></trkpt><trkpt lat="43.4258048" lon="11.1821606"><ele>145.0</ele><time>2026-04-11T15:45:04.457Z</time></trkpt><trkpt lat="43.4257623" lon="11.18223"><ele>145.0</ele><time>2026-04-11T15:45:05.454Z</time></trkpt><trkpt lat="43.4257314" lon="11.1823057"><ele>145.0</ele><time>2026-04-11T15:45:06.459Z</time></trkpt><trkpt lat="43.4257053" lon="11.1823851"><ele>145.0</ele><time>2026-04-11T15:45:07.466Z</time></trkpt><trkpt lat="43.4256501" lon="11.1825308"><ele>145.0</ele><time>2026-04-11T15:45:09.464Z</time></trkpt><trkpt lat="43.4256054" lon="11.18265"><ele>145.0</ele><time>2026-04-11T15:45:11.471Z</time></trkpt><trkpt lat="43.425558" lon="11.1827504"><ele>144.57142857142858</ele><time>2026-04-11T15:45:13.458Z</time></trkpt><trkpt lat="43.4255167" lon="11.1828346"><ele>144.14285714285717</ele><time>2026-04-11T15:45:15.466Z</time></trkpt><trkpt lat="43.4254849" lon="11.1829151"><ele>143.71428571428572</ele><time>2026-04-11T15:45:17.464Z</time></trkpt><trkpt lat="43.4254415" lon="11.1830093"><ele>143.28571428571428</ele><time>2026-04-11T15:45:20.46Z</time></trkpt><trkpt lat="43.4254007" lon="11.1830906"><ele>142.85714285714283</ele><time>2026-04-11T15:45:23.458Z</time></trkpt><trkpt lat="43.4253566" lon="11.1831685"><ele>142.42857142857142</ele><time>2026-04-11T15:45:26.464Z</time></trkpt><trkpt lat="43.4253165" lon="11.1832402"><ele>142.0</ele><time>2026-04-11T15:45:29.462Z</time></trkpt><trkpt lat="43.4252639" lon="11.1833109"><ele>143.71428571428572</ele><time>2026-04-11T15:45:33.474Z</time></trkpt><trkpt lat="43.4252" lon="11.1833189"><ele>145.42857142857142</ele><time>2026-04-11T15:45:37.475Z</time></trkpt><trkpt lat="43.425136" lon="11.1832717"><ele>147.14285714285714</ele><time>2026-04-11T15:45:41.461Z</time></trkpt><trkpt lat="43.4250739" lon="11.1832142"><ele>148.85714285714286</ele><time>2026-04-11T15:45:45.473Z</time></trkpt><trkpt lat="43.4250157" lon="11.1831398"><ele>150.57142857142856</ele><time>2026-04-11T15:45:50.462Z</time></trkpt><trkpt lat="43.4249663" lon="11.1830625"><ele>152.28571428571428</ele><time>2026-04-11T15:45:55.468Z</time></trkpt><trkpt lat="43.4249129" lon="11.1829854"><ele>154.0</ele><time>2026-04-11T15:46:03.459Z</time></trkpt><trkpt lat="43.4248656" lon="11.1829157"><ele>155.0</ele><time>2026-04-11T15:46:07.453Z</time></trkpt><trkpt lat="43.4248199" lon="11.1828208"><ele>156.0</ele><time>2026-04-11T15:46:11.47Z</time></trkpt><trkpt lat="43.4247738" lon="11.182731"><ele>157.0</ele><time>2026-04-11T15:46:15.473Z</time></trkpt><trkpt lat="43.4247325" lon="11.1826474"><ele>158.0</ele><time>2026-04-11T15:46:19.47Z</time></trkpt><trkpt lat="43.4246868" lon="11.1825633"><ele>159.0</ele><time>2026-04-11T15:46:23.47Z</time></trkpt><trkpt lat="43.4246421" lon="11.1824999"><ele>160.0</ele><time>2026-04-11T15:46:27.47Z</time></trkpt><trkpt lat="43.4245853" lon="11.1824247"><ele>160.71428571428572</ele><time>2026-04-11T15:46:34.466Z</time></trkpt><trkpt lat="43.424523" lon="11.1824007"><ele>161.42857142857144</ele><time>2026-04-11T15:46:39.467Z</time></trkpt><trkpt lat="43.4244482" lon="11.1823864"><ele>162.14285714285717</ele><time>2026-04-11T15:46:44.476Z</time></trkpt><trkpt lat="43.4243784" lon="11.1823644"><ele>162.85714285714286</ele><time>2026-04-11T15:46:49.461Z</time></trkpt><trkpt lat="43.4243104" lon="11.182336"><ele>163.57142857142858</ele><time>2026-04-11T15:46:54.469Z</time></trkpt><trkpt lat="43.4242425" lon="11.1823048"><ele>164.2857142857143</ele><time>2026-04-11T15:46:59.476Z</time></trkpt><trkpt lat="43.4241869" lon="11.1822613"><ele>165.0</ele><time>2026-04-11T15:47:04.454Z</time></trkpt><trkpt lat="43.4241909" lon="11.182155"><ele>165.0</ele><time>2026-04-11T15:47:09.454Z</time></trkpt><trkpt lat="43.4242016" lon="11.1820661"><ele>165.0</ele><time>2026-04-11T15:47:13.47Z</time></trkpt><trkpt lat="43.4242052" lon="11.1819573"><ele>165.0</ele><time>2026-04-11T15:47:17.459Z</time></trkpt><trkpt lat="43.4242332" lon="11.1818688"><ele>165.0</ele><time>2026-04-11T15:47:20.462Z</time></trkpt><trkpt lat="43.4242851" lon="11.1817539"><ele>165.0</ele><time>2026-04-11T15:47:23.473Z</time></trkpt><trkpt lat="43.4243152" lon="11.1816742"><ele>165.0</ele><time>2026-04-11T15:47:25.46Z</time></trkpt><trkpt lat="43.4243681" lon="11.1815833"><ele>165.16666666666666</ele><time>2026-04-11T15:47:28.462Z</time></trkpt><trkpt lat="43.4244117" lon="11.1814965"><ele>165.33333333333334</ele><time>2026-04-11T15:47:31.469Z</time></trkpt><trkpt lat="43.4244718" lon="11.1814144"><ele>165.5</ele><time>2026-04-11T15:47:34.461Z</time></trkpt><trkpt lat="43.4245151" lon="11.1813446"><ele>165.66666666666669</ele><time>2026-04-11T15:47:36.469Z</time></trkpt><trkpt lat="43.4245497" lon="11.1812695"><ele>165.83333333333334</ele><time>2026-04-11T15:47:38.46Z</time></trkpt><trkpt lat="43.4244635" lon="11.1812236"><ele>166.0</ele><time>2026-04-11T15:47:42.458Z</time></trkpt><trkpt lat="43.424391" lon="11.1812138"><ele>166.0</ele><time>2026-04-11T15:47:44.466Z</time></trkpt><trkpt lat="43.4243048" lon="11.1812208"><ele>166.0</ele><time>2026-04-11T15:47:47.459Z</time></trkpt><trkpt lat="43.4242118" lon="11.1812109"><ele>166.0</ele><time>2026-04-11T15:47:52.472Z</time></trkpt><trkpt lat="43.4241479" lon="11.1812223"><ele>166.0</ele><time>2026-04-11T15:47:54.469Z</time></trkpt><trkpt lat="43.4240854" lon="11.1812402"><ele>166.0</ele><time>2026-04-11T15:47:56.463Z</time></trkpt><trkpt lat="43.4239976" lon="11.1812677"><ele>166.0</ele><time>2026-04-11T15:47:59.478Z</time></trkpt><trkpt lat="43.4239071" lon="11.1812746"><ele>166.0</ele><time>2026-04-11T15:48:02.464Z</time></trkpt><trkpt lat="43.4238273" lon="11.1812871"><ele>166.0</ele><time>2026-04-11T15:48:05.457Z</time></trkpt><trkpt lat="43.4237473" lon="11.1812937"><ele>166.0</ele><time>2026-04-11T15:48:08.464Z</time></trkpt><trkpt lat="43.4236682" lon="11.1812979"><ele>166.0</ele><time>2026-04-11T15:48:11.445Z</time></trkpt><trkpt lat="43.4235958" lon="11.1813068"><ele>166.0</ele><time>2026-04-11T15:48:14.466Z</time></trkpt><trkpt lat="43.4235211" lon="11.1813129"><ele>166.0</ele><time>2026-04-11T15:48:17.482Z</time></trkpt><trkpt lat="43.4234535" lon="11.1813288"><ele>166.33333333333334</ele><time>2026-04-11T15:48:20.477Z</time></trkpt><trkpt lat="43.4233777" lon="11.1813655"><ele>166.66666666666669</ele><time>2026-04-11T15:48:23.455Z</time></trkpt><trkpt lat="43.4233019" lon="11.1813983"><ele>167.0</ele><time>2026-04-11T15:48:26.461Z</time></trkpt><trkpt lat="43.4232186" lon="11.181416"><ele>167.33333333333334</ele><time>2026-04-11T15:48:29.471Z</time></trkpt><trkpt lat="43.4231272" lon="11.1814305"><ele>167.66666666666666</ele><time>2026-04-11T15:48:32.464Z</time></trkpt><trkpt lat="43.4230356" lon="11.1814546"><ele>168.0</ele><time>2026-04-11T15:48:35.469Z</time></trkpt><trkpt lat="43.4229392" lon="11.1814714"><ele>168.28571428571428</ele><time>2026-04-11T15:48:38.466Z</time></trkpt><trkpt lat="43.422877" lon="11.1814922"><ele>168.57142857142856</ele><time>2026-04-11T15:48:40.47Z</time></trkpt><trkpt lat="43.4228142" lon="11.1815219"><ele>168.85714285714286</ele><time>2026-04-11T15:48:42.462Z</time></trkpt><trkpt lat="43.4227491" lon="11.1815338"><ele>169.14285714285714</ele><time>2026-04-11T15:48:44.461Z</time></trkpt><trkpt lat="43.4226824" lon="11.1815446"><ele>169.42857142857142</ele><time>2026-04-11T15:48:46.456Z</time></trkpt><trkpt lat="43.4226187" lon="11.1815523"><ele>169.71428571428572</ele><time>2026-04-11T15:48:48.459Z</time></trkpt><trkpt lat="43.4225333" lon="11.1815736"><ele>170.0</ele><time>2026-04-11T15:48:51.477Z</time></trkpt><trkpt lat="43.4224449" lon="11.1815764"><ele>170.0</ele><time>2026-04-11T15:48:54.461Z</time></trkpt><trkpt lat="43.4223721" lon="11.1815203"><ele>170.0</ele><time>2026-04-11T15:48:57.467Z</time></trkpt><trkpt lat="43.4223389" lon="11.1814058"><ele>170.0</ele><time>2026-04-11T15:49:00.479Z</time></trkpt><trkpt lat="43.4223172" lon="11.181294"><ele>170.0</ele><time>2026-04-11T15:49:03.445Z</time></trkpt><trkpt lat="43.4222737" lon="11.1811938"><ele>170.0</ele><time>2026-04-11T15:49:06.466Z</time></trkpt><trkpt lat="43.4222318" lon="11.1811286"><ele>170.0</ele><time>2026-04-11T15:49:09.462Z</time></trkpt><trkpt lat="43.4221642" lon="11.1811676"><ele>170.0</ele><time>2026-04-11T15:49:13.465Z</time></trkpt><trkpt lat="43.4221113" lon="11.1812167"><ele>174.0</ele><time>2026-04-11T15:49:16.461Z</time></trkpt><trkpt lat="43.4220191" lon="11.1812159"><ele>174.0</ele><time>2026-04-11T15:50:36.455Z</time></trkpt><trkpt lat="43.4219517" lon="11.1811943"><ele>174.0</ele><time>2026-04-11T15:51:29.457Z</time></trkpt><trkpt lat="43.4220163" lon="11.1812162"><ele>174.0</ele><time>2026-04-11T15:52:11.471Z</time></trkpt><trkpt lat="43.4220566" lon="11.1811335"><ele>174.0</ele><time>2026-04-11T15:52:49.455Z</time></trkpt><trkpt lat="43.4220908" lon="11.181217"><ele>174.0</ele><time>2026-04-11T15:53:01.461Z</time></trkpt></trkseg></trk></gpx>